<?xml version="1.0" encoding="UTF-8" standalone="no" ?>
<gpx xmlns="http://www.topografix.com/GPX/1/1" xmlns:xsi="http://www.w3.org/2001/XMLSchema-instance" xsi:schemaLocation="http://www.topografix.com/GPX/1/1 http://www.topografix.com/GPX/1/1/gpx.xsd" version="1.1" creator="VisuGPX - https://www.visugpx.com">
  <metadata>
    <name>Montagne de Musan</name>
    <desc><![CDATA[Montée par le Pas de la Pierre et descente par le Pas Pourceau. Très belle randonnée CAF menée par Philippe, 20 participants ! ]]></desc>
  </metadata>
  <trk>
    <name><![CDATA[23-AVR-17 16:03:27]]></name>
    <trkseg>
      <trkpt lat="44.99146" lon="5.19885">
        <ele>475.99</ele>
        <time>2017-04-23T07:55:54Z</time>
      </trkpt>
      <trkpt lat="44.99146" lon="5.19885">
        <ele>475.51</ele>
        <time>2017-04-23T07:55:55Z</time>
      </trkpt>
      <trkpt lat="44.99149" lon="5.19881">
        <ele>479.84</ele>
        <time>2017-04-23T07:56:13Z</time>
      </trkpt>
      <trkpt lat="44.99149" lon="5.19881">
        <ele>476.95</ele>
        <time>2017-04-23T07:56:15Z</time>
      </trkpt>
      <trkpt lat="44.99148" lon="5.19881">
        <ele>480.32</ele>
        <time>2017-04-23T07:56:17Z</time>
      </trkpt>
      <trkpt lat="44.99148" lon="5.19882">
        <ele>476.95</ele>
        <time>2017-04-23T07:56:18Z</time>
      </trkpt>
      <trkpt lat="44.9915" lon="5.19888">
        <ele>480.8</ele>
        <time>2017-04-23T07:56:44Z</time>
      </trkpt>
      <trkpt lat="44.9915" lon="5.19888">
        <ele>476.47</ele>
        <time>2017-04-23T07:56:45Z</time>
      </trkpt>
      <trkpt lat="44.9915" lon="5.19888">
        <ele>473.11</ele>
        <time>2017-04-23T07:56:46Z</time>
      </trkpt>
      <trkpt lat="44.99151" lon="5.19888">
        <ele>477.43</ele>
        <time>2017-04-23T07:56:47Z</time>
      </trkpt>
      <trkpt lat="44.99151" lon="5.19888">
        <ele>472.14</ele>
        <time>2017-04-23T07:56:48Z</time>
      </trkpt>
      <trkpt lat="44.99151" lon="5.19888">
        <ele>477.91</ele>
        <time>2017-04-23T07:56:49Z</time>
      </trkpt>
      <trkpt lat="44.99151" lon="5.19888">
        <ele>480.8</ele>
        <time>2017-04-23T07:56:53Z</time>
      </trkpt>
      <trkpt lat="44.99151" lon="5.19888">
        <ele>476.95</ele>
        <time>2017-04-23T07:56:54Z</time>
      </trkpt>
      <trkpt lat="44.99152" lon="5.19889">
        <ele>476.47</ele>
        <time>2017-04-23T07:57:13Z</time>
      </trkpt>
      <trkpt lat="44.99153" lon="5.19888">
        <ele>472.14</ele>
        <time>2017-04-23T07:57:19Z</time>
      </trkpt>
      <trkpt lat="44.99153" lon="5.19888">
        <ele>477.43</ele>
        <time>2017-04-23T07:57:20Z</time>
      </trkpt>
      <trkpt lat="44.99153" lon="5.19885">
        <ele>476.47</ele>
        <time>2017-04-23T07:57:35Z</time>
      </trkpt>
      <trkpt lat="44.99152" lon="5.19881">
        <ele>481.76</ele>
        <time>2017-04-23T07:57:57Z</time>
      </trkpt>
      <trkpt lat="44.99152" lon="5.19881">
        <ele>488.01</ele>
        <time>2017-04-23T07:57:59Z</time>
      </trkpt>
      <trkpt lat="44.99152" lon="5.19881">
        <ele>493.29</ele>
        <time>2017-04-23T07:58:01Z</time>
      </trkpt>
      <trkpt lat="44.99152" lon="5.19881">
        <ele>498.1</ele>
        <time>2017-04-23T07:58:03Z</time>
      </trkpt>
      <trkpt lat="44.99152" lon="5.19881">
        <ele>502.91</ele>
        <time>2017-04-23T07:58:05Z</time>
      </trkpt>
      <trkpt lat="44.99152" lon="5.19881">
        <ele>507.71</ele>
        <time>2017-04-23T07:58:07Z</time>
      </trkpt>
      <trkpt lat="44.99152" lon="5.19881">
        <ele>511.56</ele>
        <time>2017-04-23T07:58:09Z</time>
      </trkpt>
      <trkpt lat="44.99152" lon="5.19881">
        <ele>515.4</ele>
        <time>2017-04-23T07:58:11Z</time>
      </trkpt>
      <trkpt lat="44.99152" lon="5.19881">
        <ele>519.25</ele>
        <time>2017-04-23T07:58:13Z</time>
      </trkpt>
      <trkpt lat="44.99152" lon="5.19881">
        <ele>522.61</ele>
        <time>2017-04-23T07:58:15Z</time>
      </trkpt>
      <trkpt lat="44.99152" lon="5.19881">
        <ele>525.5</ele>
        <time>2017-04-23T07:58:17Z</time>
      </trkpt>
      <trkpt lat="44.99152" lon="5.19881">
        <ele>530.3</ele>
        <time>2017-04-23T07:58:20Z</time>
      </trkpt>
      <trkpt lat="44.99152" lon="5.19881">
        <ele>533.67</ele>
        <time>2017-04-23T07:58:23Z</time>
      </trkpt>
      <trkpt lat="44.99152" lon="5.19882">
        <ele>537.51</ele>
        <time>2017-04-23T07:58:26Z</time>
      </trkpt>
      <trkpt lat="44.99151" lon="5.19882">
        <ele>540.4</ele>
        <time>2017-04-23T07:58:29Z</time>
      </trkpt>
      <trkpt lat="44.99151" lon="5.19882">
        <ele>544.24</ele>
        <time>2017-04-23T07:58:33Z</time>
      </trkpt>
      <trkpt lat="44.99151" lon="5.19882">
        <ele>547.61</ele>
        <time>2017-04-23T07:58:37Z</time>
      </trkpt>
      <trkpt lat="44.99151" lon="5.19882">
        <ele>550.97</ele>
        <time>2017-04-23T07:58:42Z</time>
      </trkpt>
      <trkpt lat="44.99151" lon="5.19882">
        <ele>554.82</ele>
        <time>2017-04-23T07:58:48Z</time>
      </trkpt>
      <trkpt lat="44.99151" lon="5.19881">
        <ele>557.7</ele>
        <time>2017-04-23T07:58:51Z</time>
      </trkpt>
      <trkpt lat="44.99151" lon="5.19881">
        <ele>557.22</ele>
        <time>2017-04-23T07:58:52Z</time>
      </trkpt>
      <trkpt lat="44.99151" lon="5.19881">
        <ele>557.7</ele>
        <time>2017-04-23T07:58:53Z</time>
      </trkpt>
      <trkpt lat="44.99149" lon="5.19878">
        <ele>559.62</ele>
        <time>2017-04-23T07:58:56Z</time>
      </trkpt>
      <trkpt lat="44.99148" lon="5.19877">
        <ele>560.11</ele>
        <time>2017-04-23T07:58:57Z</time>
      </trkpt>
      <trkpt lat="44.99147" lon="5.19877">
        <ele>559.62</ele>
        <time>2017-04-23T07:58:59Z</time>
      </trkpt>
      <trkpt lat="44.99146" lon="5.19867">
        <ele>559.14</ele>
        <time>2017-04-23T07:59:03Z</time>
      </trkpt>
      <trkpt lat="44.99144" lon="5.19866">
        <ele>558.66</ele>
        <time>2017-04-23T07:59:05Z</time>
      </trkpt>
      <trkpt lat="44.99131" lon="5.19863">
        <ele>559.14</ele>
        <time>2017-04-23T07:59:18Z</time>
      </trkpt>
      <trkpt lat="44.99126" lon="5.1986">
        <ele>560.11</ele>
        <time>2017-04-23T07:59:25Z</time>
      </trkpt>
      <trkpt lat="44.99123" lon="5.19859">
        <ele>560.59</ele>
        <time>2017-04-23T07:59:28Z</time>
      </trkpt>
      <trkpt lat="44.99114" lon="5.19855">
        <ele>557.22</ele>
        <time>2017-04-23T07:59:34Z</time>
      </trkpt>
      <trkpt lat="44.99113" lon="5.19854">
        <ele>561.55</ele>
        <time>2017-04-23T07:59:35Z</time>
      </trkpt>
      <trkpt lat="44.99111" lon="5.19852">
        <ele>551.93</ele>
        <time>2017-04-23T07:59:37Z</time>
      </trkpt>
      <trkpt lat="44.9911" lon="5.19852">
        <ele>562.51</ele>
        <time>2017-04-23T07:59:38Z</time>
      </trkpt>
      <trkpt lat="44.9911" lon="5.19852">
        <ele>565.39</ele>
        <time>2017-04-23T07:59:39Z</time>
      </trkpt>
      <trkpt lat="44.99108" lon="5.19851">
        <ele>560.59</ele>
        <time>2017-04-23T07:59:42Z</time>
      </trkpt>
      <trkpt lat="44.99107" lon="5.19851">
        <ele>563.47</ele>
        <time>2017-04-23T07:59:43Z</time>
      </trkpt>
      <trkpt lat="44.99105" lon="5.19849">
        <ele>566.83</ele>
        <time>2017-04-23T07:59:45Z</time>
      </trkpt>
      <trkpt lat="44.99103" lon="5.19848">
        <ele>557.7</ele>
        <time>2017-04-23T07:59:46Z</time>
      </trkpt>
      <trkpt lat="44.99102" lon="5.19847">
        <ele>562.99</ele>
        <time>2017-04-23T07:59:47Z</time>
      </trkpt>
      <trkpt lat="44.9909" lon="5.19838">
        <ele>562.03</ele>
        <time>2017-04-23T07:59:58Z</time>
      </trkpt>
      <trkpt lat="44.99088" lon="5.19837">
        <ele>566.35</ele>
        <time>2017-04-23T08:00:00Z</time>
      </trkpt>
      <trkpt lat="44.99087" lon="5.19836">
        <ele>562.99</ele>
        <time>2017-04-23T08:00:01Z</time>
      </trkpt>
      <trkpt lat="44.9907" lon="5.19831">
        <ele>563.95</ele>
        <time>2017-04-23T08:00:16Z</time>
      </trkpt>
      <trkpt lat="44.99063" lon="5.19827">
        <ele>564.43</ele>
        <time>2017-04-23T08:00:23Z</time>
      </trkpt>
      <trkpt lat="44.99053" lon="5.19818">
        <ele>564.91</ele>
        <time>2017-04-23T08:00:30Z</time>
      </trkpt>
      <trkpt lat="44.99039" lon="5.19813">
        <ele>565.87</ele>
        <time>2017-04-23T08:00:43Z</time>
      </trkpt>
      <trkpt lat="44.99023" lon="5.19803">
        <ele>567.32</ele>
        <time>2017-04-23T08:00:59Z</time>
      </trkpt>
      <trkpt lat="44.99018" lon="5.198">
        <ele>567.8</ele>
        <time>2017-04-23T08:01:03Z</time>
      </trkpt>
      <trkpt lat="44.98995" lon="5.19808">
        <ele>568.76</ele>
        <time>2017-04-23T08:01:24Z</time>
      </trkpt>
      <trkpt lat="44.98985" lon="5.19813">
        <ele>568.76</ele>
        <time>2017-04-23T08:01:31Z</time>
      </trkpt>
      <trkpt lat="44.98983" lon="5.19812">
        <ele>568.76</ele>
        <time>2017-04-23T08:01:33Z</time>
      </trkpt>
      <trkpt lat="44.98976" lon="5.19808">
        <ele>569.24</ele>
        <time>2017-04-23T08:01:38Z</time>
      </trkpt>
      <trkpt lat="44.98966" lon="5.19808">
        <ele>569.72</ele>
        <time>2017-04-23T08:01:47Z</time>
      </trkpt>
      <trkpt lat="44.98962" lon="5.1981">
        <ele>570.2</ele>
        <time>2017-04-23T08:01:51Z</time>
      </trkpt>
      <trkpt lat="44.98955" lon="5.19811">
        <ele>570.68</ele>
        <time>2017-04-23T08:01:59Z</time>
      </trkpt>
      <trkpt lat="44.98952" lon="5.19811">
        <ele>570.68</ele>
        <time>2017-04-23T08:02:03Z</time>
      </trkpt>
      <trkpt lat="44.9895" lon="5.1981">
        <ele>570.68</ele>
        <time>2017-04-23T08:02:05Z</time>
      </trkpt>
      <trkpt lat="44.98947" lon="5.19809">
        <ele>570.68</ele>
        <time>2017-04-23T08:02:08Z</time>
      </trkpt>
      <trkpt lat="44.98943" lon="5.19808">
        <ele>571.16</ele>
        <time>2017-04-23T08:02:12Z</time>
      </trkpt>
      <trkpt lat="44.98936" lon="5.19808">
        <ele>571.64</ele>
        <time>2017-04-23T08:02:16Z</time>
      </trkpt>
      <trkpt lat="44.98925" lon="5.19807">
        <ele>572.6</ele>
        <time>2017-04-23T08:02:26Z</time>
      </trkpt>
      <trkpt lat="44.98918" lon="5.19808">
        <ele>573.08</ele>
        <time>2017-04-23T08:02:32Z</time>
      </trkpt>
      <trkpt lat="44.98911" lon="5.19804">
        <ele>574.04</ele>
        <time>2017-04-23T08:02:40Z</time>
      </trkpt>
      <trkpt lat="44.98908" lon="5.19803">
        <ele>574.53</ele>
        <time>2017-04-23T08:02:44Z</time>
      </trkpt>
      <trkpt lat="44.98906" lon="5.19802">
        <ele>574.53</ele>
        <time>2017-04-23T08:02:46Z</time>
      </trkpt>
      <trkpt lat="44.98903" lon="5.19799">
        <ele>574.53</ele>
        <time>2017-04-23T08:02:49Z</time>
      </trkpt>
      <trkpt lat="44.989" lon="5.19797">
        <ele>575.97</ele>
        <time>2017-04-23T08:02:54Z</time>
      </trkpt>
      <trkpt lat="44.98898" lon="5.19794">
        <ele>575.97</ele>
        <time>2017-04-23T08:02:58Z</time>
      </trkpt>
      <trkpt lat="44.98893" lon="5.19787">
        <ele>576.93</ele>
        <time>2017-04-23T08:03:07Z</time>
      </trkpt>
      <trkpt lat="44.98892" lon="5.19786">
        <ele>577.41</ele>
        <time>2017-04-23T08:03:09Z</time>
      </trkpt>
      <trkpt lat="44.98889" lon="5.19786">
        <ele>577.89</ele>
        <time>2017-04-23T08:03:11Z</time>
      </trkpt>
      <trkpt lat="44.98887" lon="5.19785">
        <ele>577.89</ele>
        <time>2017-04-23T08:03:13Z</time>
      </trkpt>
      <trkpt lat="44.98883" lon="5.19786">
        <ele>577.89</ele>
        <time>2017-04-23T08:03:16Z</time>
      </trkpt>
      <trkpt lat="44.98881" lon="5.19783">
        <ele>577.89</ele>
        <time>2017-04-23T08:03:18Z</time>
      </trkpt>
      <trkpt lat="44.98876" lon="5.19779">
        <ele>578.85</ele>
        <time>2017-04-23T08:03:22Z</time>
      </trkpt>
      <trkpt lat="44.98867" lon="5.1977">
        <ele>579.33</ele>
        <time>2017-04-23T08:03:30Z</time>
      </trkpt>
      <trkpt lat="44.98865" lon="5.19768">
        <ele>579.81</ele>
        <time>2017-04-23T08:03:32Z</time>
      </trkpt>
      <trkpt lat="44.98861" lon="5.19764">
        <ele>580.29</ele>
        <time>2017-04-23T08:03:36Z</time>
      </trkpt>
      <trkpt lat="44.98857" lon="5.19762">
        <ele>580.29</ele>
        <time>2017-04-23T08:03:39Z</time>
      </trkpt>
      <trkpt lat="44.98853" lon="5.19758">
        <ele>580.29</ele>
        <time>2017-04-23T08:03:43Z</time>
      </trkpt>
      <trkpt lat="44.98848" lon="5.19757">
        <ele>581.25</ele>
        <time>2017-04-23T08:03:47Z</time>
      </trkpt>
      <trkpt lat="44.98844" lon="5.19757">
        <ele>580.77</ele>
        <time>2017-04-23T08:03:50Z</time>
      </trkpt>
      <trkpt lat="44.98841" lon="5.19757">
        <ele>581.73</ele>
        <time>2017-04-23T08:03:53Z</time>
      </trkpt>
      <trkpt lat="44.98832" lon="5.19754">
        <ele>582.22</ele>
        <time>2017-04-23T08:04:00Z</time>
      </trkpt>
      <trkpt lat="44.98826" lon="5.19755">
        <ele>581.73</ele>
        <time>2017-04-23T08:04:03Z</time>
      </trkpt>
      <trkpt lat="44.98821" lon="5.19754">
        <ele>583.18</ele>
        <time>2017-04-23T08:04:07Z</time>
      </trkpt>
      <trkpt lat="44.98816" lon="5.19756">
        <ele>582.22</ele>
        <time>2017-04-23T08:04:10Z</time>
      </trkpt>
      <trkpt lat="44.98805" lon="5.19749">
        <ele>583.66</ele>
        <time>2017-04-23T08:04:19Z</time>
      </trkpt>
      <trkpt lat="44.98799" lon="5.19745">
        <ele>584.14</ele>
        <time>2017-04-23T08:04:26Z</time>
      </trkpt>
      <trkpt lat="44.98791" lon="5.1974">
        <ele>585.1</ele>
        <time>2017-04-23T08:04:33Z</time>
      </trkpt>
      <trkpt lat="44.98784" lon="5.19738">
        <ele>585.58</ele>
        <time>2017-04-23T08:04:40Z</time>
      </trkpt>
      <trkpt lat="44.98781" lon="5.19736">
        <ele>585.58</ele>
        <time>2017-04-23T08:04:43Z</time>
      </trkpt>
      <trkpt lat="44.98779" lon="5.19735">
        <ele>586.54</ele>
        <time>2017-04-23T08:04:46Z</time>
      </trkpt>
      <trkpt lat="44.98777" lon="5.19734">
        <ele>586.06</ele>
        <time>2017-04-23T08:04:48Z</time>
      </trkpt>
      <trkpt lat="44.98775" lon="5.19733">
        <ele>586.54</ele>
        <time>2017-04-23T08:04:51Z</time>
      </trkpt>
      <trkpt lat="44.98768" lon="5.1973">
        <ele>587.5</ele>
        <time>2017-04-23T08:04:56Z</time>
      </trkpt>
      <trkpt lat="44.98763" lon="5.19728">
        <ele>587.02</ele>
        <time>2017-04-23T08:05:02Z</time>
      </trkpt>
      <trkpt lat="44.98759" lon="5.19728">
        <ele>587.5</ele>
        <time>2017-04-23T08:05:05Z</time>
      </trkpt>
      <trkpt lat="44.98758" lon="5.19727">
        <ele>587.98</ele>
        <time>2017-04-23T08:05:07Z</time>
      </trkpt>
      <trkpt lat="44.98755" lon="5.19726">
        <ele>588.46</ele>
        <time>2017-04-23T08:05:10Z</time>
      </trkpt>
      <trkpt lat="44.98746" lon="5.19721">
        <ele>588.46</ele>
        <time>2017-04-23T08:05:16Z</time>
      </trkpt>
      <trkpt lat="44.98743" lon="5.19719">
        <ele>588.46</ele>
        <time>2017-04-23T08:05:18Z</time>
      </trkpt>
      <trkpt lat="44.98741" lon="5.19719">
        <ele>588.95</ele>
        <time>2017-04-23T08:05:20Z</time>
      </trkpt>
      <trkpt lat="44.98734" lon="5.19716">
        <ele>588.46</ele>
        <time>2017-04-23T08:05:29Z</time>
      </trkpt>
      <trkpt lat="44.98731" lon="5.19716">
        <ele>589.43</ele>
        <time>2017-04-23T08:05:34Z</time>
      </trkpt>
      <trkpt lat="44.98728" lon="5.19714">
        <ele>589.43</ele>
        <time>2017-04-23T08:05:37Z</time>
      </trkpt>
      <trkpt lat="44.98714" lon="5.19718">
        <ele>589.43</ele>
        <time>2017-04-23T08:05:46Z</time>
      </trkpt>
      <trkpt lat="44.98705" lon="5.1972">
        <ele>589.43</ele>
        <time>2017-04-23T08:05:53Z</time>
      </trkpt>
      <trkpt lat="44.98703" lon="5.19723">
        <ele>590.39</ele>
        <time>2017-04-23T08:05:56Z</time>
      </trkpt>
      <trkpt lat="44.98696" lon="5.19728">
        <ele>590.39</ele>
        <time>2017-04-23T08:06:02Z</time>
      </trkpt>
      <trkpt lat="44.98694" lon="5.19732">
        <ele>589.91</ele>
        <time>2017-04-23T08:06:05Z</time>
      </trkpt>
      <trkpt lat="44.9869" lon="5.19738">
        <ele>590.87</ele>
        <time>2017-04-23T08:06:10Z</time>
      </trkpt>
      <trkpt lat="44.98687" lon="5.19741">
        <ele>590.39</ele>
        <time>2017-04-23T08:06:13Z</time>
      </trkpt>
      <trkpt lat="44.98685" lon="5.19746">
        <ele>590.87</ele>
        <time>2017-04-23T08:06:17Z</time>
      </trkpt>
      <trkpt lat="44.98682" lon="5.19752">
        <ele>591.35</ele>
        <time>2017-04-23T08:06:22Z</time>
      </trkpt>
      <trkpt lat="44.98679" lon="5.19755">
        <ele>591.83</ele>
        <time>2017-04-23T08:06:26Z</time>
      </trkpt>
      <trkpt lat="44.98677" lon="5.19761">
        <ele>592.31</ele>
        <time>2017-04-23T08:06:31Z</time>
      </trkpt>
      <trkpt lat="44.9867" lon="5.1977">
        <ele>592.79</ele>
        <time>2017-04-23T08:06:37Z</time>
      </trkpt>
      <trkpt lat="44.98667" lon="5.19773">
        <ele>592.79</ele>
        <time>2017-04-23T08:06:39Z</time>
      </trkpt>
      <trkpt lat="44.98665" lon="5.19775">
        <ele>592.79</ele>
        <time>2017-04-23T08:06:41Z</time>
      </trkpt>
      <trkpt lat="44.98663" lon="5.1978">
        <ele>593.27</ele>
        <time>2017-04-23T08:06:45Z</time>
      </trkpt>
      <trkpt lat="44.9866" lon="5.19781">
        <ele>592.79</ele>
        <time>2017-04-23T08:06:48Z</time>
      </trkpt>
      <trkpt lat="44.98656" lon="5.19784">
        <ele>592.79</ele>
        <time>2017-04-23T08:06:51Z</time>
      </trkpt>
      <trkpt lat="44.98653" lon="5.19785">
        <ele>592.79</ele>
        <time>2017-04-23T08:06:54Z</time>
      </trkpt>
      <trkpt lat="44.98647" lon="5.19793">
        <ele>593.27</ele>
        <time>2017-04-23T08:07:01Z</time>
      </trkpt>
      <trkpt lat="44.98643" lon="5.19798">
        <ele>593.75</ele>
        <time>2017-04-23T08:07:05Z</time>
      </trkpt>
      <trkpt lat="44.9864" lon="5.19802">
        <ele>593.75</ele>
        <time>2017-04-23T08:07:08Z</time>
      </trkpt>
      <trkpt lat="44.98635" lon="5.19809">
        <ele>594.23</ele>
        <time>2017-04-23T08:07:13Z</time>
      </trkpt>
      <trkpt lat="44.98632" lon="5.19812">
        <ele>594.23</ele>
        <time>2017-04-23T08:07:15Z</time>
      </trkpt>
      <trkpt lat="44.98629" lon="5.19816">
        <ele>594.71</ele>
        <time>2017-04-23T08:07:19Z</time>
      </trkpt>
      <trkpt lat="44.98622" lon="5.1982">
        <ele>595.67</ele>
        <time>2017-04-23T08:07:24Z</time>
      </trkpt>
      <trkpt lat="44.9862" lon="5.19823">
        <ele>596.15</ele>
        <time>2017-04-23T08:07:29Z</time>
      </trkpt>
      <trkpt lat="44.98618" lon="5.19827">
        <ele>595.67</ele>
        <time>2017-04-23T08:07:32Z</time>
      </trkpt>
      <trkpt lat="44.98612" lon="5.19835">
        <ele>596.64</ele>
        <time>2017-04-23T08:07:39Z</time>
      </trkpt>
      <trkpt lat="44.9861" lon="5.19838">
        <ele>597.6</ele>
        <time>2017-04-23T08:07:43Z</time>
      </trkpt>
      <trkpt lat="44.98606" lon="5.1984">
        <ele>597.12</ele>
        <time>2017-04-23T08:07:47Z</time>
      </trkpt>
      <trkpt lat="44.986" lon="5.19844">
        <ele>598.08</ele>
        <time>2017-04-23T08:07:58Z</time>
      </trkpt>
      <trkpt lat="44.98598" lon="5.19845">
        <ele>596.64</ele>
        <time>2017-04-23T08:08:20Z</time>
      </trkpt>
      <trkpt lat="44.98598" lon="5.1985">
        <ele>596.15</ele>
        <time>2017-04-23T08:08:44Z</time>
      </trkpt>
      <trkpt lat="44.98597" lon="5.19852">
        <ele>595.19</ele>
        <time>2017-04-23T08:09:03Z</time>
      </trkpt>
      <trkpt lat="44.98593" lon="5.19856">
        <ele>595.19</ele>
        <time>2017-04-23T08:09:06Z</time>
      </trkpt>
      <trkpt lat="44.98591" lon="5.19856">
        <ele>595.19</ele>
        <time>2017-04-23T08:09:08Z</time>
      </trkpt>
      <trkpt lat="44.9859" lon="5.19862">
        <ele>595.19</ele>
        <time>2017-04-23T08:09:12Z</time>
      </trkpt>
      <trkpt lat="44.98582" lon="5.1987">
        <ele>596.15</ele>
        <time>2017-04-23T08:09:18Z</time>
      </trkpt>
      <trkpt lat="44.98578" lon="5.19881">
        <ele>596.15</ele>
        <time>2017-04-23T08:09:25Z</time>
      </trkpt>
      <trkpt lat="44.98575" lon="5.19887">
        <ele>596.64</ele>
        <time>2017-04-23T08:09:30Z</time>
      </trkpt>
      <trkpt lat="44.9857" lon="5.19898">
        <ele>597.6</ele>
        <time>2017-04-23T08:09:38Z</time>
      </trkpt>
      <trkpt lat="44.98567" lon="5.19906">
        <ele>598.08</ele>
        <time>2017-04-23T08:09:42Z</time>
      </trkpt>
      <trkpt lat="44.98563" lon="5.19909">
        <ele>598.56</ele>
        <time>2017-04-23T08:09:45Z</time>
      </trkpt>
      <trkpt lat="44.98562" lon="5.19912">
        <ele>598.56</ele>
        <time>2017-04-23T08:09:47Z</time>
      </trkpt>
      <trkpt lat="44.98556" lon="5.19916">
        <ele>599.04</ele>
        <time>2017-04-23T08:09:53Z</time>
      </trkpt>
      <trkpt lat="44.98549" lon="5.19921">
        <ele>600</ele>
        <time>2017-04-23T08:09:59Z</time>
      </trkpt>
      <trkpt lat="44.98547" lon="5.19924">
        <ele>600</ele>
        <time>2017-04-23T08:10:01Z</time>
      </trkpt>
      <trkpt lat="44.98541" lon="5.19927">
        <ele>599.52</ele>
        <time>2017-04-23T08:10:08Z</time>
      </trkpt>
      <trkpt lat="44.98531" lon="5.19934">
        <ele>600</ele>
        <time>2017-04-23T08:10:15Z</time>
      </trkpt>
      <trkpt lat="44.98526" lon="5.19935">
        <ele>600.48</ele>
        <time>2017-04-23T08:10:20Z</time>
      </trkpt>
      <trkpt lat="44.98518" lon="5.19935">
        <ele>601.44</ele>
        <time>2017-04-23T08:10:27Z</time>
      </trkpt>
      <trkpt lat="44.98512" lon="5.19932">
        <ele>601.92</ele>
        <time>2017-04-23T08:10:33Z</time>
      </trkpt>
      <trkpt lat="44.98509" lon="5.19928">
        <ele>602.88</ele>
        <time>2017-04-23T08:10:36Z</time>
      </trkpt>
      <trkpt lat="44.98504" lon="5.19924">
        <ele>603.85</ele>
        <time>2017-04-23T08:10:43Z</time>
      </trkpt>
      <trkpt lat="44.98499" lon="5.19919">
        <ele>604.81</ele>
        <time>2017-04-23T08:10:47Z</time>
      </trkpt>
      <trkpt lat="44.98493" lon="5.19916">
        <ele>605.77</ele>
        <time>2017-04-23T08:10:53Z</time>
      </trkpt>
      <trkpt lat="44.98491" lon="5.19916">
        <ele>605.77</ele>
        <time>2017-04-23T08:10:55Z</time>
      </trkpt>
      <trkpt lat="44.98488" lon="5.19913">
        <ele>606.73</ele>
        <time>2017-04-23T08:10:58Z</time>
      </trkpt>
      <trkpt lat="44.98485" lon="5.19912">
        <ele>606.73</ele>
        <time>2017-04-23T08:11:00Z</time>
      </trkpt>
      <trkpt lat="44.98478" lon="5.1991">
        <ele>607.69</ele>
        <time>2017-04-23T08:11:08Z</time>
      </trkpt>
      <trkpt lat="44.98476" lon="5.19909">
        <ele>608.65</ele>
        <time>2017-04-23T08:11:13Z</time>
      </trkpt>
      <trkpt lat="44.98473" lon="5.19908">
        <ele>609.13</ele>
        <time>2017-04-23T08:11:15Z</time>
      </trkpt>
      <trkpt lat="44.98469" lon="5.19909">
        <ele>609.61</ele>
        <time>2017-04-23T08:11:19Z</time>
      </trkpt>
      <trkpt lat="44.98463" lon="5.19905">
        <ele>610.57</ele>
        <time>2017-04-23T08:11:28Z</time>
      </trkpt>
      <trkpt lat="44.98462" lon="5.19905">
        <ele>611.06</ele>
        <time>2017-04-23T08:11:30Z</time>
      </trkpt>
      <trkpt lat="44.98458" lon="5.19903">
        <ele>611.54</ele>
        <time>2017-04-23T08:11:33Z</time>
      </trkpt>
      <trkpt lat="44.98443" lon="5.19898">
        <ele>612.98</ele>
        <time>2017-04-23T08:11:45Z</time>
      </trkpt>
      <trkpt lat="44.98442" lon="5.19897">
        <ele>613.46</ele>
        <time>2017-04-23T08:11:46Z</time>
      </trkpt>
      <trkpt lat="44.98439" lon="5.19896">
        <ele>613.46</ele>
        <time>2017-04-23T08:11:49Z</time>
      </trkpt>
      <trkpt lat="44.98436" lon="5.19895">
        <ele>613.94</ele>
        <time>2017-04-23T08:11:52Z</time>
      </trkpt>
      <trkpt lat="44.98434" lon="5.19894">
        <ele>613.94</ele>
        <time>2017-04-23T08:11:54Z</time>
      </trkpt>
      <trkpt lat="44.98431" lon="5.19893">
        <ele>614.42</ele>
        <time>2017-04-23T08:11:57Z</time>
      </trkpt>
      <trkpt lat="44.98429" lon="5.19892">
        <ele>615.86</ele>
        <time>2017-04-23T08:12:01Z</time>
      </trkpt>
      <trkpt lat="44.98427" lon="5.19892">
        <ele>615.86</ele>
        <time>2017-04-23T08:12:03Z</time>
      </trkpt>
      <trkpt lat="44.9842" lon="5.1989">
        <ele>615.86</ele>
        <time>2017-04-23T08:12:08Z</time>
      </trkpt>
      <trkpt lat="44.98416" lon="5.19889">
        <ele>616.82</ele>
        <time>2017-04-23T08:12:13Z</time>
      </trkpt>
      <trkpt lat="44.98415" lon="5.19889">
        <ele>617.3</ele>
        <time>2017-04-23T08:12:15Z</time>
      </trkpt>
      <trkpt lat="44.98414" lon="5.19889">
        <ele>616.82</ele>
        <time>2017-04-23T08:12:17Z</time>
      </trkpt>
      <trkpt lat="44.98409" lon="5.19887">
        <ele>619.23</ele>
        <time>2017-04-23T08:12:23Z</time>
      </trkpt>
      <trkpt lat="44.98405" lon="5.19886">
        <ele>619.23</ele>
        <time>2017-04-23T08:12:26Z</time>
      </trkpt>
      <trkpt lat="44.98395" lon="5.19877">
        <ele>620.67</ele>
        <time>2017-04-23T08:12:36Z</time>
      </trkpt>
      <trkpt lat="44.98392" lon="5.19875">
        <ele>621.63</ele>
        <time>2017-04-23T08:12:40Z</time>
      </trkpt>
      <trkpt lat="44.98386" lon="5.1987">
        <ele>622.59</ele>
        <time>2017-04-23T08:12:47Z</time>
      </trkpt>
      <trkpt lat="44.98377" lon="5.19868">
        <ele>623.07</ele>
        <time>2017-04-23T08:12:56Z</time>
      </trkpt>
      <trkpt lat="44.98375" lon="5.19866">
        <ele>623.07</ele>
        <time>2017-04-23T08:12:59Z</time>
      </trkpt>
      <trkpt lat="44.98369" lon="5.19863">
        <ele>623.55</ele>
        <time>2017-04-23T08:13:04Z</time>
      </trkpt>
      <trkpt lat="44.98363" lon="5.1986">
        <ele>624.99</ele>
        <time>2017-04-23T08:13:09Z</time>
      </trkpt>
      <trkpt lat="44.98362" lon="5.1986">
        <ele>624.99</ele>
        <time>2017-04-23T08:13:11Z</time>
      </trkpt>
      <trkpt lat="44.98358" lon="5.1986">
        <ele>624.99</ele>
        <time>2017-04-23T08:13:15Z</time>
      </trkpt>
      <trkpt lat="44.98352" lon="5.19857">
        <ele>625.47</ele>
        <time>2017-04-23T08:13:20Z</time>
      </trkpt>
      <trkpt lat="44.98349" lon="5.19855">
        <ele>625.96</ele>
        <time>2017-04-23T08:13:23Z</time>
      </trkpt>
      <trkpt lat="44.98346" lon="5.19854">
        <ele>625.96</ele>
        <time>2017-04-23T08:13:26Z</time>
      </trkpt>
      <trkpt lat="44.98343" lon="5.19852">
        <ele>627.4</ele>
        <time>2017-04-23T08:13:29Z</time>
      </trkpt>
      <trkpt lat="44.9834" lon="5.19852">
        <ele>627.4</ele>
        <time>2017-04-23T08:13:33Z</time>
      </trkpt>
      <trkpt lat="44.98327" lon="5.19848">
        <ele>628.84</ele>
        <time>2017-04-23T08:13:44Z</time>
      </trkpt>
      <trkpt lat="44.98323" lon="5.19847">
        <ele>628.84</ele>
        <time>2017-04-23T08:13:48Z</time>
      </trkpt>
      <trkpt lat="44.98317" lon="5.19847">
        <ele>630.28</ele>
        <time>2017-04-23T08:13:53Z</time>
      </trkpt>
      <trkpt lat="44.98305" lon="5.19847">
        <ele>631.72</ele>
        <time>2017-04-23T08:14:03Z</time>
      </trkpt>
      <trkpt lat="44.98299" lon="5.19848">
        <ele>631.72</ele>
        <time>2017-04-23T08:14:08Z</time>
      </trkpt>
      <trkpt lat="44.98298" lon="5.19848">
        <ele>632.68</ele>
        <time>2017-04-23T08:14:09Z</time>
      </trkpt>
      <trkpt lat="44.98297" lon="5.19849">
        <ele>632.68</ele>
        <time>2017-04-23T08:14:10Z</time>
      </trkpt>
      <trkpt lat="44.98296" lon="5.19848">
        <ele>632.68</ele>
        <time>2017-04-23T08:14:15Z</time>
      </trkpt>
      <trkpt lat="44.98292" lon="5.19847">
        <ele>633.17</ele>
        <time>2017-04-23T08:14:18Z</time>
      </trkpt>
      <trkpt lat="44.98277" lon="5.1985">
        <ele>634.13</ele>
        <time>2017-04-23T08:14:29Z</time>
      </trkpt>
      <trkpt lat="44.98272" lon="5.19851">
        <ele>634.61</ele>
        <time>2017-04-23T08:14:34Z</time>
      </trkpt>
      <trkpt lat="44.98266" lon="5.19853">
        <ele>634.61</ele>
        <time>2017-04-23T08:14:40Z</time>
      </trkpt>
      <trkpt lat="44.98259" lon="5.19853">
        <ele>635.57</ele>
        <time>2017-04-23T08:14:45Z</time>
      </trkpt>
      <trkpt lat="44.98253" lon="5.19854">
        <ele>636.05</ele>
        <time>2017-04-23T08:14:49Z</time>
      </trkpt>
      <trkpt lat="44.98243" lon="5.19858">
        <ele>636.53</ele>
        <time>2017-04-23T08:14:57Z</time>
      </trkpt>
      <trkpt lat="44.98237" lon="5.19859">
        <ele>637.01</ele>
        <time>2017-04-23T08:15:01Z</time>
      </trkpt>
      <trkpt lat="44.98235" lon="5.19859">
        <ele>637.01</ele>
        <time>2017-04-23T08:15:03Z</time>
      </trkpt>
      <trkpt lat="44.98232" lon="5.19861">
        <ele>637.01</ele>
        <time>2017-04-23T08:15:05Z</time>
      </trkpt>
      <trkpt lat="44.98227" lon="5.19861">
        <ele>637.01</ele>
        <time>2017-04-23T08:15:09Z</time>
      </trkpt>
      <trkpt lat="44.9822" lon="5.19863">
        <ele>637.49</ele>
        <time>2017-04-23T08:15:14Z</time>
      </trkpt>
      <trkpt lat="44.98217" lon="5.19863">
        <ele>637.49</ele>
        <time>2017-04-23T08:15:17Z</time>
      </trkpt>
      <trkpt lat="44.98209" lon="5.19863">
        <ele>637.49</ele>
        <time>2017-04-23T08:15:23Z</time>
      </trkpt>
      <trkpt lat="44.98199" lon="5.19869">
        <ele>637.49</ele>
        <time>2017-04-23T08:15:32Z</time>
      </trkpt>
      <trkpt lat="44.98198" lon="5.19869">
        <ele>637.49</ele>
        <time>2017-04-23T08:15:33Z</time>
      </trkpt>
      <trkpt lat="44.98194" lon="5.19869">
        <ele>637.97</ele>
        <time>2017-04-23T08:15:38Z</time>
      </trkpt>
      <trkpt lat="44.98185" lon="5.19871">
        <ele>638.45</ele>
        <time>2017-04-23T08:15:45Z</time>
      </trkpt>
      <trkpt lat="44.98183" lon="5.1987">
        <ele>638.45</ele>
        <time>2017-04-23T08:15:48Z</time>
      </trkpt>
      <trkpt lat="44.9818" lon="5.19872">
        <ele>638.93</ele>
        <time>2017-04-23T08:15:51Z</time>
      </trkpt>
      <trkpt lat="44.98174" lon="5.19871">
        <ele>638.45</ele>
        <time>2017-04-23T08:15:55Z</time>
      </trkpt>
      <trkpt lat="44.98169" lon="5.19874">
        <ele>638.45</ele>
        <time>2017-04-23T08:15:59Z</time>
      </trkpt>
      <trkpt lat="44.98165" lon="5.19874">
        <ele>638.93</ele>
        <time>2017-04-23T08:16:02Z</time>
      </trkpt>
      <trkpt lat="44.98162" lon="5.19877">
        <ele>639.41</ele>
        <time>2017-04-23T08:16:05Z</time>
      </trkpt>
      <trkpt lat="44.98159" lon="5.19877">
        <ele>639.41</ele>
        <time>2017-04-23T08:16:08Z</time>
      </trkpt>
      <trkpt lat="44.9815" lon="5.19878">
        <ele>639.41</ele>
        <time>2017-04-23T08:16:14Z</time>
      </trkpt>
      <trkpt lat="44.98148" lon="5.19879">
        <ele>640.38</ele>
        <time>2017-04-23T08:16:16Z</time>
      </trkpt>
      <trkpt lat="44.98143" lon="5.19879">
        <ele>640.86</ele>
        <time>2017-04-23T08:16:21Z</time>
      </trkpt>
      <trkpt lat="44.98135" lon="5.1988">
        <ele>642.3</ele>
        <time>2017-04-23T08:16:31Z</time>
      </trkpt>
      <trkpt lat="44.98125" lon="5.19879">
        <ele>643.74</ele>
        <time>2017-04-23T08:16:40Z</time>
      </trkpt>
      <trkpt lat="44.9812" lon="5.19879">
        <ele>644.7</ele>
        <time>2017-04-23T08:16:45Z</time>
      </trkpt>
      <trkpt lat="44.98107" lon="5.19878">
        <ele>646.62</ele>
        <time>2017-04-23T08:16:55Z</time>
      </trkpt>
      <trkpt lat="44.98104" lon="5.19878">
        <ele>646.62</ele>
        <time>2017-04-23T08:16:57Z</time>
      </trkpt>
      <trkpt lat="44.98097" lon="5.1988">
        <ele>647.59</ele>
        <time>2017-04-23T08:17:04Z</time>
      </trkpt>
      <trkpt lat="44.98084" lon="5.19883">
        <ele>649.03</ele>
        <time>2017-04-23T08:17:14Z</time>
      </trkpt>
      <trkpt lat="44.98077" lon="5.19883">
        <ele>649.99</ele>
        <time>2017-04-23T08:17:21Z</time>
      </trkpt>
      <trkpt lat="44.98075" lon="5.19885">
        <ele>649.99</ele>
        <time>2017-04-23T08:17:23Z</time>
      </trkpt>
      <trkpt lat="44.98072" lon="5.19886">
        <ele>649.99</ele>
        <time>2017-04-23T08:17:26Z</time>
      </trkpt>
      <trkpt lat="44.9807" lon="5.19888">
        <ele>650.47</ele>
        <time>2017-04-23T08:17:29Z</time>
      </trkpt>
      <trkpt lat="44.98063" lon="5.19889">
        <ele>650.95</ele>
        <time>2017-04-23T08:17:34Z</time>
      </trkpt>
      <trkpt lat="44.98061" lon="5.19889">
        <ele>651.91</ele>
        <time>2017-04-23T08:17:36Z</time>
      </trkpt>
      <trkpt lat="44.98059" lon="5.19891">
        <ele>651.91</ele>
        <time>2017-04-23T08:17:38Z</time>
      </trkpt>
      <trkpt lat="44.98057" lon="5.19893">
        <ele>651.91</ele>
        <time>2017-04-23T08:17:41Z</time>
      </trkpt>
      <trkpt lat="44.98052" lon="5.19899">
        <ele>652.39</ele>
        <time>2017-04-23T08:17:47Z</time>
      </trkpt>
      <trkpt lat="44.98044" lon="5.19906">
        <ele>653.35</ele>
        <time>2017-04-23T08:17:55Z</time>
      </trkpt>
      <trkpt lat="44.98038" lon="5.19913">
        <ele>653.35</ele>
        <time>2017-04-23T08:18:01Z</time>
      </trkpt>
      <trkpt lat="44.98031" lon="5.19923">
        <ele>654.8</ele>
        <time>2017-04-23T08:18:12Z</time>
      </trkpt>
      <trkpt lat="44.98028" lon="5.19926">
        <ele>654.8</ele>
        <time>2017-04-23T08:18:15Z</time>
      </trkpt>
      <trkpt lat="44.98021" lon="5.19935">
        <ele>655.76</ele>
        <time>2017-04-23T08:18:22Z</time>
      </trkpt>
      <trkpt lat="44.98006" lon="5.19935">
        <ele>656.24</ele>
        <time>2017-04-23T08:18:33Z</time>
      </trkpt>
      <trkpt lat="44.98004" lon="5.19935">
        <ele>656.24</ele>
        <time>2017-04-23T08:18:35Z</time>
      </trkpt>
      <trkpt lat="44.97993" lon="5.19935">
        <ele>657.2</ele>
        <time>2017-04-23T08:18:45Z</time>
      </trkpt>
      <trkpt lat="44.9799" lon="5.19934">
        <ele>657.68</ele>
        <time>2017-04-23T08:18:47Z</time>
      </trkpt>
      <trkpt lat="44.97986" lon="5.19936">
        <ele>657.68</ele>
        <time>2017-04-23T08:18:52Z</time>
      </trkpt>
      <trkpt lat="44.97979" lon="5.19941">
        <ele>659.12</ele>
        <time>2017-04-23T08:19:03Z</time>
      </trkpt>
      <trkpt lat="44.97974" lon="5.19943">
        <ele>659.12</ele>
        <time>2017-04-23T08:19:14Z</time>
      </trkpt>
      <trkpt lat="44.97971" lon="5.19943">
        <ele>659.12</ele>
        <time>2017-04-23T08:19:31Z</time>
      </trkpt>
      <trkpt lat="44.9797" lon="5.1994">
        <ele>661.04</ele>
        <time>2017-04-23T08:19:43Z</time>
      </trkpt>
      <trkpt lat="44.9797" lon="5.1994">
        <ele>656.24</ele>
        <time>2017-04-23T08:19:53Z</time>
      </trkpt>
      <trkpt lat="44.9797" lon="5.1994">
        <ele>660.08</ele>
        <time>2017-04-23T08:19:54Z</time>
      </trkpt>
      <trkpt lat="44.9797" lon="5.1994">
        <ele>658.64</ele>
        <time>2017-04-23T08:20:13Z</time>
      </trkpt>
      <trkpt lat="44.9797" lon="5.19941">
        <ele>658.64</ele>
        <time>2017-04-23T08:20:31Z</time>
      </trkpt>
      <trkpt lat="44.9797" lon="5.19941">
        <ele>658.64</ele>
        <time>2017-04-23T08:20:52Z</time>
      </trkpt>
      <trkpt lat="44.9797" lon="5.19941">
        <ele>674.5</ele>
        <time>2017-04-23T08:20:53Z</time>
      </trkpt>
      <trkpt lat="44.9797" lon="5.19941">
        <ele>660.56</ele>
        <time>2017-04-23T08:20:54Z</time>
      </trkpt>
      <trkpt lat="44.9797" lon="5.19941">
        <ele>659.12</ele>
        <time>2017-04-23T08:20:56Z</time>
      </trkpt>
      <trkpt lat="44.9797" lon="5.19941">
        <ele>658.16</ele>
        <time>2017-04-23T08:20:59Z</time>
      </trkpt>
      <trkpt lat="44.97967" lon="5.19943">
        <ele>659.12</ele>
        <time>2017-04-23T08:21:03Z</time>
      </trkpt>
      <trkpt lat="44.97963" lon="5.19947">
        <ele>659.12</ele>
        <time>2017-04-23T08:21:08Z</time>
      </trkpt>
      <trkpt lat="44.97959" lon="5.19948">
        <ele>659.6</ele>
        <time>2017-04-23T08:21:11Z</time>
      </trkpt>
      <trkpt lat="44.97956" lon="5.19949">
        <ele>660.08</ele>
        <time>2017-04-23T08:21:15Z</time>
      </trkpt>
      <trkpt lat="44.97949" lon="5.19951">
        <ele>661.52</ele>
        <time>2017-04-23T08:21:22Z</time>
      </trkpt>
      <trkpt lat="44.97946" lon="5.19951">
        <ele>662.01</ele>
        <time>2017-04-23T08:21:26Z</time>
      </trkpt>
      <trkpt lat="44.97939" lon="5.19956">
        <ele>663.93</ele>
        <time>2017-04-23T08:21:36Z</time>
      </trkpt>
      <trkpt lat="44.97939" lon="5.19957">
        <ele>664.41</ele>
        <time>2017-04-23T08:21:49Z</time>
      </trkpt>
      <trkpt lat="44.97936" lon="5.19959">
        <ele>664.41</ele>
        <time>2017-04-23T08:21:59Z</time>
      </trkpt>
      <trkpt lat="44.97931" lon="5.19961">
        <ele>665.37</ele>
        <time>2017-04-23T08:22:08Z</time>
      </trkpt>
      <trkpt lat="44.97928" lon="5.19962">
        <ele>665.85</ele>
        <time>2017-04-23T08:22:19Z</time>
      </trkpt>
      <trkpt lat="44.97927" lon="5.19963">
        <ele>665.85</ele>
        <time>2017-04-23T08:22:20Z</time>
      </trkpt>
      <trkpt lat="44.97924" lon="5.19963">
        <ele>666.33</ele>
        <time>2017-04-23T08:22:23Z</time>
      </trkpt>
      <trkpt lat="44.97922" lon="5.19965">
        <ele>666.33</ele>
        <time>2017-04-23T08:22:26Z</time>
      </trkpt>
      <trkpt lat="44.97919" lon="5.19968">
        <ele>667.29</ele>
        <time>2017-04-23T08:22:30Z</time>
      </trkpt>
      <trkpt lat="44.97915" lon="5.19968">
        <ele>667.77</ele>
        <time>2017-04-23T08:22:33Z</time>
      </trkpt>
      <trkpt lat="44.97906" lon="5.19977">
        <ele>668.25</ele>
        <time>2017-04-23T08:22:44Z</time>
      </trkpt>
      <trkpt lat="44.979" lon="5.19981">
        <ele>669.7</ele>
        <time>2017-04-23T08:22:51Z</time>
      </trkpt>
      <trkpt lat="44.97896" lon="5.19982">
        <ele>669.22</ele>
        <time>2017-04-23T08:22:55Z</time>
      </trkpt>
      <trkpt lat="44.97897" lon="5.19985">
        <ele>670.18</ele>
        <time>2017-04-23T08:23:09Z</time>
      </trkpt>
      <trkpt lat="44.97896" lon="5.19984">
        <ele>670.18</ele>
        <time>2017-04-23T08:23:10Z</time>
      </trkpt>
      <trkpt lat="44.97892" lon="5.19987">
        <ele>671.14</ele>
        <time>2017-04-23T08:23:14Z</time>
      </trkpt>
      <trkpt lat="44.97888" lon="5.19991">
        <ele>671.62</ele>
        <time>2017-04-23T08:23:20Z</time>
      </trkpt>
      <trkpt lat="44.97887" lon="5.19993">
        <ele>672.1</ele>
        <time>2017-04-23T08:23:22Z</time>
      </trkpt>
      <trkpt lat="44.97886" lon="5.19995">
        <ele>672.58</ele>
        <time>2017-04-23T08:23:25Z</time>
      </trkpt>
      <trkpt lat="44.97883" lon="5.19997">
        <ele>673.06</ele>
        <time>2017-04-23T08:23:28Z</time>
      </trkpt>
      <trkpt lat="44.97882" lon="5.19999">
        <ele>673.54</ele>
        <time>2017-04-23T08:23:30Z</time>
      </trkpt>
      <trkpt lat="44.97878" lon="5.20008">
        <ele>674.98</ele>
        <time>2017-04-23T08:23:40Z</time>
      </trkpt>
      <trkpt lat="44.97877" lon="5.20011">
        <ele>675.46</ele>
        <time>2017-04-23T08:23:43Z</time>
      </trkpt>
      <trkpt lat="44.97872" lon="5.20016">
        <ele>676.91</ele>
        <time>2017-04-23T08:23:50Z</time>
      </trkpt>
      <trkpt lat="44.97871" lon="5.20019">
        <ele>677.39</ele>
        <time>2017-04-23T08:23:54Z</time>
      </trkpt>
      <trkpt lat="44.97865" lon="5.20024">
        <ele>679.31</ele>
        <time>2017-04-23T08:24:02Z</time>
      </trkpt>
      <trkpt lat="44.97862" lon="5.20025">
        <ele>679.31</ele>
        <time>2017-04-23T08:24:05Z</time>
      </trkpt>
      <trkpt lat="44.97859" lon="5.2003">
        <ele>679.79</ele>
        <time>2017-04-23T08:24:10Z</time>
      </trkpt>
      <trkpt lat="44.97852" lon="5.20033">
        <ele>681.71</ele>
        <time>2017-04-23T08:24:20Z</time>
      </trkpt>
      <trkpt lat="44.97847" lon="5.20038">
        <ele>683.15</ele>
        <time>2017-04-23T08:24:28Z</time>
      </trkpt>
      <trkpt lat="44.97844" lon="5.20039">
        <ele>683.63</ele>
        <time>2017-04-23T08:24:30Z</time>
      </trkpt>
      <trkpt lat="44.97842" lon="5.2004">
        <ele>683.15</ele>
        <time>2017-04-23T08:24:32Z</time>
      </trkpt>
      <trkpt lat="44.97838" lon="5.20043">
        <ele>684.12</ele>
        <time>2017-04-23T08:24:36Z</time>
      </trkpt>
      <trkpt lat="44.97836" lon="5.20044">
        <ele>684.6</ele>
        <time>2017-04-23T08:24:38Z</time>
      </trkpt>
      <trkpt lat="44.97833" lon="5.20046">
        <ele>684.6</ele>
        <time>2017-04-23T08:24:40Z</time>
      </trkpt>
      <trkpt lat="44.97831" lon="5.20047">
        <ele>685.56</ele>
        <time>2017-04-23T08:24:44Z</time>
      </trkpt>
      <trkpt lat="44.97825" lon="5.20052">
        <ele>686.52</ele>
        <time>2017-04-23T08:24:49Z</time>
      </trkpt>
      <trkpt lat="44.97822" lon="5.20056">
        <ele>687</ele>
        <time>2017-04-23T08:24:53Z</time>
      </trkpt>
      <trkpt lat="44.97821" lon="5.20057">
        <ele>687.48</ele>
        <time>2017-04-23T08:24:55Z</time>
      </trkpt>
      <trkpt lat="44.9782" lon="5.20058">
        <ele>687.96</ele>
        <time>2017-04-23T08:24:57Z</time>
      </trkpt>
      <trkpt lat="44.97817" lon="5.20059">
        <ele>688.44</ele>
        <time>2017-04-23T08:25:00Z</time>
      </trkpt>
      <trkpt lat="44.97815" lon="5.20061">
        <ele>688.92</ele>
        <time>2017-04-23T08:25:02Z</time>
      </trkpt>
      <trkpt lat="44.97812" lon="5.20063">
        <ele>689.4</ele>
        <time>2017-04-23T08:25:06Z</time>
      </trkpt>
      <trkpt lat="44.9781" lon="5.20065">
        <ele>689.88</ele>
        <time>2017-04-23T08:25:09Z</time>
      </trkpt>
      <trkpt lat="44.97808" lon="5.20065">
        <ele>690.84</ele>
        <time>2017-04-23T08:25:11Z</time>
      </trkpt>
      <trkpt lat="44.97799" lon="5.20069">
        <ele>692.77</ele>
        <time>2017-04-23T08:25:21Z</time>
      </trkpt>
      <trkpt lat="44.97798" lon="5.2007">
        <ele>693.25</ele>
        <time>2017-04-23T08:25:23Z</time>
      </trkpt>
      <trkpt lat="44.97796" lon="5.20072">
        <ele>694.21</ele>
        <time>2017-04-23T08:25:26Z</time>
      </trkpt>
      <trkpt lat="44.97794" lon="5.20073">
        <ele>694.21</ele>
        <time>2017-04-23T08:25:28Z</time>
      </trkpt>
      <trkpt lat="44.97793" lon="5.20075">
        <ele>694.21</ele>
        <time>2017-04-23T08:25:30Z</time>
      </trkpt>
      <trkpt lat="44.97791" lon="5.20076">
        <ele>694.69</ele>
        <time>2017-04-23T08:25:33Z</time>
      </trkpt>
      <trkpt lat="44.97789" lon="5.20078">
        <ele>695.17</ele>
        <time>2017-04-23T08:25:35Z</time>
      </trkpt>
      <trkpt lat="44.97787" lon="5.20079">
        <ele>695.65</ele>
        <time>2017-04-23T08:25:37Z</time>
      </trkpt>
      <trkpt lat="44.97786" lon="5.2008">
        <ele>696.13</ele>
        <time>2017-04-23T08:25:39Z</time>
      </trkpt>
      <trkpt lat="44.97779" lon="5.20085">
        <ele>697.57</ele>
        <time>2017-04-23T08:25:49Z</time>
      </trkpt>
      <trkpt lat="44.97778" lon="5.20088">
        <ele>698.53</ele>
        <time>2017-04-23T08:25:51Z</time>
      </trkpt>
      <trkpt lat="44.97776" lon="5.20089">
        <ele>699.5</ele>
        <time>2017-04-23T08:25:53Z</time>
      </trkpt>
      <trkpt lat="44.97774" lon="5.2009">
        <ele>699.02</ele>
        <time>2017-04-23T08:25:55Z</time>
      </trkpt>
      <trkpt lat="44.97773" lon="5.20092">
        <ele>699.5</ele>
        <time>2017-04-23T08:25:57Z</time>
      </trkpt>
      <trkpt lat="44.97771" lon="5.20094">
        <ele>700.46</ele>
        <time>2017-04-23T08:25:59Z</time>
      </trkpt>
      <trkpt lat="44.97765" lon="5.201">
        <ele>700.94</ele>
        <time>2017-04-23T08:26:06Z</time>
      </trkpt>
      <trkpt lat="44.97763" lon="5.20098">
        <ele>702.86</ele>
        <time>2017-04-23T08:26:11Z</time>
      </trkpt>
      <trkpt lat="44.97761" lon="5.20096">
        <ele>701.42</ele>
        <time>2017-04-23T08:26:13Z</time>
      </trkpt>
      <trkpt lat="44.9776" lon="5.20092">
        <ele>701.42</ele>
        <time>2017-04-23T08:26:15Z</time>
      </trkpt>
      <trkpt lat="44.9776" lon="5.2009">
        <ele>701.42</ele>
        <time>2017-04-23T08:26:17Z</time>
      </trkpt>
      <trkpt lat="44.97761" lon="5.20085">
        <ele>699.98</ele>
        <time>2017-04-23T08:26:20Z</time>
      </trkpt>
      <trkpt lat="44.97758" lon="5.20082">
        <ele>700.46</ele>
        <time>2017-04-23T08:26:22Z</time>
      </trkpt>
      <trkpt lat="44.97753" lon="5.20072">
        <ele>699.98</ele>
        <time>2017-04-23T08:26:29Z</time>
      </trkpt>
      <trkpt lat="44.97747" lon="5.20068">
        <ele>700.46</ele>
        <time>2017-04-23T08:26:35Z</time>
      </trkpt>
      <trkpt lat="44.97746" lon="5.20065">
        <ele>700.94</ele>
        <time>2017-04-23T08:26:37Z</time>
      </trkpt>
      <trkpt lat="44.97744" lon="5.20062">
        <ele>701.42</ele>
        <time>2017-04-23T08:26:39Z</time>
      </trkpt>
      <trkpt lat="44.97743" lon="5.20059">
        <ele>701.9</ele>
        <time>2017-04-23T08:26:41Z</time>
      </trkpt>
      <trkpt lat="44.97742" lon="5.20058">
        <ele>701.9</ele>
        <time>2017-04-23T08:26:43Z</time>
      </trkpt>
      <trkpt lat="44.9774" lon="5.20056">
        <ele>701.9</ele>
        <time>2017-04-23T08:26:45Z</time>
      </trkpt>
      <trkpt lat="44.97736" lon="5.20049">
        <ele>702.86</ele>
        <time>2017-04-23T08:26:51Z</time>
      </trkpt>
      <trkpt lat="44.97735" lon="5.20046">
        <ele>702.86</ele>
        <time>2017-04-23T08:26:53Z</time>
      </trkpt>
      <trkpt lat="44.97734" lon="5.20043">
        <ele>703.34</ele>
        <time>2017-04-23T08:26:56Z</time>
      </trkpt>
      <trkpt lat="44.97732" lon="5.20038">
        <ele>704.3</ele>
        <time>2017-04-23T08:27:00Z</time>
      </trkpt>
      <trkpt lat="44.97731" lon="5.20036">
        <ele>704.3</ele>
        <time>2017-04-23T08:27:02Z</time>
      </trkpt>
      <trkpt lat="44.97731" lon="5.20035">
        <ele>704.3</ele>
        <time>2017-04-23T08:27:04Z</time>
      </trkpt>
      <trkpt lat="44.97729" lon="5.2003">
        <ele>704.3</ele>
        <time>2017-04-23T08:27:08Z</time>
      </trkpt>
      <trkpt lat="44.97728" lon="5.20025">
        <ele>705.75</ele>
        <time>2017-04-23T08:27:12Z</time>
      </trkpt>
      <trkpt lat="44.97727" lon="5.20021">
        <ele>707.19</ele>
        <time>2017-04-23T08:27:18Z</time>
      </trkpt>
      <trkpt lat="44.97725" lon="5.20011">
        <ele>709.11</ele>
        <time>2017-04-23T08:27:25Z</time>
      </trkpt>
      <trkpt lat="44.97724" lon="5.20005">
        <ele>708.63</ele>
        <time>2017-04-23T08:27:29Z</time>
      </trkpt>
      <trkpt lat="44.97724" lon="5.20003">
        <ele>709.11</ele>
        <time>2017-04-23T08:27:31Z</time>
      </trkpt>
      <trkpt lat="44.97723" lon="5.19997">
        <ele>710.07</ele>
        <time>2017-04-23T08:27:36Z</time>
      </trkpt>
      <trkpt lat="44.97722" lon="5.19986">
        <ele>711.51</ele>
        <time>2017-04-23T08:27:42Z</time>
      </trkpt>
      <trkpt lat="44.97718" lon="5.19981">
        <ele>711.99</ele>
        <time>2017-04-23T08:27:48Z</time>
      </trkpt>
      <trkpt lat="44.97715" lon="5.19971">
        <ele>712.95</ele>
        <time>2017-04-23T08:27:55Z</time>
      </trkpt>
      <trkpt lat="44.97712" lon="5.1996">
        <ele>715.36</ele>
        <time>2017-04-23T08:28:05Z</time>
      </trkpt>
      <trkpt lat="44.9771" lon="5.19956">
        <ele>715.36</ele>
        <time>2017-04-23T08:28:08Z</time>
      </trkpt>
      <trkpt lat="44.9771" lon="5.19953">
        <ele>715.84</ele>
        <time>2017-04-23T08:28:12Z</time>
      </trkpt>
      <trkpt lat="44.9771" lon="5.19948">
        <ele>716.32</ele>
        <time>2017-04-23T08:28:15Z</time>
      </trkpt>
      <trkpt lat="44.97706" lon="5.1994">
        <ele>718.24</ele>
        <time>2017-04-23T08:28:24Z</time>
      </trkpt>
      <trkpt lat="44.97706" lon="5.19938">
        <ele>718.24</ele>
        <time>2017-04-23T08:28:25Z</time>
      </trkpt>
      <trkpt lat="44.97704" lon="5.19935">
        <ele>718.72</ele>
        <time>2017-04-23T08:28:27Z</time>
      </trkpt>
      <trkpt lat="44.97704" lon="5.1993">
        <ele>719.2</ele>
        <time>2017-04-23T08:28:30Z</time>
      </trkpt>
      <trkpt lat="44.97702" lon="5.19926">
        <ele>720.16</ele>
        <time>2017-04-23T08:28:34Z</time>
      </trkpt>
      <trkpt lat="44.97702" lon="5.19924">
        <ele>720.16</ele>
        <time>2017-04-23T08:28:36Z</time>
      </trkpt>
      <trkpt lat="44.977" lon="5.19918">
        <ele>720.65</ele>
        <time>2017-04-23T08:28:40Z</time>
      </trkpt>
      <trkpt lat="44.97699" lon="5.19911">
        <ele>722.09</ele>
        <time>2017-04-23T08:28:46Z</time>
      </trkpt>
      <trkpt lat="44.97694" lon="5.19903">
        <ele>724.01</ele>
        <time>2017-04-23T08:28:56Z</time>
      </trkpt>
      <trkpt lat="44.9769" lon="5.19898">
        <ele>725.45</ele>
        <time>2017-04-23T08:29:02Z</time>
      </trkpt>
      <trkpt lat="44.97685" lon="5.19888">
        <ele>727.37</ele>
        <time>2017-04-23T08:29:11Z</time>
      </trkpt>
      <trkpt lat="44.97686" lon="5.19885">
        <ele>727.86</ele>
        <time>2017-04-23T08:29:14Z</time>
      </trkpt>
      <trkpt lat="44.97684" lon="5.19883">
        <ele>727.86</ele>
        <time>2017-04-23T08:29:16Z</time>
      </trkpt>
      <trkpt lat="44.97683" lon="5.1988">
        <ele>728.34</ele>
        <time>2017-04-23T08:29:18Z</time>
      </trkpt>
      <trkpt lat="44.97681" lon="5.19875">
        <ele>730.74</ele>
        <time>2017-04-23T08:29:27Z</time>
      </trkpt>
      <trkpt lat="44.9768" lon="5.19872">
        <ele>731.22</ele>
        <time>2017-04-23T08:29:31Z</time>
      </trkpt>
      <trkpt lat="44.97676" lon="5.19866">
        <ele>733.14</ele>
        <time>2017-04-23T08:29:40Z</time>
      </trkpt>
      <trkpt lat="44.97671" lon="5.19858">
        <ele>735.07</ele>
        <time>2017-04-23T08:29:49Z</time>
      </trkpt>
      <trkpt lat="44.97669" lon="5.19856">
        <ele>735.55</ele>
        <time>2017-04-23T08:29:52Z</time>
      </trkpt>
      <trkpt lat="44.97668" lon="5.19854">
        <ele>736.51</ele>
        <time>2017-04-23T08:29:55Z</time>
      </trkpt>
      <trkpt lat="44.97665" lon="5.19846">
        <ele>738.43</ele>
        <time>2017-04-23T08:30:04Z</time>
      </trkpt>
      <trkpt lat="44.97661" lon="5.1984">
        <ele>739.87</ele>
        <time>2017-04-23T08:30:11Z</time>
      </trkpt>
      <trkpt lat="44.97659" lon="5.19837">
        <ele>740.35</ele>
        <time>2017-04-23T08:30:13Z</time>
      </trkpt>
      <trkpt lat="44.97656" lon="5.19829">
        <ele>741.31</ele>
        <time>2017-04-23T08:30:23Z</time>
      </trkpt>
      <trkpt lat="44.97654" lon="5.19825">
        <ele>742.28</ele>
        <time>2017-04-23T08:30:27Z</time>
      </trkpt>
      <trkpt lat="44.97647" lon="5.19815">
        <ele>743.72</ele>
        <time>2017-04-23T08:30:35Z</time>
      </trkpt>
      <trkpt lat="44.97644" lon="5.19813">
        <ele>744.2</ele>
        <time>2017-04-23T08:30:39Z</time>
      </trkpt>
      <trkpt lat="44.97644" lon="5.19811">
        <ele>745.16</ele>
        <time>2017-04-23T08:30:42Z</time>
      </trkpt>
      <trkpt lat="44.97643" lon="5.19808">
        <ele>745.16</ele>
        <time>2017-04-23T08:30:45Z</time>
      </trkpt>
      <trkpt lat="44.97638" lon="5.19801">
        <ele>745.64</ele>
        <time>2017-04-23T08:30:51Z</time>
      </trkpt>
      <trkpt lat="44.97635" lon="5.19795">
        <ele>747.56</ele>
        <time>2017-04-23T08:30:57Z</time>
      </trkpt>
      <trkpt lat="44.97631" lon="5.1979">
        <ele>749</ele>
        <time>2017-04-23T08:31:06Z</time>
      </trkpt>
      <trkpt lat="44.97627" lon="5.19783">
        <ele>750.93</ele>
        <time>2017-04-23T08:31:16Z</time>
      </trkpt>
      <trkpt lat="44.97626" lon="5.19783">
        <ele>750.93</ele>
        <time>2017-04-23T08:31:17Z</time>
      </trkpt>
      <trkpt lat="44.97624" lon="5.19781">
        <ele>752.37</ele>
        <time>2017-04-23T08:31:20Z</time>
      </trkpt>
      <trkpt lat="44.97623" lon="5.1978">
        <ele>752.85</ele>
        <time>2017-04-23T08:31:23Z</time>
      </trkpt>
      <trkpt lat="44.97622" lon="5.19778">
        <ele>753.81</ele>
        <time>2017-04-23T08:31:25Z</time>
      </trkpt>
      <trkpt lat="44.97619" lon="5.19774">
        <ele>755.25</ele>
        <time>2017-04-23T08:31:34Z</time>
      </trkpt>
      <trkpt lat="44.97618" lon="5.19775">
        <ele>755.25</ele>
        <time>2017-04-23T08:31:35Z</time>
      </trkpt>
      <trkpt lat="44.97611" lon="5.19773">
        <ele>756.69</ele>
        <time>2017-04-23T08:31:44Z</time>
      </trkpt>
      <trkpt lat="44.97607" lon="5.19769">
        <ele>758.62</ele>
        <time>2017-04-23T08:31:51Z</time>
      </trkpt>
      <trkpt lat="44.97604" lon="5.19768">
        <ele>759.1</ele>
        <time>2017-04-23T08:31:54Z</time>
      </trkpt>
      <trkpt lat="44.97601" lon="5.19767">
        <ele>760.06</ele>
        <time>2017-04-23T08:31:56Z</time>
      </trkpt>
      <trkpt lat="44.976" lon="5.19765">
        <ele>760.54</ele>
        <time>2017-04-23T08:31:59Z</time>
      </trkpt>
      <trkpt lat="44.97599" lon="5.19765">
        <ele>761.02</ele>
        <time>2017-04-23T08:32:02Z</time>
      </trkpt>
      <trkpt lat="44.97594" lon="5.1976">
        <ele>762.46</ele>
        <time>2017-04-23T08:32:10Z</time>
      </trkpt>
      <trkpt lat="44.97588" lon="5.19759">
        <ele>763.9</ele>
        <time>2017-04-23T08:32:17Z</time>
      </trkpt>
      <trkpt lat="44.97584" lon="5.19758">
        <ele>763.9</ele>
        <time>2017-04-23T08:32:20Z</time>
      </trkpt>
      <trkpt lat="44.97578" lon="5.19758">
        <ele>763.9</ele>
        <time>2017-04-23T08:32:25Z</time>
      </trkpt>
      <trkpt lat="44.97577" lon="5.19757">
        <ele>764.39</ele>
        <time>2017-04-23T08:32:28Z</time>
      </trkpt>
      <trkpt lat="44.97576" lon="5.19755">
        <ele>765.35</ele>
        <time>2017-04-23T08:32:30Z</time>
      </trkpt>
      <trkpt lat="44.97569" lon="5.19754">
        <ele>765.83</ele>
        <time>2017-04-23T08:32:37Z</time>
      </trkpt>
      <trkpt lat="44.97567" lon="5.19754">
        <ele>766.31</ele>
        <time>2017-04-23T08:32:39Z</time>
      </trkpt>
      <trkpt lat="44.97565" lon="5.19752">
        <ele>766.31</ele>
        <time>2017-04-23T08:32:41Z</time>
      </trkpt>
      <trkpt lat="44.97563" lon="5.19749">
        <ele>766.31</ele>
        <time>2017-04-23T08:32:44Z</time>
      </trkpt>
      <trkpt lat="44.97556" lon="5.19748">
        <ele>765.83</ele>
        <time>2017-04-23T08:32:50Z</time>
      </trkpt>
      <trkpt lat="44.9755" lon="5.19748">
        <ele>765.35</ele>
        <time>2017-04-23T08:32:58Z</time>
      </trkpt>
      <trkpt lat="44.97546" lon="5.1975">
        <ele>765.83</ele>
        <time>2017-04-23T08:33:08Z</time>
      </trkpt>
      <trkpt lat="44.97543" lon="5.19747">
        <ele>765.83</ele>
        <time>2017-04-23T08:33:17Z</time>
      </trkpt>
      <trkpt lat="44.97542" lon="5.19746">
        <ele>765.35</ele>
        <time>2017-04-23T08:33:25Z</time>
      </trkpt>
      <trkpt lat="44.97538" lon="5.19747">
        <ele>765.35</ele>
        <time>2017-04-23T08:33:37Z</time>
      </trkpt>
      <trkpt lat="44.97538" lon="5.19747">
        <ele>764.39</ele>
        <time>2017-04-23T08:33:55Z</time>
      </trkpt>
      <trkpt lat="44.97531" lon="5.19746">
        <ele>764.39</ele>
        <time>2017-04-23T08:34:08Z</time>
      </trkpt>
      <trkpt lat="44.9753" lon="5.19751">
        <ele>764.39</ele>
        <time>2017-04-23T08:34:29Z</time>
      </trkpt>
      <trkpt lat="44.97532" lon="5.19752">
        <ele>764.39</ele>
        <time>2017-04-23T08:34:43Z</time>
      </trkpt>
      <trkpt lat="44.97532" lon="5.19754">
        <ele>765.35</ele>
        <time>2017-04-23T08:34:57Z</time>
      </trkpt>
      <trkpt lat="44.9753" lon="5.19755">
        <ele>765.35</ele>
        <time>2017-04-23T08:34:59Z</time>
      </trkpt>
      <trkpt lat="44.9753" lon="5.19758">
        <ele>766.31</ele>
        <time>2017-04-23T08:35:02Z</time>
      </trkpt>
      <trkpt lat="44.9753" lon="5.19766">
        <ele>766.31</ele>
        <time>2017-04-23T08:35:09Z</time>
      </trkpt>
      <trkpt lat="44.97533" lon="5.19779">
        <ele>766.31</ele>
        <time>2017-04-23T08:35:22Z</time>
      </trkpt>
      <trkpt lat="44.97535" lon="5.19781">
        <ele>767.27</ele>
        <time>2017-04-23T08:35:33Z</time>
      </trkpt>
      <trkpt lat="44.97535" lon="5.19785">
        <ele>767.75</ele>
        <time>2017-04-23T08:35:44Z</time>
      </trkpt>
      <trkpt lat="44.97536" lon="5.19786">
        <ele>767.75</ele>
        <time>2017-04-23T08:35:58Z</time>
      </trkpt>
      <trkpt lat="44.97536" lon="5.19787">
        <ele>767.75</ele>
        <time>2017-04-23T08:36:14Z</time>
      </trkpt>
      <trkpt lat="44.97537" lon="5.19789">
        <ele>768.71</ele>
        <time>2017-04-23T08:36:16Z</time>
      </trkpt>
      <trkpt lat="44.97539" lon="5.19795">
        <ele>769.19</ele>
        <time>2017-04-23T08:36:20Z</time>
      </trkpt>
      <trkpt lat="44.97542" lon="5.19805">
        <ele>770.15</ele>
        <time>2017-04-23T08:36:31Z</time>
      </trkpt>
      <trkpt lat="44.97545" lon="5.19811">
        <ele>770.63</ele>
        <time>2017-04-23T08:36:42Z</time>
      </trkpt>
      <trkpt lat="44.97546" lon="5.19813">
        <ele>770.63</ele>
        <time>2017-04-23T08:36:44Z</time>
      </trkpt>
      <trkpt lat="44.97546" lon="5.19815">
        <ele>771.11</ele>
        <time>2017-04-23T08:36:46Z</time>
      </trkpt>
      <trkpt lat="44.97548" lon="5.19815">
        <ele>771.6</ele>
        <time>2017-04-23T08:36:48Z</time>
      </trkpt>
      <trkpt lat="44.97548" lon="5.19817">
        <ele>771.11</ele>
        <time>2017-04-23T08:36:51Z</time>
      </trkpt>
      <trkpt lat="44.9755" lon="5.1982">
        <ele>772.08</ele>
        <time>2017-04-23T08:36:53Z</time>
      </trkpt>
      <trkpt lat="44.97551" lon="5.19823">
        <ele>772.56</ele>
        <time>2017-04-23T08:36:55Z</time>
      </trkpt>
      <trkpt lat="44.97552" lon="5.19825">
        <ele>772.56</ele>
        <time>2017-04-23T08:36:57Z</time>
      </trkpt>
      <trkpt lat="44.97553" lon="5.19827">
        <ele>772.56</ele>
        <time>2017-04-23T08:36:59Z</time>
      </trkpt>
      <trkpt lat="44.97552" lon="5.1983">
        <ele>772.56</ele>
        <time>2017-04-23T08:37:02Z</time>
      </trkpt>
      <trkpt lat="44.97556" lon="5.19841">
        <ele>773.52</ele>
        <time>2017-04-23T08:37:12Z</time>
      </trkpt>
      <trkpt lat="44.97559" lon="5.19846">
        <ele>774</ele>
        <time>2017-04-23T08:37:15Z</time>
      </trkpt>
      <trkpt lat="44.97561" lon="5.19851">
        <ele>774</ele>
        <time>2017-04-23T08:37:19Z</time>
      </trkpt>
      <trkpt lat="44.97561" lon="5.19858">
        <ele>774.48</ele>
        <time>2017-04-23T08:37:25Z</time>
      </trkpt>
      <trkpt lat="44.9756" lon="5.19862">
        <ele>774.96</ele>
        <time>2017-04-23T08:37:28Z</time>
      </trkpt>
      <trkpt lat="44.9756" lon="5.19865">
        <ele>775.44</ele>
        <time>2017-04-23T08:37:30Z</time>
      </trkpt>
      <trkpt lat="44.97558" lon="5.19867">
        <ele>775.44</ele>
        <time>2017-04-23T08:37:32Z</time>
      </trkpt>
      <trkpt lat="44.97559" lon="5.19869">
        <ele>776.4</ele>
        <time>2017-04-23T08:37:35Z</time>
      </trkpt>
      <trkpt lat="44.97557" lon="5.19874">
        <ele>775.92</ele>
        <time>2017-04-23T08:37:48Z</time>
      </trkpt>
      <trkpt lat="44.97557" lon="5.19875">
        <ele>775.92</ele>
        <time>2017-04-23T08:38:09Z</time>
      </trkpt>
      <trkpt lat="44.97558" lon="5.19874">
        <ele>775.92</ele>
        <time>2017-04-23T08:38:31Z</time>
      </trkpt>
      <trkpt lat="44.97559" lon="5.19876">
        <ele>775.44</ele>
        <time>2017-04-23T08:38:48Z</time>
      </trkpt>
      <trkpt lat="44.97558" lon="5.19879">
        <ele>776.4</ele>
        <time>2017-04-23T08:39:00Z</time>
      </trkpt>
      <trkpt lat="44.97557" lon="5.19885">
        <ele>776.88</ele>
        <time>2017-04-23T08:39:07Z</time>
      </trkpt>
      <trkpt lat="44.97555" lon="5.19892">
        <ele>777.84</ele>
        <time>2017-04-23T08:39:17Z</time>
      </trkpt>
      <trkpt lat="44.97554" lon="5.19894">
        <ele>778.32</ele>
        <time>2017-04-23T08:39:23Z</time>
      </trkpt>
      <trkpt lat="44.97553" lon="5.19897">
        <ele>778.32</ele>
        <time>2017-04-23T08:39:26Z</time>
      </trkpt>
      <trkpt lat="44.97551" lon="5.19903">
        <ele>780.25</ele>
        <time>2017-04-23T08:39:36Z</time>
      </trkpt>
      <trkpt lat="44.97551" lon="5.19905">
        <ele>780.25</ele>
        <time>2017-04-23T08:39:38Z</time>
      </trkpt>
      <trkpt lat="44.9755" lon="5.19909">
        <ele>781.21</ele>
        <time>2017-04-23T08:39:41Z</time>
      </trkpt>
      <trkpt lat="44.97548" lon="5.19914">
        <ele>782.17</ele>
        <time>2017-04-23T08:39:47Z</time>
      </trkpt>
      <trkpt lat="44.97543" lon="5.19925">
        <ele>783.13</ele>
        <time>2017-04-23T08:39:58Z</time>
      </trkpt>
      <trkpt lat="44.97542" lon="5.1993">
        <ele>782.17</ele>
        <time>2017-04-23T08:40:02Z</time>
      </trkpt>
      <trkpt lat="44.97536" lon="5.19942">
        <ele>782.65</ele>
        <time>2017-04-23T08:40:12Z</time>
      </trkpt>
      <trkpt lat="44.97531" lon="5.19946">
        <ele>783.13</ele>
        <time>2017-04-23T08:40:17Z</time>
      </trkpt>
      <trkpt lat="44.97531" lon="5.19949">
        <ele>784.57</ele>
        <time>2017-04-23T08:40:21Z</time>
      </trkpt>
      <trkpt lat="44.97528" lon="5.19953">
        <ele>786.5</ele>
        <time>2017-04-23T08:40:27Z</time>
      </trkpt>
      <trkpt lat="44.97524" lon="5.19962">
        <ele>787.94</ele>
        <time>2017-04-23T08:40:36Z</time>
      </trkpt>
      <trkpt lat="44.97522" lon="5.1997">
        <ele>790.82</ele>
        <time>2017-04-23T08:40:46Z</time>
      </trkpt>
      <trkpt lat="44.97521" lon="5.19971">
        <ele>790.82</ele>
        <time>2017-04-23T08:40:47Z</time>
      </trkpt>
      <trkpt lat="44.97518" lon="5.19975">
        <ele>791.78</ele>
        <time>2017-04-23T08:40:53Z</time>
      </trkpt>
      <trkpt lat="44.97516" lon="5.19977">
        <ele>791.78</ele>
        <time>2017-04-23T08:40:56Z</time>
      </trkpt>
      <trkpt lat="44.97514" lon="5.19979">
        <ele>792.26</ele>
        <time>2017-04-23T08:40:58Z</time>
      </trkpt>
      <trkpt lat="44.9751" lon="5.19983">
        <ele>792.26</ele>
        <time>2017-04-23T08:41:05Z</time>
      </trkpt>
      <trkpt lat="44.97504" lon="5.19989">
        <ele>794.19</ele>
        <time>2017-04-23T08:41:15Z</time>
      </trkpt>
      <trkpt lat="44.97504" lon="5.19989">
        <ele>794.19</ele>
        <time>2017-04-23T08:41:16Z</time>
      </trkpt>
      <trkpt lat="44.97501" lon="5.19993">
        <ele>794.67</ele>
        <time>2017-04-23T08:41:19Z</time>
      </trkpt>
      <trkpt lat="44.97498" lon="5.19995">
        <ele>794.67</ele>
        <time>2017-04-23T08:41:23Z</time>
      </trkpt>
      <trkpt lat="44.97494" lon="5.19998">
        <ele>796.11</ele>
        <time>2017-04-23T08:41:27Z</time>
      </trkpt>
      <trkpt lat="44.97491" lon="5.20002">
        <ele>796.59</ele>
        <time>2017-04-23T08:41:33Z</time>
      </trkpt>
      <trkpt lat="44.97489" lon="5.20004">
        <ele>797.07</ele>
        <time>2017-04-23T08:41:35Z</time>
      </trkpt>
      <trkpt lat="44.97486" lon="5.20005">
        <ele>797.55</ele>
        <time>2017-04-23T08:41:39Z</time>
      </trkpt>
      <trkpt lat="44.97483" lon="5.20011">
        <ele>799.47</ele>
        <time>2017-04-23T08:41:49Z</time>
      </trkpt>
      <trkpt lat="44.9748" lon="5.20013">
        <ele>799.95</ele>
        <time>2017-04-23T08:41:54Z</time>
      </trkpt>
      <trkpt lat="44.97473" lon="5.20017">
        <ele>801.4</ele>
        <time>2017-04-23T08:42:01Z</time>
      </trkpt>
      <trkpt lat="44.9747" lon="5.2002">
        <ele>802.36</ele>
        <time>2017-04-23T08:42:04Z</time>
      </trkpt>
      <trkpt lat="44.97468" lon="5.20022">
        <ele>802.84</ele>
        <time>2017-04-23T08:42:06Z</time>
      </trkpt>
      <trkpt lat="44.97464" lon="5.20028">
        <ele>802.36</ele>
        <time>2017-04-23T08:42:13Z</time>
      </trkpt>
      <trkpt lat="44.9746" lon="5.20032">
        <ele>801.88</ele>
        <time>2017-04-23T08:42:18Z</time>
      </trkpt>
      <trkpt lat="44.9746" lon="5.20039">
        <ele>801.88</ele>
        <time>2017-04-23T08:42:22Z</time>
      </trkpt>
      <trkpt lat="44.97459" lon="5.20043">
        <ele>801.88</ele>
        <time>2017-04-23T08:42:25Z</time>
      </trkpt>
      <trkpt lat="44.97458" lon="5.2005">
        <ele>801.4</ele>
        <time>2017-04-23T08:42:31Z</time>
      </trkpt>
      <trkpt lat="44.97457" lon="5.20057">
        <ele>800.44</ele>
        <time>2017-04-23T08:42:36Z</time>
      </trkpt>
      <trkpt lat="44.97456" lon="5.20061">
        <ele>800.44</ele>
        <time>2017-04-23T08:42:38Z</time>
      </trkpt>
      <trkpt lat="44.97454" lon="5.2007">
        <ele>800.44</ele>
        <time>2017-04-23T08:42:42Z</time>
      </trkpt>
      <trkpt lat="44.9745" lon="5.20077">
        <ele>800.92</ele>
        <time>2017-04-23T08:42:46Z</time>
      </trkpt>
      <trkpt lat="44.97445" lon="5.20091">
        <ele>800.92</ele>
        <time>2017-04-23T08:42:54Z</time>
      </trkpt>
      <trkpt lat="44.97443" lon="5.20094">
        <ele>801.4</ele>
        <time>2017-04-23T08:42:59Z</time>
      </trkpt>
      <trkpt lat="44.97441" lon="5.20099">
        <ele>801.88</ele>
        <time>2017-04-23T08:43:02Z</time>
      </trkpt>
      <trkpt lat="44.9744" lon="5.20115">
        <ele>804.28</ele>
        <time>2017-04-23T08:43:14Z</time>
      </trkpt>
      <trkpt lat="44.97441" lon="5.2012">
        <ele>805.24</ele>
        <time>2017-04-23T08:43:27Z</time>
      </trkpt>
      <trkpt lat="44.97441" lon="5.2012">
        <ele>805.24</ele>
        <time>2017-04-23T08:43:49Z</time>
      </trkpt>
      <trkpt lat="44.97441" lon="5.2012">
        <ele>805.24</ele>
        <time>2017-04-23T08:44:16Z</time>
      </trkpt>
      <trkpt lat="44.9744" lon="5.20119">
        <ele>804.76</ele>
        <time>2017-04-23T08:44:33Z</time>
      </trkpt>
      <trkpt lat="44.97438" lon="5.2012">
        <ele>804.76</ele>
        <time>2017-04-23T08:44:37Z</time>
      </trkpt>
      <trkpt lat="44.97435" lon="5.20117">
        <ele>805.24</ele>
        <time>2017-04-23T08:44:47Z</time>
      </trkpt>
      <trkpt lat="44.97433" lon="5.20121">
        <ele>804.76</ele>
        <time>2017-04-23T08:45:13Z</time>
      </trkpt>
      <trkpt lat="44.97433" lon="5.20122">
        <ele>804.76</ele>
        <time>2017-04-23T08:45:32Z</time>
      </trkpt>
      <trkpt lat="44.97434" lon="5.20121">
        <ele>804.76</ele>
        <time>2017-04-23T08:45:52Z</time>
      </trkpt>
      <trkpt lat="44.97434" lon="5.20122">
        <ele>804.28</ele>
        <time>2017-04-23T08:46:10Z</time>
      </trkpt>
      <trkpt lat="44.97434" lon="5.20121">
        <ele>804.28</ele>
        <time>2017-04-23T08:46:31Z</time>
      </trkpt>
      <trkpt lat="44.97434" lon="5.20121">
        <ele>803.8</ele>
        <time>2017-04-23T08:46:47Z</time>
      </trkpt>
      <trkpt lat="44.97434" lon="5.20121">
        <ele>803.8</ele>
        <time>2017-04-23T08:47:02Z</time>
      </trkpt>
      <trkpt lat="44.97434" lon="5.20121">
        <ele>803.32</ele>
        <time>2017-04-23T08:47:10Z</time>
      </trkpt>
      <trkpt lat="44.97431" lon="5.20121">
        <ele>803.32</ele>
        <time>2017-04-23T08:47:12Z</time>
      </trkpt>
      <trkpt lat="44.97427" lon="5.20123">
        <ele>803.8</ele>
        <time>2017-04-23T08:47:16Z</time>
      </trkpt>
      <trkpt lat="44.9742" lon="5.20126">
        <ele>803.32</ele>
        <time>2017-04-23T08:47:21Z</time>
      </trkpt>
      <trkpt lat="44.97416" lon="5.20128">
        <ele>803.32</ele>
        <time>2017-04-23T08:47:26Z</time>
      </trkpt>
      <trkpt lat="44.97413" lon="5.20128">
        <ele>802.84</ele>
        <time>2017-04-23T08:47:29Z</time>
      </trkpt>
      <trkpt lat="44.97409" lon="5.20131">
        <ele>802.84</ele>
        <time>2017-04-23T08:47:32Z</time>
      </trkpt>
      <trkpt lat="44.97406" lon="5.2013">
        <ele>802.84</ele>
        <time>2017-04-23T08:47:35Z</time>
      </trkpt>
      <trkpt lat="44.97403" lon="5.20132">
        <ele>802.84</ele>
        <time>2017-04-23T08:47:38Z</time>
      </trkpt>
      <trkpt lat="44.97401" lon="5.20133">
        <ele>803.32</ele>
        <time>2017-04-23T08:47:41Z</time>
      </trkpt>
      <trkpt lat="44.97399" lon="5.20135">
        <ele>802.84</ele>
        <time>2017-04-23T08:47:43Z</time>
      </trkpt>
      <trkpt lat="44.9739" lon="5.20141">
        <ele>803.32</ele>
        <time>2017-04-23T08:47:52Z</time>
      </trkpt>
      <trkpt lat="44.97383" lon="5.2014">
        <ele>802.84</ele>
        <time>2017-04-23T08:47:57Z</time>
      </trkpt>
      <trkpt lat="44.97378" lon="5.2014">
        <ele>802.84</ele>
        <time>2017-04-23T08:48:01Z</time>
      </trkpt>
      <trkpt lat="44.97375" lon="5.20141">
        <ele>802.84</ele>
        <time>2017-04-23T08:48:04Z</time>
      </trkpt>
      <trkpt lat="44.97371" lon="5.2014">
        <ele>801.88</ele>
        <time>2017-04-23T08:48:07Z</time>
      </trkpt>
      <trkpt lat="44.97366" lon="5.20143">
        <ele>801.88</ele>
        <time>2017-04-23T08:48:11Z</time>
      </trkpt>
      <trkpt lat="44.97356" lon="5.20141">
        <ele>801.4</ele>
        <time>2017-04-23T08:48:22Z</time>
      </trkpt>
      <trkpt lat="44.9735" lon="5.2014">
        <ele>801.4</ele>
        <time>2017-04-23T08:48:33Z</time>
      </trkpt>
      <trkpt lat="44.97349" lon="5.2014">
        <ele>801.88</ele>
        <time>2017-04-23T08:48:34Z</time>
      </trkpt>
      <trkpt lat="44.97344" lon="5.20135">
        <ele>801.88</ele>
        <time>2017-04-23T08:48:39Z</time>
      </trkpt>
      <trkpt lat="44.97336" lon="5.20129">
        <ele>802.84</ele>
        <time>2017-04-23T08:48:46Z</time>
      </trkpt>
      <trkpt lat="44.9733" lon="5.20124">
        <ele>803.8</ele>
        <time>2017-04-23T08:48:52Z</time>
      </trkpt>
      <trkpt lat="44.97324" lon="5.20122">
        <ele>804.28</ele>
        <time>2017-04-23T08:48:57Z</time>
      </trkpt>
      <trkpt lat="44.97319" lon="5.20116">
        <ele>804.76</ele>
        <time>2017-04-23T08:49:05Z</time>
      </trkpt>
      <trkpt lat="44.97318" lon="5.20113">
        <ele>805.24</ele>
        <time>2017-04-23T08:49:09Z</time>
      </trkpt>
      <trkpt lat="44.97312" lon="5.2012">
        <ele>806.2</ele>
        <time>2017-04-23T08:49:21Z</time>
      </trkpt>
      <trkpt lat="44.97307" lon="5.20127">
        <ele>807.16</ele>
        <time>2017-04-23T08:49:26Z</time>
      </trkpt>
      <trkpt lat="44.97305" lon="5.20134">
        <ele>808.61</ele>
        <time>2017-04-23T08:49:31Z</time>
      </trkpt>
      <trkpt lat="44.97304" lon="5.20136">
        <ele>809.09</ele>
        <time>2017-04-23T08:49:33Z</time>
      </trkpt>
      <trkpt lat="44.97301" lon="5.20138">
        <ele>809.09</ele>
        <time>2017-04-23T08:49:36Z</time>
      </trkpt>
      <trkpt lat="44.973" lon="5.20143">
        <ele>811.01</ele>
        <time>2017-04-23T08:49:43Z</time>
      </trkpt>
      <trkpt lat="44.97297" lon="5.20151">
        <ele>812.93</ele>
        <time>2017-04-23T08:49:51Z</time>
      </trkpt>
      <trkpt lat="44.97295" lon="5.20158">
        <ele>814.37</ele>
        <time>2017-04-23T08:49:57Z</time>
      </trkpt>
      <trkpt lat="44.97292" lon="5.20166">
        <ele>815.82</ele>
        <time>2017-04-23T08:50:03Z</time>
      </trkpt>
      <trkpt lat="44.97292" lon="5.20172">
        <ele>816.3</ele>
        <time>2017-04-23T08:50:08Z</time>
      </trkpt>
      <trkpt lat="44.97293" lon="5.20174">
        <ele>817.26</ele>
        <time>2017-04-23T08:50:10Z</time>
      </trkpt>
      <trkpt lat="44.97286" lon="5.20181">
        <ele>819.66</ele>
        <time>2017-04-23T08:50:22Z</time>
      </trkpt>
      <trkpt lat="44.97285" lon="5.20181">
        <ele>819.66</ele>
        <time>2017-04-23T08:50:25Z</time>
      </trkpt>
      <trkpt lat="44.97283" lon="5.20185">
        <ele>821.1</ele>
        <time>2017-04-23T08:50:32Z</time>
      </trkpt>
      <trkpt lat="44.97278" lon="5.20191">
        <ele>823.03</ele>
        <time>2017-04-23T08:50:43Z</time>
      </trkpt>
      <trkpt lat="44.97272" lon="5.20196">
        <ele>825.43</ele>
        <time>2017-04-23T08:50:52Z</time>
      </trkpt>
      <trkpt lat="44.97267" lon="5.20204">
        <ele>827.35</ele>
        <time>2017-04-23T08:51:02Z</time>
      </trkpt>
      <trkpt lat="44.97266" lon="5.2021">
        <ele>829.27</ele>
        <time>2017-04-23T08:51:11Z</time>
      </trkpt>
      <trkpt lat="44.9726" lon="5.20216">
        <ele>831.2</ele>
        <time>2017-04-23T08:51:21Z</time>
      </trkpt>
      <trkpt lat="44.9726" lon="5.20221">
        <ele>831.2</ele>
        <time>2017-04-23T08:51:26Z</time>
      </trkpt>
      <trkpt lat="44.97258" lon="5.20229">
        <ele>831.68</ele>
        <time>2017-04-23T08:51:31Z</time>
      </trkpt>
      <trkpt lat="44.97254" lon="5.20239">
        <ele>833.12</ele>
        <time>2017-04-23T08:51:43Z</time>
      </trkpt>
      <trkpt lat="44.97253" lon="5.2024">
        <ele>833.12</ele>
        <time>2017-04-23T08:51:44Z</time>
      </trkpt>
      <trkpt lat="44.97253" lon="5.20245">
        <ele>833.6</ele>
        <time>2017-04-23T08:51:49Z</time>
      </trkpt>
      <trkpt lat="44.97253" lon="5.20249">
        <ele>834.08</ele>
        <time>2017-04-23T08:51:51Z</time>
      </trkpt>
      <trkpt lat="44.97253" lon="5.20256">
        <ele>835.04</ele>
        <time>2017-04-23T08:51:56Z</time>
      </trkpt>
      <trkpt lat="44.97252" lon="5.20262">
        <ele>835.52</ele>
        <time>2017-04-23T08:52:00Z</time>
      </trkpt>
      <trkpt lat="44.97249" lon="5.20271">
        <ele>837.45</ele>
        <time>2017-04-23T08:52:12Z</time>
      </trkpt>
      <trkpt lat="44.97248" lon="5.20272">
        <ele>837.93</ele>
        <time>2017-04-23T08:52:13Z</time>
      </trkpt>
      <trkpt lat="44.97244" lon="5.20274">
        <ele>838.41</ele>
        <time>2017-04-23T08:52:26Z</time>
      </trkpt>
      <trkpt lat="44.97241" lon="5.20278">
        <ele>838.41</ele>
        <time>2017-04-23T08:52:48Z</time>
      </trkpt>
      <trkpt lat="44.9724" lon="5.20278">
        <ele>838.41</ele>
        <time>2017-04-23T08:53:15Z</time>
      </trkpt>
      <trkpt lat="44.97242" lon="5.20277">
        <ele>838.41</ele>
        <time>2017-04-23T08:53:27Z</time>
      </trkpt>
      <trkpt lat="44.97243" lon="5.20276">
        <ele>837.93</ele>
        <time>2017-04-23T08:53:53Z</time>
      </trkpt>
      <trkpt lat="44.97243" lon="5.20276">
        <ele>837.93</ele>
        <time>2017-04-23T08:54:12Z</time>
      </trkpt>
      <trkpt lat="44.97246" lon="5.20275">
        <ele>838.89</ele>
        <time>2017-04-23T08:54:29Z</time>
      </trkpt>
      <trkpt lat="44.97248" lon="5.20275">
        <ele>838.89</ele>
        <time>2017-04-23T08:54:31Z</time>
      </trkpt>
      <trkpt lat="44.9726" lon="5.20272">
        <ele>839.37</ele>
        <time>2017-04-23T08:54:41Z</time>
      </trkpt>
      <trkpt lat="44.97263" lon="5.2027">
        <ele>840.33</ele>
        <time>2017-04-23T08:54:45Z</time>
      </trkpt>
      <trkpt lat="44.97264" lon="5.20269">
        <ele>841.29</ele>
        <time>2017-04-23T08:54:47Z</time>
      </trkpt>
      <trkpt lat="44.97266" lon="5.2027">
        <ele>841.29</ele>
        <time>2017-04-23T08:54:49Z</time>
      </trkpt>
      <trkpt lat="44.97274" lon="5.20266">
        <ele>842.25</ele>
        <time>2017-04-23T08:54:56Z</time>
      </trkpt>
      <trkpt lat="44.97281" lon="5.20262">
        <ele>847.06</ele>
        <time>2017-04-23T08:55:04Z</time>
      </trkpt>
      <trkpt lat="44.97282" lon="5.20261">
        <ele>844.18</ele>
        <time>2017-04-23T08:55:05Z</time>
      </trkpt>
      <trkpt lat="44.97283" lon="5.2026">
        <ele>849.94</ele>
        <time>2017-04-23T08:55:06Z</time>
      </trkpt>
      <trkpt lat="44.97284" lon="5.20259">
        <ele>844.66</ele>
        <time>2017-04-23T08:55:07Z</time>
      </trkpt>
      <trkpt lat="44.97296" lon="5.20252">
        <ele>846.58</ele>
        <time>2017-04-23T08:55:21Z</time>
      </trkpt>
      <trkpt lat="44.9731" lon="5.20242">
        <ele>848.02</ele>
        <time>2017-04-23T08:55:36Z</time>
      </trkpt>
      <trkpt lat="44.97321" lon="5.20238">
        <ele>848.5</ele>
        <time>2017-04-23T08:55:45Z</time>
      </trkpt>
      <trkpt lat="44.97323" lon="5.20238">
        <ele>848.98</ele>
        <time>2017-04-23T08:55:47Z</time>
      </trkpt>
      <trkpt lat="44.97326" lon="5.20239">
        <ele>849.46</ele>
        <time>2017-04-23T08:55:50Z</time>
      </trkpt>
      <trkpt lat="44.97332" lon="5.20245">
        <ele>850.42</ele>
        <time>2017-04-23T08:55:58Z</time>
      </trkpt>
      <trkpt lat="44.97339" lon="5.20246">
        <ele>850.9</ele>
        <time>2017-04-23T08:56:04Z</time>
      </trkpt>
      <trkpt lat="44.97341" lon="5.20247">
        <ele>851.38</ele>
        <time>2017-04-23T08:56:07Z</time>
      </trkpt>
      <trkpt lat="44.97345" lon="5.2025">
        <ele>851.87</ele>
        <time>2017-04-23T08:56:11Z</time>
      </trkpt>
      <trkpt lat="44.97349" lon="5.20253">
        <ele>851.87</ele>
        <time>2017-04-23T08:56:15Z</time>
      </trkpt>
      <trkpt lat="44.97351" lon="5.20254">
        <ele>852.83</ele>
        <time>2017-04-23T08:56:19Z</time>
      </trkpt>
      <trkpt lat="44.97353" lon="5.20254">
        <ele>852.83</ele>
        <time>2017-04-23T08:56:21Z</time>
      </trkpt>
      <trkpt lat="44.97357" lon="5.20255">
        <ele>853.31</ele>
        <time>2017-04-23T08:56:25Z</time>
      </trkpt>
      <trkpt lat="44.97362" lon="5.20258">
        <ele>854.75</ele>
        <time>2017-04-23T08:56:33Z</time>
      </trkpt>
      <trkpt lat="44.9737" lon="5.20259">
        <ele>855.71</ele>
        <time>2017-04-23T08:56:41Z</time>
      </trkpt>
      <trkpt lat="44.97372" lon="5.20259">
        <ele>856.19</ele>
        <time>2017-04-23T08:56:43Z</time>
      </trkpt>
      <trkpt lat="44.97381" lon="5.2026">
        <ele>856.67</ele>
        <time>2017-04-23T08:56:53Z</time>
      </trkpt>
      <trkpt lat="44.97382" lon="5.2026">
        <ele>856.67</ele>
        <time>2017-04-23T08:56:54Z</time>
      </trkpt>
      <trkpt lat="44.97385" lon="5.20261">
        <ele>857.15</ele>
        <time>2017-04-23T08:56:57Z</time>
      </trkpt>
      <trkpt lat="44.97388" lon="5.20263">
        <ele>857.15</ele>
        <time>2017-04-23T08:56:59Z</time>
      </trkpt>
      <trkpt lat="44.97392" lon="5.20263">
        <ele>857.15</ele>
        <time>2017-04-23T08:57:02Z</time>
      </trkpt>
      <trkpt lat="44.97395" lon="5.20264">
        <ele>857.15</ele>
        <time>2017-04-23T08:57:05Z</time>
      </trkpt>
      <trkpt lat="44.97397" lon="5.20266">
        <ele>857.15</ele>
        <time>2017-04-23T08:57:07Z</time>
      </trkpt>
      <trkpt lat="44.97403" lon="5.20268">
        <ele>857.15</ele>
        <time>2017-04-23T08:57:16Z</time>
      </trkpt>
      <trkpt lat="44.97405" lon="5.20272">
        <ele>857.63</ele>
        <time>2017-04-23T08:57:20Z</time>
      </trkpt>
      <trkpt lat="44.97408" lon="5.20274">
        <ele>857.63</ele>
        <time>2017-04-23T08:57:22Z</time>
      </trkpt>
      <trkpt lat="44.97404" lon="5.20285">
        <ele>859.08</ele>
        <time>2017-04-23T08:57:33Z</time>
      </trkpt>
      <trkpt lat="44.97395" lon="5.20289">
        <ele>861</ele>
        <time>2017-04-23T08:57:43Z</time>
      </trkpt>
      <trkpt lat="44.97389" lon="5.2029">
        <ele>863.88</ele>
        <time>2017-04-23T08:57:54Z</time>
      </trkpt>
      <trkpt lat="44.97388" lon="5.20291">
        <ele>863.4</ele>
        <time>2017-04-23T08:57:55Z</time>
      </trkpt>
      <trkpt lat="44.97386" lon="5.20294">
        <ele>864.36</ele>
        <time>2017-04-23T08:57:59Z</time>
      </trkpt>
      <trkpt lat="44.97384" lon="5.20297">
        <ele>865.8</ele>
        <time>2017-04-23T08:58:04Z</time>
      </trkpt>
      <trkpt lat="44.97382" lon="5.20299">
        <ele>866.29</ele>
        <time>2017-04-23T08:58:07Z</time>
      </trkpt>
      <trkpt lat="44.97378" lon="5.20302">
        <ele>867.73</ele>
        <time>2017-04-23T08:58:12Z</time>
      </trkpt>
      <trkpt lat="44.97376" lon="5.20304">
        <ele>868.69</ele>
        <time>2017-04-23T08:58:16Z</time>
      </trkpt>
      <trkpt lat="44.9737" lon="5.20311">
        <ele>870.61</ele>
        <time>2017-04-23T08:58:26Z</time>
      </trkpt>
      <trkpt lat="44.97368" lon="5.20312">
        <ele>872.53</ele>
        <time>2017-04-23T08:58:33Z</time>
      </trkpt>
      <trkpt lat="44.97363" lon="5.20318">
        <ele>873.01</ele>
        <time>2017-04-23T08:58:38Z</time>
      </trkpt>
      <trkpt lat="44.97358" lon="5.20322">
        <ele>874.46</ele>
        <time>2017-04-23T08:58:46Z</time>
      </trkpt>
      <trkpt lat="44.97355" lon="5.20325">
        <ele>875.9</ele>
        <time>2017-04-23T08:58:53Z</time>
      </trkpt>
      <trkpt lat="44.97354" lon="5.20326">
        <ele>876.38</ele>
        <time>2017-04-23T08:58:56Z</time>
      </trkpt>
      <trkpt lat="44.97351" lon="5.20328">
        <ele>877.82</ele>
        <time>2017-04-23T08:59:03Z</time>
      </trkpt>
      <trkpt lat="44.97347" lon="5.2033">
        <ele>879.26</ele>
        <time>2017-04-23T08:59:08Z</time>
      </trkpt>
      <trkpt lat="44.97345" lon="5.20332">
        <ele>879.26</ele>
        <time>2017-04-23T08:59:10Z</time>
      </trkpt>
      <trkpt lat="44.9734" lon="5.20338">
        <ele>880.22</ele>
        <time>2017-04-23T08:59:17Z</time>
      </trkpt>
      <trkpt lat="44.97338" lon="5.20337">
        <ele>881.19</ele>
        <time>2017-04-23T08:59:19Z</time>
      </trkpt>
      <trkpt lat="44.97337" lon="5.20337">
        <ele>881.19</ele>
        <time>2017-04-23T08:59:22Z</time>
      </trkpt>
      <trkpt lat="44.97333" lon="5.20346">
        <ele>882.63</ele>
        <time>2017-04-23T08:59:32Z</time>
      </trkpt>
      <trkpt lat="44.97331" lon="5.20355">
        <ele>885.03</ele>
        <time>2017-04-23T08:59:42Z</time>
      </trkpt>
      <trkpt lat="44.97329" lon="5.20363">
        <ele>886.95</ele>
        <time>2017-04-23T08:59:51Z</time>
      </trkpt>
      <trkpt lat="44.97326" lon="5.20373">
        <ele>889.36</ele>
        <time>2017-04-23T09:00:03Z</time>
      </trkpt>
      <trkpt lat="44.97324" lon="5.20379">
        <ele>891.28</ele>
        <time>2017-04-23T09:00:09Z</time>
      </trkpt>
      <trkpt lat="44.9732" lon="5.20385">
        <ele>893.68</ele>
        <time>2017-04-23T09:00:20Z</time>
      </trkpt>
      <trkpt lat="44.97317" lon="5.20387">
        <ele>896.09</ele>
        <time>2017-04-23T09:00:29Z</time>
      </trkpt>
      <trkpt lat="44.97316" lon="5.20389">
        <ele>896.57</ele>
        <time>2017-04-23T09:00:32Z</time>
      </trkpt>
      <trkpt lat="44.97311" lon="5.20396">
        <ele>897.53</ele>
        <time>2017-04-23T09:00:44Z</time>
      </trkpt>
      <trkpt lat="44.97311" lon="5.20399">
        <ele>899.93</ele>
        <time>2017-04-23T09:00:54Z</time>
      </trkpt>
      <trkpt lat="44.9731" lon="5.20401">
        <ele>900.89</ele>
        <time>2017-04-23T09:00:57Z</time>
      </trkpt>
      <trkpt lat="44.97304" lon="5.20407">
        <ele>902.33</ele>
        <time>2017-04-23T09:01:07Z</time>
      </trkpt>
      <trkpt lat="44.97303" lon="5.20407">
        <ele>902.82</ele>
        <time>2017-04-23T09:01:09Z</time>
      </trkpt>
      <trkpt lat="44.97297" lon="5.20412">
        <ele>904.26</ele>
        <time>2017-04-23T09:01:17Z</time>
      </trkpt>
      <trkpt lat="44.97295" lon="5.20418">
        <ele>906.66</ele>
        <time>2017-04-23T09:01:27Z</time>
      </trkpt>
      <trkpt lat="44.97295" lon="5.20418">
        <ele>905.7</ele>
        <time>2017-04-23T09:01:28Z</time>
      </trkpt>
      <trkpt lat="44.97291" lon="5.20422">
        <ele>908.1</ele>
        <time>2017-04-23T09:01:33Z</time>
      </trkpt>
      <trkpt lat="44.97289" lon="5.20432">
        <ele>909.06</ele>
        <time>2017-04-23T09:01:42Z</time>
      </trkpt>
      <trkpt lat="44.97282" lon="5.2044">
        <ele>911.95</ele>
        <time>2017-04-23T09:01:54Z</time>
      </trkpt>
      <trkpt lat="44.97282" lon="5.20441">
        <ele>911.95</ele>
        <time>2017-04-23T09:01:56Z</time>
      </trkpt>
      <trkpt lat="44.97276" lon="5.20447">
        <ele>913.39</ele>
        <time>2017-04-23T09:02:03Z</time>
      </trkpt>
      <trkpt lat="44.97269" lon="5.20457">
        <ele>914.83</ele>
        <time>2017-04-23T09:02:13Z</time>
      </trkpt>
      <trkpt lat="44.97267" lon="5.20464">
        <ele>916.27</ele>
        <time>2017-04-23T09:02:23Z</time>
      </trkpt>
      <trkpt lat="44.97267" lon="5.20469">
        <ele>916.27</ele>
        <time>2017-04-23T09:02:28Z</time>
      </trkpt>
      <trkpt lat="44.97264" lon="5.20473">
        <ele>917.24</ele>
        <time>2017-04-23T09:02:33Z</time>
      </trkpt>
      <trkpt lat="44.97261" lon="5.20483">
        <ele>919.64</ele>
        <time>2017-04-23T09:02:42Z</time>
      </trkpt>
      <trkpt lat="44.97256" lon="5.20491">
        <ele>921.56</ele>
        <time>2017-04-23T09:02:51Z</time>
      </trkpt>
      <trkpt lat="44.97253" lon="5.20493">
        <ele>922.52</ele>
        <time>2017-04-23T09:02:53Z</time>
      </trkpt>
      <trkpt lat="44.9725" lon="5.20497">
        <ele>922.52</ele>
        <time>2017-04-23T09:02:57Z</time>
      </trkpt>
      <trkpt lat="44.9725" lon="5.20502">
        <ele>923</ele>
        <time>2017-04-23T09:03:00Z</time>
      </trkpt>
      <trkpt lat="44.97248" lon="5.20506">
        <ele>923.96</ele>
        <time>2017-04-23T09:03:03Z</time>
      </trkpt>
      <trkpt lat="44.97245" lon="5.20514">
        <ele>925.89</ele>
        <time>2017-04-23T09:03:13Z</time>
      </trkpt>
      <trkpt lat="44.97244" lon="5.20514">
        <ele>926.85</ele>
        <time>2017-04-23T09:03:14Z</time>
      </trkpt>
      <trkpt lat="44.97243" lon="5.20521">
        <ele>929.25</ele>
        <time>2017-04-23T09:03:26Z</time>
      </trkpt>
      <trkpt lat="44.97242" lon="5.20524">
        <ele>929.73</ele>
        <time>2017-04-23T09:03:28Z</time>
      </trkpt>
      <trkpt lat="44.97242" lon="5.20526">
        <ele>929.73</ele>
        <time>2017-04-23T09:03:30Z</time>
      </trkpt>
      <trkpt lat="44.9724" lon="5.20528">
        <ele>930.69</ele>
        <time>2017-04-23T09:03:32Z</time>
      </trkpt>
      <trkpt lat="44.97234" lon="5.2053">
        <ele>932.62</ele>
        <time>2017-04-23T09:03:42Z</time>
      </trkpt>
      <trkpt lat="44.97236" lon="5.20539">
        <ele>935.02</ele>
        <time>2017-04-23T09:03:54Z</time>
      </trkpt>
      <trkpt lat="44.97234" lon="5.20547">
        <ele>937.42</ele>
        <time>2017-04-23T09:04:06Z</time>
      </trkpt>
      <trkpt lat="44.97233" lon="5.20548">
        <ele>937.9</ele>
        <time>2017-04-23T09:04:08Z</time>
      </trkpt>
      <trkpt lat="44.97226" lon="5.20553">
        <ele>941.27</ele>
        <time>2017-04-23T09:04:19Z</time>
      </trkpt>
      <trkpt lat="44.97223" lon="5.2056">
        <ele>943.67</ele>
        <time>2017-04-23T09:04:31Z</time>
      </trkpt>
      <trkpt lat="44.97222" lon="5.20568">
        <ele>945.59</ele>
        <time>2017-04-23T09:04:42Z</time>
      </trkpt>
      <trkpt lat="44.97223" lon="5.20569">
        <ele>946.07</ele>
        <time>2017-04-23T09:04:43Z</time>
      </trkpt>
      <trkpt lat="44.97219" lon="5.20573">
        <ele>948</ele>
        <time>2017-04-23T09:04:54Z</time>
      </trkpt>
      <trkpt lat="44.97219" lon="5.20575">
        <ele>948.48</ele>
        <time>2017-04-23T09:04:57Z</time>
      </trkpt>
      <trkpt lat="44.97221" lon="5.20589">
        <ele>951.36</ele>
        <time>2017-04-23T09:05:10Z</time>
      </trkpt>
      <trkpt lat="44.9722" lon="5.20589">
        <ele>952.32</ele>
        <time>2017-04-23T09:05:14Z</time>
      </trkpt>
      <trkpt lat="44.97216" lon="5.20594">
        <ele>954.25</ele>
        <time>2017-04-23T09:05:22Z</time>
      </trkpt>
      <trkpt lat="44.97215" lon="5.20599">
        <ele>956.17</ele>
        <time>2017-04-23T09:05:33Z</time>
      </trkpt>
      <trkpt lat="44.97215" lon="5.20599">
        <ele>956.65</ele>
        <time>2017-04-23T09:05:35Z</time>
      </trkpt>
      <trkpt lat="44.97214" lon="5.20603">
        <ele>959.05</ele>
        <time>2017-04-23T09:05:45Z</time>
      </trkpt>
      <trkpt lat="44.97213" lon="5.20606">
        <ele>959.53</ele>
        <time>2017-04-23T09:05:47Z</time>
      </trkpt>
      <trkpt lat="44.9721" lon="5.2061">
        <ele>961.94</ele>
        <time>2017-04-23T09:05:58Z</time>
      </trkpt>
      <trkpt lat="44.9721" lon="5.20612">
        <ele>963.86</ele>
        <time>2017-04-23T09:06:07Z</time>
      </trkpt>
      <trkpt lat="44.97205" lon="5.20616">
        <ele>965.78</ele>
        <time>2017-04-23T09:06:17Z</time>
      </trkpt>
      <trkpt lat="44.97205" lon="5.20624">
        <ele>967.7</ele>
        <time>2017-04-23T09:06:28Z</time>
      </trkpt>
      <trkpt lat="44.97205" lon="5.20625">
        <ele>968.67</ele>
        <time>2017-04-23T09:06:43Z</time>
      </trkpt>
      <trkpt lat="44.97205" lon="5.20626">
        <ele>968.67</ele>
        <time>2017-04-23T09:07:06Z</time>
      </trkpt>
      <trkpt lat="44.97204" lon="5.20625">
        <ele>968.67</ele>
        <time>2017-04-23T09:07:32Z</time>
      </trkpt>
      <trkpt lat="44.97203" lon="5.20624">
        <ele>968.18</ele>
        <time>2017-04-23T09:08:02Z</time>
      </trkpt>
      <trkpt lat="44.97203" lon="5.20623">
        <ele>974.43</ele>
        <time>2017-04-23T09:08:13Z</time>
      </trkpt>
      <trkpt lat="44.97203" lon="5.20623">
        <ele>968.67</ele>
        <time>2017-04-23T09:08:14Z</time>
      </trkpt>
      <trkpt lat="44.97203" lon="5.20623">
        <ele>960.49</ele>
        <time>2017-04-23T09:08:15Z</time>
      </trkpt>
      <trkpt lat="44.97203" lon="5.20623">
        <ele>969.63</ele>
        <time>2017-04-23T09:08:16Z</time>
      </trkpt>
      <trkpt lat="44.97204" lon="5.20623">
        <ele>964.34</ele>
        <time>2017-04-23T09:08:18Z</time>
      </trkpt>
      <trkpt lat="44.97204" lon="5.20623">
        <ele>971.07</ele>
        <time>2017-04-23T09:08:19Z</time>
      </trkpt>
      <trkpt lat="44.97204" lon="5.20623">
        <ele>968.67</ele>
        <time>2017-04-23T09:08:31Z</time>
      </trkpt>
      <trkpt lat="44.97203" lon="5.20623">
        <ele>968.18</ele>
        <time>2017-04-23T09:08:57Z</time>
      </trkpt>
      <trkpt lat="44.97203" lon="5.20624">
        <ele>964.82</ele>
        <time>2017-04-23T09:09:09Z</time>
      </trkpt>
      <trkpt lat="44.97203" lon="5.20624">
        <ele>969.15</ele>
        <time>2017-04-23T09:09:10Z</time>
      </trkpt>
      <trkpt lat="44.97203" lon="5.20624">
        <ele>968.67</ele>
        <time>2017-04-23T09:09:42Z</time>
      </trkpt>
      <trkpt lat="44.97202" lon="5.20625">
        <ele>968.67</ele>
        <time>2017-04-23T09:10:07Z</time>
      </trkpt>
      <trkpt lat="44.97202" lon="5.20625">
        <ele>967.7</ele>
        <time>2017-04-23T09:10:23Z</time>
      </trkpt>
      <trkpt lat="44.97203" lon="5.20625">
        <ele>967.22</ele>
        <time>2017-04-23T09:10:37Z</time>
      </trkpt>
      <trkpt lat="44.97204" lon="5.20627">
        <ele>967.22</ele>
        <time>2017-04-23T09:11:08Z</time>
      </trkpt>
      <trkpt lat="44.97206" lon="5.20626">
        <ele>967.22</ele>
        <time>2017-04-23T09:11:35Z</time>
      </trkpt>
      <trkpt lat="44.97207" lon="5.20627">
        <ele>966.74</ele>
        <time>2017-04-23T09:12:02Z</time>
      </trkpt>
      <trkpt lat="44.97208" lon="5.20627">
        <ele>968.67</ele>
        <time>2017-04-23T09:12:26Z</time>
      </trkpt>
      <trkpt lat="44.97208" lon="5.20626">
        <ele>968.18</ele>
        <time>2017-04-23T09:12:38Z</time>
      </trkpt>
      <trkpt lat="44.97208" lon="5.20627">
        <ele>970.11</ele>
        <time>2017-04-23T09:12:50Z</time>
      </trkpt>
      <trkpt lat="44.97208" lon="5.20628">
        <ele>972.99</ele>
        <time>2017-04-23T09:13:02Z</time>
      </trkpt>
      <trkpt lat="44.97208" lon="5.20629">
        <ele>975.39</ele>
        <time>2017-04-23T09:13:17Z</time>
      </trkpt>
      <trkpt lat="44.97208" lon="5.20636">
        <ele>978.76</ele>
        <time>2017-04-23T09:13:30Z</time>
      </trkpt>
      <trkpt lat="44.97209" lon="5.20643">
        <ele>981.16</ele>
        <time>2017-04-23T09:13:41Z</time>
      </trkpt>
      <trkpt lat="44.9721" lon="5.20651">
        <ele>983.57</ele>
        <time>2017-04-23T09:13:54Z</time>
      </trkpt>
      <trkpt lat="44.97211" lon="5.20656">
        <ele>985.01</ele>
        <time>2017-04-23T09:14:04Z</time>
      </trkpt>
      <trkpt lat="44.97213" lon="5.20663">
        <ele>986.93</ele>
        <time>2017-04-23T09:14:15Z</time>
      </trkpt>
      <trkpt lat="44.97215" lon="5.20668">
        <ele>990.3</ele>
        <time>2017-04-23T09:14:27Z</time>
      </trkpt>
      <trkpt lat="44.97216" lon="5.20671">
        <ele>991.74</ele>
        <time>2017-04-23T09:14:39Z</time>
      </trkpt>
      <trkpt lat="44.97218" lon="5.20677">
        <ele>993.66</ele>
        <time>2017-04-23T09:14:51Z</time>
      </trkpt>
      <trkpt lat="44.97219" lon="5.20681">
        <ele>995.1</ele>
        <time>2017-04-23T09:15:03Z</time>
      </trkpt>
      <trkpt lat="44.9722" lon="5.20686">
        <ele>996.54</ele>
        <time>2017-04-23T09:15:15Z</time>
      </trkpt>
      <trkpt lat="44.97221" lon="5.20691">
        <ele>998.95</ele>
        <time>2017-04-23T09:15:26Z</time>
      </trkpt>
      <trkpt lat="44.97222" lon="5.207">
        <ele>1000.39</ele>
        <time>2017-04-23T09:15:36Z</time>
      </trkpt>
      <trkpt lat="44.97224" lon="5.20707">
        <ele>1003.27</ele>
        <time>2017-04-23T09:15:50Z</time>
      </trkpt>
      <trkpt lat="44.97225" lon="5.20714">
        <ele>1004.72</ele>
        <time>2017-04-23T09:15:59Z</time>
      </trkpt>
      <trkpt lat="44.97227" lon="5.20721">
        <ele>1006.64</ele>
        <time>2017-04-23T09:16:11Z</time>
      </trkpt>
      <trkpt lat="44.97234" lon="5.20737">
        <ele>1008.56</ele>
        <time>2017-04-23T09:16:22Z</time>
      </trkpt>
      <trkpt lat="44.97234" lon="5.2074">
        <ele>1008.56</ele>
        <time>2017-04-23T09:16:24Z</time>
      </trkpt>
      <trkpt lat="44.97234" lon="5.20753">
        <ele>1010.48</ele>
        <time>2017-04-23T09:16:34Z</time>
      </trkpt>
      <trkpt lat="44.97234" lon="5.20763">
        <ele>1011.93</ele>
        <time>2017-04-23T09:16:45Z</time>
      </trkpt>
      <trkpt lat="44.97232" lon="5.20773">
        <ele>1014.81</ele>
        <time>2017-04-23T09:16:56Z</time>
      </trkpt>
      <trkpt lat="44.97231" lon="5.2078">
        <ele>1016.25</ele>
        <time>2017-04-23T09:17:08Z</time>
      </trkpt>
      <trkpt lat="44.97232" lon="5.20785">
        <ele>1018.65</ele>
        <time>2017-04-23T09:17:20Z</time>
      </trkpt>
      <trkpt lat="44.97225" lon="5.20795">
        <ele>1021.06</ele>
        <time>2017-04-23T09:17:32Z</time>
      </trkpt>
      <trkpt lat="44.97222" lon="5.20803">
        <ele>1022.98</ele>
        <time>2017-04-23T09:17:44Z</time>
      </trkpt>
      <trkpt lat="44.9722" lon="5.20812">
        <ele>1024.42</ele>
        <time>2017-04-23T09:17:56Z</time>
      </trkpt>
      <trkpt lat="44.97219" lon="5.20817">
        <ele>1026.34</ele>
        <time>2017-04-23T09:18:08Z</time>
      </trkpt>
      <trkpt lat="44.97223" lon="5.20825">
        <ele>1028.27</ele>
        <time>2017-04-23T09:18:19Z</time>
      </trkpt>
      <trkpt lat="44.97225" lon="5.20835">
        <ele>1030.19</ele>
        <time>2017-04-23T09:18:30Z</time>
      </trkpt>
      <trkpt lat="44.97226" lon="5.20846">
        <ele>1031.63</ele>
        <time>2017-04-23T09:18:40Z</time>
      </trkpt>
      <trkpt lat="44.97227" lon="5.20847">
        <ele>1032.11</ele>
        <time>2017-04-23T09:18:41Z</time>
      </trkpt>
      <trkpt lat="44.97229" lon="5.20856">
        <ele>1034.52</ele>
        <time>2017-04-23T09:18:51Z</time>
      </trkpt>
      <trkpt lat="44.97231" lon="5.2086">
        <ele>1035.96</ele>
        <time>2017-04-23T09:19:02Z</time>
      </trkpt>
      <trkpt lat="44.97232" lon="5.2086">
        <ele>1036.44</ele>
        <time>2017-04-23T09:19:07Z</time>
      </trkpt>
      <trkpt lat="44.97233" lon="5.20863">
        <ele>1037.88</ele>
        <time>2017-04-23T09:19:16Z</time>
      </trkpt>
      <trkpt lat="44.97236" lon="5.20866">
        <ele>1039.8</ele>
        <time>2017-04-23T09:19:28Z</time>
      </trkpt>
      <trkpt lat="44.97234" lon="5.20875">
        <ele>1042.21</ele>
        <time>2017-04-23T09:19:42Z</time>
      </trkpt>
      <trkpt lat="44.97236" lon="5.20884">
        <ele>1045.09</ele>
        <time>2017-04-23T09:19:55Z</time>
      </trkpt>
      <trkpt lat="44.97238" lon="5.2089">
        <ele>1046.53</ele>
        <time>2017-04-23T09:20:06Z</time>
      </trkpt>
      <trkpt lat="44.97241" lon="5.20894">
        <ele>1048.94</ele>
        <time>2017-04-23T09:20:17Z</time>
      </trkpt>
      <trkpt lat="44.97242" lon="5.20896">
        <ele>1050.86</ele>
        <time>2017-04-23T09:20:29Z</time>
      </trkpt>
      <trkpt lat="44.97241" lon="5.20898">
        <ele>1052.3</ele>
        <time>2017-04-23T09:20:35Z</time>
      </trkpt>
      <trkpt lat="44.97239" lon="5.209">
        <ele>1052.78</ele>
        <time>2017-04-23T09:20:37Z</time>
      </trkpt>
      <trkpt lat="44.97238" lon="5.20906">
        <ele>1054.7</ele>
        <time>2017-04-23T09:20:50Z</time>
      </trkpt>
      <trkpt lat="44.97239" lon="5.20908">
        <ele>1056.15</ele>
        <time>2017-04-23T09:21:01Z</time>
      </trkpt>
      <trkpt lat="44.9724" lon="5.2091">
        <ele>1058.55</ele>
        <time>2017-04-23T09:21:12Z</time>
      </trkpt>
      <trkpt lat="44.97239" lon="5.2091">
        <ele>1058.55</ele>
        <time>2017-04-23T09:21:13Z</time>
      </trkpt>
      <trkpt lat="44.97238" lon="5.20913">
        <ele>1059.99</ele>
        <time>2017-04-23T09:21:22Z</time>
      </trkpt>
      <trkpt lat="44.97236" lon="5.20916">
        <ele>1061.43</ele>
        <time>2017-04-23T09:21:31Z</time>
      </trkpt>
      <trkpt lat="44.97236" lon="5.20927">
        <ele>1063.36</ele>
        <time>2017-04-23T09:21:44Z</time>
      </trkpt>
      <trkpt lat="44.97238" lon="5.20933">
        <ele>1065.76</ele>
        <time>2017-04-23T09:21:55Z</time>
      </trkpt>
      <trkpt lat="44.9724" lon="5.20935">
        <ele>1066.24</ele>
        <time>2017-04-23T09:22:01Z</time>
      </trkpt>
      <trkpt lat="44.97241" lon="5.20942">
        <ele>1068.64</ele>
        <time>2017-04-23T09:22:13Z</time>
      </trkpt>
      <trkpt lat="44.97242" lon="5.20946">
        <ele>1070.57</ele>
        <time>2017-04-23T09:22:22Z</time>
      </trkpt>
      <trkpt lat="44.97244" lon="5.2095">
        <ele>1072.49</ele>
        <time>2017-04-23T09:22:33Z</time>
      </trkpt>
      <trkpt lat="44.97246" lon="5.20957">
        <ele>1074.41</ele>
        <time>2017-04-23T09:22:45Z</time>
      </trkpt>
      <trkpt lat="44.97248" lon="5.20962">
        <ele>1076.33</ele>
        <time>2017-04-23T09:22:55Z</time>
      </trkpt>
      <trkpt lat="44.97247" lon="5.20965">
        <ele>1077.29</ele>
        <time>2017-04-23T09:22:58Z</time>
      </trkpt>
      <trkpt lat="44.97248" lon="5.20969">
        <ele>1079.22</ele>
        <time>2017-04-23T09:23:10Z</time>
      </trkpt>
      <trkpt lat="44.97247" lon="5.20972">
        <ele>1082.1</ele>
        <time>2017-04-23T09:23:23Z</time>
      </trkpt>
      <trkpt lat="44.97247" lon="5.20976">
        <ele>1083.54</ele>
        <time>2017-04-23T09:23:29Z</time>
      </trkpt>
      <trkpt lat="44.97248" lon="5.20981">
        <ele>1084.5</ele>
        <time>2017-04-23T09:23:33Z</time>
      </trkpt>
      <trkpt lat="44.97248" lon="5.20985">
        <ele>1085.47</ele>
        <time>2017-04-23T09:23:39Z</time>
      </trkpt>
      <trkpt lat="44.97253" lon="5.20988">
        <ele>1086.91</ele>
        <time>2017-04-23T09:23:49Z</time>
      </trkpt>
      <trkpt lat="44.97255" lon="5.20989">
        <ele>1087.87</ele>
        <time>2017-04-23T09:23:55Z</time>
      </trkpt>
      <trkpt lat="44.97257" lon="5.20995">
        <ele>1088.83</ele>
        <time>2017-04-23T09:24:05Z</time>
      </trkpt>
      <trkpt lat="44.97257" lon="5.20997">
        <ele>1088.35</ele>
        <time>2017-04-23T09:24:17Z</time>
      </trkpt>
      <trkpt lat="44.97259" lon="5.21003">
        <ele>1089.79</ele>
        <time>2017-04-23T09:24:26Z</time>
      </trkpt>
      <trkpt lat="44.97264" lon="5.2101">
        <ele>1091.23</ele>
        <time>2017-04-23T09:24:36Z</time>
      </trkpt>
      <trkpt lat="44.97265" lon="5.21019">
        <ele>1093.64</ele>
        <time>2017-04-23T09:24:48Z</time>
      </trkpt>
      <trkpt lat="44.97269" lon="5.21027">
        <ele>1096.52</ele>
        <time>2017-04-23T09:25:01Z</time>
      </trkpt>
      <trkpt lat="44.97273" lon="5.21032">
        <ele>1098.92</ele>
        <time>2017-04-23T09:25:15Z</time>
      </trkpt>
      <trkpt lat="44.97274" lon="5.21036">
        <ele>1100.85</ele>
        <time>2017-04-23T09:25:26Z</time>
      </trkpt>
      <trkpt lat="44.97273" lon="5.2104">
        <ele>1103.25</ele>
        <time>2017-04-23T09:25:38Z</time>
      </trkpt>
      <trkpt lat="44.97273" lon="5.21044">
        <ele>1105.65</ele>
        <time>2017-04-23T09:25:52Z</time>
      </trkpt>
      <trkpt lat="44.97274" lon="5.21046">
        <ele>1107.58</ele>
        <time>2017-04-23T09:26:05Z</time>
      </trkpt>
      <trkpt lat="44.97275" lon="5.21049">
        <ele>1109.5</ele>
        <time>2017-04-23T09:26:12Z</time>
      </trkpt>
      <trkpt lat="44.97277" lon="5.21057">
        <ele>1111.42</ele>
        <time>2017-04-23T09:26:23Z</time>
      </trkpt>
      <trkpt lat="44.9728" lon="5.21063">
        <ele>1113.82</ele>
        <time>2017-04-23T09:26:36Z</time>
      </trkpt>
      <trkpt lat="44.97279" lon="5.2107">
        <ele>1116.23</ele>
        <time>2017-04-23T09:26:49Z</time>
      </trkpt>
      <trkpt lat="44.97275" lon="5.21072">
        <ele>1118.15</ele>
        <time>2017-04-23T09:26:57Z</time>
      </trkpt>
      <trkpt lat="44.97272" lon="5.21067">
        <ele>1119.59</ele>
        <time>2017-04-23T09:27:07Z</time>
      </trkpt>
      <trkpt lat="44.97267" lon="5.21064">
        <ele>1121.52</ele>
        <time>2017-04-23T09:27:19Z</time>
      </trkpt>
      <trkpt lat="44.97264" lon="5.2106">
        <ele>1122.96</ele>
        <time>2017-04-23T09:27:31Z</time>
      </trkpt>
      <trkpt lat="44.97264" lon="5.2106">
        <ele>1123.44</ele>
        <time>2017-04-23T09:27:32Z</time>
      </trkpt>
      <trkpt lat="44.97263" lon="5.21061">
        <ele>1125.36</ele>
        <time>2017-04-23T09:27:42Z</time>
      </trkpt>
      <trkpt lat="44.97264" lon="5.21065">
        <ele>1126.8</ele>
        <time>2017-04-23T09:27:53Z</time>
      </trkpt>
      <trkpt lat="44.97262" lon="5.21067">
        <ele>1128.24</ele>
        <time>2017-04-23T09:28:08Z</time>
      </trkpt>
      <trkpt lat="44.97259" lon="5.21069">
        <ele>1130.17</ele>
        <time>2017-04-23T09:28:22Z</time>
      </trkpt>
      <trkpt lat="44.97258" lon="5.21073">
        <ele>1131.61</ele>
        <time>2017-04-23T09:28:34Z</time>
      </trkpt>
      <trkpt lat="44.97259" lon="5.21085">
        <ele>1134.01</ele>
        <time>2017-04-23T09:28:48Z</time>
      </trkpt>
      <trkpt lat="44.97259" lon="5.21085">
        <ele>1134.49</ele>
        <time>2017-04-23T09:28:50Z</time>
      </trkpt>
      <trkpt lat="44.97263" lon="5.21089">
        <ele>1136.9</ele>
        <time>2017-04-23T09:29:03Z</time>
      </trkpt>
      <trkpt lat="44.97263" lon="5.21089">
        <ele>1138.82</ele>
        <time>2017-04-23T09:29:17Z</time>
      </trkpt>
      <trkpt lat="44.97263" lon="5.21088">
        <ele>1138.82</ele>
        <time>2017-04-23T09:29:18Z</time>
      </trkpt>
      <trkpt lat="44.97265" lon="5.21088">
        <ele>1139.3</ele>
        <time>2017-04-23T09:29:23Z</time>
      </trkpt>
      <trkpt lat="44.97269" lon="5.21084">
        <ele>1140.74</ele>
        <time>2017-04-23T09:29:33Z</time>
      </trkpt>
      <trkpt lat="44.9727" lon="5.21088">
        <ele>1143.14</ele>
        <time>2017-04-23T09:29:44Z</time>
      </trkpt>
      <trkpt lat="44.97276" lon="5.21086">
        <ele>1145.07</ele>
        <time>2017-04-23T09:29:54Z</time>
      </trkpt>
      <trkpt lat="44.97278" lon="5.21086">
        <ele>1146.03</ele>
        <time>2017-04-23T09:30:00Z</time>
      </trkpt>
      <trkpt lat="44.97284" lon="5.21095">
        <ele>1147.47</ele>
        <time>2017-04-23T09:30:10Z</time>
      </trkpt>
      <trkpt lat="44.9729" lon="5.21111">
        <ele>1149.39</ele>
        <time>2017-04-23T09:30:23Z</time>
      </trkpt>
      <trkpt lat="44.97293" lon="5.21113">
        <ele>1151.32</ele>
        <time>2017-04-23T09:30:33Z</time>
      </trkpt>
      <trkpt lat="44.97293" lon="5.21117">
        <ele>1153.24</ele>
        <time>2017-04-23T09:30:46Z</time>
      </trkpt>
      <trkpt lat="44.97294" lon="5.21118">
        <ele>1153.24</ele>
        <time>2017-04-23T09:31:06Z</time>
      </trkpt>
      <trkpt lat="44.97293" lon="5.2112">
        <ele>1152.76</ele>
        <time>2017-04-23T09:31:23Z</time>
      </trkpt>
      <trkpt lat="44.97292" lon="5.2112">
        <ele>1153.24</ele>
        <time>2017-04-23T09:31:45Z</time>
      </trkpt>
      <trkpt lat="44.97293" lon="5.21121">
        <ele>1153.24</ele>
        <time>2017-04-23T09:32:02Z</time>
      </trkpt>
      <trkpt lat="44.97293" lon="5.21122">
        <ele>1153.24</ele>
        <time>2017-04-23T09:32:29Z</time>
      </trkpt>
      <trkpt lat="44.97292" lon="5.21123">
        <ele>1153.72</ele>
        <time>2017-04-23T09:32:54Z</time>
      </trkpt>
      <trkpt lat="44.97292" lon="5.21124">
        <ele>1153.72</ele>
        <time>2017-04-23T09:33:11Z</time>
      </trkpt>
      <trkpt lat="44.97293" lon="5.21124">
        <ele>1153.72</ele>
        <time>2017-04-23T09:33:30Z</time>
      </trkpt>
      <trkpt lat="44.97293" lon="5.21124">
        <ele>1153.24</ele>
        <time>2017-04-23T09:33:49Z</time>
      </trkpt>
      <trkpt lat="44.97293" lon="5.21123">
        <ele>1153.24</ele>
        <time>2017-04-23T09:34:13Z</time>
      </trkpt>
      <trkpt lat="44.97293" lon="5.21124">
        <ele>1153.24</ele>
        <time>2017-04-23T09:34:40Z</time>
      </trkpt>
      <trkpt lat="44.97294" lon="5.21124">
        <ele>1154.2</ele>
        <time>2017-04-23T09:35:07Z</time>
      </trkpt>
      <trkpt lat="44.97294" lon="5.21124">
        <ele>1154.2</ele>
        <time>2017-04-23T09:35:35Z</time>
      </trkpt>
      <trkpt lat="44.97294" lon="5.21124">
        <ele>1154.68</ele>
        <time>2017-04-23T09:36:04Z</time>
      </trkpt>
      <trkpt lat="44.97294" lon="5.21123">
        <ele>1154.68</ele>
        <time>2017-04-23T09:36:31Z</time>
      </trkpt>
      <trkpt lat="44.97294" lon="5.21123">
        <ele>1154.68</ele>
        <time>2017-04-23T09:36:52Z</time>
      </trkpt>
      <trkpt lat="44.97294" lon="5.21122">
        <ele>1154.68</ele>
        <time>2017-04-23T09:37:19Z</time>
      </trkpt>
      <trkpt lat="44.97295" lon="5.21122">
        <ele>1154.68</ele>
        <time>2017-04-23T09:37:44Z</time>
      </trkpt>
      <trkpt lat="44.97295" lon="5.21122">
        <ele>1155.16</ele>
        <time>2017-04-23T09:38:07Z</time>
      </trkpt>
      <trkpt lat="44.97295" lon="5.21122">
        <ele>1155.64</ele>
        <time>2017-04-23T09:38:31Z</time>
      </trkpt>
      <trkpt lat="44.97295" lon="5.21123">
        <ele>1155.64</ele>
        <time>2017-04-23T09:39:03Z</time>
      </trkpt>
      <trkpt lat="44.97295" lon="5.21124">
        <ele>1155.64</ele>
        <time>2017-04-23T09:39:31Z</time>
      </trkpt>
      <trkpt lat="44.97295" lon="5.21124">
        <ele>1155.64</ele>
        <time>2017-04-23T09:39:57Z</time>
      </trkpt>
      <trkpt lat="44.97295" lon="5.21124">
        <ele>1155.64</ele>
        <time>2017-04-23T09:40:25Z</time>
      </trkpt>
      <trkpt lat="44.97295" lon="5.21125">
        <ele>1156.12</ele>
        <time>2017-04-23T09:40:52Z</time>
      </trkpt>
      <trkpt lat="44.97294" lon="5.21125">
        <ele>1155.64</ele>
        <time>2017-04-23T09:41:19Z</time>
      </trkpt>
      <trkpt lat="44.97294" lon="5.21124">
        <ele>1156.6</ele>
        <time>2017-04-23T09:41:48Z</time>
      </trkpt>
      <trkpt lat="44.97294" lon="5.21124">
        <ele>1155.64</ele>
        <time>2017-04-23T09:42:10Z</time>
      </trkpt>
      <trkpt lat="44.97294" lon="5.21124">
        <ele>1157.08</ele>
        <time>2017-04-23T09:42:40Z</time>
      </trkpt>
      <trkpt lat="44.97294" lon="5.21125">
        <ele>1157.08</ele>
        <time>2017-04-23T09:43:10Z</time>
      </trkpt>
      <trkpt lat="44.97294" lon="5.21125">
        <ele>1156.6</ele>
        <time>2017-04-23T09:43:40Z</time>
      </trkpt>
      <trkpt lat="44.97294" lon="5.21125">
        <ele>1157.08</ele>
        <time>2017-04-23T09:44:12Z</time>
      </trkpt>
      <trkpt lat="44.97294" lon="5.21126">
        <ele>1156.6</ele>
        <time>2017-04-23T09:44:40Z</time>
      </trkpt>
      <trkpt lat="44.97295" lon="5.21123">
        <ele>1158.05</ele>
        <time>2017-04-23T09:45:03Z</time>
      </trkpt>
      <trkpt lat="44.97298" lon="5.21117">
        <ele>1160.45</ele>
        <time>2017-04-23T09:45:15Z</time>
      </trkpt>
      <trkpt lat="44.97297" lon="5.21114">
        <ele>1161.41</ele>
        <time>2017-04-23T09:45:19Z</time>
      </trkpt>
      <trkpt lat="44.97296" lon="5.21108">
        <ele>1162.85</ele>
        <time>2017-04-23T09:45:28Z</time>
      </trkpt>
      <trkpt lat="44.97299" lon="5.21105">
        <ele>1164.29</ele>
        <time>2017-04-23T09:45:39Z</time>
      </trkpt>
      <trkpt lat="44.97299" lon="5.21103">
        <ele>1166.22</ele>
        <time>2017-04-23T09:45:50Z</time>
      </trkpt>
      <trkpt lat="44.97303" lon="5.21096">
        <ele>1168.14</ele>
        <time>2017-04-23T09:46:00Z</time>
      </trkpt>
      <trkpt lat="44.97305" lon="5.21094">
        <ele>1169.58</ele>
        <time>2017-04-23T09:46:06Z</time>
      </trkpt>
      <trkpt lat="44.97306" lon="5.21088">
        <ele>1171.5</ele>
        <time>2017-04-23T09:46:16Z</time>
      </trkpt>
      <trkpt lat="44.97309" lon="5.21087">
        <ele>1172.47</ele>
        <time>2017-04-23T09:46:28Z</time>
      </trkpt>
      <trkpt lat="44.97312" lon="5.21086">
        <ele>1171.98</ele>
        <time>2017-04-23T09:46:37Z</time>
      </trkpt>
      <trkpt lat="44.97313" lon="5.21087">
        <ele>1171.98</ele>
        <time>2017-04-23T09:46:47Z</time>
      </trkpt>
      <trkpt lat="44.97315" lon="5.21089">
        <ele>1170.54</ele>
        <time>2017-04-23T09:46:59Z</time>
      </trkpt>
      <trkpt lat="44.97315" lon="5.21089">
        <ele>1170.54</ele>
        <time>2017-04-23T09:47:28Z</time>
      </trkpt>
      <trkpt lat="44.97315" lon="5.21089">
        <ele>1171.02</ele>
        <time>2017-04-23T09:47:53Z</time>
      </trkpt>
      <trkpt lat="44.97315" lon="5.21089">
        <ele>1171.02</ele>
        <time>2017-04-23T09:48:16Z</time>
      </trkpt>
      <trkpt lat="44.97314" lon="5.21088">
        <ele>1172.47</ele>
        <time>2017-04-23T09:48:45Z</time>
      </trkpt>
      <trkpt lat="44.97314" lon="5.21088">
        <ele>1172.47</ele>
        <time>2017-04-23T09:49:04Z</time>
      </trkpt>
      <trkpt lat="44.97314" lon="5.21088">
        <ele>1172.47</ele>
        <time>2017-04-23T09:49:05Z</time>
      </trkpt>
      <trkpt lat="44.97314" lon="5.21088">
        <ele>1172.47</ele>
        <time>2017-04-23T09:49:23Z</time>
      </trkpt>
      <trkpt lat="44.97314" lon="5.21088">
        <ele>1172.47</ele>
        <time>2017-04-23T09:49:34Z</time>
      </trkpt>
      <trkpt lat="44.97317" lon="5.2109">
        <ele>1171.98</ele>
        <time>2017-04-23T09:49:48Z</time>
      </trkpt>
      <trkpt lat="44.97321" lon="5.21098">
        <ele>1170.06</ele>
        <time>2017-04-23T09:49:59Z</time>
      </trkpt>
      <trkpt lat="44.97323" lon="5.21103">
        <ele>1169.1</ele>
        <time>2017-04-23T09:50:11Z</time>
      </trkpt>
      <trkpt lat="44.97324" lon="5.21107">
        <ele>1166.7</ele>
        <time>2017-04-23T09:50:24Z</time>
      </trkpt>
      <trkpt lat="44.97324" lon="5.21108">
        <ele>1164.77</ele>
        <time>2017-04-23T09:50:36Z</time>
      </trkpt>
      <trkpt lat="44.97326" lon="5.21109">
        <ele>1163.33</ele>
        <time>2017-04-23T09:50:50Z</time>
      </trkpt>
      <trkpt lat="44.97327" lon="5.21112">
        <ele>1161.41</ele>
        <time>2017-04-23T09:50:54Z</time>
      </trkpt>
      <trkpt lat="44.97332" lon="5.21119">
        <ele>1159.49</ele>
        <time>2017-04-23T09:51:05Z</time>
      </trkpt>
      <trkpt lat="44.97334" lon="5.21124">
        <ele>1156.6</ele>
        <time>2017-04-23T09:51:16Z</time>
      </trkpt>
      <trkpt lat="44.97334" lon="5.21125">
        <ele>1154.68</ele>
        <time>2017-04-23T09:51:25Z</time>
      </trkpt>
      <trkpt lat="44.97336" lon="5.21129">
        <ele>1153.24</ele>
        <time>2017-04-23T09:51:32Z</time>
      </trkpt>
      <trkpt lat="44.97339" lon="5.21135">
        <ele>1151.32</ele>
        <time>2017-04-23T09:51:41Z</time>
      </trkpt>
      <trkpt lat="44.9734" lon="5.21139">
        <ele>1148.43</ele>
        <time>2017-04-23T09:51:51Z</time>
      </trkpt>
      <trkpt lat="44.97343" lon="5.21146">
        <ele>1146.03</ele>
        <time>2017-04-23T09:52:03Z</time>
      </trkpt>
      <trkpt lat="44.97345" lon="5.2115">
        <ele>1143.14</ele>
        <time>2017-04-23T09:52:15Z</time>
      </trkpt>
      <trkpt lat="44.97345" lon="5.2115">
        <ele>1142.66</ele>
        <time>2017-04-23T09:52:16Z</time>
      </trkpt>
      <trkpt lat="44.9735" lon="5.21154">
        <ele>1140.74</ele>
        <time>2017-04-23T09:52:23Z</time>
      </trkpt>
      <trkpt lat="44.97351" lon="5.21161">
        <ele>1138.82</ele>
        <time>2017-04-23T09:52:33Z</time>
      </trkpt>
      <trkpt lat="44.97351" lon="5.21165">
        <ele>1137.38</ele>
        <time>2017-04-23T09:52:36Z</time>
      </trkpt>
      <trkpt lat="44.97357" lon="5.21174">
        <ele>1134.97</ele>
        <time>2017-04-23T09:52:46Z</time>
      </trkpt>
      <trkpt lat="44.97358" lon="5.21176">
        <ele>1134.01</ele>
        <time>2017-04-23T09:52:49Z</time>
      </trkpt>
      <trkpt lat="44.9736" lon="5.21182">
        <ele>1131.13</ele>
        <time>2017-04-23T09:53:00Z</time>
      </trkpt>
      <trkpt lat="44.97364" lon="5.21191">
        <ele>1128.73</ele>
        <time>2017-04-23T09:53:12Z</time>
      </trkpt>
      <trkpt lat="44.9737" lon="5.21205">
        <ele>1125.36</ele>
        <time>2017-04-23T09:53:23Z</time>
      </trkpt>
      <trkpt lat="44.97372" lon="5.21211">
        <ele>1124.88</ele>
        <time>2017-04-23T09:53:35Z</time>
      </trkpt>
      <trkpt lat="44.97372" lon="5.21211">
        <ele>1123.92</ele>
        <time>2017-04-23T09:53:36Z</time>
      </trkpt>
      <trkpt lat="44.97374" lon="5.21214">
        <ele>1123.92</ele>
        <time>2017-04-23T09:53:38Z</time>
      </trkpt>
      <trkpt lat="44.97383" lon="5.21222">
        <ele>1124.4</ele>
        <time>2017-04-23T09:53:49Z</time>
      </trkpt>
      <trkpt lat="44.9739" lon="5.21227">
        <ele>1126.32</ele>
        <time>2017-04-23T09:53:58Z</time>
      </trkpt>
      <trkpt lat="44.974" lon="5.21228">
        <ele>1127.76</ele>
        <time>2017-04-23T09:54:08Z</time>
      </trkpt>
      <trkpt lat="44.97406" lon="5.2123">
        <ele>1128.24</ele>
        <time>2017-04-23T09:54:14Z</time>
      </trkpt>
      <trkpt lat="44.97417" lon="5.21236">
        <ele>1131.13</ele>
        <time>2017-04-23T09:54:28Z</time>
      </trkpt>
      <trkpt lat="44.97417" lon="5.21236">
        <ele>1131.13</ele>
        <time>2017-04-23T09:54:31Z</time>
      </trkpt>
      <trkpt lat="44.97418" lon="5.21237">
        <ele>1131.61</ele>
        <time>2017-04-23T09:54:33Z</time>
      </trkpt>
      <trkpt lat="44.9742" lon="5.21239">
        <ele>1132.09</ele>
        <time>2017-04-23T09:54:36Z</time>
      </trkpt>
      <trkpt lat="44.97428" lon="5.21245">
        <ele>1133.05</ele>
        <time>2017-04-23T09:54:47Z</time>
      </trkpt>
      <trkpt lat="44.97432" lon="5.21249">
        <ele>1134.01</ele>
        <time>2017-04-23T09:54:58Z</time>
      </trkpt>
      <trkpt lat="44.97438" lon="5.21253">
        <ele>1135.45</ele>
        <time>2017-04-23T09:55:08Z</time>
      </trkpt>
      <trkpt lat="44.97441" lon="5.21257">
        <ele>1136.42</ele>
        <time>2017-04-23T09:55:18Z</time>
      </trkpt>
      <trkpt lat="44.97447" lon="5.21262">
        <ele>1138.34</ele>
        <time>2017-04-23T09:55:29Z</time>
      </trkpt>
      <trkpt lat="44.9745" lon="5.21265">
        <ele>1139.78</ele>
        <time>2017-04-23T09:55:39Z</time>
      </trkpt>
      <trkpt lat="44.97456" lon="5.21273">
        <ele>1139.78</ele>
        <time>2017-04-23T09:55:48Z</time>
      </trkpt>
      <trkpt lat="44.9746" lon="5.2128">
        <ele>1139.78</ele>
        <time>2017-04-23T09:55:57Z</time>
      </trkpt>
      <trkpt lat="44.97462" lon="5.21282">
        <ele>1140.26</ele>
        <time>2017-04-23T09:56:01Z</time>
      </trkpt>
      <trkpt lat="44.97463" lon="5.21285">
        <ele>1140.26</ele>
        <time>2017-04-23T09:56:04Z</time>
      </trkpt>
      <trkpt lat="44.97464" lon="5.21289">
        <ele>1140.26</ele>
        <time>2017-04-23T09:56:08Z</time>
      </trkpt>
      <trkpt lat="44.97464" lon="5.21292">
        <ele>1138.82</ele>
        <time>2017-04-23T09:56:10Z</time>
      </trkpt>
      <trkpt lat="44.97464" lon="5.21296">
        <ele>1138.34</ele>
        <time>2017-04-23T09:56:13Z</time>
      </trkpt>
      <trkpt lat="44.97469" lon="5.21299">
        <ele>1138.82</ele>
        <time>2017-04-23T09:56:24Z</time>
      </trkpt>
      <trkpt lat="44.97475" lon="5.21307">
        <ele>1138.34</ele>
        <time>2017-04-23T09:56:35Z</time>
      </trkpt>
      <trkpt lat="44.9748" lon="5.21313">
        <ele>1138.82</ele>
        <time>2017-04-23T09:56:46Z</time>
      </trkpt>
      <trkpt lat="44.97486" lon="5.2132">
        <ele>1139.3</ele>
        <time>2017-04-23T09:56:56Z</time>
      </trkpt>
      <trkpt lat="44.97487" lon="5.21323">
        <ele>1138.82</ele>
        <time>2017-04-23T09:57:00Z</time>
      </trkpt>
      <trkpt lat="44.97489" lon="5.21323">
        <ele>1138.82</ele>
        <time>2017-04-23T09:57:03Z</time>
      </trkpt>
      <trkpt lat="44.97494" lon="5.21331">
        <ele>1137.38</ele>
        <time>2017-04-23T09:57:15Z</time>
      </trkpt>
      <trkpt lat="44.97497" lon="5.21338">
        <ele>1137.38</ele>
        <time>2017-04-23T09:57:19Z</time>
      </trkpt>
      <trkpt lat="44.975" lon="5.21341">
        <ele>1137.38</ele>
        <time>2017-04-23T09:57:23Z</time>
      </trkpt>
      <trkpt lat="44.97507" lon="5.21347">
        <ele>1136.42</ele>
        <time>2017-04-23T09:57:30Z</time>
      </trkpt>
      <trkpt lat="44.97507" lon="5.21348">
        <ele>1135.45</ele>
        <time>2017-04-23T09:57:33Z</time>
      </trkpt>
      <trkpt lat="44.97517" lon="5.21361">
        <ele>1136.9</ele>
        <time>2017-04-23T09:57:46Z</time>
      </trkpt>
      <trkpt lat="44.97521" lon="5.21369">
        <ele>1136.42</ele>
        <time>2017-04-23T09:57:56Z</time>
      </trkpt>
      <trkpt lat="44.97528" lon="5.21382">
        <ele>1135.94</ele>
        <time>2017-04-23T09:58:04Z</time>
      </trkpt>
      <trkpt lat="44.97535" lon="5.21391">
        <ele>1135.94</ele>
        <time>2017-04-23T09:58:14Z</time>
      </trkpt>
      <trkpt lat="44.9754" lon="5.21397">
        <ele>1136.42</ele>
        <time>2017-04-23T09:58:20Z</time>
      </trkpt>
      <trkpt lat="44.9755" lon="5.21404">
        <ele>1137.38</ele>
        <time>2017-04-23T09:58:31Z</time>
      </trkpt>
      <trkpt lat="44.97554" lon="5.21406">
        <ele>1138.82</ele>
        <time>2017-04-23T09:58:37Z</time>
      </trkpt>
      <trkpt lat="44.9756" lon="5.2141">
        <ele>1139.3</ele>
        <time>2017-04-23T09:58:46Z</time>
      </trkpt>
      <trkpt lat="44.97567" lon="5.2142">
        <ele>1139.3</ele>
        <time>2017-04-23T09:58:58Z</time>
      </trkpt>
      <trkpt lat="44.97571" lon="5.21425">
        <ele>1139.78</ele>
        <time>2017-04-23T09:59:07Z</time>
      </trkpt>
      <trkpt lat="44.97574" lon="5.21428">
        <ele>1140.74</ele>
        <time>2017-04-23T09:59:12Z</time>
      </trkpt>
      <trkpt lat="44.97578" lon="5.21432">
        <ele>1141.7</ele>
        <time>2017-04-23T09:59:16Z</time>
      </trkpt>
      <trkpt lat="44.97584" lon="5.21437">
        <ele>1142.18</ele>
        <time>2017-04-23T09:59:24Z</time>
      </trkpt>
      <trkpt lat="44.97589" lon="5.21444">
        <ele>1142.18</ele>
        <time>2017-04-23T09:59:34Z</time>
      </trkpt>
      <trkpt lat="44.97592" lon="5.21452">
        <ele>1141.7</ele>
        <time>2017-04-23T09:59:42Z</time>
      </trkpt>
      <trkpt lat="44.97597" lon="5.21461">
        <ele>1140.74</ele>
        <time>2017-04-23T09:59:52Z</time>
      </trkpt>
      <trkpt lat="44.97602" lon="5.21471">
        <ele>1139.3</ele>
        <time>2017-04-23T10:00:01Z</time>
      </trkpt>
      <trkpt lat="44.97603" lon="5.21473">
        <ele>1138.34</ele>
        <time>2017-04-23T10:00:03Z</time>
      </trkpt>
      <trkpt lat="44.97608" lon="5.21484">
        <ele>1138.82</ele>
        <time>2017-04-23T10:00:13Z</time>
      </trkpt>
      <trkpt lat="44.97616" lon="5.21495">
        <ele>1138.34</ele>
        <time>2017-04-23T10:00:24Z</time>
      </trkpt>
      <trkpt lat="44.97617" lon="5.21496">
        <ele>1138.82</ele>
        <time>2017-04-23T10:00:27Z</time>
      </trkpt>
      <trkpt lat="44.97619" lon="5.215">
        <ele>1138.82</ele>
        <time>2017-04-23T10:00:30Z</time>
      </trkpt>
      <trkpt lat="44.97625" lon="5.21508">
        <ele>1139.3</ele>
        <time>2017-04-23T10:00:41Z</time>
      </trkpt>
      <trkpt lat="44.97629" lon="5.21513">
        <ele>1140.74</ele>
        <time>2017-04-23T10:00:50Z</time>
      </trkpt>
      <trkpt lat="44.97632" lon="5.21514">
        <ele>1140.74</ele>
        <time>2017-04-23T10:00:55Z</time>
      </trkpt>
      <trkpt lat="44.97635" lon="5.21519">
        <ele>1141.7</ele>
        <time>2017-04-23T10:01:00Z</time>
      </trkpt>
      <trkpt lat="44.97638" lon="5.2152">
        <ele>1142.18</ele>
        <time>2017-04-23T10:01:02Z</time>
      </trkpt>
      <trkpt lat="44.97639" lon="5.21523">
        <ele>1141.7</ele>
        <time>2017-04-23T10:01:05Z</time>
      </trkpt>
      <trkpt lat="44.97642" lon="5.21526">
        <ele>1140.26</ele>
        <time>2017-04-23T10:01:08Z</time>
      </trkpt>
      <trkpt lat="44.97643" lon="5.21528">
        <ele>1140.74</ele>
        <time>2017-04-23T10:01:10Z</time>
      </trkpt>
      <trkpt lat="44.9765" lon="5.2153">
        <ele>1142.18</ele>
        <time>2017-04-23T10:01:21Z</time>
      </trkpt>
      <trkpt lat="44.97656" lon="5.21538">
        <ele>1141.22</ele>
        <time>2017-04-23T10:01:32Z</time>
      </trkpt>
      <trkpt lat="44.97657" lon="5.21539">
        <ele>1140.74</ele>
        <time>2017-04-23T10:01:35Z</time>
      </trkpt>
      <trkpt lat="44.9766" lon="5.21544">
        <ele>1139.78</ele>
        <time>2017-04-23T10:01:44Z</time>
      </trkpt>
      <trkpt lat="44.97664" lon="5.21551">
        <ele>1138.34</ele>
        <time>2017-04-23T10:01:55Z</time>
      </trkpt>
      <trkpt lat="44.97666" lon="5.21559">
        <ele>1136.42</ele>
        <time>2017-04-23T10:02:08Z</time>
      </trkpt>
      <trkpt lat="44.97666" lon="5.21559">
        <ele>1136.9</ele>
        <time>2017-04-23T10:02:09Z</time>
      </trkpt>
      <trkpt lat="44.97668" lon="5.21564">
        <ele>1137.38</ele>
        <time>2017-04-23T10:02:13Z</time>
      </trkpt>
      <trkpt lat="44.97671" lon="5.2157">
        <ele>1136.42</ele>
        <time>2017-04-23T10:02:19Z</time>
      </trkpt>
      <trkpt lat="44.97672" lon="5.21573">
        <ele>1135.94</ele>
        <time>2017-04-23T10:02:21Z</time>
      </trkpt>
      <trkpt lat="44.97677" lon="5.21576">
        <ele>1134.49</ele>
        <time>2017-04-23T10:02:26Z</time>
      </trkpt>
      <trkpt lat="44.97679" lon="5.21587">
        <ele>1131.61</ele>
        <time>2017-04-23T10:02:35Z</time>
      </trkpt>
      <trkpt lat="44.97685" lon="5.21598">
        <ele>1130.65</ele>
        <time>2017-04-23T10:02:46Z</time>
      </trkpt>
      <trkpt lat="44.97687" lon="5.216">
        <ele>1132.09</ele>
        <time>2017-04-23T10:02:53Z</time>
      </trkpt>
      <trkpt lat="44.97692" lon="5.21601">
        <ele>1134.01</ele>
        <time>2017-04-23T10:03:05Z</time>
      </trkpt>
      <trkpt lat="44.97695" lon="5.21598">
        <ele>1135.45</ele>
        <time>2017-04-23T10:03:17Z</time>
      </trkpt>
      <trkpt lat="44.97698" lon="5.21594">
        <ele>1137.86</ele>
        <time>2017-04-23T10:03:30Z</time>
      </trkpt>
      <trkpt lat="44.97701" lon="5.21592">
        <ele>1139.78</ele>
        <time>2017-04-23T10:03:42Z</time>
      </trkpt>
      <trkpt lat="44.97705" lon="5.21588">
        <ele>1142.18</ele>
        <time>2017-04-23T10:03:52Z</time>
      </trkpt>
      <trkpt lat="44.97709" lon="5.21593">
        <ele>1142.18</ele>
        <time>2017-04-23T10:04:02Z</time>
      </trkpt>
      <trkpt lat="44.9771" lon="5.21594">
        <ele>1142.18</ele>
        <time>2017-04-23T10:04:04Z</time>
      </trkpt>
      <trkpt lat="44.97717" lon="5.216">
        <ele>1141.7</ele>
        <time>2017-04-23T10:04:15Z</time>
      </trkpt>
      <trkpt lat="44.97724" lon="5.21606">
        <ele>1143.14</ele>
        <time>2017-04-23T10:04:26Z</time>
      </trkpt>
      <trkpt lat="44.97731" lon="5.21612">
        <ele>1144.59</ele>
        <time>2017-04-23T10:04:39Z</time>
      </trkpt>
      <trkpt lat="44.97732" lon="5.21612">
        <ele>1146.03</ele>
        <time>2017-04-23T10:04:40Z</time>
      </trkpt>
      <trkpt lat="44.97734" lon="5.21613">
        <ele>1146.03</ele>
        <time>2017-04-23T10:04:43Z</time>
      </trkpt>
      <trkpt lat="44.97738" lon="5.21617">
        <ele>1145.07</ele>
        <time>2017-04-23T10:04:53Z</time>
      </trkpt>
      <trkpt lat="44.97742" lon="5.21622">
        <ele>1144.11</ele>
        <time>2017-04-23T10:05:02Z</time>
      </trkpt>
      <trkpt lat="44.97747" lon="5.21628">
        <ele>1143.14</ele>
        <time>2017-04-23T10:05:13Z</time>
      </trkpt>
      <trkpt lat="44.97751" lon="5.21635">
        <ele>1144.11</ele>
        <time>2017-04-23T10:05:23Z</time>
      </trkpt>
      <trkpt lat="44.97759" lon="5.21644">
        <ele>1143.63</ele>
        <time>2017-04-23T10:05:34Z</time>
      </trkpt>
      <trkpt lat="44.9776" lon="5.21644">
        <ele>1143.14</ele>
        <time>2017-04-23T10:05:35Z</time>
      </trkpt>
      <trkpt lat="44.97765" lon="5.21652">
        <ele>1141.22</ele>
        <time>2017-04-23T10:05:46Z</time>
      </trkpt>
      <trkpt lat="44.9777" lon="5.21663">
        <ele>1140.26</ele>
        <time>2017-04-23T10:05:58Z</time>
      </trkpt>
      <trkpt lat="44.97774" lon="5.21664">
        <ele>1141.22</ele>
        <time>2017-04-23T10:06:08Z</time>
      </trkpt>
      <trkpt lat="44.97777" lon="5.2167">
        <ele>1141.22</ele>
        <time>2017-04-23T10:06:18Z</time>
      </trkpt>
      <trkpt lat="44.9778" lon="5.21678">
        <ele>1139.3</ele>
        <time>2017-04-23T10:06:29Z</time>
      </trkpt>
      <trkpt lat="44.97781" lon="5.21684">
        <ele>1137.86</ele>
        <time>2017-04-23T10:06:42Z</time>
      </trkpt>
      <trkpt lat="44.97782" lon="5.21686">
        <ele>1136.9</ele>
        <time>2017-04-23T10:06:46Z</time>
      </trkpt>
      <trkpt lat="44.97784" lon="5.21688">
        <ele>1137.38</ele>
        <time>2017-04-23T10:06:58Z</time>
      </trkpt>
      <trkpt lat="44.97785" lon="5.2169">
        <ele>1137.38</ele>
        <time>2017-04-23T10:07:01Z</time>
      </trkpt>
      <trkpt lat="44.9779" lon="5.21692">
        <ele>1136.9</ele>
        <time>2017-04-23T10:07:06Z</time>
      </trkpt>
      <trkpt lat="44.97793" lon="5.21695">
        <ele>1138.34</ele>
        <time>2017-04-23T10:07:11Z</time>
      </trkpt>
      <trkpt lat="44.97796" lon="5.21697">
        <ele>1138.34</ele>
        <time>2017-04-23T10:07:17Z</time>
      </trkpt>
      <trkpt lat="44.97799" lon="5.21701">
        <ele>1138.34</ele>
        <time>2017-04-23T10:07:24Z</time>
      </trkpt>
      <trkpt lat="44.97804" lon="5.21705">
        <ele>1137.38</ele>
        <time>2017-04-23T10:07:34Z</time>
      </trkpt>
      <trkpt lat="44.97805" lon="5.21707">
        <ele>1137.38</ele>
        <time>2017-04-23T10:07:38Z</time>
      </trkpt>
      <trkpt lat="44.97807" lon="5.21708">
        <ele>1137.38</ele>
        <time>2017-04-23T10:07:40Z</time>
      </trkpt>
      <trkpt lat="44.9781" lon="5.21711">
        <ele>1137.38</ele>
        <time>2017-04-23T10:07:45Z</time>
      </trkpt>
      <trkpt lat="44.97815" lon="5.2173">
        <ele>1136.9</ele>
        <time>2017-04-23T10:07:56Z</time>
      </trkpt>
      <trkpt lat="44.97822" lon="5.21734">
        <ele>1138.82</ele>
        <time>2017-04-23T10:08:05Z</time>
      </trkpt>
      <trkpt lat="44.97828" lon="5.21743">
        <ele>1139.78</ele>
        <time>2017-04-23T10:08:17Z</time>
      </trkpt>
      <trkpt lat="44.97829" lon="5.21744">
        <ele>1139.3</ele>
        <time>2017-04-23T10:08:20Z</time>
      </trkpt>
      <trkpt lat="44.97833" lon="5.2175">
        <ele>1139.3</ele>
        <time>2017-04-23T10:08:31Z</time>
      </trkpt>
      <trkpt lat="44.97836" lon="5.21753">
        <ele>1141.7</ele>
        <time>2017-04-23T10:08:43Z</time>
      </trkpt>
      <trkpt lat="44.97841" lon="5.21755">
        <ele>1142.66</ele>
        <time>2017-04-23T10:08:54Z</time>
      </trkpt>
      <trkpt lat="44.97848" lon="5.21758">
        <ele>1144.59</ele>
        <time>2017-04-23T10:09:07Z</time>
      </trkpt>
      <trkpt lat="44.97853" lon="5.21761">
        <ele>1146.03</ele>
        <time>2017-04-23T10:09:19Z</time>
      </trkpt>
      <trkpt lat="44.97857" lon="5.21761">
        <ele>1148.43</ele>
        <time>2017-04-23T10:09:31Z</time>
      </trkpt>
      <trkpt lat="44.97858" lon="5.21761">
        <ele>1148.91</ele>
        <time>2017-04-23T10:09:33Z</time>
      </trkpt>
      <trkpt lat="44.97861" lon="5.21765">
        <ele>1150.84</ele>
        <time>2017-04-23T10:09:43Z</time>
      </trkpt>
      <trkpt lat="44.97863" lon="5.21766">
        <ele>1150.84</ele>
        <time>2017-04-23T10:09:45Z</time>
      </trkpt>
      <trkpt lat="44.97867" lon="5.21769">
        <ele>1151.32</ele>
        <time>2017-04-23T10:09:55Z</time>
      </trkpt>
      <trkpt lat="44.97874" lon="5.21774">
        <ele>1151.8</ele>
        <time>2017-04-23T10:10:05Z</time>
      </trkpt>
      <trkpt lat="44.9788" lon="5.21779">
        <ele>1151.8</ele>
        <time>2017-04-23T10:10:18Z</time>
      </trkpt>
      <trkpt lat="44.97883" lon="5.21782">
        <ele>1151.8</ele>
        <time>2017-04-23T10:10:22Z</time>
      </trkpt>
      <trkpt lat="44.97888" lon="5.21789">
        <ele>1153.24</ele>
        <time>2017-04-23T10:10:31Z</time>
      </trkpt>
      <trkpt lat="44.97889" lon="5.21791">
        <ele>1152.76</ele>
        <time>2017-04-23T10:10:33Z</time>
      </trkpt>
      <trkpt lat="44.97893" lon="5.21796">
        <ele>1152.28</ele>
        <time>2017-04-23T10:10:44Z</time>
      </trkpt>
      <trkpt lat="44.97898" lon="5.21804">
        <ele>1151.8</ele>
        <time>2017-04-23T10:10:54Z</time>
      </trkpt>
      <trkpt lat="44.979" lon="5.2181">
        <ele>1149.87</ele>
        <time>2017-04-23T10:11:03Z</time>
      </trkpt>
      <trkpt lat="44.97903" lon="5.21818">
        <ele>1148.43</ele>
        <time>2017-04-23T10:11:12Z</time>
      </trkpt>
      <trkpt lat="44.97905" lon="5.21824">
        <ele>1146.99</ele>
        <time>2017-04-23T10:11:21Z</time>
      </trkpt>
      <trkpt lat="44.97906" lon="5.21827">
        <ele>1146.03</ele>
        <time>2017-04-23T10:11:24Z</time>
      </trkpt>
      <trkpt lat="44.9791" lon="5.21832">
        <ele>1145.55</ele>
        <time>2017-04-23T10:11:31Z</time>
      </trkpt>
      <trkpt lat="44.97915" lon="5.21838">
        <ele>1144.59</ele>
        <time>2017-04-23T10:11:41Z</time>
      </trkpt>
      <trkpt lat="44.9792" lon="5.21848">
        <ele>1145.07</ele>
        <time>2017-04-23T10:11:51Z</time>
      </trkpt>
      <trkpt lat="44.97922" lon="5.21854">
        <ele>1144.11</ele>
        <time>2017-04-23T10:12:03Z</time>
      </trkpt>
      <trkpt lat="44.97925" lon="5.21861">
        <ele>1144.59</ele>
        <time>2017-04-23T10:12:14Z</time>
      </trkpt>
      <trkpt lat="44.97933" lon="5.21868">
        <ele>1146.99</ele>
        <time>2017-04-23T10:12:26Z</time>
      </trkpt>
      <trkpt lat="44.97937" lon="5.21868">
        <ele>1148.43</ele>
        <time>2017-04-23T10:12:37Z</time>
      </trkpt>
      <trkpt lat="44.97941" lon="5.2187">
        <ele>1150.35</ele>
        <time>2017-04-23T10:12:45Z</time>
      </trkpt>
      <trkpt lat="44.97948" lon="5.21872">
        <ele>1152.28</ele>
        <time>2017-04-23T10:12:59Z</time>
      </trkpt>
      <trkpt lat="44.97953" lon="5.21875">
        <ele>1152.76</ele>
        <time>2017-04-23T10:13:09Z</time>
      </trkpt>
      <trkpt lat="44.97958" lon="5.21878">
        <ele>1154.68</ele>
        <time>2017-04-23T10:13:20Z</time>
      </trkpt>
      <trkpt lat="44.97962" lon="5.21878">
        <ele>1156.12</ele>
        <time>2017-04-23T10:13:33Z</time>
      </trkpt>
      <trkpt lat="44.97969" lon="5.2188">
        <ele>1159.01</ele>
        <time>2017-04-23T10:13:44Z</time>
      </trkpt>
      <trkpt lat="44.97976" lon="5.21885">
        <ele>1160.45</ele>
        <time>2017-04-23T10:13:54Z</time>
      </trkpt>
      <trkpt lat="44.97977" lon="5.21885">
        <ele>1159.97</ele>
        <time>2017-04-23T10:13:56Z</time>
      </trkpt>
      <trkpt lat="44.97987" lon="5.2189">
        <ele>1159.97</ele>
        <time>2017-04-23T10:14:07Z</time>
      </trkpt>
      <trkpt lat="44.9799" lon="5.21894">
        <ele>1159.97</ele>
        <time>2017-04-23T10:14:12Z</time>
      </trkpt>
      <trkpt lat="44.97996" lon="5.21903">
        <ele>1158.53</ele>
        <time>2017-04-23T10:14:22Z</time>
      </trkpt>
      <trkpt lat="44.97999" lon="5.21909">
        <ele>1157.56</ele>
        <time>2017-04-23T10:14:28Z</time>
      </trkpt>
      <trkpt lat="44.98004" lon="5.21913">
        <ele>1159.01</ele>
        <time>2017-04-23T10:14:40Z</time>
      </trkpt>
      <trkpt lat="44.98004" lon="5.21913">
        <ele>1159.49</ele>
        <time>2017-04-23T10:14:42Z</time>
      </trkpt>
      <trkpt lat="44.98011" lon="5.21917">
        <ele>1160.93</ele>
        <time>2017-04-23T10:14:52Z</time>
      </trkpt>
      <trkpt lat="44.98015" lon="5.2192">
        <ele>1162.37</ele>
        <time>2017-04-23T10:15:03Z</time>
      </trkpt>
      <trkpt lat="44.98016" lon="5.21921">
        <ele>1162.37</ele>
        <time>2017-04-23T10:15:04Z</time>
      </trkpt>
      <trkpt lat="44.98022" lon="5.21927">
        <ele>1162.85</ele>
        <time>2017-04-23T10:15:15Z</time>
      </trkpt>
      <trkpt lat="44.98026" lon="5.21929">
        <ele>1163.33</ele>
        <time>2017-04-23T10:15:21Z</time>
      </trkpt>
      <trkpt lat="44.98036" lon="5.21934">
        <ele>1165.26</ele>
        <time>2017-04-23T10:15:32Z</time>
      </trkpt>
      <trkpt lat="44.98041" lon="5.21937">
        <ele>1165.74</ele>
        <time>2017-04-23T10:15:40Z</time>
      </trkpt>
      <trkpt lat="44.98046" lon="5.2194">
        <ele>1166.22</ele>
        <time>2017-04-23T10:15:49Z</time>
      </trkpt>
      <trkpt lat="44.9805" lon="5.21943">
        <ele>1166.22</ele>
        <time>2017-04-23T10:15:59Z</time>
      </trkpt>
      <trkpt lat="44.9805" lon="5.21944">
        <ele>1166.7</ele>
        <time>2017-04-23T10:16:00Z</time>
      </trkpt>
      <trkpt lat="44.98058" lon="5.21951">
        <ele>1167.66</ele>
        <time>2017-04-23T10:16:11Z</time>
      </trkpt>
      <trkpt lat="44.98063" lon="5.21957">
        <ele>1167.18</ele>
        <time>2017-04-23T10:16:16Z</time>
      </trkpt>
      <trkpt lat="44.98069" lon="5.21963">
        <ele>1166.7</ele>
        <time>2017-04-23T10:16:26Z</time>
      </trkpt>
      <trkpt lat="44.98071" lon="5.21964">
        <ele>1168.14</ele>
        <time>2017-04-23T10:16:40Z</time>
      </trkpt>
      <trkpt lat="44.98081" lon="5.21966">
        <ele>1169.58</ele>
        <time>2017-04-23T10:16:51Z</time>
      </trkpt>
      <trkpt lat="44.98084" lon="5.21968">
        <ele>1170.06</ele>
        <time>2017-04-23T10:17:02Z</time>
      </trkpt>
      <trkpt lat="44.98084" lon="5.2197">
        <ele>1169.1</ele>
        <time>2017-04-23T10:17:11Z</time>
      </trkpt>
      <trkpt lat="44.98085" lon="5.21971">
        <ele>1168.62</ele>
        <time>2017-04-23T10:17:21Z</time>
      </trkpt>
      <trkpt lat="44.98085" lon="5.21971">
        <ele>1169.1</ele>
        <time>2017-04-23T10:17:46Z</time>
      </trkpt>
      <trkpt lat="44.98086" lon="5.21971">
        <ele>1169.58</ele>
        <time>2017-04-23T10:18:24Z</time>
      </trkpt>
      <trkpt lat="44.98087" lon="5.21973">
        <ele>1169.58</ele>
        <time>2017-04-23T10:18:33Z</time>
      </trkpt>
      <trkpt lat="44.98088" lon="5.21973">
        <ele>1170.06</ele>
        <time>2017-04-23T10:18:48Z</time>
      </trkpt>
      <trkpt lat="44.98091" lon="5.2197">
        <ele>1172.47</ele>
        <time>2017-04-23T10:18:59Z</time>
      </trkpt>
      <trkpt lat="44.98098" lon="5.21969">
        <ele>1173.91</ele>
        <time>2017-04-23T10:19:11Z</time>
      </trkpt>
      <trkpt lat="44.98099" lon="5.2197">
        <ele>1173.43</ele>
        <time>2017-04-23T10:19:12Z</time>
      </trkpt>
      <trkpt lat="44.98106" lon="5.21971">
        <ele>1174.39</ele>
        <time>2017-04-23T10:19:21Z</time>
      </trkpt>
      <trkpt lat="44.98109" lon="5.21973">
        <ele>1174.87</ele>
        <time>2017-04-23T10:19:29Z</time>
      </trkpt>
      <trkpt lat="44.98112" lon="5.21976">
        <ele>1174.87</ele>
        <time>2017-04-23T10:19:33Z</time>
      </trkpt>
      <trkpt lat="44.9812" lon="5.21981">
        <ele>1174.39</ele>
        <time>2017-04-23T10:19:44Z</time>
      </trkpt>
      <trkpt lat="44.98122" lon="5.21983">
        <ele>1174.39</ele>
        <time>2017-04-23T10:19:47Z</time>
      </trkpt>
      <trkpt lat="44.98129" lon="5.21992">
        <ele>1172.47</ele>
        <time>2017-04-23T10:19:59Z</time>
      </trkpt>
      <trkpt lat="44.98132" lon="5.22">
        <ele>1171.02</ele>
        <time>2017-04-23T10:20:09Z</time>
      </trkpt>
      <trkpt lat="44.98133" lon="5.22001">
        <ele>1171.02</ele>
        <time>2017-04-23T10:20:10Z</time>
      </trkpt>
      <trkpt lat="44.98136" lon="5.22012">
        <ele>1167.18</ele>
        <time>2017-04-23T10:20:22Z</time>
      </trkpt>
      <trkpt lat="44.98137" lon="5.22014">
        <ele>1167.18</ele>
        <time>2017-04-23T10:20:27Z</time>
      </trkpt>
      <trkpt lat="44.98143" lon="5.22019">
        <ele>1164.77</ele>
        <time>2017-04-23T10:20:39Z</time>
      </trkpt>
      <trkpt lat="44.98148" lon="5.22023">
        <ele>1165.26</ele>
        <time>2017-04-23T10:20:51Z</time>
      </trkpt>
      <trkpt lat="44.98151" lon="5.22026">
        <ele>1164.77</ele>
        <time>2017-04-23T10:21:03Z</time>
      </trkpt>
      <trkpt lat="44.98153" lon="5.22025">
        <ele>1165.74</ele>
        <time>2017-04-23T10:21:15Z</time>
      </trkpt>
      <trkpt lat="44.98156" lon="5.22026">
        <ele>1165.74</ele>
        <time>2017-04-23T10:21:27Z</time>
      </trkpt>
      <trkpt lat="44.98156" lon="5.22031">
        <ele>1162.85</ele>
        <time>2017-04-23T10:21:36Z</time>
      </trkpt>
      <trkpt lat="44.9816" lon="5.22037">
        <ele>1162.37</ele>
        <time>2017-04-23T10:21:42Z</time>
      </trkpt>
      <trkpt lat="44.98167" lon="5.22045">
        <ele>1161.41</ele>
        <time>2017-04-23T10:21:52Z</time>
      </trkpt>
      <trkpt lat="44.98173" lon="5.2205">
        <ele>1161.41</ele>
        <time>2017-04-23T10:22:02Z</time>
      </trkpt>
      <trkpt lat="44.98176" lon="5.22052">
        <ele>1160.93</ele>
        <time>2017-04-23T10:22:06Z</time>
      </trkpt>
      <trkpt lat="44.98178" lon="5.22056">
        <ele>1159.97</ele>
        <time>2017-04-23T10:22:09Z</time>
      </trkpt>
      <trkpt lat="44.98184" lon="5.22059">
        <ele>1160.45</ele>
        <time>2017-04-23T10:22:13Z</time>
      </trkpt>
      <trkpt lat="44.98191" lon="5.22067">
        <ele>1159.49</ele>
        <time>2017-04-23T10:22:22Z</time>
      </trkpt>
      <trkpt lat="44.98193" lon="5.2207">
        <ele>1159.01</ele>
        <time>2017-04-23T10:22:25Z</time>
      </trkpt>
      <trkpt lat="44.98199" lon="5.2208">
        <ele>1157.56</ele>
        <time>2017-04-23T10:22:34Z</time>
      </trkpt>
      <trkpt lat="44.98209" lon="5.22085">
        <ele>1159.01</ele>
        <time>2017-04-23T10:22:46Z</time>
      </trkpt>
      <trkpt lat="44.98214" lon="5.22085">
        <ele>1159.49</ele>
        <time>2017-04-23T10:22:58Z</time>
      </trkpt>
      <trkpt lat="44.98215" lon="5.22087">
        <ele>1159.49</ele>
        <time>2017-04-23T10:23:00Z</time>
      </trkpt>
      <trkpt lat="44.98221" lon="5.22094">
        <ele>1158.53</ele>
        <time>2017-04-23T10:23:11Z</time>
      </trkpt>
      <trkpt lat="44.98227" lon="5.22099">
        <ele>1158.05</ele>
        <time>2017-04-23T10:23:20Z</time>
      </trkpt>
      <trkpt lat="44.98229" lon="5.221">
        <ele>1158.53</ele>
        <time>2017-04-23T10:23:22Z</time>
      </trkpt>
      <trkpt lat="44.98235" lon="5.22102">
        <ele>1158.53</ele>
        <time>2017-04-23T10:23:32Z</time>
      </trkpt>
      <trkpt lat="44.98239" lon="5.22106">
        <ele>1159.49</ele>
        <time>2017-04-23T10:23:42Z</time>
      </trkpt>
      <trkpt lat="44.98239" lon="5.22106">
        <ele>1159.01</ele>
        <time>2017-04-23T10:23:44Z</time>
      </trkpt>
      <trkpt lat="44.98243" lon="5.22111">
        <ele>1157.56</ele>
        <time>2017-04-23T10:23:50Z</time>
      </trkpt>
      <trkpt lat="44.98245" lon="5.22112">
        <ele>1158.05</ele>
        <time>2017-04-23T10:23:53Z</time>
      </trkpt>
      <trkpt lat="44.98248" lon="5.22115">
        <ele>1157.56</ele>
        <time>2017-04-23T10:23:58Z</time>
      </trkpt>
      <trkpt lat="44.98253" lon="5.22118">
        <ele>1157.08</ele>
        <time>2017-04-23T10:24:06Z</time>
      </trkpt>
      <trkpt lat="44.98255" lon="5.2212">
        <ele>1157.08</ele>
        <time>2017-04-23T10:24:10Z</time>
      </trkpt>
      <trkpt lat="44.98258" lon="5.22122">
        <ele>1157.56</ele>
        <time>2017-04-23T10:24:16Z</time>
      </trkpt>
      <trkpt lat="44.98261" lon="5.22127">
        <ele>1156.6</ele>
        <time>2017-04-23T10:24:27Z</time>
      </trkpt>
      <trkpt lat="44.98265" lon="5.22135">
        <ele>1154.2</ele>
        <time>2017-04-23T10:24:38Z</time>
      </trkpt>
      <trkpt lat="44.98267" lon="5.22138">
        <ele>1153.72</ele>
        <time>2017-04-23T10:24:42Z</time>
      </trkpt>
      <trkpt lat="44.98268" lon="5.22146">
        <ele>1151.32</ele>
        <time>2017-04-23T10:24:51Z</time>
      </trkpt>
      <trkpt lat="44.9827" lon="5.22152">
        <ele>1150.84</ele>
        <time>2017-04-23T10:24:57Z</time>
      </trkpt>
      <trkpt lat="44.98272" lon="5.22155">
        <ele>1150.84</ele>
        <time>2017-04-23T10:24:59Z</time>
      </trkpt>
      <trkpt lat="44.98275" lon="5.2216">
        <ele>1150.84</ele>
        <time>2017-04-23T10:25:03Z</time>
      </trkpt>
      <trkpt lat="44.98278" lon="5.22162">
        <ele>1150.35</ele>
        <time>2017-04-23T10:25:05Z</time>
      </trkpt>
      <trkpt lat="44.98281" lon="5.22171">
        <ele>1149.87</ele>
        <time>2017-04-23T10:25:13Z</time>
      </trkpt>
      <trkpt lat="44.98285" lon="5.22176">
        <ele>1150.35</ele>
        <time>2017-04-23T10:25:22Z</time>
      </trkpt>
      <trkpt lat="44.98286" lon="5.22178">
        <ele>1150.35</ele>
        <time>2017-04-23T10:25:23Z</time>
      </trkpt>
      <trkpt lat="44.98291" lon="5.22186">
        <ele>1150.35</ele>
        <time>2017-04-23T10:25:34Z</time>
      </trkpt>
      <trkpt lat="44.98298" lon="5.22193">
        <ele>1151.32</ele>
        <time>2017-04-23T10:25:46Z</time>
      </trkpt>
      <trkpt lat="44.98304" lon="5.22197">
        <ele>1152.28</ele>
        <time>2017-04-23T10:25:57Z</time>
      </trkpt>
      <trkpt lat="44.98309" lon="5.22199">
        <ele>1152.76</ele>
        <time>2017-04-23T10:26:06Z</time>
      </trkpt>
      <trkpt lat="44.98312" lon="5.222">
        <ele>1154.68</ele>
        <time>2017-04-23T10:26:18Z</time>
      </trkpt>
      <trkpt lat="44.98318" lon="5.22203">
        <ele>1156.6</ele>
        <time>2017-04-23T10:26:29Z</time>
      </trkpt>
      <trkpt lat="44.98323" lon="5.22203">
        <ele>1157.08</ele>
        <time>2017-04-23T10:26:42Z</time>
      </trkpt>
      <trkpt lat="44.98328" lon="5.22202">
        <ele>1158.53</ele>
        <time>2017-04-23T10:26:56Z</time>
      </trkpt>
      <trkpt lat="44.98331" lon="5.22203">
        <ele>1159.97</ele>
        <time>2017-04-23T10:27:08Z</time>
      </trkpt>
      <trkpt lat="44.98332" lon="5.22205">
        <ele>1161.89</ele>
        <time>2017-04-23T10:27:20Z</time>
      </trkpt>
      <trkpt lat="44.98337" lon="5.22206">
        <ele>1163.33</ele>
        <time>2017-04-23T10:27:33Z</time>
      </trkpt>
      <trkpt lat="44.9834" lon="5.22211">
        <ele>1165.26</ele>
        <time>2017-04-23T10:27:43Z</time>
      </trkpt>
      <trkpt lat="44.98341" lon="5.22212">
        <ele>1165.26</ele>
        <time>2017-04-23T10:27:53Z</time>
      </trkpt>
      <trkpt lat="44.98343" lon="5.22211">
        <ele>1166.7</ele>
        <time>2017-04-23T10:28:04Z</time>
      </trkpt>
      <trkpt lat="44.98345" lon="5.22208">
        <ele>1167.66</ele>
        <time>2017-04-23T10:28:15Z</time>
      </trkpt>
      <trkpt lat="44.98347" lon="5.22207">
        <ele>1170.06</ele>
        <time>2017-04-23T10:28:25Z</time>
      </trkpt>
      <trkpt lat="44.98349" lon="5.2221">
        <ele>1170.54</ele>
        <time>2017-04-23T10:28:35Z</time>
      </trkpt>
      <trkpt lat="44.98351" lon="5.22209">
        <ele>1171.98</ele>
        <time>2017-04-23T10:28:50Z</time>
      </trkpt>
      <trkpt lat="44.98355" lon="5.2221">
        <ele>1174.39</ele>
        <time>2017-04-23T10:29:03Z</time>
      </trkpt>
      <trkpt lat="44.98359" lon="5.22213">
        <ele>1175.83</ele>
        <time>2017-04-23T10:29:14Z</time>
      </trkpt>
      <trkpt lat="44.98363" lon="5.22215">
        <ele>1177.27</ele>
        <time>2017-04-23T10:29:27Z</time>
      </trkpt>
      <trkpt lat="44.98367" lon="5.22216">
        <ele>1178.71</ele>
        <time>2017-04-23T10:29:38Z</time>
      </trkpt>
      <trkpt lat="44.98368" lon="5.22217">
        <ele>1180.64</ele>
        <time>2017-04-23T10:29:45Z</time>
      </trkpt>
      <trkpt lat="44.98372" lon="5.2222">
        <ele>1182.08</ele>
        <time>2017-04-23T10:29:56Z</time>
      </trkpt>
      <trkpt lat="44.98375" lon="5.2222">
        <ele>1183.52</ele>
        <time>2017-04-23T10:30:06Z</time>
      </trkpt>
      <trkpt lat="44.98378" lon="5.22217">
        <ele>1184.96</ele>
        <time>2017-04-23T10:30:17Z</time>
      </trkpt>
      <trkpt lat="44.98383" lon="5.22218">
        <ele>1186.88</ele>
        <time>2017-04-23T10:30:27Z</time>
      </trkpt>
      <trkpt lat="44.98384" lon="5.22219">
        <ele>1187.85</ele>
        <time>2017-04-23T10:30:37Z</time>
      </trkpt>
      <trkpt lat="44.98386" lon="5.22219">
        <ele>1189.29</ele>
        <time>2017-04-23T10:30:44Z</time>
      </trkpt>
      <trkpt lat="44.98388" lon="5.22224">
        <ele>1189.77</ele>
        <time>2017-04-23T10:30:53Z</time>
      </trkpt>
      <trkpt lat="44.98389" lon="5.22229">
        <ele>1189.29</ele>
        <time>2017-04-23T10:31:02Z</time>
      </trkpt>
      <trkpt lat="44.98389" lon="5.2223">
        <ele>1188.81</ele>
        <time>2017-04-23T10:31:03Z</time>
      </trkpt>
      <trkpt lat="44.98395" lon="5.22237">
        <ele>1189.77</ele>
        <time>2017-04-23T10:31:14Z</time>
      </trkpt>
      <trkpt lat="44.98399" lon="5.22244">
        <ele>1190.73</ele>
        <time>2017-04-23T10:31:24Z</time>
      </trkpt>
      <trkpt lat="44.98401" lon="5.22251">
        <ele>1189.77</ele>
        <time>2017-04-23T10:31:35Z</time>
      </trkpt>
      <trkpt lat="44.98402" lon="5.22259">
        <ele>1189.77</ele>
        <time>2017-04-23T10:31:46Z</time>
      </trkpt>
      <trkpt lat="44.98407" lon="5.22264">
        <ele>1190.25</ele>
        <time>2017-04-23T10:31:56Z</time>
      </trkpt>
      <trkpt lat="44.98407" lon="5.22269">
        <ele>1190.73</ele>
        <time>2017-04-23T10:32:06Z</time>
      </trkpt>
      <trkpt lat="44.9841" lon="5.22273">
        <ele>1191.21</ele>
        <time>2017-04-23T10:32:14Z</time>
      </trkpt>
      <trkpt lat="44.98414" lon="5.2228">
        <ele>1192.65</ele>
        <time>2017-04-23T10:32:24Z</time>
      </trkpt>
      <trkpt lat="44.98418" lon="5.22287">
        <ele>1193.13</ele>
        <time>2017-04-23T10:32:35Z</time>
      </trkpt>
      <trkpt lat="44.9842" lon="5.22291">
        <ele>1194.09</ele>
        <time>2017-04-23T10:32:44Z</time>
      </trkpt>
      <trkpt lat="44.98429" lon="5.22297">
        <ele>1195.06</ele>
        <time>2017-04-23T10:32:56Z</time>
      </trkpt>
      <trkpt lat="44.98435" lon="5.22304">
        <ele>1195.06</ele>
        <time>2017-04-23T10:33:08Z</time>
      </trkpt>
      <trkpt lat="44.98436" lon="5.22305">
        <ele>1195.54</ele>
        <time>2017-04-23T10:33:09Z</time>
      </trkpt>
      <trkpt lat="44.98445" lon="5.22317">
        <ele>1196.02</ele>
        <time>2017-04-23T10:33:19Z</time>
      </trkpt>
      <trkpt lat="44.9845" lon="5.22319">
        <ele>1196.98</ele>
        <time>2017-04-23T10:33:30Z</time>
      </trkpt>
      <trkpt lat="44.98457" lon="5.22319">
        <ele>1198.9</ele>
        <time>2017-04-23T10:33:42Z</time>
      </trkpt>
      <trkpt lat="44.98464" lon="5.22324">
        <ele>1198.9</ele>
        <time>2017-04-23T10:33:52Z</time>
      </trkpt>
      <trkpt lat="44.98467" lon="5.22325">
        <ele>1199.38</ele>
        <time>2017-04-23T10:34:03Z</time>
      </trkpt>
      <trkpt lat="44.98471" lon="5.22329">
        <ele>1200.82</ele>
        <time>2017-04-23T10:34:09Z</time>
      </trkpt>
      <trkpt lat="44.98476" lon="5.22331">
        <ele>1201.3</ele>
        <time>2017-04-23T10:34:19Z</time>
      </trkpt>
      <trkpt lat="44.98489" lon="5.22333">
        <ele>1203.23</ele>
        <time>2017-04-23T10:34:30Z</time>
      </trkpt>
      <trkpt lat="44.98495" lon="5.22336">
        <ele>1204.67</ele>
        <time>2017-04-23T10:34:41Z</time>
      </trkpt>
      <trkpt lat="44.98498" lon="5.22342">
        <ele>1204.19</ele>
        <time>2017-04-23T10:34:50Z</time>
      </trkpt>
      <trkpt lat="44.98502" lon="5.22348">
        <ele>1203.23</ele>
        <time>2017-04-23T10:35:00Z</time>
      </trkpt>
      <trkpt lat="44.98504" lon="5.22351">
        <ele>1202.75</ele>
        <time>2017-04-23T10:35:05Z</time>
      </trkpt>
      <trkpt lat="44.98512" lon="5.22355">
        <ele>1200.34</ele>
        <time>2017-04-23T10:35:15Z</time>
      </trkpt>
      <trkpt lat="44.98519" lon="5.22359">
        <ele>1197.94</ele>
        <time>2017-04-23T10:35:28Z</time>
      </trkpt>
      <trkpt lat="44.98525" lon="5.22366">
        <ele>1195.54</ele>
        <time>2017-04-23T10:35:39Z</time>
      </trkpt>
      <trkpt lat="44.98525" lon="5.22369">
        <ele>1195.06</ele>
        <time>2017-04-23T10:35:42Z</time>
      </trkpt>
      <trkpt lat="44.98531" lon="5.22377">
        <ele>1192.65</ele>
        <time>2017-04-23T10:35:51Z</time>
      </trkpt>
      <trkpt lat="44.98531" lon="5.22378">
        <ele>1192.65</ele>
        <time>2017-04-23T10:35:52Z</time>
      </trkpt>
      <trkpt lat="44.9853" lon="5.2239">
        <ele>1191.69</ele>
        <time>2017-04-23T10:36:01Z</time>
      </trkpt>
      <trkpt lat="44.98531" lon="5.22392">
        <ele>1191.69</ele>
        <time>2017-04-23T10:36:16Z</time>
      </trkpt>
      <trkpt lat="44.98531" lon="5.22394">
        <ele>1192.17</ele>
        <time>2017-04-23T10:36:35Z</time>
      </trkpt>
      <trkpt lat="44.98531" lon="5.22394">
        <ele>1191.69</ele>
        <time>2017-04-23T10:36:50Z</time>
      </trkpt>
      <trkpt lat="44.98531" lon="5.22396">
        <ele>1191.69</ele>
        <time>2017-04-23T10:37:00Z</time>
      </trkpt>
      <trkpt lat="44.9853" lon="5.22396">
        <ele>1190.25</ele>
        <time>2017-04-23T10:37:15Z</time>
      </trkpt>
      <trkpt lat="44.9853" lon="5.22395">
        <ele>1190.25</ele>
        <time>2017-04-23T10:37:50Z</time>
      </trkpt>
      <trkpt lat="44.98529" lon="5.22396">
        <ele>1185.44</ele>
        <time>2017-04-23T10:38:17Z</time>
      </trkpt>
      <trkpt lat="44.98529" lon="5.22396">
        <ele>1191.69</ele>
        <time>2017-04-23T10:38:18Z</time>
      </trkpt>
      <trkpt lat="44.98529" lon="5.22396">
        <ele>1195.54</ele>
        <time>2017-04-23T10:38:20Z</time>
      </trkpt>
      <trkpt lat="44.98529" lon="5.22396">
        <ele>1191.69</ele>
        <time>2017-04-23T10:38:21Z</time>
      </trkpt>
      <trkpt lat="44.98528" lon="5.22398">
        <ele>1191.21</ele>
        <time>2017-04-23T10:38:52Z</time>
      </trkpt>
      <trkpt lat="44.98529" lon="5.22399">
        <ele>1191.21</ele>
        <time>2017-04-23T10:39:18Z</time>
      </trkpt>
      <trkpt lat="44.98529" lon="5.22398">
        <ele>1191.21</ele>
        <time>2017-04-23T10:39:53Z</time>
      </trkpt>
      <trkpt lat="44.98529" lon="5.22398">
        <ele>1191.69</ele>
        <time>2017-04-23T10:40:26Z</time>
      </trkpt>
      <trkpt lat="44.98529" lon="5.22399">
        <ele>1191.69</ele>
        <time>2017-04-23T10:40:55Z</time>
      </trkpt>
      <trkpt lat="44.98528" lon="5.22397">
        <ele>1191.21</ele>
        <time>2017-04-23T10:41:25Z</time>
      </trkpt>
      <trkpt lat="44.98528" lon="5.22399">
        <ele>1191.69</ele>
        <time>2017-04-23T10:42:00Z</time>
      </trkpt>
      <trkpt lat="44.98528" lon="5.22399">
        <ele>1191.69</ele>
        <time>2017-04-23T10:42:31Z</time>
      </trkpt>
      <trkpt lat="44.98528" lon="5.22399">
        <ele>1192.65</ele>
        <time>2017-04-23T10:43:03Z</time>
      </trkpt>
      <trkpt lat="44.98527" lon="5.224">
        <ele>1193.13</ele>
        <time>2017-04-23T10:43:37Z</time>
      </trkpt>
      <trkpt lat="44.98526" lon="5.224">
        <ele>1193.13</ele>
        <time>2017-04-23T10:44:12Z</time>
      </trkpt>
      <trkpt lat="44.98526" lon="5.22399">
        <ele>1193.13</ele>
        <time>2017-04-23T10:44:45Z</time>
      </trkpt>
      <trkpt lat="44.98525" lon="5.224">
        <ele>1192.65</ele>
        <time>2017-04-23T10:45:20Z</time>
      </trkpt>
      <trkpt lat="44.98525" lon="5.22399">
        <ele>1192.65</ele>
        <time>2017-04-23T10:45:53Z</time>
      </trkpt>
      <trkpt lat="44.98525" lon="5.22399">
        <ele>1194.09</ele>
        <time>2017-04-23T10:45:56Z</time>
      </trkpt>
      <trkpt lat="44.98525" lon="5.22399">
        <ele>1193.13</ele>
        <time>2017-04-23T10:46:01Z</time>
      </trkpt>
      <trkpt lat="44.98525" lon="5.22399">
        <ele>1193.61</ele>
        <time>2017-04-23T10:46:35Z</time>
      </trkpt>
      <trkpt lat="44.98525" lon="5.22399">
        <ele>1194.09</ele>
        <time>2017-04-23T10:47:06Z</time>
      </trkpt>
      <trkpt lat="44.98524" lon="5.22399">
        <ele>1194.09</ele>
        <time>2017-04-23T10:47:40Z</time>
      </trkpt>
      <trkpt lat="44.98524" lon="5.22399">
        <ele>1194.09</ele>
        <time>2017-04-23T10:48:14Z</time>
      </trkpt>
      <trkpt lat="44.98524" lon="5.224">
        <ele>1193.61</ele>
        <time>2017-04-23T10:48:54Z</time>
      </trkpt>
      <trkpt lat="44.98524" lon="5.224">
        <ele>1194.58</ele>
        <time>2017-04-23T10:49:22Z</time>
      </trkpt>
      <trkpt lat="44.98524" lon="5.22399">
        <ele>1194.09</ele>
        <time>2017-04-23T10:49:54Z</time>
      </trkpt>
      <trkpt lat="44.98524" lon="5.22398">
        <ele>1194.58</ele>
        <time>2017-04-23T10:50:29Z</time>
      </trkpt>
      <trkpt lat="44.98524" lon="5.22399">
        <ele>1194.58</ele>
        <time>2017-04-23T10:50:59Z</time>
      </trkpt>
      <trkpt lat="44.98524" lon="5.22398">
        <ele>1194.58</ele>
        <time>2017-04-23T10:51:28Z</time>
      </trkpt>
      <trkpt lat="44.98523" lon="5.22398">
        <ele>1195.06</ele>
        <time>2017-04-23T10:52:01Z</time>
      </trkpt>
      <trkpt lat="44.98523" lon="5.22397">
        <ele>1195.06</ele>
        <time>2017-04-23T10:52:35Z</time>
      </trkpt>
      <trkpt lat="44.98523" lon="5.22396">
        <ele>1195.06</ele>
        <time>2017-04-23T10:53:06Z</time>
      </trkpt>
      <trkpt lat="44.98523" lon="5.22396">
        <ele>1195.06</ele>
        <time>2017-04-23T10:53:35Z</time>
      </trkpt>
      <trkpt lat="44.98525" lon="5.22396">
        <ele>1195.54</ele>
        <time>2017-04-23T10:54:08Z</time>
      </trkpt>
      <trkpt lat="44.98525" lon="5.22397">
        <ele>1196.5</ele>
        <time>2017-04-23T10:54:44Z</time>
      </trkpt>
      <trkpt lat="44.98526" lon="5.22398">
        <ele>1196.5</ele>
        <time>2017-04-23T10:55:22Z</time>
      </trkpt>
      <trkpt lat="44.98525" lon="5.22398">
        <ele>1196.98</ele>
        <time>2017-04-23T10:56:01Z</time>
      </trkpt>
      <trkpt lat="44.98525" lon="5.224">
        <ele>1196.02</ele>
        <time>2017-04-23T10:56:45Z</time>
      </trkpt>
      <trkpt lat="44.98525" lon="5.224">
        <ele>1196.02</ele>
        <time>2017-04-23T10:57:20Z</time>
      </trkpt>
      <trkpt lat="44.98525" lon="5.224">
        <ele>1196.02</ele>
        <time>2017-04-23T10:57:51Z</time>
      </trkpt>
      <trkpt lat="44.98525" lon="5.22399">
        <ele>1196.02</ele>
        <time>2017-04-23T10:58:29Z</time>
      </trkpt>
      <trkpt lat="44.98526" lon="5.22399">
        <ele>1196.5</ele>
        <time>2017-04-23T10:59:10Z</time>
      </trkpt>
      <trkpt lat="44.98525" lon="5.22399">
        <ele>1197.94</ele>
        <time>2017-04-23T10:59:49Z</time>
      </trkpt>
      <trkpt lat="44.98525" lon="5.224">
        <ele>1196.98</ele>
        <time>2017-04-23T11:00:29Z</time>
      </trkpt>
      <trkpt lat="44.98525" lon="5.22398">
        <ele>1196.5</ele>
        <time>2017-04-23T11:01:03Z</time>
      </trkpt>
      <trkpt lat="44.98527" lon="5.22397">
        <ele>1196.5</ele>
        <time>2017-04-23T11:01:35Z</time>
      </trkpt>
      <trkpt lat="44.98526" lon="5.22398">
        <ele>1197.46</ele>
        <time>2017-04-23T11:02:10Z</time>
      </trkpt>
      <trkpt lat="44.98526" lon="5.22396">
        <ele>1197.46</ele>
        <time>2017-04-23T11:02:41Z</time>
      </trkpt>
      <trkpt lat="44.98526" lon="5.22396">
        <ele>1196.98</ele>
        <time>2017-04-23T11:03:12Z</time>
      </trkpt>
      <trkpt lat="44.98526" lon="5.22396">
        <ele>1196.98</ele>
        <time>2017-04-23T11:03:45Z</time>
      </trkpt>
      <trkpt lat="44.98526" lon="5.22395">
        <ele>1197.46</ele>
        <time>2017-04-23T11:04:19Z</time>
      </trkpt>
      <trkpt lat="44.98525" lon="5.22395">
        <ele>1198.42</ele>
        <time>2017-04-23T11:04:53Z</time>
      </trkpt>
      <trkpt lat="44.98525" lon="5.22397">
        <ele>1197.94</ele>
        <time>2017-04-23T11:05:27Z</time>
      </trkpt>
      <trkpt lat="44.98525" lon="5.22396">
        <ele>1198.42</ele>
        <time>2017-04-23T11:05:59Z</time>
      </trkpt>
      <trkpt lat="44.98526" lon="5.22395">
        <ele>1199.86</ele>
        <time>2017-04-23T11:06:25Z</time>
      </trkpt>
      <trkpt lat="44.98526" lon="5.22395">
        <ele>1197.94</ele>
        <time>2017-04-23T11:06:51Z</time>
      </trkpt>
      <trkpt lat="44.98527" lon="5.22395">
        <ele>1197.46</ele>
        <time>2017-04-23T11:07:23Z</time>
      </trkpt>
      <trkpt lat="44.98526" lon="5.22396">
        <ele>1197.94</ele>
        <time>2017-04-23T11:07:54Z</time>
      </trkpt>
      <trkpt lat="44.98526" lon="5.22393">
        <ele>1197.94</ele>
        <time>2017-04-23T11:08:24Z</time>
      </trkpt>
      <trkpt lat="44.98526" lon="5.22394">
        <ele>1197.94</ele>
        <time>2017-04-23T11:08:55Z</time>
      </trkpt>
      <trkpt lat="44.98526" lon="5.22393">
        <ele>1198.42</ele>
        <time>2017-04-23T11:09:26Z</time>
      </trkpt>
      <trkpt lat="44.98527" lon="5.22394">
        <ele>1197.94</ele>
        <time>2017-04-23T11:09:59Z</time>
      </trkpt>
      <trkpt lat="44.98527" lon="5.22393">
        <ele>1196.98</ele>
        <time>2017-04-23T11:10:38Z</time>
      </trkpt>
      <trkpt lat="44.98527" lon="5.22395">
        <ele>1198.9</ele>
        <time>2017-04-23T11:11:12Z</time>
      </trkpt>
      <trkpt lat="44.98527" lon="5.22395">
        <ele>1198.42</ele>
        <time>2017-04-23T11:11:48Z</time>
      </trkpt>
      <trkpt lat="44.98529" lon="5.22395">
        <ele>1200.34</ele>
        <time>2017-04-23T11:12:23Z</time>
      </trkpt>
      <trkpt lat="44.98528" lon="5.22395">
        <ele>1199.38</ele>
        <time>2017-04-23T11:13:05Z</time>
      </trkpt>
      <trkpt lat="44.98527" lon="5.22395">
        <ele>1199.38</ele>
        <time>2017-04-23T11:13:41Z</time>
      </trkpt>
      <trkpt lat="44.98527" lon="5.22395">
        <ele>1200.34</ele>
        <time>2017-04-23T11:14:12Z</time>
      </trkpt>
      <trkpt lat="44.98527" lon="5.22396">
        <ele>1200.34</ele>
        <time>2017-04-23T11:14:47Z</time>
      </trkpt>
      <trkpt lat="44.98526" lon="5.22398">
        <ele>1199.86</ele>
        <time>2017-04-23T11:15:18Z</time>
      </trkpt>
      <trkpt lat="44.98525" lon="5.22393">
        <ele>1199.86</ele>
        <time>2017-04-23T11:15:58Z</time>
      </trkpt>
      <trkpt lat="44.98525" lon="5.22394">
        <ele>1200.82</ele>
        <time>2017-04-23T11:16:38Z</time>
      </trkpt>
      <trkpt lat="44.98525" lon="5.22393">
        <ele>1200.82</ele>
        <time>2017-04-23T11:17:16Z</time>
      </trkpt>
      <trkpt lat="44.98524" lon="5.22393">
        <ele>1200.34</ele>
        <time>2017-04-23T11:17:47Z</time>
      </trkpt>
      <trkpt lat="44.98525" lon="5.22395">
        <ele>1201.3</ele>
        <time>2017-04-23T11:18:20Z</time>
      </trkpt>
      <trkpt lat="44.98525" lon="5.22396">
        <ele>1205.15</ele>
        <time>2017-04-23T11:18:38Z</time>
      </trkpt>
      <trkpt lat="44.98525" lon="5.22396">
        <ele>1201.79</ele>
        <time>2017-04-23T11:18:39Z</time>
      </trkpt>
      <trkpt lat="44.98525" lon="5.22398">
        <ele>1201.79</ele>
        <time>2017-04-23T11:19:01Z</time>
      </trkpt>
      <trkpt lat="44.98525" lon="5.224">
        <ele>1201.79</ele>
        <time>2017-04-23T11:19:33Z</time>
      </trkpt>
      <trkpt lat="44.98525" lon="5.22402">
        <ele>1202.27</ele>
        <time>2017-04-23T11:20:03Z</time>
      </trkpt>
      <trkpt lat="44.98525" lon="5.22402">
        <ele>1198.42</ele>
        <time>2017-04-23T11:20:13Z</time>
      </trkpt>
      <trkpt lat="44.98525" lon="5.22401">
        <ele>1203.71</ele>
        <time>2017-04-23T11:20:14Z</time>
      </trkpt>
      <trkpt lat="44.98525" lon="5.22401">
        <ele>1198.9</ele>
        <time>2017-04-23T11:20:18Z</time>
      </trkpt>
      <trkpt lat="44.98525" lon="5.22401">
        <ele>1203.23</ele>
        <time>2017-04-23T11:20:19Z</time>
      </trkpt>
      <trkpt lat="44.98525" lon="5.22401">
        <ele>1199.38</ele>
        <time>2017-04-23T11:20:21Z</time>
      </trkpt>
      <trkpt lat="44.98525" lon="5.22401">
        <ele>1203.23</ele>
        <time>2017-04-23T11:20:22Z</time>
      </trkpt>
      <trkpt lat="44.98524" lon="5.224">
        <ele>1202.27</ele>
        <time>2017-04-23T11:20:41Z</time>
      </trkpt>
      <trkpt lat="44.98523" lon="5.22398">
        <ele>1202.75</ele>
        <time>2017-04-23T11:21:14Z</time>
      </trkpt>
      <trkpt lat="44.98523" lon="5.22396">
        <ele>1202.75</ele>
        <time>2017-04-23T11:21:44Z</time>
      </trkpt>
      <trkpt lat="44.98524" lon="5.22396">
        <ele>1202.27</ele>
        <time>2017-04-23T11:22:06Z</time>
      </trkpt>
      <trkpt lat="44.98524" lon="5.22396">
        <ele>1202.27</ele>
        <time>2017-04-23T11:22:39Z</time>
      </trkpt>
      <trkpt lat="44.98525" lon="5.22397">
        <ele>1202.27</ele>
        <time>2017-04-23T11:23:16Z</time>
      </trkpt>
      <trkpt lat="44.98525" lon="5.22398">
        <ele>1202.27</ele>
        <time>2017-04-23T11:23:52Z</time>
      </trkpt>
      <trkpt lat="44.98525" lon="5.22398">
        <ele>1201.79</ele>
        <time>2017-04-23T11:24:28Z</time>
      </trkpt>
      <trkpt lat="44.98526" lon="5.22399">
        <ele>1202.27</ele>
        <time>2017-04-23T11:24:59Z</time>
      </trkpt>
      <trkpt lat="44.98526" lon="5.22397">
        <ele>1202.27</ele>
        <time>2017-04-23T11:25:32Z</time>
      </trkpt>
      <trkpt lat="44.98528" lon="5.22398">
        <ele>1202.27</ele>
        <time>2017-04-23T11:26:10Z</time>
      </trkpt>
      <trkpt lat="44.98528" lon="5.22397">
        <ele>1201.79</ele>
        <time>2017-04-23T11:26:46Z</time>
      </trkpt>
      <trkpt lat="44.98528" lon="5.22397">
        <ele>1202.27</ele>
        <time>2017-04-23T11:27:20Z</time>
      </trkpt>
      <trkpt lat="44.98528" lon="5.22397">
        <ele>1202.75</ele>
        <time>2017-04-23T11:27:58Z</time>
      </trkpt>
      <trkpt lat="44.98528" lon="5.22395">
        <ele>1202.75</ele>
        <time>2017-04-23T11:28:34Z</time>
      </trkpt>
      <trkpt lat="44.98528" lon="5.22393">
        <ele>1202.27</ele>
        <time>2017-04-23T11:29:12Z</time>
      </trkpt>
      <trkpt lat="44.98528" lon="5.22393">
        <ele>1202.27</ele>
        <time>2017-04-23T11:29:45Z</time>
      </trkpt>
      <trkpt lat="44.98529" lon="5.22393">
        <ele>1202.27</ele>
        <time>2017-04-23T11:30:23Z</time>
      </trkpt>
      <trkpt lat="44.98529" lon="5.22395">
        <ele>1202.75</ele>
        <time>2017-04-23T11:30:57Z</time>
      </trkpt>
      <trkpt lat="44.98529" lon="5.22394">
        <ele>1202.27</ele>
        <time>2017-04-23T11:31:37Z</time>
      </trkpt>
      <trkpt lat="44.9853" lon="5.22394">
        <ele>1202.27</ele>
        <time>2017-04-23T11:32:16Z</time>
      </trkpt>
      <trkpt lat="44.9853" lon="5.22395">
        <ele>1203.23</ele>
        <time>2017-04-23T11:32:59Z</time>
      </trkpt>
      <trkpt lat="44.98531" lon="5.22396">
        <ele>1202.75</ele>
        <time>2017-04-23T11:33:34Z</time>
      </trkpt>
      <trkpt lat="44.9853" lon="5.22396">
        <ele>1202.75</ele>
        <time>2017-04-23T11:34:10Z</time>
      </trkpt>
      <trkpt lat="44.9853" lon="5.22397">
        <ele>1202.27</ele>
        <time>2017-04-23T11:34:46Z</time>
      </trkpt>
      <trkpt lat="44.98531" lon="5.22398">
        <ele>1202.27</ele>
        <time>2017-04-23T11:35:20Z</time>
      </trkpt>
      <trkpt lat="44.9853" lon="5.22397">
        <ele>1202.27</ele>
        <time>2017-04-23T11:35:52Z</time>
      </trkpt>
      <trkpt lat="44.9853" lon="5.22396">
        <ele>1202.75</ele>
        <time>2017-04-23T11:36:16Z</time>
      </trkpt>
      <trkpt lat="44.98531" lon="5.22397">
        <ele>1202.75</ele>
        <time>2017-04-23T11:36:47Z</time>
      </trkpt>
      <trkpt lat="44.98531" lon="5.22396">
        <ele>1202.75</ele>
        <time>2017-04-23T11:37:13Z</time>
      </trkpt>
      <trkpt lat="44.98531" lon="5.22396">
        <ele>1203.23</ele>
        <time>2017-04-23T11:37:16Z</time>
      </trkpt>
      <trkpt lat="44.98529" lon="5.22399">
        <ele>1202.75</ele>
        <time>2017-04-23T11:37:26Z</time>
      </trkpt>
      <trkpt lat="44.98529" lon="5.22399">
        <ele>1203.23</ele>
        <time>2017-04-23T11:37:40Z</time>
      </trkpt>
      <trkpt lat="44.98528" lon="5.22399">
        <ele>1198.42</ele>
        <time>2017-04-23T11:37:44Z</time>
      </trkpt>
      <trkpt lat="44.98528" lon="5.22399">
        <ele>1201.3</ele>
        <time>2017-04-23T11:37:45Z</time>
      </trkpt>
      <trkpt lat="44.98528" lon="5.22399">
        <ele>1203.71</ele>
        <time>2017-04-23T11:37:47Z</time>
      </trkpt>
      <trkpt lat="44.98528" lon="5.22399">
        <ele>1203.23</ele>
        <time>2017-04-23T11:37:58Z</time>
      </trkpt>
      <trkpt lat="44.98528" lon="5.22399">
        <ele>1202.75</ele>
        <time>2017-04-23T11:38:03Z</time>
      </trkpt>
      <trkpt lat="44.98528" lon="5.22398">
        <ele>1203.23</ele>
        <time>2017-04-23T11:38:15Z</time>
      </trkpt>
      <trkpt lat="44.98528" lon="5.22398">
        <ele>1203.23</ele>
        <time>2017-04-23T11:38:29Z</time>
      </trkpt>
      <trkpt lat="44.98528" lon="5.22397">
        <ele>1202.75</ele>
        <time>2017-04-23T11:38:35Z</time>
      </trkpt>
      <trkpt lat="44.98528" lon="5.22395">
        <ele>1203.23</ele>
        <time>2017-04-23T11:38:48Z</time>
      </trkpt>
      <trkpt lat="44.98529" lon="5.22398">
        <ele>1203.23</ele>
        <time>2017-04-23T11:38:57Z</time>
      </trkpt>
      <trkpt lat="44.98529" lon="5.22397">
        <ele>1203.71</ele>
        <time>2017-04-23T11:38:59Z</time>
      </trkpt>
      <trkpt lat="44.98537" lon="5.22403">
        <ele>1204.19</ele>
        <time>2017-04-23T11:39:07Z</time>
      </trkpt>
      <trkpt lat="44.98538" lon="5.22409">
        <ele>1204.67</ele>
        <time>2017-04-23T11:39:10Z</time>
      </trkpt>
      <trkpt lat="44.9854" lon="5.22412">
        <ele>1205.15</ele>
        <time>2017-04-23T11:39:13Z</time>
      </trkpt>
      <trkpt lat="44.9854" lon="5.22415">
        <ele>1205.15</ele>
        <time>2017-04-23T11:39:15Z</time>
      </trkpt>
      <trkpt lat="44.98546" lon="5.22422">
        <ele>1204.67</ele>
        <time>2017-04-23T11:39:21Z</time>
      </trkpt>
      <trkpt lat="44.98549" lon="5.22423">
        <ele>1204.67</ele>
        <time>2017-04-23T11:39:24Z</time>
      </trkpt>
      <trkpt lat="44.98553" lon="5.22427">
        <ele>1204.19</ele>
        <time>2017-04-23T11:39:29Z</time>
      </trkpt>
      <trkpt lat="44.98555" lon="5.22437">
        <ele>1205.15</ele>
        <time>2017-04-23T11:39:36Z</time>
      </trkpt>
      <trkpt lat="44.98556" lon="5.22439">
        <ele>1205.63</ele>
        <time>2017-04-23T11:39:38Z</time>
      </trkpt>
      <trkpt lat="44.98564" lon="5.22444">
        <ele>1207.07</ele>
        <time>2017-04-23T11:39:48Z</time>
      </trkpt>
      <trkpt lat="44.98571" lon="5.22447">
        <ele>1208.51</ele>
        <time>2017-04-23T11:39:59Z</time>
      </trkpt>
      <trkpt lat="44.98576" lon="5.22449">
        <ele>1209.48</ele>
        <time>2017-04-23T11:40:08Z</time>
      </trkpt>
      <trkpt lat="44.98578" lon="5.2245">
        <ele>1209.48</ele>
        <time>2017-04-23T11:40:11Z</time>
      </trkpt>
      <trkpt lat="44.98588" lon="5.22448">
        <ele>1211.4</ele>
        <time>2017-04-23T11:40:22Z</time>
      </trkpt>
      <trkpt lat="44.98592" lon="5.2244">
        <ele>1212.36</ele>
        <time>2017-04-23T11:40:30Z</time>
      </trkpt>
      <trkpt lat="44.98592" lon="5.22438">
        <ele>1212.84</ele>
        <time>2017-04-23T11:40:32Z</time>
      </trkpt>
      <trkpt lat="44.98597" lon="5.22432">
        <ele>1213.32</ele>
        <time>2017-04-23T11:40:39Z</time>
      </trkpt>
      <trkpt lat="44.98603" lon="5.22423">
        <ele>1215.72</ele>
        <time>2017-04-23T11:40:49Z</time>
      </trkpt>
      <trkpt lat="44.98612" lon="5.22421">
        <ele>1217.65</ele>
        <time>2017-04-23T11:41:00Z</time>
      </trkpt>
      <trkpt lat="44.98612" lon="5.22421">
        <ele>1217.65</ele>
        <time>2017-04-23T11:41:01Z</time>
      </trkpt>
      <trkpt lat="44.98617" lon="5.22422">
        <ele>1218.13</ele>
        <time>2017-04-23T11:41:07Z</time>
      </trkpt>
      <trkpt lat="44.9862" lon="5.22426">
        <ele>1218.13</ele>
        <time>2017-04-23T11:41:11Z</time>
      </trkpt>
      <trkpt lat="44.98629" lon="5.22428">
        <ele>1219.09</ele>
        <time>2017-04-23T11:41:20Z</time>
      </trkpt>
      <trkpt lat="44.98631" lon="5.22427">
        <ele>1220.53</ele>
        <time>2017-04-23T11:41:23Z</time>
      </trkpt>
      <trkpt lat="44.98635" lon="5.22427">
        <ele>1221.49</ele>
        <time>2017-04-23T11:41:32Z</time>
      </trkpt>
      <trkpt lat="44.98637" lon="5.22428">
        <ele>1221.97</ele>
        <time>2017-04-23T11:41:35Z</time>
      </trkpt>
      <trkpt lat="44.98642" lon="5.22429">
        <ele>1222.93</ele>
        <time>2017-04-23T11:41:40Z</time>
      </trkpt>
      <trkpt lat="44.98646" lon="5.22429">
        <ele>1223.42</ele>
        <time>2017-04-23T11:41:44Z</time>
      </trkpt>
      <trkpt lat="44.98651" lon="5.22429">
        <ele>1223.42</ele>
        <time>2017-04-23T11:41:48Z</time>
      </trkpt>
      <trkpt lat="44.98654" lon="5.2243">
        <ele>1224.38</ele>
        <time>2017-04-23T11:41:53Z</time>
      </trkpt>
      <trkpt lat="44.98664" lon="5.22428">
        <ele>1223.9</ele>
        <time>2017-04-23T11:42:04Z</time>
      </trkpt>
      <trkpt lat="44.98672" lon="5.22427">
        <ele>1222.45</ele>
        <time>2017-04-23T11:42:11Z</time>
      </trkpt>
      <trkpt lat="44.9868" lon="5.22423">
        <ele>1222.45</ele>
        <time>2017-04-23T11:42:14Z</time>
      </trkpt>
      <trkpt lat="44.98696" lon="5.22414">
        <ele>1220.53</ele>
        <time>2017-04-23T11:42:25Z</time>
      </trkpt>
      <trkpt lat="44.98701" lon="5.22414">
        <ele>1220.53</ele>
        <time>2017-04-23T11:42:30Z</time>
      </trkpt>
      <trkpt lat="44.98706" lon="5.22414">
        <ele>1220.05</ele>
        <time>2017-04-23T11:42:34Z</time>
      </trkpt>
      <trkpt lat="44.9871" lon="5.22412">
        <ele>1220.53</ele>
        <time>2017-04-23T11:42:40Z</time>
      </trkpt>
      <trkpt lat="44.98717" lon="5.22411">
        <ele>1221.49</ele>
        <time>2017-04-23T11:42:48Z</time>
      </trkpt>
      <trkpt lat="44.98728" lon="5.22416">
        <ele>1222.45</ele>
        <time>2017-04-23T11:42:58Z</time>
      </trkpt>
      <trkpt lat="44.98735" lon="5.22425">
        <ele>1223.42</ele>
        <time>2017-04-23T11:43:08Z</time>
      </trkpt>
      <trkpt lat="44.98736" lon="5.22428">
        <ele>1223.42</ele>
        <time>2017-04-23T11:43:11Z</time>
      </trkpt>
      <trkpt lat="44.98737" lon="5.22432">
        <ele>1223.42</ele>
        <time>2017-04-23T11:43:14Z</time>
      </trkpt>
      <trkpt lat="44.98736" lon="5.22438">
        <ele>1222.45</ele>
        <time>2017-04-23T11:43:22Z</time>
      </trkpt>
      <trkpt lat="44.98736" lon="5.22444">
        <ele>1221.97</ele>
        <time>2017-04-23T11:43:26Z</time>
      </trkpt>
      <trkpt lat="44.98735" lon="5.22449">
        <ele>1221.97</ele>
        <time>2017-04-23T11:43:29Z</time>
      </trkpt>
      <trkpt lat="44.98735" lon="5.22457">
        <ele>1221.01</ele>
        <time>2017-04-23T11:43:34Z</time>
      </trkpt>
      <trkpt lat="44.98736" lon="5.22464">
        <ele>1220.05</ele>
        <time>2017-04-23T11:43:39Z</time>
      </trkpt>
      <trkpt lat="44.98739" lon="5.22475">
        <ele>1218.13</ele>
        <time>2017-04-23T11:43:49Z</time>
      </trkpt>
      <trkpt lat="44.98741" lon="5.22482">
        <ele>1217.65</ele>
        <time>2017-04-23T11:43:53Z</time>
      </trkpt>
      <trkpt lat="44.98741" lon="5.22489">
        <ele>1217.65</ele>
        <time>2017-04-23T11:43:58Z</time>
      </trkpt>
      <trkpt lat="44.98743" lon="5.22493">
        <ele>1217.17</ele>
        <time>2017-04-23T11:44:00Z</time>
      </trkpt>
      <trkpt lat="44.98743" lon="5.225">
        <ele>1217.17</ele>
        <time>2017-04-23T11:44:03Z</time>
      </trkpt>
      <trkpt lat="44.98749" lon="5.22511">
        <ele>1216.21</ele>
        <time>2017-04-23T11:44:14Z</time>
      </trkpt>
      <trkpt lat="44.9875" lon="5.22511">
        <ele>1216.21</ele>
        <time>2017-04-23T11:44:15Z</time>
      </trkpt>
      <trkpt lat="44.98757" lon="5.22514">
        <ele>1217.17</ele>
        <time>2017-04-23T11:44:22Z</time>
      </trkpt>
      <trkpt lat="44.98761" lon="5.22517">
        <ele>1217.65</ele>
        <time>2017-04-23T11:44:37Z</time>
      </trkpt>
      <trkpt lat="44.98761" lon="5.22516">
        <ele>1216.69</ele>
        <time>2017-04-23T11:44:59Z</time>
      </trkpt>
      <trkpt lat="44.98765" lon="5.22518">
        <ele>1217.65</ele>
        <time>2017-04-23T11:45:06Z</time>
      </trkpt>
      <trkpt lat="44.98772" lon="5.22521">
        <ele>1219.09</ele>
        <time>2017-04-23T11:45:17Z</time>
      </trkpt>
      <trkpt lat="44.98774" lon="5.22521">
        <ele>1219.09</ele>
        <time>2017-04-23T11:45:20Z</time>
      </trkpt>
      <trkpt lat="44.98783" lon="5.22525">
        <ele>1220.53</ele>
        <time>2017-04-23T11:45:30Z</time>
      </trkpt>
      <trkpt lat="44.98786" lon="5.22529">
        <ele>1220.05</ele>
        <time>2017-04-23T11:45:34Z</time>
      </trkpt>
      <trkpt lat="44.98795" lon="5.22532">
        <ele>1220.05</ele>
        <time>2017-04-23T11:45:41Z</time>
      </trkpt>
      <trkpt lat="44.98801" lon="5.22532">
        <ele>1220.53</ele>
        <time>2017-04-23T11:45:51Z</time>
      </trkpt>
      <trkpt lat="44.98806" lon="5.2253">
        <ele>1221.49</ele>
        <time>2017-04-23T11:45:56Z</time>
      </trkpt>
      <trkpt lat="44.98811" lon="5.22528">
        <ele>1222.45</ele>
        <time>2017-04-23T11:46:03Z</time>
      </trkpt>
      <trkpt lat="44.98815" lon="5.22528">
        <ele>1222.93</ele>
        <time>2017-04-23T11:46:08Z</time>
      </trkpt>
      <trkpt lat="44.98822" lon="5.22522">
        <ele>1224.38</ele>
        <time>2017-04-23T11:46:16Z</time>
      </trkpt>
      <trkpt lat="44.98826" lon="5.22515">
        <ele>1225.34</ele>
        <time>2017-04-23T11:46:22Z</time>
      </trkpt>
      <trkpt lat="44.98829" lon="5.22512">
        <ele>1225.34</ele>
        <time>2017-04-23T11:46:25Z</time>
      </trkpt>
      <trkpt lat="44.98832" lon="5.22501">
        <ele>1226.3</ele>
        <time>2017-04-23T11:46:35Z</time>
      </trkpt>
      <trkpt lat="44.98835" lon="5.22495">
        <ele>1226.3</ele>
        <time>2017-04-23T11:46:40Z</time>
      </trkpt>
      <trkpt lat="44.98849" lon="5.22492">
        <ele>1225.34</ele>
        <time>2017-04-23T11:46:54Z</time>
      </trkpt>
      <trkpt lat="44.98857" lon="5.22498">
        <ele>1224.38</ele>
        <time>2017-04-23T11:47:03Z</time>
      </trkpt>
      <trkpt lat="44.98864" lon="5.225">
        <ele>1223.9</ele>
        <time>2017-04-23T11:47:17Z</time>
      </trkpt>
      <trkpt lat="44.98864" lon="5.22499">
        <ele>1223.9</ele>
        <time>2017-04-23T11:47:48Z</time>
      </trkpt>
      <trkpt lat="44.98866" lon="5.22499">
        <ele>1223.42</ele>
        <time>2017-04-23T11:48:10Z</time>
      </trkpt>
      <trkpt lat="44.98873" lon="5.22507">
        <ele>1223.9</ele>
        <time>2017-04-23T11:48:24Z</time>
      </trkpt>
      <trkpt lat="44.9888" lon="5.22519">
        <ele>1223.9</ele>
        <time>2017-04-23T11:48:34Z</time>
      </trkpt>
      <trkpt lat="44.98881" lon="5.2252">
        <ele>1223.9</ele>
        <time>2017-04-23T11:48:37Z</time>
      </trkpt>
      <trkpt lat="44.9889" lon="5.22524">
        <ele>1223.42</ele>
        <time>2017-04-23T11:48:47Z</time>
      </trkpt>
      <trkpt lat="44.98899" lon="5.22519">
        <ele>1221.49</ele>
        <time>2017-04-23T11:48:57Z</time>
      </trkpt>
      <trkpt lat="44.989" lon="5.22519">
        <ele>1221.49</ele>
        <time>2017-04-23T11:48:59Z</time>
      </trkpt>
      <trkpt lat="44.98905" lon="5.22521">
        <ele>1220.53</ele>
        <time>2017-04-23T11:49:03Z</time>
      </trkpt>
      <trkpt lat="44.98908" lon="5.22522">
        <ele>1219.09</ele>
        <time>2017-04-23T11:49:06Z</time>
      </trkpt>
      <trkpt lat="44.98913" lon="5.22525">
        <ele>1218.61</ele>
        <time>2017-04-23T11:49:09Z</time>
      </trkpt>
      <trkpt lat="44.98925" lon="5.22528">
        <ele>1217.17</ele>
        <time>2017-04-23T11:49:20Z</time>
      </trkpt>
      <trkpt lat="44.98931" lon="5.22536">
        <ele>1215.24</ele>
        <time>2017-04-23T11:49:28Z</time>
      </trkpt>
      <trkpt lat="44.98935" lon="5.22539">
        <ele>1214.28</ele>
        <time>2017-04-23T11:49:32Z</time>
      </trkpt>
      <trkpt lat="44.98936" lon="5.22542">
        <ele>1214.28</ele>
        <time>2017-04-23T11:49:34Z</time>
      </trkpt>
      <trkpt lat="44.98938" lon="5.22544">
        <ele>1214.28</ele>
        <time>2017-04-23T11:49:36Z</time>
      </trkpt>
      <trkpt lat="44.98945" lon="5.22554">
        <ele>1213.8</ele>
        <time>2017-04-23T11:49:45Z</time>
      </trkpt>
      <trkpt lat="44.98945" lon="5.22555">
        <ele>1213.32</ele>
        <time>2017-04-23T11:49:46Z</time>
      </trkpt>
      <trkpt lat="44.98945" lon="5.22562">
        <ele>1213.32</ele>
        <time>2017-04-23T11:49:49Z</time>
      </trkpt>
      <trkpt lat="44.98948" lon="5.2257">
        <ele>1211.88</ele>
        <time>2017-04-23T11:49:52Z</time>
      </trkpt>
      <trkpt lat="44.9895" lon="5.22578">
        <ele>1210.92</ele>
        <time>2017-04-23T11:49:55Z</time>
      </trkpt>
      <trkpt lat="44.98955" lon="5.22587">
        <ele>1209</ele>
        <time>2017-04-23T11:50:04Z</time>
      </trkpt>
      <trkpt lat="44.98959" lon="5.22588">
        <ele>1206.11</ele>
        <time>2017-04-23T11:50:13Z</time>
      </trkpt>
      <trkpt lat="44.98963" lon="5.22589">
        <ele>1205.15</ele>
        <time>2017-04-23T11:50:20Z</time>
      </trkpt>
      <trkpt lat="44.98968" lon="5.2259">
        <ele>1203.23</ele>
        <time>2017-04-23T11:50:29Z</time>
      </trkpt>
      <trkpt lat="44.98974" lon="5.22593">
        <ele>1203.23</ele>
        <time>2017-04-23T11:50:39Z</time>
      </trkpt>
      <trkpt lat="44.98977" lon="5.22594">
        <ele>1202.75</ele>
        <time>2017-04-23T11:50:41Z</time>
      </trkpt>
      <trkpt lat="44.98979" lon="5.22608">
        <ele>1199.86</ele>
        <time>2017-04-23T11:50:51Z</time>
      </trkpt>
      <trkpt lat="44.98983" lon="5.22613">
        <ele>1197.94</ele>
        <time>2017-04-23T11:50:58Z</time>
      </trkpt>
      <trkpt lat="44.98985" lon="5.22614">
        <ele>1197.94</ele>
        <time>2017-04-23T11:50:59Z</time>
      </trkpt>
      <trkpt lat="44.98989" lon="5.22619">
        <ele>1197.94</ele>
        <time>2017-04-23T11:51:03Z</time>
      </trkpt>
      <trkpt lat="44.98994" lon="5.22619">
        <ele>1196.98</ele>
        <time>2017-04-23T11:51:08Z</time>
      </trkpt>
      <trkpt lat="44.98999" lon="5.22617">
        <ele>1196.02</ele>
        <time>2017-04-23T11:51:15Z</time>
      </trkpt>
      <trkpt lat="44.99008" lon="5.22613">
        <ele>1193.61</ele>
        <time>2017-04-23T11:51:26Z</time>
      </trkpt>
      <trkpt lat="44.99025" lon="5.22621">
        <ele>1190.73</ele>
        <time>2017-04-23T11:51:36Z</time>
      </trkpt>
      <trkpt lat="44.99029" lon="5.22624">
        <ele>1189.77</ele>
        <time>2017-04-23T11:51:40Z</time>
      </trkpt>
      <trkpt lat="44.9903" lon="5.22626">
        <ele>1189.29</ele>
        <time>2017-04-23T11:51:42Z</time>
      </trkpt>
      <trkpt lat="44.9903" lon="5.22628">
        <ele>1187.85</ele>
        <time>2017-04-23T11:51:45Z</time>
      </trkpt>
      <trkpt lat="44.99035" lon="5.22632">
        <ele>1186.88</ele>
        <time>2017-04-23T11:51:54Z</time>
      </trkpt>
      <trkpt lat="44.99037" lon="5.22632">
        <ele>1186.88</ele>
        <time>2017-04-23T11:51:56Z</time>
      </trkpt>
      <trkpt lat="44.9904" lon="5.22632">
        <ele>1186.88</ele>
        <time>2017-04-23T11:51:59Z</time>
      </trkpt>
      <trkpt lat="44.99048" lon="5.22635">
        <ele>1186.88</ele>
        <time>2017-04-23T11:52:06Z</time>
      </trkpt>
      <trkpt lat="44.99052" lon="5.22635">
        <ele>1186.4</ele>
        <time>2017-04-23T11:52:22Z</time>
      </trkpt>
      <trkpt lat="44.99054" lon="5.22635">
        <ele>1186.88</ele>
        <time>2017-04-23T11:52:33Z</time>
      </trkpt>
      <trkpt lat="44.99063" lon="5.22638">
        <ele>1187.37</ele>
        <time>2017-04-23T11:52:45Z</time>
      </trkpt>
      <trkpt lat="44.99075" lon="5.22638">
        <ele>1187.85</ele>
        <time>2017-04-23T11:52:57Z</time>
      </trkpt>
      <trkpt lat="44.99083" lon="5.22638">
        <ele>1188.81</ele>
        <time>2017-04-23T11:53:09Z</time>
      </trkpt>
      <trkpt lat="44.99089" lon="5.22644">
        <ele>1191.69</ele>
        <time>2017-04-23T11:53:22Z</time>
      </trkpt>
      <trkpt lat="44.99091" lon="5.22646">
        <ele>1192.17</ele>
        <time>2017-04-23T11:53:28Z</time>
      </trkpt>
      <trkpt lat="44.99097" lon="5.22644">
        <ele>1194.09</ele>
        <time>2017-04-23T11:53:38Z</time>
      </trkpt>
      <trkpt lat="44.99097" lon="5.22644">
        <ele>1194.58</ele>
        <time>2017-04-23T11:53:39Z</time>
      </trkpt>
      <trkpt lat="44.99099" lon="5.22641">
        <ele>1196.02</ele>
        <time>2017-04-23T11:53:48Z</time>
      </trkpt>
      <trkpt lat="44.99101" lon="5.22632">
        <ele>1197.94</ele>
        <time>2017-04-23T11:54:00Z</time>
      </trkpt>
      <trkpt lat="44.99103" lon="5.22627">
        <ele>1199.86</ele>
        <time>2017-04-23T11:54:10Z</time>
      </trkpt>
      <trkpt lat="44.99107" lon="5.22624">
        <ele>1200.82</ele>
        <time>2017-04-23T11:54:21Z</time>
      </trkpt>
      <trkpt lat="44.9911" lon="5.2262">
        <ele>1202.75</ele>
        <time>2017-04-23T11:54:31Z</time>
      </trkpt>
      <trkpt lat="44.99113" lon="5.22616">
        <ele>1204.67</ele>
        <time>2017-04-23T11:54:43Z</time>
      </trkpt>
      <trkpt lat="44.99115" lon="5.22612">
        <ele>1206.59</ele>
        <time>2017-04-23T11:54:54Z</time>
      </trkpt>
      <trkpt lat="44.99118" lon="5.2261">
        <ele>1208.03</ele>
        <time>2017-04-23T11:55:03Z</time>
      </trkpt>
      <trkpt lat="44.99127" lon="5.22606">
        <ele>1209.48</ele>
        <time>2017-04-23T11:55:19Z</time>
      </trkpt>
      <trkpt lat="44.99129" lon="5.22605">
        <ele>1209.48</ele>
        <time>2017-04-23T11:55:35Z</time>
      </trkpt>
      <trkpt lat="44.99133" lon="5.22604">
        <ele>1210.92</ele>
        <time>2017-04-23T11:55:53Z</time>
      </trkpt>
      <trkpt lat="44.99136" lon="5.22601">
        <ele>1213.8</ele>
        <time>2017-04-23T11:56:05Z</time>
      </trkpt>
      <trkpt lat="44.99138" lon="5.22601">
        <ele>1216.21</ele>
        <time>2017-04-23T11:56:15Z</time>
      </trkpt>
      <trkpt lat="44.99143" lon="5.22605">
        <ele>1217.17</ele>
        <time>2017-04-23T11:56:27Z</time>
      </trkpt>
      <trkpt lat="44.99147" lon="5.22613">
        <ele>1219.57</ele>
        <time>2017-04-23T11:56:38Z</time>
      </trkpt>
      <trkpt lat="44.99151" lon="5.22618">
        <ele>1221.01</ele>
        <time>2017-04-23T11:56:48Z</time>
      </trkpt>
      <trkpt lat="44.99154" lon="5.2262">
        <ele>1221.97</ele>
        <time>2017-04-23T11:56:59Z</time>
      </trkpt>
      <trkpt lat="44.99157" lon="5.22616">
        <ele>1224.38</ele>
        <time>2017-04-23T11:57:13Z</time>
      </trkpt>
      <trkpt lat="44.99158" lon="5.22614">
        <ele>1225.34</ele>
        <time>2017-04-23T11:57:18Z</time>
      </trkpt>
      <trkpt lat="44.99161" lon="5.22611">
        <ele>1226.3</ele>
        <time>2017-04-23T11:57:27Z</time>
      </trkpt>
      <trkpt lat="44.99171" lon="5.22607">
        <ele>1227.26</ele>
        <time>2017-04-23T11:57:42Z</time>
      </trkpt>
      <trkpt lat="44.99176" lon="5.22599">
        <ele>1229.18</ele>
        <time>2017-04-23T11:57:56Z</time>
      </trkpt>
      <trkpt lat="44.99182" lon="5.22593">
        <ele>1230.14</ele>
        <time>2017-04-23T11:58:10Z</time>
      </trkpt>
      <trkpt lat="44.99184" lon="5.22581">
        <ele>1232.07</ele>
        <time>2017-04-23T11:58:25Z</time>
      </trkpt>
      <trkpt lat="44.99187" lon="5.22575">
        <ele>1232.55</ele>
        <time>2017-04-23T11:58:38Z</time>
      </trkpt>
      <trkpt lat="44.99187" lon="5.22573">
        <ele>1231.11</ele>
        <time>2017-04-23T11:58:48Z</time>
      </trkpt>
      <trkpt lat="44.99187" lon="5.22573">
        <ele>1231.11</ele>
        <time>2017-04-23T11:59:15Z</time>
      </trkpt>
      <trkpt lat="44.99186" lon="5.22573">
        <ele>1232.07</ele>
        <time>2017-04-23T11:59:40Z</time>
      </trkpt>
      <trkpt lat="44.99186" lon="5.22573">
        <ele>1232.07</ele>
        <time>2017-04-23T11:59:50Z</time>
      </trkpt>
      <trkpt lat="44.99186" lon="5.22574">
        <ele>1232.55</ele>
        <time>2017-04-23T12:00:03Z</time>
      </trkpt>
      <trkpt lat="44.99186" lon="5.22575">
        <ele>1231.59</ele>
        <time>2017-04-23T12:00:17Z</time>
      </trkpt>
      <trkpt lat="44.99189" lon="5.22578">
        <ele>1231.59</ele>
        <time>2017-04-23T12:00:32Z</time>
      </trkpt>
      <trkpt lat="44.99192" lon="5.22582">
        <ele>1228.22</ele>
        <time>2017-04-23T12:00:43Z</time>
      </trkpt>
      <trkpt lat="44.99193" lon="5.22583">
        <ele>1227.74</ele>
        <time>2017-04-23T12:00:44Z</time>
      </trkpt>
      <trkpt lat="44.99198" lon="5.22593">
        <ele>1227.74</ele>
        <time>2017-04-23T12:00:50Z</time>
      </trkpt>
      <trkpt lat="44.99207" lon="5.22603">
        <ele>1225.82</ele>
        <time>2017-04-23T12:01:00Z</time>
      </trkpt>
      <trkpt lat="44.99211" lon="5.22608">
        <ele>1228.7</ele>
        <time>2017-04-23T12:01:11Z</time>
      </trkpt>
      <trkpt lat="44.99213" lon="5.22611">
        <ele>1229.66</ele>
        <time>2017-04-23T12:01:23Z</time>
      </trkpt>
      <trkpt lat="44.99213" lon="5.22612">
        <ele>1229.66</ele>
        <time>2017-04-23T12:01:24Z</time>
      </trkpt>
      <trkpt lat="44.99222" lon="5.22619">
        <ele>1230.14</ele>
        <time>2017-04-23T12:01:35Z</time>
      </trkpt>
      <trkpt lat="44.99232" lon="5.22624">
        <ele>1232.07</ele>
        <time>2017-04-23T12:01:45Z</time>
      </trkpt>
      <trkpt lat="44.99233" lon="5.22624">
        <ele>1232.07</ele>
        <time>2017-04-23T12:01:46Z</time>
      </trkpt>
      <trkpt lat="44.99243" lon="5.22631">
        <ele>1231.59</ele>
        <time>2017-04-23T12:01:56Z</time>
      </trkpt>
      <trkpt lat="44.99246" lon="5.22632">
        <ele>1231.11</ele>
        <time>2017-04-23T12:01:59Z</time>
      </trkpt>
      <trkpt lat="44.99251" lon="5.22638">
        <ele>1231.59</ele>
        <time>2017-04-23T12:02:09Z</time>
      </trkpt>
      <trkpt lat="44.99258" lon="5.2264">
        <ele>1232.55</ele>
        <time>2017-04-23T12:02:20Z</time>
      </trkpt>
      <trkpt lat="44.99264" lon="5.22641">
        <ele>1234.47</ele>
        <time>2017-04-23T12:02:30Z</time>
      </trkpt>
      <trkpt lat="44.99266" lon="5.2264">
        <ele>1235.43</ele>
        <time>2017-04-23T12:02:36Z</time>
      </trkpt>
      <trkpt lat="44.99267" lon="5.22636">
        <ele>1236.87</ele>
        <time>2017-04-23T12:02:51Z</time>
      </trkpt>
      <trkpt lat="44.99267" lon="5.22635">
        <ele>1237.35</ele>
        <time>2017-04-23T12:03:02Z</time>
      </trkpt>
      <trkpt lat="44.99273" lon="5.22633">
        <ele>1238.32</ele>
        <time>2017-04-23T12:03:14Z</time>
      </trkpt>
      <trkpt lat="44.99283" lon="5.22637">
        <ele>1238.32</ele>
        <time>2017-04-23T12:03:27Z</time>
      </trkpt>
      <trkpt lat="44.99284" lon="5.22641">
        <ele>1238.8</ele>
        <time>2017-04-23T12:03:32Z</time>
      </trkpt>
      <trkpt lat="44.99293" lon="5.22651">
        <ele>1237.83</ele>
        <time>2017-04-23T12:03:43Z</time>
      </trkpt>
      <trkpt lat="44.99312" lon="5.22657">
        <ele>1235.91</ele>
        <time>2017-04-23T12:03:52Z</time>
      </trkpt>
      <trkpt lat="44.99318" lon="5.22661">
        <ele>1233.99</ele>
        <time>2017-04-23T12:04:04Z</time>
      </trkpt>
      <trkpt lat="44.99324" lon="5.22665">
        <ele>1232.55</ele>
        <time>2017-04-23T12:04:12Z</time>
      </trkpt>
      <trkpt lat="44.99328" lon="5.22669">
        <ele>1231.59</ele>
        <time>2017-04-23T12:04:17Z</time>
      </trkpt>
      <trkpt lat="44.99337" lon="5.22674">
        <ele>1231.59</ele>
        <time>2017-04-23T12:04:25Z</time>
      </trkpt>
      <trkpt lat="44.99344" lon="5.22678">
        <ele>1232.55</ele>
        <time>2017-04-23T12:04:36Z</time>
      </trkpt>
      <trkpt lat="44.99348" lon="5.22679">
        <ele>1234.47</ele>
        <time>2017-04-23T12:04:48Z</time>
      </trkpt>
      <trkpt lat="44.99349" lon="5.22673">
        <ele>1236.87</ele>
        <time>2017-04-23T12:05:00Z</time>
      </trkpt>
      <trkpt lat="44.99349" lon="5.22671">
        <ele>1238.32</ele>
        <time>2017-04-23T12:05:09Z</time>
      </trkpt>
      <trkpt lat="44.99353" lon="5.22664">
        <ele>1238.8</ele>
        <time>2017-04-23T12:05:15Z</time>
      </trkpt>
      <trkpt lat="44.99364" lon="5.2265">
        <ele>1239.76</ele>
        <time>2017-04-23T12:05:27Z</time>
      </trkpt>
      <trkpt lat="44.99366" lon="5.22647">
        <ele>1242.16</ele>
        <time>2017-04-23T12:05:38Z</time>
      </trkpt>
      <trkpt lat="44.99364" lon="5.2264">
        <ele>1244.08</ele>
        <time>2017-04-23T12:05:51Z</time>
      </trkpt>
      <trkpt lat="44.99364" lon="5.22637">
        <ele>1245.04</ele>
        <time>2017-04-23T12:06:02Z</time>
      </trkpt>
      <trkpt lat="44.99364" lon="5.22634">
        <ele>1247.45</ele>
        <time>2017-04-23T12:06:18Z</time>
      </trkpt>
      <trkpt lat="44.99366" lon="5.22632">
        <ele>1248.41</ele>
        <time>2017-04-23T12:06:26Z</time>
      </trkpt>
      <trkpt lat="44.99377" lon="5.22623">
        <ele>1250.33</ele>
        <time>2017-04-23T12:06:39Z</time>
      </trkpt>
      <trkpt lat="44.99382" lon="5.22621">
        <ele>1250.81</ele>
        <time>2017-04-23T12:06:46Z</time>
      </trkpt>
      <trkpt lat="44.99394" lon="5.22614">
        <ele>1251.77</ele>
        <time>2017-04-23T12:06:58Z</time>
      </trkpt>
      <trkpt lat="44.99396" lon="5.22613">
        <ele>1254.18</ele>
        <time>2017-04-23T12:07:13Z</time>
      </trkpt>
      <trkpt lat="44.99401" lon="5.22615">
        <ele>1256.58</ele>
        <time>2017-04-23T12:07:27Z</time>
      </trkpt>
      <trkpt lat="44.99406" lon="5.22616">
        <ele>1258.02</ele>
        <time>2017-04-23T12:07:40Z</time>
      </trkpt>
      <trkpt lat="44.99418" lon="5.22614">
        <ele>1258.98</ele>
        <time>2017-04-23T12:07:52Z</time>
      </trkpt>
      <trkpt lat="44.99422" lon="5.22615">
        <ele>1259.46</ele>
        <time>2017-04-23T12:08:04Z</time>
      </trkpt>
      <trkpt lat="44.99423" lon="5.22615">
        <ele>1259.94</ele>
        <time>2017-04-23T12:08:08Z</time>
      </trkpt>
      <trkpt lat="44.99431" lon="5.22612">
        <ele>1259.46</ele>
        <time>2017-04-23T12:08:22Z</time>
      </trkpt>
      <trkpt lat="44.99436" lon="5.2262">
        <ele>1259.46</ele>
        <time>2017-04-23T12:08:33Z</time>
      </trkpt>
      <trkpt lat="44.99443" lon="5.22634">
        <ele>1259.94</ele>
        <time>2017-04-23T12:08:45Z</time>
      </trkpt>
      <trkpt lat="44.99444" lon="5.22634">
        <ele>1259.94</ele>
        <time>2017-04-23T12:08:47Z</time>
      </trkpt>
      <trkpt lat="44.99454" lon="5.22637">
        <ele>1262.35</ele>
        <time>2017-04-23T12:09:00Z</time>
      </trkpt>
      <trkpt lat="44.99458" lon="5.22639">
        <ele>1265.23</ele>
        <time>2017-04-23T12:09:15Z</time>
      </trkpt>
      <trkpt lat="44.9946" lon="5.22639">
        <ele>1264.75</ele>
        <time>2017-04-23T12:09:18Z</time>
      </trkpt>
      <trkpt lat="44.9946" lon="5.2264">
        <ele>1265.71</ele>
        <time>2017-04-23T12:09:23Z</time>
      </trkpt>
      <trkpt lat="44.99461" lon="5.22642">
        <ele>1266.19</ele>
        <time>2017-04-23T12:09:27Z</time>
      </trkpt>
      <trkpt lat="44.99467" lon="5.2264">
        <ele>1266.19</ele>
        <time>2017-04-23T12:09:31Z</time>
      </trkpt>
      <trkpt lat="44.99478" lon="5.22635">
        <ele>1269.08</ele>
        <time>2017-04-23T12:09:43Z</time>
      </trkpt>
      <trkpt lat="44.99478" lon="5.22634">
        <ele>1270.04</ele>
        <time>2017-04-23T12:09:55Z</time>
      </trkpt>
      <trkpt lat="44.99482" lon="5.22633">
        <ele>1271.48</ele>
        <time>2017-04-23T12:10:10Z</time>
      </trkpt>
      <trkpt lat="44.99484" lon="5.22632">
        <ele>1272.44</ele>
        <time>2017-04-23T12:10:24Z</time>
      </trkpt>
      <trkpt lat="44.99487" lon="5.22632">
        <ele>1274.85</ele>
        <time>2017-04-23T12:10:38Z</time>
      </trkpt>
      <trkpt lat="44.9949" lon="5.22631">
        <ele>1276.29</ele>
        <time>2017-04-23T12:10:50Z</time>
      </trkpt>
      <trkpt lat="44.99495" lon="5.22629">
        <ele>1278.69</ele>
        <time>2017-04-23T12:11:04Z</time>
      </trkpt>
      <trkpt lat="44.99502" lon="5.22624">
        <ele>1280.13</ele>
        <time>2017-04-23T12:11:17Z</time>
      </trkpt>
      <trkpt lat="44.99507" lon="5.22621">
        <ele>1283.02</ele>
        <time>2017-04-23T12:11:29Z</time>
      </trkpt>
      <trkpt lat="44.99514" lon="5.22616">
        <ele>1284.46</ele>
        <time>2017-04-23T12:11:42Z</time>
      </trkpt>
      <trkpt lat="44.99516" lon="5.22614">
        <ele>1284.46</ele>
        <time>2017-04-23T12:11:46Z</time>
      </trkpt>
      <trkpt lat="44.99518" lon="5.22613">
        <ele>1284.46</ele>
        <time>2017-04-23T12:11:48Z</time>
      </trkpt>
      <trkpt lat="44.99524" lon="5.2261">
        <ele>1286.38</ele>
        <time>2017-04-23T12:11:59Z</time>
      </trkpt>
      <trkpt lat="44.99528" lon="5.2261">
        <ele>1286.38</ele>
        <time>2017-04-23T12:12:04Z</time>
      </trkpt>
      <trkpt lat="44.99534" lon="5.2261">
        <ele>1287.34</ele>
        <time>2017-04-23T12:12:17Z</time>
      </trkpt>
      <trkpt lat="44.99536" lon="5.22609">
        <ele>1286.86</ele>
        <time>2017-04-23T12:12:33Z</time>
      </trkpt>
      <trkpt lat="44.99538" lon="5.2261">
        <ele>1286.38</ele>
        <time>2017-04-23T12:13:02Z</time>
      </trkpt>
      <trkpt lat="44.99539" lon="5.22609">
        <ele>1287.34</ele>
        <time>2017-04-23T12:13:28Z</time>
      </trkpt>
      <trkpt lat="44.9954" lon="5.22609">
        <ele>1287.34</ele>
        <time>2017-04-23T12:13:52Z</time>
      </trkpt>
      <trkpt lat="44.9954" lon="5.2261">
        <ele>1286.86</ele>
        <time>2017-04-23T12:14:06Z</time>
      </trkpt>
      <trkpt lat="44.99541" lon="5.2261">
        <ele>1286.86</ele>
        <time>2017-04-23T12:14:37Z</time>
      </trkpt>
      <trkpt lat="44.99543" lon="5.22611">
        <ele>1286.38</ele>
        <time>2017-04-23T12:14:57Z</time>
      </trkpt>
      <trkpt lat="44.99544" lon="5.22611">
        <ele>1286.38</ele>
        <time>2017-04-23T12:15:24Z</time>
      </trkpt>
      <trkpt lat="44.99544" lon="5.22611">
        <ele>1286.86</ele>
        <time>2017-04-23T12:15:25Z</time>
      </trkpt>
      <trkpt lat="44.99549" lon="5.22611">
        <ele>1286.38</ele>
        <time>2017-04-23T12:15:48Z</time>
      </trkpt>
      <trkpt lat="44.9955" lon="5.22611">
        <ele>1287.82</ele>
        <time>2017-04-23T12:16:14Z</time>
      </trkpt>
      <trkpt lat="44.99552" lon="5.22612">
        <ele>1287.34</ele>
        <time>2017-04-23T12:16:28Z</time>
      </trkpt>
      <trkpt lat="44.99552" lon="5.22612">
        <ele>1287.34</ele>
        <time>2017-04-23T12:16:29Z</time>
      </trkpt>
      <trkpt lat="44.99558" lon="5.22616">
        <ele>1286.38</ele>
        <time>2017-04-23T12:16:38Z</time>
      </trkpt>
      <trkpt lat="44.99561" lon="5.22624">
        <ele>1284.94</ele>
        <time>2017-04-23T12:16:48Z</time>
      </trkpt>
      <trkpt lat="44.99563" lon="5.22626">
        <ele>1284.94</ele>
        <time>2017-04-23T12:16:58Z</time>
      </trkpt>
      <trkpt lat="44.99565" lon="5.22627">
        <ele>1283.02</ele>
        <time>2017-04-23T12:17:02Z</time>
      </trkpt>
      <trkpt lat="44.99569" lon="5.22633">
        <ele>1282.54</ele>
        <time>2017-04-23T12:17:13Z</time>
      </trkpt>
      <trkpt lat="44.99573" lon="5.22642">
        <ele>1283.02</ele>
        <time>2017-04-23T12:17:24Z</time>
      </trkpt>
      <trkpt lat="44.99576" lon="5.22645">
        <ele>1284.46</ele>
        <time>2017-04-23T12:17:31Z</time>
      </trkpt>
      <trkpt lat="44.99579" lon="5.22649">
        <ele>1283.98</ele>
        <time>2017-04-23T12:17:36Z</time>
      </trkpt>
      <trkpt lat="44.99585" lon="5.22649">
        <ele>1284.46</ele>
        <time>2017-04-23T12:17:48Z</time>
      </trkpt>
      <trkpt lat="44.99589" lon="5.22647">
        <ele>1285.9</ele>
        <time>2017-04-23T12:17:58Z</time>
      </trkpt>
      <trkpt lat="44.99591" lon="5.22646">
        <ele>1285.9</ele>
        <time>2017-04-23T12:18:02Z</time>
      </trkpt>
      <trkpt lat="44.996" lon="5.22646">
        <ele>1286.38</ele>
        <time>2017-04-23T12:18:13Z</time>
      </trkpt>
      <trkpt lat="44.99604" lon="5.22649">
        <ele>1284.94</ele>
        <time>2017-04-23T12:18:20Z</time>
      </trkpt>
      <trkpt lat="44.99611" lon="5.22651">
        <ele>1285.9</ele>
        <time>2017-04-23T12:18:30Z</time>
      </trkpt>
      <trkpt lat="44.99611" lon="5.22651">
        <ele>1286.38</ele>
        <time>2017-04-23T12:18:31Z</time>
      </trkpt>
      <trkpt lat="44.99612" lon="5.22649">
        <ele>1287.82</ele>
        <time>2017-04-23T12:18:42Z</time>
      </trkpt>
      <trkpt lat="44.99616" lon="5.22647">
        <ele>1289.27</ele>
        <time>2017-04-23T12:18:48Z</time>
      </trkpt>
      <trkpt lat="44.99621" lon="5.22646">
        <ele>1289.27</ele>
        <time>2017-04-23T12:18:51Z</time>
      </trkpt>
      <trkpt lat="44.99627" lon="5.22644">
        <ele>1288.78</ele>
        <time>2017-04-23T12:18:58Z</time>
      </trkpt>
      <trkpt lat="44.99631" lon="5.22644">
        <ele>1286.86</ele>
        <time>2017-04-23T12:19:02Z</time>
      </trkpt>
      <trkpt lat="44.99639" lon="5.22646">
        <ele>1287.34</ele>
        <time>2017-04-23T12:19:12Z</time>
      </trkpt>
      <trkpt lat="44.99639" lon="5.22648">
        <ele>1285.9</ele>
        <time>2017-04-23T12:19:15Z</time>
      </trkpt>
      <trkpt lat="44.99642" lon="5.22651">
        <ele>1284.94</ele>
        <time>2017-04-23T12:19:21Z</time>
      </trkpt>
      <trkpt lat="44.99648" lon="5.22652">
        <ele>1285.42</ele>
        <time>2017-04-23T12:19:28Z</time>
      </trkpt>
      <trkpt lat="44.99651" lon="5.22661">
        <ele>1283.5</ele>
        <time>2017-04-23T12:19:38Z</time>
      </trkpt>
      <trkpt lat="44.99652" lon="5.22662">
        <ele>1281.09</ele>
        <time>2017-04-23T12:19:45Z</time>
      </trkpt>
      <trkpt lat="44.99657" lon="5.22666">
        <ele>1280.13</ele>
        <time>2017-04-23T12:19:53Z</time>
      </trkpt>
      <trkpt lat="44.99668" lon="5.22667">
        <ele>1279.65</ele>
        <time>2017-04-23T12:20:04Z</time>
      </trkpt>
      <trkpt lat="44.99674" lon="5.22666">
        <ele>1278.69</ele>
        <time>2017-04-23T12:20:10Z</time>
      </trkpt>
      <trkpt lat="44.99682" lon="5.22662">
        <ele>1280.61</ele>
        <time>2017-04-23T12:20:22Z</time>
      </trkpt>
      <trkpt lat="44.99684" lon="5.22661">
        <ele>1281.09</ele>
        <time>2017-04-23T12:20:25Z</time>
      </trkpt>
      <trkpt lat="44.99701" lon="5.22652">
        <ele>1279.65</ele>
        <time>2017-04-23T12:20:38Z</time>
      </trkpt>
      <trkpt lat="44.99711" lon="5.2265">
        <ele>1279.17</ele>
        <time>2017-04-23T12:20:48Z</time>
      </trkpt>
      <trkpt lat="44.99721" lon="5.22649">
        <ele>1279.65</ele>
        <time>2017-04-23T12:20:59Z</time>
      </trkpt>
      <trkpt lat="44.99727" lon="5.22652">
        <ele>1278.21</ele>
        <time>2017-04-23T12:21:10Z</time>
      </trkpt>
      <trkpt lat="44.99729" lon="5.22655">
        <ele>1278.21</ele>
        <time>2017-04-23T12:21:21Z</time>
      </trkpt>
      <trkpt lat="44.99729" lon="5.22655">
        <ele>1278.21</ele>
        <time>2017-04-23T12:21:22Z</time>
      </trkpt>
      <trkpt lat="44.99737" lon="5.22657">
        <ele>1279.65</ele>
        <time>2017-04-23T12:21:31Z</time>
      </trkpt>
      <trkpt lat="44.99749" lon="5.22657">
        <ele>1278.69</ele>
        <time>2017-04-23T12:21:41Z</time>
      </trkpt>
      <trkpt lat="44.99758" lon="5.22658">
        <ele>1277.73</ele>
        <time>2017-04-23T12:21:52Z</time>
      </trkpt>
      <trkpt lat="44.99765" lon="5.22656">
        <ele>1278.69</ele>
        <time>2017-04-23T12:21:59Z</time>
      </trkpt>
      <trkpt lat="44.99769" lon="5.22654">
        <ele>1278.69</ele>
        <time>2017-04-23T12:22:02Z</time>
      </trkpt>
      <trkpt lat="44.99777" lon="5.22655">
        <ele>1279.65</ele>
        <time>2017-04-23T12:22:12Z</time>
      </trkpt>
      <trkpt lat="44.99781" lon="5.22654">
        <ele>1279.65</ele>
        <time>2017-04-23T12:22:18Z</time>
      </trkpt>
      <trkpt lat="44.99784" lon="5.22653">
        <ele>1279.65</ele>
        <time>2017-04-23T12:22:21Z</time>
      </trkpt>
      <trkpt lat="44.99788" lon="5.22652">
        <ele>1280.61</ele>
        <time>2017-04-23T12:22:29Z</time>
      </trkpt>
      <trkpt lat="44.99795" lon="5.22657">
        <ele>1279.65</ele>
        <time>2017-04-23T12:22:39Z</time>
      </trkpt>
      <trkpt lat="44.99802" lon="5.22652">
        <ele>1279.17</ele>
        <time>2017-04-23T12:22:50Z</time>
      </trkpt>
      <trkpt lat="44.99809" lon="5.22654">
        <ele>1279.65</ele>
        <time>2017-04-23T12:23:03Z</time>
      </trkpt>
      <trkpt lat="44.99816" lon="5.22653">
        <ele>1280.13</ele>
        <time>2017-04-23T12:23:14Z</time>
      </trkpt>
      <trkpt lat="44.9982" lon="5.22657">
        <ele>1280.61</ele>
        <time>2017-04-23T12:23:19Z</time>
      </trkpt>
      <trkpt lat="44.99825" lon="5.22658">
        <ele>1278.69</ele>
        <time>2017-04-23T12:23:22Z</time>
      </trkpt>
      <trkpt lat="44.99829" lon="5.22659">
        <ele>1279.17</ele>
        <time>2017-04-23T12:23:26Z</time>
      </trkpt>
      <trkpt lat="44.99832" lon="5.2266">
        <ele>1278.69</ele>
        <time>2017-04-23T12:23:30Z</time>
      </trkpt>
      <trkpt lat="44.99841" lon="5.22659">
        <ele>1277.73</ele>
        <time>2017-04-23T12:23:41Z</time>
      </trkpt>
      <trkpt lat="44.99848" lon="5.22664">
        <ele>1276.77</ele>
        <time>2017-04-23T12:23:50Z</time>
      </trkpt>
      <trkpt lat="44.99854" lon="5.22663">
        <ele>1276.77</ele>
        <time>2017-04-23T12:23:56Z</time>
      </trkpt>
      <trkpt lat="44.9986" lon="5.22661">
        <ele>1277.73</ele>
        <time>2017-04-23T12:24:02Z</time>
      </trkpt>
      <trkpt lat="44.99866" lon="5.22659">
        <ele>1277.25</ele>
        <time>2017-04-23T12:24:06Z</time>
      </trkpt>
      <trkpt lat="44.9987" lon="5.22658">
        <ele>1277.73</ele>
        <time>2017-04-23T12:24:10Z</time>
      </trkpt>
      <trkpt lat="44.99874" lon="5.22658">
        <ele>1276.77</ele>
        <time>2017-04-23T12:24:15Z</time>
      </trkpt>
      <trkpt lat="44.9988" lon="5.22656">
        <ele>1277.25</ele>
        <time>2017-04-23T12:24:19Z</time>
      </trkpt>
      <trkpt lat="44.99885" lon="5.22653">
        <ele>1276.77</ele>
        <time>2017-04-23T12:24:23Z</time>
      </trkpt>
      <trkpt lat="44.99894" lon="5.22652">
        <ele>1277.25</ele>
        <time>2017-04-23T12:24:36Z</time>
      </trkpt>
      <trkpt lat="44.99895" lon="5.22653">
        <ele>1276.77</ele>
        <time>2017-04-23T12:24:48Z</time>
      </trkpt>
      <trkpt lat="44.99896" lon="5.22654">
        <ele>1276.77</ele>
        <time>2017-04-23T12:25:01Z</time>
      </trkpt>
      <trkpt lat="44.99899" lon="5.22654">
        <ele>1276.29</ele>
        <time>2017-04-23T12:25:22Z</time>
      </trkpt>
      <trkpt lat="44.99902" lon="5.22655">
        <ele>1277.25</ele>
        <time>2017-04-23T12:25:40Z</time>
      </trkpt>
      <trkpt lat="44.99905" lon="5.22656">
        <ele>1277.25</ele>
        <time>2017-04-23T12:25:53Z</time>
      </trkpt>
      <trkpt lat="44.99906" lon="5.22657">
        <ele>1276.77</ele>
        <time>2017-04-23T12:25:54Z</time>
      </trkpt>
      <trkpt lat="44.99908" lon="5.22659">
        <ele>1275.33</ele>
        <time>2017-04-23T12:25:58Z</time>
      </trkpt>
      <trkpt lat="44.99909" lon="5.22659">
        <ele>1275.33</ele>
        <time>2017-04-23T12:25:59Z</time>
      </trkpt>
      <trkpt lat="44.99916" lon="5.22662">
        <ele>1273.4</ele>
        <time>2017-04-23T12:26:12Z</time>
      </trkpt>
      <trkpt lat="44.99925" lon="5.22665">
        <ele>1272.44</ele>
        <time>2017-04-23T12:26:24Z</time>
      </trkpt>
      <trkpt lat="44.99928" lon="5.22669">
        <ele>1271</ele>
        <time>2017-04-23T12:26:34Z</time>
      </trkpt>
      <trkpt lat="44.99929" lon="5.22669">
        <ele>1269.56</ele>
        <time>2017-04-23T12:26:37Z</time>
      </trkpt>
      <trkpt lat="44.99932" lon="5.22671">
        <ele>1267.64</ele>
        <time>2017-04-23T12:26:42Z</time>
      </trkpt>
      <trkpt lat="44.99939" lon="5.22671">
        <ele>1267.64</ele>
        <time>2017-04-23T12:26:46Z</time>
      </trkpt>
      <trkpt lat="44.99946" lon="5.22672">
        <ele>1266.67</ele>
        <time>2017-04-23T12:26:51Z</time>
      </trkpt>
      <trkpt lat="44.99954" lon="5.22671">
        <ele>1266.67</ele>
        <time>2017-04-23T12:26:56Z</time>
      </trkpt>
      <trkpt lat="44.99962" lon="5.22672">
        <ele>1266.67</ele>
        <time>2017-04-23T12:27:02Z</time>
      </trkpt>
      <trkpt lat="44.99978" lon="5.22676">
        <ele>1266.67</ele>
        <time>2017-04-23T12:27:11Z</time>
      </trkpt>
      <trkpt lat="44.99982" lon="5.2268">
        <ele>1265.23</ele>
        <time>2017-04-23T12:27:23Z</time>
      </trkpt>
      <trkpt lat="44.99985" lon="5.22688">
        <ele>1264.75</ele>
        <time>2017-04-23T12:27:37Z</time>
      </trkpt>
      <trkpt lat="44.99989" lon="5.2269">
        <ele>1265.23</ele>
        <time>2017-04-23T12:27:46Z</time>
      </trkpt>
      <trkpt lat="44.99991" lon="5.2269">
        <ele>1265.23</ele>
        <time>2017-04-23T12:28:10Z</time>
      </trkpt>
      <trkpt lat="44.99994" lon="5.22689">
        <ele>1264.27</ele>
        <time>2017-04-23T12:28:35Z</time>
      </trkpt>
      <trkpt lat="44.99993" lon="5.2269">
        <ele>1264.75</ele>
        <time>2017-04-23T12:28:49Z</time>
      </trkpt>
      <trkpt lat="44.99994" lon="5.22689">
        <ele>1264.27</ele>
        <time>2017-04-23T12:29:09Z</time>
      </trkpt>
      <trkpt lat="44.99993" lon="5.22688">
        <ele>1264.27</ele>
        <time>2017-04-23T12:29:30Z</time>
      </trkpt>
      <trkpt lat="44.99993" lon="5.22687">
        <ele>1264.27</ele>
        <time>2017-04-23T12:29:53Z</time>
      </trkpt>
      <trkpt lat="44.99993" lon="5.22687">
        <ele>1262.83</ele>
        <time>2017-04-23T12:30:07Z</time>
      </trkpt>
      <trkpt lat="44.99994" lon="5.22687">
        <ele>1263.79</ele>
        <time>2017-04-23T12:30:26Z</time>
      </trkpt>
      <trkpt lat="44.99994" lon="5.22687">
        <ele>1265.23</ele>
        <time>2017-04-23T12:30:43Z</time>
      </trkpt>
      <trkpt lat="44.99994" lon="5.22687">
        <ele>1265.23</ele>
        <time>2017-04-23T12:31:08Z</time>
      </trkpt>
      <trkpt lat="44.99994" lon="5.22687">
        <ele>1264.75</ele>
        <time>2017-04-23T12:31:36Z</time>
      </trkpt>
      <trkpt lat="44.99994" lon="5.22687">
        <ele>1265.23</ele>
        <time>2017-04-23T12:32:09Z</time>
      </trkpt>
      <trkpt lat="44.99994" lon="5.22687">
        <ele>1265.23</ele>
        <time>2017-04-23T12:32:31Z</time>
      </trkpt>
      <trkpt lat="44.99994" lon="5.22685">
        <ele>1264.75</ele>
        <time>2017-04-23T12:32:48Z</time>
      </trkpt>
      <trkpt lat="44.99996" lon="5.22681">
        <ele>1262.83</ele>
        <time>2017-04-23T12:33:01Z</time>
      </trkpt>
      <trkpt lat="44.99996" lon="5.22679">
        <ele>1260.91</ele>
        <time>2017-04-23T12:33:18Z</time>
      </trkpt>
      <trkpt lat="44.99996" lon="5.22677">
        <ele>1258.02</ele>
        <time>2017-04-23T12:33:30Z</time>
      </trkpt>
      <trkpt lat="44.99994" lon="5.22678">
        <ele>1257.06</ele>
        <time>2017-04-23T12:33:34Z</time>
      </trkpt>
      <trkpt lat="44.99994" lon="5.22676">
        <ele>1256.58</ele>
        <time>2017-04-23T12:33:38Z</time>
      </trkpt>
      <trkpt lat="44.99992" lon="5.22678">
        <ele>1255.62</ele>
        <time>2017-04-23T12:33:52Z</time>
      </trkpt>
      <trkpt lat="44.99992" lon="5.2267">
        <ele>1254.66</ele>
        <time>2017-04-23T12:34:19Z</time>
      </trkpt>
      <trkpt lat="44.99993" lon="5.22664">
        <ele>1251.77</ele>
        <time>2017-04-23T12:34:32Z</time>
      </trkpt>
      <trkpt lat="44.99993" lon="5.22663">
        <ele>1251.29</ele>
        <time>2017-04-23T12:34:33Z</time>
      </trkpt>
      <trkpt lat="44.99988" lon="5.2266">
        <ele>1249.37</ele>
        <time>2017-04-23T12:34:41Z</time>
      </trkpt>
      <trkpt lat="44.9999" lon="5.22656">
        <ele>1247.45</ele>
        <time>2017-04-23T12:34:48Z</time>
      </trkpt>
      <trkpt lat="44.99991" lon="5.22648">
        <ele>1245.53</ele>
        <time>2017-04-23T12:34:59Z</time>
      </trkpt>
      <trkpt lat="44.99991" lon="5.22641">
        <ele>1245.04</ele>
        <time>2017-04-23T12:35:16Z</time>
      </trkpt>
      <trkpt lat="44.99991" lon="5.22638">
        <ele>1242.64</ele>
        <time>2017-04-23T12:35:29Z</time>
      </trkpt>
      <trkpt lat="44.9999" lon="5.22637">
        <ele>1241.68</ele>
        <time>2017-04-23T12:35:32Z</time>
      </trkpt>
      <trkpt lat="44.99988" lon="5.22635">
        <ele>1240.24</ele>
        <time>2017-04-23T12:35:39Z</time>
      </trkpt>
      <trkpt lat="44.99987" lon="5.22627">
        <ele>1237.35</ele>
        <time>2017-04-23T12:35:50Z</time>
      </trkpt>
      <trkpt lat="44.99986" lon="5.22618">
        <ele>1233.99</ele>
        <time>2017-04-23T12:35:59Z</time>
      </trkpt>
      <trkpt lat="44.99984" lon="5.22611">
        <ele>1231.11</ele>
        <time>2017-04-23T12:36:09Z</time>
      </trkpt>
      <trkpt lat="44.99982" lon="5.22604">
        <ele>1229.18</ele>
        <time>2017-04-23T12:36:14Z</time>
      </trkpt>
      <trkpt lat="44.99983" lon="5.22594">
        <ele>1226.3</ele>
        <time>2017-04-23T12:36:21Z</time>
      </trkpt>
      <trkpt lat="44.99985" lon="5.22586">
        <ele>1224.38</ele>
        <time>2017-04-23T12:36:27Z</time>
      </trkpt>
      <trkpt lat="44.99986" lon="5.22586">
        <ele>1222.93</ele>
        <time>2017-04-23T12:36:30Z</time>
      </trkpt>
      <trkpt lat="44.99986" lon="5.22585">
        <ele>1221.49</ele>
        <time>2017-04-23T12:36:38Z</time>
      </trkpt>
      <trkpt lat="44.99986" lon="5.22581">
        <ele>1221.01</ele>
        <time>2017-04-23T12:36:40Z</time>
      </trkpt>
      <trkpt lat="44.99989" lon="5.22572">
        <ele>1219.09</ele>
        <time>2017-04-23T12:36:45Z</time>
      </trkpt>
      <trkpt lat="44.9999" lon="5.22566">
        <ele>1218.61</ele>
        <time>2017-04-23T12:36:51Z</time>
      </trkpt>
      <trkpt lat="44.9999" lon="5.2256">
        <ele>1216.69</ele>
        <time>2017-04-23T12:36:56Z</time>
      </trkpt>
      <trkpt lat="44.99992" lon="5.22549">
        <ele>1214.28</ele>
        <time>2017-04-23T12:37:05Z</time>
      </trkpt>
      <trkpt lat="44.99996" lon="5.22541">
        <ele>1212.36</ele>
        <time>2017-04-23T12:37:10Z</time>
      </trkpt>
      <trkpt lat="44.99998" lon="5.22538">
        <ele>1210.44</ele>
        <time>2017-04-23T12:37:12Z</time>
      </trkpt>
      <trkpt lat="44.99999" lon="5.22535">
        <ele>1210.92</ele>
        <time>2017-04-23T12:37:14Z</time>
      </trkpt>
      <trkpt lat="45.00004" lon="5.22526">
        <ele>1207.07</ele>
        <time>2017-04-23T12:37:21Z</time>
      </trkpt>
      <trkpt lat="45.00004" lon="5.22524">
        <ele>1208.51</ele>
        <time>2017-04-23T12:37:23Z</time>
      </trkpt>
      <trkpt lat="45.00005" lon="5.22521">
        <ele>1206.11</ele>
        <time>2017-04-23T12:37:25Z</time>
      </trkpt>
      <trkpt lat="45.00007" lon="5.22518">
        <ele>1207.55</ele>
        <time>2017-04-23T12:37:27Z</time>
      </trkpt>
      <trkpt lat="45.00007" lon="5.22512">
        <ele>1204.19</ele>
        <time>2017-04-23T12:37:30Z</time>
      </trkpt>
      <trkpt lat="45.00007" lon="5.2251">
        <ele>1203.23</ele>
        <time>2017-04-23T12:37:32Z</time>
      </trkpt>
      <trkpt lat="45.00012" lon="5.22502">
        <ele>1200.34</ele>
        <time>2017-04-23T12:37:38Z</time>
      </trkpt>
      <trkpt lat="45.00016" lon="5.22498">
        <ele>1197.94</ele>
        <time>2017-04-23T12:37:42Z</time>
      </trkpt>
      <trkpt lat="45.00019" lon="5.22486">
        <ele>1195.06</ele>
        <time>2017-04-23T12:37:50Z</time>
      </trkpt>
      <trkpt lat="45.00022" lon="5.22482">
        <ele>1196.02</ele>
        <time>2017-04-23T12:37:53Z</time>
      </trkpt>
      <trkpt lat="45.00028" lon="5.22478">
        <ele>1192.65</ele>
        <time>2017-04-23T12:37:58Z</time>
      </trkpt>
      <trkpt lat="45.0003" lon="5.22473">
        <ele>1190.73</ele>
        <time>2017-04-23T12:38:02Z</time>
      </trkpt>
      <trkpt lat="45.00033" lon="5.22463">
        <ele>1188.33</ele>
        <time>2017-04-23T12:38:09Z</time>
      </trkpt>
      <trkpt lat="45.00037" lon="5.22455">
        <ele>1184.48</ele>
        <time>2017-04-23T12:38:17Z</time>
      </trkpt>
      <trkpt lat="45.00038" lon="5.22453">
        <ele>1184.48</ele>
        <time>2017-04-23T12:38:19Z</time>
      </trkpt>
      <trkpt lat="45.00043" lon="5.22447">
        <ele>1182.08</ele>
        <time>2017-04-23T12:38:25Z</time>
      </trkpt>
      <trkpt lat="45.00043" lon="5.22445">
        <ele>1181.6</ele>
        <time>2017-04-23T12:38:27Z</time>
      </trkpt>
      <trkpt lat="45.00048" lon="5.22435">
        <ele>1178.71</ele>
        <time>2017-04-23T12:38:36Z</time>
      </trkpt>
      <trkpt lat="45.00055" lon="5.2243">
        <ele>1175.83</ele>
        <time>2017-04-23T12:38:41Z</time>
      </trkpt>
      <trkpt lat="45.00065" lon="5.22424">
        <ele>1173.91</ele>
        <time>2017-04-23T12:38:49Z</time>
      </trkpt>
      <trkpt lat="45.00068" lon="5.2242">
        <ele>1172.47</ele>
        <time>2017-04-23T12:38:51Z</time>
      </trkpt>
      <trkpt lat="45.00071" lon="5.22412">
        <ele>1169.58</ele>
        <time>2017-04-23T12:38:55Z</time>
      </trkpt>
      <trkpt lat="45.00075" lon="5.22405">
        <ele>1169.1</ele>
        <time>2017-04-23T12:38:59Z</time>
      </trkpt>
      <trkpt lat="45.00077" lon="5.224">
        <ele>1166.22</ele>
        <time>2017-04-23T12:39:01Z</time>
      </trkpt>
      <trkpt lat="45.00079" lon="5.22396">
        <ele>1164.77</ele>
        <time>2017-04-23T12:39:03Z</time>
      </trkpt>
      <trkpt lat="45.00081" lon="5.22392">
        <ele>1163.33</ele>
        <time>2017-04-23T12:39:05Z</time>
      </trkpt>
      <trkpt lat="45.00082" lon="5.2239">
        <ele>1162.85</ele>
        <time>2017-04-23T12:39:06Z</time>
      </trkpt>
      <trkpt lat="45.00085" lon="5.22386">
        <ele>1162.37</ele>
        <time>2017-04-23T12:39:08Z</time>
      </trkpt>
      <trkpt lat="45.00086" lon="5.2238">
        <ele>1159.01</ele>
        <time>2017-04-23T12:39:12Z</time>
      </trkpt>
      <trkpt lat="45.00093" lon="5.22368">
        <ele>1158.05</ele>
        <time>2017-04-23T12:39:18Z</time>
      </trkpt>
      <trkpt lat="45.00095" lon="5.22364">
        <ele>1158.53</ele>
        <time>2017-04-23T12:39:20Z</time>
      </trkpt>
      <trkpt lat="45.00099" lon="5.22358">
        <ele>1155.16</ele>
        <time>2017-04-23T12:39:25Z</time>
      </trkpt>
      <trkpt lat="45.00102" lon="5.22354">
        <ele>1155.16</ele>
        <time>2017-04-23T12:39:27Z</time>
      </trkpt>
      <trkpt lat="45.0011" lon="5.22345">
        <ele>1152.28</ele>
        <time>2017-04-23T12:39:34Z</time>
      </trkpt>
      <trkpt lat="45.0011" lon="5.22344">
        <ele>1151.8</ele>
        <time>2017-04-23T12:39:35Z</time>
      </trkpt>
      <trkpt lat="45.00112" lon="5.2234">
        <ele>1152.76</ele>
        <time>2017-04-23T12:39:37Z</time>
      </trkpt>
      <trkpt lat="45.00117" lon="5.22329">
        <ele>1149.39</ele>
        <time>2017-04-23T12:39:45Z</time>
      </trkpt>
      <trkpt lat="45.00118" lon="5.22326">
        <ele>1147.95</ele>
        <time>2017-04-23T12:39:47Z</time>
      </trkpt>
      <trkpt lat="45.00118" lon="5.22321">
        <ele>1148.43</ele>
        <time>2017-04-23T12:39:51Z</time>
      </trkpt>
      <trkpt lat="45.00118" lon="5.22317">
        <ele>1148.43</ele>
        <time>2017-04-23T12:39:54Z</time>
      </trkpt>
      <trkpt lat="45.0012" lon="5.22311">
        <ele>1145.55</ele>
        <time>2017-04-23T12:40:00Z</time>
      </trkpt>
      <trkpt lat="45.0012" lon="5.2231">
        <ele>1146.99</ele>
        <time>2017-04-23T12:40:01Z</time>
      </trkpt>
      <trkpt lat="45.00123" lon="5.22307">
        <ele>1146.03</ele>
        <time>2017-04-23T12:40:05Z</time>
      </trkpt>
      <trkpt lat="45.00122" lon="5.22303">
        <ele>1145.07</ele>
        <time>2017-04-23T12:40:07Z</time>
      </trkpt>
      <trkpt lat="45.0012" lon="5.22295">
        <ele>1144.11</ele>
        <time>2017-04-23T12:40:11Z</time>
      </trkpt>
      <trkpt lat="45.00121" lon="5.22291">
        <ele>1143.63</ele>
        <time>2017-04-23T12:40:13Z</time>
      </trkpt>
      <trkpt lat="45.00124" lon="5.22281">
        <ele>1142.66</ele>
        <time>2017-04-23T12:40:20Z</time>
      </trkpt>
      <trkpt lat="45.00132" lon="5.22265">
        <ele>1139.3</ele>
        <time>2017-04-23T12:40:31Z</time>
      </trkpt>
      <trkpt lat="45.00132" lon="5.22263">
        <ele>1139.3</ele>
        <time>2017-04-23T12:40:32Z</time>
      </trkpt>
      <trkpt lat="45.00137" lon="5.22245">
        <ele>1136.42</ele>
        <time>2017-04-23T12:40:43Z</time>
      </trkpt>
      <trkpt lat="45.00136" lon="5.22236">
        <ele>1134.97</ele>
        <time>2017-04-23T12:40:50Z</time>
      </trkpt>
      <trkpt lat="45.00134" lon="5.22233">
        <ele>1134.97</ele>
        <time>2017-04-23T12:40:52Z</time>
      </trkpt>
      <trkpt lat="45.00135" lon="5.22221">
        <ele>1133.53</ele>
        <time>2017-04-23T12:40:58Z</time>
      </trkpt>
      <trkpt lat="45.00137" lon="5.22212">
        <ele>1132.09</ele>
        <time>2017-04-23T12:41:03Z</time>
      </trkpt>
      <trkpt lat="45.00138" lon="5.22194">
        <ele>1131.61</ele>
        <time>2017-04-23T12:41:12Z</time>
      </trkpt>
      <trkpt lat="45.00133" lon="5.22177">
        <ele>1130.17</ele>
        <time>2017-04-23T12:41:22Z</time>
      </trkpt>
      <trkpt lat="45.00132" lon="5.2217">
        <ele>1130.65</ele>
        <time>2017-04-23T12:41:26Z</time>
      </trkpt>
      <trkpt lat="45.00135" lon="5.2216">
        <ele>1130.17</ele>
        <time>2017-04-23T12:41:32Z</time>
      </trkpt>
      <trkpt lat="45.00137" lon="5.22155">
        <ele>1130.17</ele>
        <time>2017-04-23T12:41:35Z</time>
      </trkpt>
      <trkpt lat="45.00142" lon="5.22148">
        <ele>1129.69</ele>
        <time>2017-04-23T12:41:49Z</time>
      </trkpt>
      <trkpt lat="45.00142" lon="5.22147">
        <ele>1129.21</ele>
        <time>2017-04-23T12:42:04Z</time>
      </trkpt>
      <trkpt lat="45.00142" lon="5.22146">
        <ele>1129.69</ele>
        <time>2017-04-23T12:42:23Z</time>
      </trkpt>
      <trkpt lat="45.00143" lon="5.22145">
        <ele>1129.21</ele>
        <time>2017-04-23T12:42:44Z</time>
      </trkpt>
      <trkpt lat="45.00146" lon="5.22141">
        <ele>1128.73</ele>
        <time>2017-04-23T12:43:09Z</time>
      </trkpt>
      <trkpt lat="45.00142" lon="5.22146">
        <ele>1129.69</ele>
        <time>2017-04-23T12:43:30Z</time>
      </trkpt>
      <trkpt lat="45.00142" lon="5.22147">
        <ele>1129.21</ele>
        <time>2017-04-23T12:43:55Z</time>
      </trkpt>
      <trkpt lat="45.00142" lon="5.22139">
        <ele>1129.69</ele>
        <time>2017-04-23T12:44:24Z</time>
      </trkpt>
      <trkpt lat="45.00142" lon="5.22142">
        <ele>1129.69</ele>
        <time>2017-04-23T12:44:51Z</time>
      </trkpt>
      <trkpt lat="45.00144" lon="5.22144">
        <ele>1129.21</ele>
        <time>2017-04-23T12:45:17Z</time>
      </trkpt>
      <trkpt lat="45.00138" lon="5.22145">
        <ele>1129.21</ele>
        <time>2017-04-23T12:45:38Z</time>
      </trkpt>
      <trkpt lat="45.00139" lon="5.22145">
        <ele>1129.69</ele>
        <time>2017-04-23T12:46:01Z</time>
      </trkpt>
      <trkpt lat="45.00141" lon="5.22146">
        <ele>1129.69</ele>
        <time>2017-04-23T12:46:28Z</time>
      </trkpt>
      <trkpt lat="45.00142" lon="5.22146">
        <ele>1129.69</ele>
        <time>2017-04-23T12:46:56Z</time>
      </trkpt>
      <trkpt lat="45.00144" lon="5.22146">
        <ele>1129.69</ele>
        <time>2017-04-23T12:47:25Z</time>
      </trkpt>
      <trkpt lat="45.00146" lon="5.22146">
        <ele>1130.17</ele>
        <time>2017-04-23T12:47:48Z</time>
      </trkpt>
      <trkpt lat="45.00138" lon="5.22149">
        <ele>1130.17</ele>
        <time>2017-04-23T12:48:00Z</time>
      </trkpt>
      <trkpt lat="45.00131" lon="5.22156">
        <ele>1131.61</ele>
        <time>2017-04-23T12:48:12Z</time>
      </trkpt>
      <trkpt lat="45.0013" lon="5.22157">
        <ele>1131.61</ele>
        <time>2017-04-23T12:48:35Z</time>
      </trkpt>
      <trkpt lat="45.00124" lon="5.22163">
        <ele>1131.61</ele>
        <time>2017-04-23T12:48:52Z</time>
      </trkpt>
      <trkpt lat="45.00112" lon="5.22169">
        <ele>1130.65</ele>
        <time>2017-04-23T12:49:08Z</time>
      </trkpt>
      <trkpt lat="45.0011" lon="5.22173">
        <ele>1129.21</ele>
        <time>2017-04-23T12:49:12Z</time>
      </trkpt>
      <trkpt lat="45.00103" lon="5.22182">
        <ele>1125.84</ele>
        <time>2017-04-23T12:49:23Z</time>
      </trkpt>
      <trkpt lat="45.00095" lon="5.22191">
        <ele>1122.96</ele>
        <time>2017-04-23T12:49:34Z</time>
      </trkpt>
      <trkpt lat="45.00094" lon="5.22193">
        <ele>1122.48</ele>
        <time>2017-04-23T12:49:36Z</time>
      </trkpt>
      <trkpt lat="45.00089" lon="5.22196">
        <ele>1121.52</ele>
        <time>2017-04-23T12:49:40Z</time>
      </trkpt>
      <trkpt lat="45.00081" lon="5.22207">
        <ele>1119.59</ele>
        <time>2017-04-23T12:49:50Z</time>
      </trkpt>
      <trkpt lat="45.00072" lon="5.22214">
        <ele>1118.15</ele>
        <time>2017-04-23T12:49:56Z</time>
      </trkpt>
      <trkpt lat="45.00068" lon="5.22214">
        <ele>1117.67</ele>
        <time>2017-04-23T12:49:59Z</time>
      </trkpt>
      <trkpt lat="45.00059" lon="5.2222">
        <ele>1117.19</ele>
        <time>2017-04-23T12:50:08Z</time>
      </trkpt>
      <trkpt lat="45.00047" lon="5.22232">
        <ele>1115.27</ele>
        <time>2017-04-23T12:50:18Z</time>
      </trkpt>
      <trkpt lat="45.00043" lon="5.22234">
        <ele>1114.79</ele>
        <time>2017-04-23T12:50:21Z</time>
      </trkpt>
      <trkpt lat="45.0004" lon="5.22237">
        <ele>1114.79</ele>
        <time>2017-04-23T12:50:24Z</time>
      </trkpt>
      <trkpt lat="45.00038" lon="5.22244">
        <ele>1114.31</ele>
        <time>2017-04-23T12:50:26Z</time>
      </trkpt>
      <trkpt lat="45.00024" lon="5.2225">
        <ele>1111.9</ele>
        <time>2017-04-23T12:50:35Z</time>
      </trkpt>
      <trkpt lat="45.00019" lon="5.22247">
        <ele>1110.94</ele>
        <time>2017-04-23T12:50:44Z</time>
      </trkpt>
      <trkpt lat="45.00016" lon="5.22244">
        <ele>1109.98</ele>
        <time>2017-04-23T12:50:49Z</time>
      </trkpt>
      <trkpt lat="45.0001" lon="5.22247">
        <ele>1109.02</ele>
        <time>2017-04-23T12:50:53Z</time>
      </trkpt>
      <trkpt lat="45.00005" lon="5.22249">
        <ele>1109.02</ele>
        <time>2017-04-23T12:50:56Z</time>
      </trkpt>
      <trkpt lat="44.99999" lon="5.22249">
        <ele>1107.58</ele>
        <time>2017-04-23T12:51:05Z</time>
      </trkpt>
      <trkpt lat="44.99981" lon="5.22243">
        <ele>1106.13</ele>
        <time>2017-04-23T12:51:18Z</time>
      </trkpt>
      <trkpt lat="44.99977" lon="5.2224">
        <ele>1104.69</ele>
        <time>2017-04-23T12:51:21Z</time>
      </trkpt>
      <trkpt lat="44.99973" lon="5.22235">
        <ele>1103.25</ele>
        <time>2017-04-23T12:51:25Z</time>
      </trkpt>
      <trkpt lat="44.99971" lon="5.22232">
        <ele>1102.77</ele>
        <time>2017-04-23T12:51:27Z</time>
      </trkpt>
      <trkpt lat="44.99966" lon="5.2223">
        <ele>1102.29</ele>
        <time>2017-04-23T12:51:35Z</time>
      </trkpt>
      <trkpt lat="44.99962" lon="5.22227">
        <ele>1102.29</ele>
        <time>2017-04-23T12:51:37Z</time>
      </trkpt>
      <trkpt lat="44.99958" lon="5.22225">
        <ele>1101.81</ele>
        <time>2017-04-23T12:51:39Z</time>
      </trkpt>
      <trkpt lat="44.99946" lon="5.22217">
        <ele>1100.37</ele>
        <time>2017-04-23T12:51:45Z</time>
      </trkpt>
      <trkpt lat="44.99939" lon="5.22214">
        <ele>1098.92</ele>
        <time>2017-04-23T12:51:49Z</time>
      </trkpt>
      <trkpt lat="44.99925" lon="5.22208">
        <ele>1097.48</ele>
        <time>2017-04-23T12:52:01Z</time>
      </trkpt>
      <trkpt lat="44.99917" lon="5.22203">
        <ele>1096.04</ele>
        <time>2017-04-23T12:52:09Z</time>
      </trkpt>
      <trkpt lat="44.99906" lon="5.22196">
        <ele>1093.16</ele>
        <time>2017-04-23T12:52:22Z</time>
      </trkpt>
      <trkpt lat="44.99904" lon="5.22194">
        <ele>1092.68</ele>
        <time>2017-04-23T12:52:25Z</time>
      </trkpt>
      <trkpt lat="44.99896" lon="5.2219">
        <ele>1091.71</ele>
        <time>2017-04-23T12:52:29Z</time>
      </trkpt>
      <trkpt lat="44.99885" lon="5.22178">
        <ele>1090.27</ele>
        <time>2017-04-23T12:52:37Z</time>
      </trkpt>
      <trkpt lat="44.99876" lon="5.22172">
        <ele>1088.35</ele>
        <time>2017-04-23T12:52:46Z</time>
      </trkpt>
      <trkpt lat="44.99862" lon="5.22159">
        <ele>1084.99</ele>
        <time>2017-04-23T12:52:59Z</time>
      </trkpt>
      <trkpt lat="44.99857" lon="5.22156">
        <ele>1083.54</ele>
        <time>2017-04-23T12:53:04Z</time>
      </trkpt>
      <trkpt lat="44.99847" lon="5.22149">
        <ele>1083.06</ele>
        <time>2017-04-23T12:53:12Z</time>
      </trkpt>
      <trkpt lat="44.99843" lon="5.22147">
        <ele>1082.1</ele>
        <time>2017-04-23T12:53:14Z</time>
      </trkpt>
      <trkpt lat="44.9984" lon="5.22148">
        <ele>1081.62</ele>
        <time>2017-04-23T12:53:16Z</time>
      </trkpt>
      <trkpt lat="44.99834" lon="5.22145">
        <ele>1080.18</ele>
        <time>2017-04-23T12:53:21Z</time>
      </trkpt>
      <trkpt lat="44.99833" lon="5.22143">
        <ele>1079.7</ele>
        <time>2017-04-23T12:53:27Z</time>
      </trkpt>
      <trkpt lat="44.9983" lon="5.22136">
        <ele>1079.22</ele>
        <time>2017-04-23T12:53:33Z</time>
      </trkpt>
      <trkpt lat="44.99824" lon="5.22138">
        <ele>1077.29</ele>
        <time>2017-04-23T12:53:41Z</time>
      </trkpt>
      <trkpt lat="44.99822" lon="5.22138">
        <ele>1075.85</ele>
        <time>2017-04-23T12:53:44Z</time>
      </trkpt>
      <trkpt lat="44.99817" lon="5.22133">
        <ele>1074.41</ele>
        <time>2017-04-23T12:53:56Z</time>
      </trkpt>
      <trkpt lat="44.99816" lon="5.22124">
        <ele>1074.41</ele>
        <time>2017-04-23T12:54:15Z</time>
      </trkpt>
      <trkpt lat="44.99814" lon="5.22122">
        <ele>1074.41</ele>
        <time>2017-04-23T12:54:37Z</time>
      </trkpt>
      <trkpt lat="44.99813" lon="5.22117">
        <ele>1074.41</ele>
        <time>2017-04-23T12:54:58Z</time>
      </trkpt>
      <trkpt lat="44.99812" lon="5.22116">
        <ele>1076.33</ele>
        <time>2017-04-23T12:55:11Z</time>
      </trkpt>
      <trkpt lat="44.99807" lon="5.2211">
        <ele>1072.49</ele>
        <time>2017-04-23T12:55:22Z</time>
      </trkpt>
      <trkpt lat="44.99805" lon="5.22102">
        <ele>1070.08</ele>
        <time>2017-04-23T12:55:33Z</time>
      </trkpt>
      <trkpt lat="44.99802" lon="5.22096">
        <ele>1067.2</ele>
        <time>2017-04-23T12:55:40Z</time>
      </trkpt>
      <trkpt lat="44.99803" lon="5.22086">
        <ele>1064.8</ele>
        <time>2017-04-23T12:55:49Z</time>
      </trkpt>
      <trkpt lat="44.99813" lon="5.22082">
        <ele>1060.95</ele>
        <time>2017-04-23T12:56:00Z</time>
      </trkpt>
      <trkpt lat="44.9982" lon="5.22074">
        <ele>1059.51</ele>
        <time>2017-04-23T12:56:11Z</time>
      </trkpt>
      <trkpt lat="44.99826" lon="5.22072">
        <ele>1057.11</ele>
        <time>2017-04-23T12:56:18Z</time>
      </trkpt>
      <trkpt lat="44.99837" lon="5.22066">
        <ele>1054.7</ele>
        <time>2017-04-23T12:56:27Z</time>
      </trkpt>
      <trkpt lat="44.9984" lon="5.22066">
        <ele>1053.26</ele>
        <time>2017-04-23T12:56:30Z</time>
      </trkpt>
      <trkpt lat="44.99843" lon="5.22063">
        <ele>1052.3</ele>
        <time>2017-04-23T12:56:34Z</time>
      </trkpt>
      <trkpt lat="44.99849" lon="5.2206">
        <ele>1051.82</ele>
        <time>2017-04-23T12:56:38Z</time>
      </trkpt>
      <trkpt lat="44.99856" lon="5.22061">
        <ele>1050.86</ele>
        <time>2017-04-23T12:56:42Z</time>
      </trkpt>
      <trkpt lat="44.99858" lon="5.22061">
        <ele>1050.38</ele>
        <time>2017-04-23T12:56:44Z</time>
      </trkpt>
      <trkpt lat="44.99861" lon="5.2206">
        <ele>1049.9</ele>
        <time>2017-04-23T12:56:46Z</time>
      </trkpt>
      <trkpt lat="44.99869" lon="5.22059">
        <ele>1048.45</ele>
        <time>2017-04-23T12:56:52Z</time>
      </trkpt>
      <trkpt lat="44.99879" lon="5.22062">
        <ele>1047.01</ele>
        <time>2017-04-23T12:56:58Z</time>
      </trkpt>
      <trkpt lat="44.99885" lon="5.22058">
        <ele>1045.57</ele>
        <time>2017-04-23T12:57:03Z</time>
      </trkpt>
      <trkpt lat="44.99892" lon="5.22057">
        <ele>1043.65</ele>
        <time>2017-04-23T12:57:10Z</time>
      </trkpt>
      <trkpt lat="44.99905" lon="5.22056">
        <ele>1040.28</ele>
        <time>2017-04-23T12:57:23Z</time>
      </trkpt>
      <trkpt lat="44.99918" lon="5.22057">
        <ele>1037.88</ele>
        <time>2017-04-23T12:57:33Z</time>
      </trkpt>
      <trkpt lat="44.99921" lon="5.22055">
        <ele>1036.92</ele>
        <time>2017-04-23T12:57:36Z</time>
      </trkpt>
      <trkpt lat="44.99925" lon="5.22055">
        <ele>1036.44</ele>
        <time>2017-04-23T12:57:38Z</time>
      </trkpt>
      <trkpt lat="44.99928" lon="5.2205">
        <ele>1035</ele>
        <time>2017-04-23T12:57:43Z</time>
      </trkpt>
      <trkpt lat="44.99933" lon="5.22048">
        <ele>1033.55</ele>
        <time>2017-04-23T12:57:47Z</time>
      </trkpt>
      <trkpt lat="44.99939" lon="5.22046">
        <ele>1032.11</ele>
        <time>2017-04-23T12:57:52Z</time>
      </trkpt>
      <trkpt lat="44.99943" lon="5.2204">
        <ele>1031.15</ele>
        <time>2017-04-23T12:57:56Z</time>
      </trkpt>
      <trkpt lat="44.99948" lon="5.22032">
        <ele>1031.15</ele>
        <time>2017-04-23T12:58:01Z</time>
      </trkpt>
      <trkpt lat="44.99949" lon="5.22031">
        <ele>1030.67</ele>
        <time>2017-04-23T12:58:04Z</time>
      </trkpt>
      <trkpt lat="44.99955" lon="5.22029">
        <ele>1029.71</ele>
        <time>2017-04-23T12:58:07Z</time>
      </trkpt>
      <trkpt lat="44.99957" lon="5.22027">
        <ele>1029.71</ele>
        <time>2017-04-23T12:58:09Z</time>
      </trkpt>
      <trkpt lat="44.99964" lon="5.22025">
        <ele>1029.71</ele>
        <time>2017-04-23T12:58:14Z</time>
      </trkpt>
      <trkpt lat="44.99973" lon="5.22026">
        <ele>1030.19</ele>
        <time>2017-04-23T12:58:21Z</time>
      </trkpt>
      <trkpt lat="44.99974" lon="5.22024">
        <ele>1029.23</ele>
        <time>2017-04-23T12:58:23Z</time>
      </trkpt>
      <trkpt lat="44.99977" lon="5.22018">
        <ele>1029.23</ele>
        <time>2017-04-23T12:58:26Z</time>
      </trkpt>
      <trkpt lat="44.99992" lon="5.22004">
        <ele>1029.23</ele>
        <time>2017-04-23T12:58:34Z</time>
      </trkpt>
      <trkpt lat="44.99997" lon="5.21997">
        <ele>1027.79</ele>
        <time>2017-04-23T12:58:43Z</time>
      </trkpt>
      <trkpt lat="44.99997" lon="5.21996">
        <ele>1027.79</ele>
        <time>2017-04-23T12:58:44Z</time>
      </trkpt>
      <trkpt lat="45.00003" lon="5.21991">
        <ele>1026.83</ele>
        <time>2017-04-23T12:58:52Z</time>
      </trkpt>
      <trkpt lat="45.0001" lon="5.21983">
        <ele>1026.34</ele>
        <time>2017-04-23T12:59:00Z</time>
      </trkpt>
      <trkpt lat="45.00014" lon="5.21969">
        <ele>1024.9</ele>
        <time>2017-04-23T12:59:11Z</time>
      </trkpt>
      <trkpt lat="45.00018" lon="5.21956">
        <ele>1022.98</ele>
        <time>2017-04-23T12:59:20Z</time>
      </trkpt>
      <trkpt lat="45.0002" lon="5.21938">
        <ele>1022.5</ele>
        <time>2017-04-23T12:59:28Z</time>
      </trkpt>
      <trkpt lat="45.00018" lon="5.21922">
        <ele>1021.06</ele>
        <time>2017-04-23T12:59:37Z</time>
      </trkpt>
      <trkpt lat="45.00018" lon="5.21916">
        <ele>1020.58</ele>
        <time>2017-04-23T12:59:40Z</time>
      </trkpt>
      <trkpt lat="45.00015" lon="5.21907">
        <ele>1019.62</ele>
        <time>2017-04-23T12:59:46Z</time>
      </trkpt>
      <trkpt lat="45.00017" lon="5.219">
        <ele>1018.65</ele>
        <time>2017-04-23T12:59:54Z</time>
      </trkpt>
      <trkpt lat="45.00012" lon="5.21887">
        <ele>1017.69</ele>
        <time>2017-04-23T13:00:02Z</time>
      </trkpt>
      <trkpt lat="45.00012" lon="5.21886">
        <ele>1017.21</ele>
        <time>2017-04-23T13:00:06Z</time>
      </trkpt>
      <trkpt lat="45.0001" lon="5.2187">
        <ele>1015.77</ele>
        <time>2017-04-23T13:00:18Z</time>
      </trkpt>
      <trkpt lat="45.00005" lon="5.21843">
        <ele>1016.25</ele>
        <time>2017-04-23T13:00:27Z</time>
      </trkpt>
      <trkpt lat="45.00006" lon="5.21838">
        <ele>1016.25</ele>
        <time>2017-04-23T13:00:30Z</time>
      </trkpt>
      <trkpt lat="45.00007" lon="5.21834">
        <ele>1015.77</ele>
        <time>2017-04-23T13:00:37Z</time>
      </trkpt>
      <trkpt lat="45.00011" lon="5.21826">
        <ele>1015.29</ele>
        <time>2017-04-23T13:00:45Z</time>
      </trkpt>
      <trkpt lat="45.00011" lon="5.21823">
        <ele>1015.77</ele>
        <time>2017-04-23T13:00:48Z</time>
      </trkpt>
      <trkpt lat="45.00008" lon="5.21815">
        <ele>1014.81</ele>
        <time>2017-04-23T13:00:50Z</time>
      </trkpt>
      <trkpt lat="45.00008" lon="5.21794">
        <ele>1014.81</ele>
        <time>2017-04-23T13:00:57Z</time>
      </trkpt>
      <trkpt lat="45.00009" lon="5.2179">
        <ele>1014.33</ele>
        <time>2017-04-23T13:01:01Z</time>
      </trkpt>
      <trkpt lat="45.00008" lon="5.21786">
        <ele>1013.85</ele>
        <time>2017-04-23T13:01:03Z</time>
      </trkpt>
      <trkpt lat="45.00006" lon="5.21776">
        <ele>1013.85</ele>
        <time>2017-04-23T13:01:07Z</time>
      </trkpt>
      <trkpt lat="45.00009" lon="5.21767">
        <ele>1013.85</ele>
        <time>2017-04-23T13:01:13Z</time>
      </trkpt>
      <trkpt lat="45.00008" lon="5.2176">
        <ele>1013.37</ele>
        <time>2017-04-23T13:01:16Z</time>
      </trkpt>
      <trkpt lat="45.00009" lon="5.2174">
        <ele>1011.44</ele>
        <time>2017-04-23T13:01:27Z</time>
      </trkpt>
      <trkpt lat="45.00011" lon="5.21742">
        <ele>1010.96</ele>
        <time>2017-04-23T13:01:29Z</time>
      </trkpt>
      <trkpt lat="45.00023" lon="5.21752">
        <ele>1010.48</ele>
        <time>2017-04-23T13:01:36Z</time>
      </trkpt>
      <trkpt lat="45.00026" lon="5.21752">
        <ele>1010</ele>
        <time>2017-04-23T13:01:40Z</time>
      </trkpt>
      <trkpt lat="45.00027" lon="5.21747">
        <ele>1010.48</ele>
        <time>2017-04-23T13:01:43Z</time>
      </trkpt>
      <trkpt lat="45.00029" lon="5.21731">
        <ele>1010</ele>
        <time>2017-04-23T13:01:48Z</time>
      </trkpt>
      <trkpt lat="45.00031" lon="5.21728">
        <ele>1010</ele>
        <time>2017-04-23T13:01:52Z</time>
      </trkpt>
      <trkpt lat="45.0003" lon="5.21721">
        <ele>1009.52</ele>
        <time>2017-04-23T13:01:54Z</time>
      </trkpt>
      <trkpt lat="45.0003" lon="5.21717">
        <ele>1009.52</ele>
        <time>2017-04-23T13:01:56Z</time>
      </trkpt>
      <trkpt lat="45.00033" lon="5.21703">
        <ele>1009.04</ele>
        <time>2017-04-23T13:02:04Z</time>
      </trkpt>
      <trkpt lat="45.0003" lon="5.21686">
        <ele>1009.52</ele>
        <time>2017-04-23T13:02:10Z</time>
      </trkpt>
      <trkpt lat="45.00028" lon="5.21675">
        <ele>1008.56</ele>
        <time>2017-04-23T13:02:14Z</time>
      </trkpt>
      <trkpt lat="45.00027" lon="5.21662">
        <ele>1007.6</ele>
        <time>2017-04-23T13:02:24Z</time>
      </trkpt>
      <trkpt lat="45.00025" lon="5.21653">
        <ele>1007.12</ele>
        <time>2017-04-23T13:02:27Z</time>
      </trkpt>
      <trkpt lat="45.0002" lon="5.21639">
        <ele>1006.16</ele>
        <time>2017-04-23T13:02:30Z</time>
      </trkpt>
      <trkpt lat="45.00013" lon="5.21619">
        <ele>1004.72</ele>
        <time>2017-04-23T13:02:39Z</time>
      </trkpt>
      <trkpt lat="45.00009" lon="5.21609">
        <ele>1003.75</ele>
        <time>2017-04-23T13:02:42Z</time>
      </trkpt>
      <trkpt lat="45.00002" lon="5.21598">
        <ele>1002.79</ele>
        <time>2017-04-23T13:02:46Z</time>
      </trkpt>
      <trkpt lat="44.99998" lon="5.21593">
        <ele>1001.83</ele>
        <time>2017-04-23T13:02:48Z</time>
      </trkpt>
      <trkpt lat="44.99993" lon="5.21583">
        <ele>1001.83</ele>
        <time>2017-04-23T13:02:51Z</time>
      </trkpt>
      <trkpt lat="44.99987" lon="5.21569">
        <ele>1000.87</ele>
        <time>2017-04-23T13:02:59Z</time>
      </trkpt>
      <trkpt lat="44.99979" lon="5.21553">
        <ele>1000.87</ele>
        <time>2017-04-23T13:03:06Z</time>
      </trkpt>
      <trkpt lat="44.99974" lon="5.21535">
        <ele>1000.39</ele>
        <time>2017-04-23T13:03:16Z</time>
      </trkpt>
      <trkpt lat="44.99969" lon="5.21523">
        <ele>1000.87</ele>
        <time>2017-04-23T13:03:24Z</time>
      </trkpt>
      <trkpt lat="44.9996" lon="5.21511">
        <ele>1001.35</ele>
        <time>2017-04-23T13:03:34Z</time>
      </trkpt>
      <trkpt lat="44.99952" lon="5.21499">
        <ele>1001.35</ele>
        <time>2017-04-23T13:03:47Z</time>
      </trkpt>
      <trkpt lat="44.99949" lon="5.21495">
        <ele>1000.39</ele>
        <time>2017-04-23T13:04:02Z</time>
      </trkpt>
      <trkpt lat="44.99947" lon="5.2149">
        <ele>1000.87</ele>
        <time>2017-04-23T13:04:13Z</time>
      </trkpt>
      <trkpt lat="44.99946" lon="5.21488">
        <ele>1001.35</ele>
        <time>2017-04-23T13:04:40Z</time>
      </trkpt>
      <trkpt lat="44.99944" lon="5.21487">
        <ele>1000.87</ele>
        <time>2017-04-23T13:05:01Z</time>
      </trkpt>
      <trkpt lat="44.99944" lon="5.21488">
        <ele>1002.31</ele>
        <time>2017-04-23T13:05:10Z</time>
      </trkpt>
      <trkpt lat="44.99944" lon="5.21487">
        <ele>1002.31</ele>
        <time>2017-04-23T13:05:25Z</time>
      </trkpt>
      <trkpt lat="44.99943" lon="5.21486">
        <ele>1001.83</ele>
        <time>2017-04-23T13:05:37Z</time>
      </trkpt>
      <trkpt lat="44.99943" lon="5.21485">
        <ele>1002.79</ele>
        <time>2017-04-23T13:06:03Z</time>
      </trkpt>
      <trkpt lat="44.99942" lon="5.21486">
        <ele>1002.31</ele>
        <time>2017-04-23T13:06:26Z</time>
      </trkpt>
      <trkpt lat="44.99942" lon="5.21486">
        <ele>1001.35</ele>
        <time>2017-04-23T13:06:55Z</time>
      </trkpt>
      <trkpt lat="44.99942" lon="5.21483">
        <ele>1001.35</ele>
        <time>2017-04-23T13:07:18Z</time>
      </trkpt>
      <trkpt lat="44.99944" lon="5.21476">
        <ele>999.43</ele>
        <time>2017-04-23T13:07:28Z</time>
      </trkpt>
      <trkpt lat="44.99945" lon="5.21473">
        <ele>998.47</ele>
        <time>2017-04-23T13:07:31Z</time>
      </trkpt>
      <trkpt lat="44.99944" lon="5.2147">
        <ele>998.47</ele>
        <time>2017-04-23T13:07:33Z</time>
      </trkpt>
      <trkpt lat="44.99943" lon="5.21465">
        <ele>997.02</ele>
        <time>2017-04-23T13:07:40Z</time>
      </trkpt>
      <trkpt lat="44.99942" lon="5.21461">
        <ele>995.58</ele>
        <time>2017-04-23T13:07:43Z</time>
      </trkpt>
      <trkpt lat="44.99944" lon="5.21453">
        <ele>993.18</ele>
        <time>2017-04-23T13:07:53Z</time>
      </trkpt>
      <trkpt lat="44.99945" lon="5.21449">
        <ele>989.81</ele>
        <time>2017-04-23T13:08:00Z</time>
      </trkpt>
      <trkpt lat="44.99948" lon="5.21439">
        <ele>986.93</ele>
        <time>2017-04-23T13:08:09Z</time>
      </trkpt>
      <trkpt lat="44.99947" lon="5.21432">
        <ele>985.49</ele>
        <time>2017-04-23T13:08:13Z</time>
      </trkpt>
      <trkpt lat="44.99945" lon="5.2142">
        <ele>982.12</ele>
        <time>2017-04-23T13:08:22Z</time>
      </trkpt>
      <trkpt lat="44.99945" lon="5.21419">
        <ele>981.64</ele>
        <time>2017-04-23T13:08:23Z</time>
      </trkpt>
      <trkpt lat="44.99942" lon="5.214">
        <ele>978.28</ele>
        <time>2017-04-23T13:08:33Z</time>
      </trkpt>
      <trkpt lat="44.99942" lon="5.21397">
        <ele>976.84</ele>
        <time>2017-04-23T13:08:36Z</time>
      </trkpt>
      <trkpt lat="44.99942" lon="5.21388">
        <ele>973.95</ele>
        <time>2017-04-23T13:08:45Z</time>
      </trkpt>
      <trkpt lat="44.99942" lon="5.21386">
        <ele>973.47</ele>
        <time>2017-04-23T13:08:47Z</time>
      </trkpt>
      <trkpt lat="44.99943" lon="5.21379">
        <ele>971.55</ele>
        <time>2017-04-23T13:08:52Z</time>
      </trkpt>
      <trkpt lat="44.99942" lon="5.2137">
        <ele>969.63</ele>
        <time>2017-04-23T13:09:00Z</time>
      </trkpt>
      <trkpt lat="44.99939" lon="5.21349">
        <ele>966.26</ele>
        <time>2017-04-23T13:09:11Z</time>
      </trkpt>
      <trkpt lat="44.99939" lon="5.2134">
        <ele>963.38</ele>
        <time>2017-04-23T13:09:17Z</time>
      </trkpt>
      <trkpt lat="44.99934" lon="5.21326">
        <ele>959.53</ele>
        <time>2017-04-23T13:09:27Z</time>
      </trkpt>
      <trkpt lat="44.99933" lon="5.21321">
        <ele>959.05</ele>
        <time>2017-04-23T13:09:30Z</time>
      </trkpt>
      <trkpt lat="44.99931" lon="5.21308">
        <ele>956.65</ele>
        <time>2017-04-23T13:09:38Z</time>
      </trkpt>
      <trkpt lat="44.99932" lon="5.2129">
        <ele>954.73</ele>
        <time>2017-04-23T13:09:48Z</time>
      </trkpt>
      <trkpt lat="44.99933" lon="5.21284">
        <ele>953.77</ele>
        <time>2017-04-23T13:09:51Z</time>
      </trkpt>
      <trkpt lat="44.99932" lon="5.21267">
        <ele>952.32</ele>
        <time>2017-04-23T13:10:01Z</time>
      </trkpt>
      <trkpt lat="44.99932" lon="5.21261">
        <ele>953.28</ele>
        <time>2017-04-23T13:10:04Z</time>
      </trkpt>
      <trkpt lat="44.99933" lon="5.2124">
        <ele>951.84</ele>
        <time>2017-04-23T13:10:16Z</time>
      </trkpt>
      <trkpt lat="44.99932" lon="5.21235">
        <ele>950.88</ele>
        <time>2017-04-23T13:10:18Z</time>
      </trkpt>
      <trkpt lat="44.99932" lon="5.21231">
        <ele>951.36</ele>
        <time>2017-04-23T13:10:20Z</time>
      </trkpt>
      <trkpt lat="44.99934" lon="5.21217">
        <ele>950.88</ele>
        <time>2017-04-23T13:10:29Z</time>
      </trkpt>
      <trkpt lat="44.99934" lon="5.21214">
        <ele>950.4</ele>
        <time>2017-04-23T13:10:31Z</time>
      </trkpt>
      <trkpt lat="44.99938" lon="5.21205">
        <ele>950.88</ele>
        <time>2017-04-23T13:10:37Z</time>
      </trkpt>
      <trkpt lat="44.99944" lon="5.21201">
        <ele>950.4</ele>
        <time>2017-04-23T13:10:44Z</time>
      </trkpt>
      <trkpt lat="44.99949" lon="5.21189">
        <ele>950.4</ele>
        <time>2017-04-23T13:10:53Z</time>
      </trkpt>
      <trkpt lat="44.99955" lon="5.2118">
        <ele>948.48</ele>
        <time>2017-04-23T13:11:02Z</time>
      </trkpt>
      <trkpt lat="44.99961" lon="5.21164">
        <ele>946.56</ele>
        <time>2017-04-23T13:11:13Z</time>
      </trkpt>
      <trkpt lat="44.99961" lon="5.2116">
        <ele>945.11</ele>
        <time>2017-04-23T13:11:16Z</time>
      </trkpt>
      <trkpt lat="44.99961" lon="5.21145">
        <ele>943.67</ele>
        <time>2017-04-23T13:11:25Z</time>
      </trkpt>
      <trkpt lat="44.99961" lon="5.21137">
        <ele>942.23</ele>
        <time>2017-04-23T13:11:31Z</time>
      </trkpt>
      <trkpt lat="44.99962" lon="5.21132">
        <ele>940.79</ele>
        <time>2017-04-23T13:11:34Z</time>
      </trkpt>
      <trkpt lat="44.99961" lon="5.21127">
        <ele>939.83</ele>
        <time>2017-04-23T13:11:37Z</time>
      </trkpt>
      <trkpt lat="44.99959" lon="5.2111">
        <ele>937.42</ele>
        <time>2017-04-23T13:11:47Z</time>
      </trkpt>
      <trkpt lat="44.99958" lon="5.21106">
        <ele>935.98</ele>
        <time>2017-04-23T13:11:52Z</time>
      </trkpt>
      <trkpt lat="44.99958" lon="5.21103">
        <ele>935.02</ele>
        <time>2017-04-23T13:11:55Z</time>
      </trkpt>
      <trkpt lat="44.99957" lon="5.21083">
        <ele>931.65</ele>
        <time>2017-04-23T13:12:06Z</time>
      </trkpt>
      <trkpt lat="44.99954" lon="5.21073">
        <ele>928.29</ele>
        <time>2017-04-23T13:12:16Z</time>
      </trkpt>
      <trkpt lat="44.99955" lon="5.21068">
        <ele>927.33</ele>
        <time>2017-04-23T13:12:20Z</time>
      </trkpt>
      <trkpt lat="44.99953" lon="5.21055">
        <ele>924.93</ele>
        <time>2017-04-23T13:12:32Z</time>
      </trkpt>
      <trkpt lat="44.9995" lon="5.21049">
        <ele>924.45</ele>
        <time>2017-04-23T13:12:48Z</time>
      </trkpt>
      <trkpt lat="44.99949" lon="5.21045">
        <ele>924.93</ele>
        <time>2017-04-23T13:13:06Z</time>
      </trkpt>
      <trkpt lat="44.99946" lon="5.2104">
        <ele>924.93</ele>
        <time>2017-04-23T13:13:24Z</time>
      </trkpt>
      <trkpt lat="44.99945" lon="5.21038">
        <ele>924.93</ele>
        <time>2017-04-23T13:13:44Z</time>
      </trkpt>
      <trkpt lat="44.99944" lon="5.21036">
        <ele>924.45</ele>
        <time>2017-04-23T13:14:02Z</time>
      </trkpt>
      <trkpt lat="44.99948" lon="5.21034">
        <ele>921.56</ele>
        <time>2017-04-23T13:14:15Z</time>
      </trkpt>
      <trkpt lat="44.99951" lon="5.21031">
        <ele>919.64</ele>
        <time>2017-04-23T13:14:24Z</time>
      </trkpt>
      <trkpt lat="44.9995" lon="5.2102">
        <ele>918.68</ele>
        <time>2017-04-23T13:14:36Z</time>
      </trkpt>
      <trkpt lat="44.9995" lon="5.21019">
        <ele>918.68</ele>
        <time>2017-04-23T13:14:38Z</time>
      </trkpt>
      <trkpt lat="44.99948" lon="5.21009">
        <ele>916.75</ele>
        <time>2017-04-23T13:14:49Z</time>
      </trkpt>
      <trkpt lat="44.99947" lon="5.21006">
        <ele>915.79</ele>
        <time>2017-04-23T13:14:52Z</time>
      </trkpt>
      <trkpt lat="44.99946" lon="5.21002">
        <ele>914.35</ele>
        <time>2017-04-23T13:14:56Z</time>
      </trkpt>
      <trkpt lat="44.99946" lon="5.20997">
        <ele>913.87</ele>
        <time>2017-04-23T13:14:58Z</time>
      </trkpt>
      <trkpt lat="44.99946" lon="5.20992">
        <ele>913.87</ele>
        <time>2017-04-23T13:15:01Z</time>
      </trkpt>
      <trkpt lat="44.99945" lon="5.20981">
        <ele>913.39</ele>
        <time>2017-04-23T13:15:07Z</time>
      </trkpt>
      <trkpt lat="44.99947" lon="5.20976">
        <ele>913.39</ele>
        <time>2017-04-23T13:15:11Z</time>
      </trkpt>
      <trkpt lat="44.99947" lon="5.20955">
        <ele>912.43</ele>
        <time>2017-04-23T13:15:20Z</time>
      </trkpt>
      <trkpt lat="44.99947" lon="5.2095">
        <ele>912.43</ele>
        <time>2017-04-23T13:15:21Z</time>
      </trkpt>
      <trkpt lat="44.99943" lon="5.2092">
        <ele>911.47</ele>
        <time>2017-04-23T13:15:31Z</time>
      </trkpt>
      <trkpt lat="44.99942" lon="5.20914">
        <ele>911.95</ele>
        <time>2017-04-23T13:15:33Z</time>
      </trkpt>
      <trkpt lat="44.99941" lon="5.20907">
        <ele>911.47</ele>
        <time>2017-04-23T13:15:36Z</time>
      </trkpt>
      <trkpt lat="44.99943" lon="5.20901">
        <ele>911.95</ele>
        <time>2017-04-23T13:15:41Z</time>
      </trkpt>
      <trkpt lat="44.99943" lon="5.20892">
        <ele>911.95</ele>
        <time>2017-04-23T13:15:45Z</time>
      </trkpt>
      <trkpt lat="44.99942" lon="5.20888">
        <ele>912.43</ele>
        <time>2017-04-23T13:15:48Z</time>
      </trkpt>
      <trkpt lat="44.99936" lon="5.20871">
        <ele>913.87</ele>
        <time>2017-04-23T13:15:59Z</time>
      </trkpt>
      <trkpt lat="44.99933" lon="5.20864">
        <ele>914.35</ele>
        <time>2017-04-23T13:16:10Z</time>
      </trkpt>
      <trkpt lat="44.99927" lon="5.20856">
        <ele>916.27</ele>
        <time>2017-04-23T13:16:21Z</time>
      </trkpt>
      <trkpt lat="44.99922" lon="5.20845">
        <ele>917.24</ele>
        <time>2017-04-23T13:16:32Z</time>
      </trkpt>
      <trkpt lat="44.99915" lon="5.20838">
        <ele>918.2</ele>
        <time>2017-04-23T13:16:45Z</time>
      </trkpt>
      <trkpt lat="44.99908" lon="5.20828">
        <ele>920.6</ele>
        <time>2017-04-23T13:16:56Z</time>
      </trkpt>
      <trkpt lat="44.99907" lon="5.20827">
        <ele>920.6</ele>
        <time>2017-04-23T13:16:57Z</time>
      </trkpt>
      <trkpt lat="44.99896" lon="5.20817">
        <ele>921.56</ele>
        <time>2017-04-23T13:17:09Z</time>
      </trkpt>
      <trkpt lat="44.99895" lon="5.20816">
        <ele>921.56</ele>
        <time>2017-04-23T13:17:10Z</time>
      </trkpt>
      <trkpt lat="44.99887" lon="5.20811">
        <ele>923</ele>
        <time>2017-04-23T13:17:19Z</time>
      </trkpt>
      <trkpt lat="44.99886" lon="5.2081">
        <ele>922.52</ele>
        <time>2017-04-23T13:17:20Z</time>
      </trkpt>
      <trkpt lat="44.99884" lon="5.20808">
        <ele>923</ele>
        <time>2017-04-23T13:17:22Z</time>
      </trkpt>
      <trkpt lat="44.99881" lon="5.20806">
        <ele>922.04</ele>
        <time>2017-04-23T13:17:26Z</time>
      </trkpt>
      <trkpt lat="44.99879" lon="5.20804">
        <ele>922.52</ele>
        <time>2017-04-23T13:17:28Z</time>
      </trkpt>
      <trkpt lat="44.99872" lon="5.20801">
        <ele>924.93</ele>
        <time>2017-04-23T13:17:34Z</time>
      </trkpt>
      <trkpt lat="44.99863" lon="5.20797">
        <ele>926.37</ele>
        <time>2017-04-23T13:17:43Z</time>
      </trkpt>
      <trkpt lat="44.99856" lon="5.20796">
        <ele>926.85</ele>
        <time>2017-04-23T13:17:53Z</time>
      </trkpt>
      <trkpt lat="44.99854" lon="5.20796">
        <ele>927.33</ele>
        <time>2017-04-23T13:17:55Z</time>
      </trkpt>
      <trkpt lat="44.99853" lon="5.20795">
        <ele>928.29</ele>
        <time>2017-04-23T13:17:57Z</time>
      </trkpt>
      <trkpt lat="44.99851" lon="5.20793">
        <ele>928.29</ele>
        <time>2017-04-23T13:17:59Z</time>
      </trkpt>
      <trkpt lat="44.99848" lon="5.20789">
        <ele>927.33</ele>
        <time>2017-04-23T13:18:04Z</time>
      </trkpt>
      <trkpt lat="44.99847" lon="5.20786">
        <ele>928.29</ele>
        <time>2017-04-23T13:18:07Z</time>
      </trkpt>
      <trkpt lat="44.99846" lon="5.20782">
        <ele>929.25</ele>
        <time>2017-04-23T13:18:10Z</time>
      </trkpt>
      <trkpt lat="44.99847" lon="5.20779">
        <ele>929.25</ele>
        <time>2017-04-23T13:18:13Z</time>
      </trkpt>
      <trkpt lat="44.99848" lon="5.20773">
        <ele>931.17</ele>
        <time>2017-04-23T13:18:17Z</time>
      </trkpt>
      <trkpt lat="44.99849" lon="5.2077">
        <ele>929.25</ele>
        <time>2017-04-23T13:18:20Z</time>
      </trkpt>
      <trkpt lat="44.9985" lon="5.20764">
        <ele>930.69</ele>
        <time>2017-04-23T13:18:24Z</time>
      </trkpt>
      <trkpt lat="44.99852" lon="5.20761">
        <ele>930.21</ele>
        <time>2017-04-23T13:18:26Z</time>
      </trkpt>
      <trkpt lat="44.99853" lon="5.20754">
        <ele>927.81</ele>
        <time>2017-04-23T13:18:33Z</time>
      </trkpt>
      <trkpt lat="44.99854" lon="5.2075">
        <ele>926.85</ele>
        <time>2017-04-23T13:18:36Z</time>
      </trkpt>
      <trkpt lat="44.99857" lon="5.20747">
        <ele>925.89</ele>
        <time>2017-04-23T13:18:43Z</time>
      </trkpt>
      <trkpt lat="44.99862" lon="5.2074">
        <ele>925.41</ele>
        <time>2017-04-23T13:18:48Z</time>
      </trkpt>
      <trkpt lat="44.99863" lon="5.20732">
        <ele>924.45</ele>
        <time>2017-04-23T13:18:53Z</time>
      </trkpt>
      <trkpt lat="44.99862" lon="5.20726">
        <ele>923</ele>
        <time>2017-04-23T13:18:57Z</time>
      </trkpt>
      <trkpt lat="44.99868" lon="5.20724">
        <ele>922.04</ele>
        <time>2017-04-23T13:19:02Z</time>
      </trkpt>
      <trkpt lat="44.9987" lon="5.20721">
        <ele>920.6</ele>
        <time>2017-04-23T13:19:04Z</time>
      </trkpt>
      <trkpt lat="44.99871" lon="5.20717">
        <ele>920.6</ele>
        <time>2017-04-23T13:19:08Z</time>
      </trkpt>
      <trkpt lat="44.99871" lon="5.20712">
        <ele>920.12</ele>
        <time>2017-04-23T13:19:10Z</time>
      </trkpt>
      <trkpt lat="44.99875" lon="5.20706">
        <ele>918.2</ele>
        <time>2017-04-23T13:19:15Z</time>
      </trkpt>
      <trkpt lat="44.99878" lon="5.20702">
        <ele>917.72</ele>
        <time>2017-04-23T13:19:18Z</time>
      </trkpt>
      <trkpt lat="44.9988" lon="5.20694">
        <ele>915.79</ele>
        <time>2017-04-23T13:19:26Z</time>
      </trkpt>
      <trkpt lat="44.99884" lon="5.20692">
        <ele>914.35</ele>
        <time>2017-04-23T13:19:30Z</time>
      </trkpt>
      <trkpt lat="44.99887" lon="5.20682">
        <ele>912.43</ele>
        <time>2017-04-23T13:19:38Z</time>
      </trkpt>
      <trkpt lat="44.99887" lon="5.20678">
        <ele>911.47</ele>
        <time>2017-04-23T13:19:40Z</time>
      </trkpt>
      <trkpt lat="44.99887" lon="5.20659">
        <ele>907.62</ele>
        <time>2017-04-23T13:19:50Z</time>
      </trkpt>
      <trkpt lat="44.99889" lon="5.20655">
        <ele>907.14</ele>
        <time>2017-04-23T13:19:53Z</time>
      </trkpt>
      <trkpt lat="44.99897" lon="5.20652">
        <ele>906.18</ele>
        <time>2017-04-23T13:19:58Z</time>
      </trkpt>
      <trkpt lat="44.99899" lon="5.20648">
        <ele>906.18</ele>
        <time>2017-04-23T13:20:01Z</time>
      </trkpt>
      <trkpt lat="44.99899" lon="5.20627">
        <ele>904.74</ele>
        <time>2017-04-23T13:20:09Z</time>
      </trkpt>
      <trkpt lat="44.99901" lon="5.20623">
        <ele>904.26</ele>
        <time>2017-04-23T13:20:13Z</time>
      </trkpt>
      <trkpt lat="44.99904" lon="5.20618">
        <ele>903.78</ele>
        <time>2017-04-23T13:20:17Z</time>
      </trkpt>
      <trkpt lat="44.99905" lon="5.20613">
        <ele>903.3</ele>
        <time>2017-04-23T13:20:21Z</time>
      </trkpt>
      <trkpt lat="44.9991" lon="5.20606">
        <ele>901.85</ele>
        <time>2017-04-23T13:20:27Z</time>
      </trkpt>
      <trkpt lat="44.99913" lon="5.20588">
        <ele>901.85</ele>
        <time>2017-04-23T13:20:37Z</time>
      </trkpt>
      <trkpt lat="44.99914" lon="5.20582">
        <ele>900.41</ele>
        <time>2017-04-23T13:20:40Z</time>
      </trkpt>
      <trkpt lat="44.99921" lon="5.20571">
        <ele>899.45</ele>
        <time>2017-04-23T13:20:51Z</time>
      </trkpt>
      <trkpt lat="44.99925" lon="5.20567">
        <ele>898.01</ele>
        <time>2017-04-23T13:20:55Z</time>
      </trkpt>
      <trkpt lat="44.99924" lon="5.20555">
        <ele>896.57</ele>
        <time>2017-04-23T13:21:01Z</time>
      </trkpt>
      <trkpt lat="44.99926" lon="5.20542">
        <ele>896.09</ele>
        <time>2017-04-23T13:21:07Z</time>
      </trkpt>
      <trkpt lat="44.99927" lon="5.20534">
        <ele>895.12</ele>
        <time>2017-04-23T13:21:11Z</time>
      </trkpt>
      <trkpt lat="44.99932" lon="5.20529">
        <ele>894.16</ele>
        <time>2017-04-23T13:21:15Z</time>
      </trkpt>
      <trkpt lat="44.99932" lon="5.20521">
        <ele>893.2</ele>
        <time>2017-04-23T13:21:21Z</time>
      </trkpt>
      <trkpt lat="44.99931" lon="5.20512">
        <ele>891.76</ele>
        <time>2017-04-23T13:21:25Z</time>
      </trkpt>
      <trkpt lat="44.99931" lon="5.20507">
        <ele>890.8</ele>
        <time>2017-04-23T13:21:28Z</time>
      </trkpt>
      <trkpt lat="44.9993" lon="5.20506">
        <ele>889.84</ele>
        <time>2017-04-23T13:21:31Z</time>
      </trkpt>
      <trkpt lat="44.99929" lon="5.20494">
        <ele>886.95</ele>
        <time>2017-04-23T13:21:40Z</time>
      </trkpt>
      <trkpt lat="44.99929" lon="5.20491">
        <ele>885.51</ele>
        <time>2017-04-23T13:21:43Z</time>
      </trkpt>
      <trkpt lat="44.99928" lon="5.20486">
        <ele>883.11</ele>
        <time>2017-04-23T13:21:48Z</time>
      </trkpt>
      <trkpt lat="44.99927" lon="5.20475">
        <ele>881.67</ele>
        <time>2017-04-23T13:21:53Z</time>
      </trkpt>
      <trkpt lat="44.99926" lon="5.20471">
        <ele>880.71</ele>
        <time>2017-04-23T13:21:55Z</time>
      </trkpt>
      <trkpt lat="44.99925" lon="5.20462">
        <ele>878.78</ele>
        <time>2017-04-23T13:22:02Z</time>
      </trkpt>
      <trkpt lat="44.99924" lon="5.20454">
        <ele>878.3</ele>
        <time>2017-04-23T13:22:06Z</time>
      </trkpt>
      <trkpt lat="44.99921" lon="5.20448">
        <ele>877.34</ele>
        <time>2017-04-23T13:22:09Z</time>
      </trkpt>
      <trkpt lat="44.9992" lon="5.20443">
        <ele>876.86</ele>
        <time>2017-04-23T13:22:12Z</time>
      </trkpt>
      <trkpt lat="44.99917" lon="5.20435">
        <ele>875.42</ele>
        <time>2017-04-23T13:22:24Z</time>
      </trkpt>
      <trkpt lat="44.99918" lon="5.2043">
        <ele>873.98</ele>
        <time>2017-04-23T13:22:37Z</time>
      </trkpt>
      <trkpt lat="44.99919" lon="5.20428">
        <ele>872.05</ele>
        <time>2017-04-23T13:22:47Z</time>
      </trkpt>
      <trkpt lat="44.99919" lon="5.20428">
        <ele>872.05</ele>
        <time>2017-04-23T13:22:51Z</time>
      </trkpt>
      <trkpt lat="44.99924" lon="5.20432">
        <ele>870.13</ele>
        <time>2017-04-23T13:22:56Z</time>
      </trkpt>
      <trkpt lat="44.99925" lon="5.20434">
        <ele>869.17</ele>
        <time>2017-04-23T13:22:58Z</time>
      </trkpt>
      <trkpt lat="44.99927" lon="5.20436">
        <ele>866.77</ele>
        <time>2017-04-23T13:23:06Z</time>
      </trkpt>
      <trkpt lat="44.99931" lon="5.20439">
        <ele>865.8</ele>
        <time>2017-04-23T13:23:10Z</time>
      </trkpt>
      <trkpt lat="44.99936" lon="5.20443">
        <ele>864.36</ele>
        <time>2017-04-23T13:23:17Z</time>
      </trkpt>
      <trkpt lat="44.99936" lon="5.20443">
        <ele>863.4</ele>
        <time>2017-04-23T13:23:18Z</time>
      </trkpt>
      <trkpt lat="44.9994" lon="5.20449">
        <ele>861.96</ele>
        <time>2017-04-23T13:23:24Z</time>
      </trkpt>
      <trkpt lat="44.99945" lon="5.20453">
        <ele>860.52</ele>
        <time>2017-04-23T13:23:28Z</time>
      </trkpt>
      <trkpt lat="44.99946" lon="5.20455">
        <ele>860.04</ele>
        <time>2017-04-23T13:23:30Z</time>
      </trkpt>
      <trkpt lat="44.99947" lon="5.2046">
        <ele>857.63</ele>
        <time>2017-04-23T13:23:35Z</time>
      </trkpt>
      <trkpt lat="44.99949" lon="5.20464">
        <ele>857.63</ele>
        <time>2017-04-23T13:23:37Z</time>
      </trkpt>
      <trkpt lat="44.99958" lon="5.20468">
        <ele>858.11</ele>
        <time>2017-04-23T13:23:44Z</time>
      </trkpt>
      <trkpt lat="44.99976" lon="5.20476">
        <ele>858.59</ele>
        <time>2017-04-23T13:23:51Z</time>
      </trkpt>
      <trkpt lat="44.99992" lon="5.20482">
        <ele>857.63</ele>
        <time>2017-04-23T13:23:59Z</time>
      </trkpt>
      <trkpt lat="45.00001" lon="5.20489">
        <ele>857.15</ele>
        <time>2017-04-23T13:24:09Z</time>
      </trkpt>
      <trkpt lat="45.00002" lon="5.205">
        <ele>854.27</ele>
        <time>2017-04-23T13:24:20Z</time>
      </trkpt>
      <trkpt lat="45.00002" lon="5.20502">
        <ele>854.27</ele>
        <time>2017-04-23T13:24:21Z</time>
      </trkpt>
      <trkpt lat="45.00007" lon="5.20508">
        <ele>853.31</ele>
        <time>2017-04-23T13:24:27Z</time>
      </trkpt>
      <trkpt lat="45.00012" lon="5.20519">
        <ele>852.35</ele>
        <time>2017-04-23T13:24:34Z</time>
      </trkpt>
      <trkpt lat="45.00014" lon="5.20523">
        <ele>850.9</ele>
        <time>2017-04-23T13:24:37Z</time>
      </trkpt>
      <trkpt lat="45.00029" lon="5.20533">
        <ele>850.42</ele>
        <time>2017-04-23T13:24:45Z</time>
      </trkpt>
      <trkpt lat="45.00035" lon="5.20546">
        <ele>848.98</ele>
        <time>2017-04-23T13:24:54Z</time>
      </trkpt>
      <trkpt lat="45.00039" lon="5.20554">
        <ele>848.5</ele>
        <time>2017-04-23T13:25:01Z</time>
      </trkpt>
      <trkpt lat="45.00044" lon="5.20559">
        <ele>848.02</ele>
        <time>2017-04-23T13:25:05Z</time>
      </trkpt>
      <trkpt lat="45.00056" lon="5.20564">
        <ele>849.46</ele>
        <time>2017-04-23T13:25:13Z</time>
      </trkpt>
      <trkpt lat="45.00067" lon="5.20571">
        <ele>849.46</ele>
        <time>2017-04-23T13:25:20Z</time>
      </trkpt>
      <trkpt lat="45.0007" lon="5.20573">
        <ele>848.98</ele>
        <time>2017-04-23T13:25:23Z</time>
      </trkpt>
      <trkpt lat="45.00073" lon="5.20577">
        <ele>848.5</ele>
        <time>2017-04-23T13:25:27Z</time>
      </trkpt>
      <trkpt lat="45.0008" lon="5.20585">
        <ele>847.06</ele>
        <time>2017-04-23T13:25:33Z</time>
      </trkpt>
      <trkpt lat="45.00086" lon="5.20588">
        <ele>845.14</ele>
        <time>2017-04-23T13:25:38Z</time>
      </trkpt>
      <trkpt lat="45.00093" lon="5.206">
        <ele>842.73</ele>
        <time>2017-04-23T13:25:48Z</time>
      </trkpt>
      <trkpt lat="45.00097" lon="5.20603">
        <ele>843.21</ele>
        <time>2017-04-23T13:25:51Z</time>
      </trkpt>
      <trkpt lat="45.00098" lon="5.20612">
        <ele>842.25</ele>
        <time>2017-04-23T13:25:56Z</time>
      </trkpt>
      <trkpt lat="45.00101" lon="5.20616">
        <ele>841.77</ele>
        <time>2017-04-23T13:25:59Z</time>
      </trkpt>
      <trkpt lat="45.00103" lon="5.20621">
        <ele>841.29</ele>
        <time>2017-04-23T13:26:03Z</time>
      </trkpt>
      <trkpt lat="45.00104" lon="5.20625">
        <ele>840.33</ele>
        <time>2017-04-23T13:26:05Z</time>
      </trkpt>
      <trkpt lat="45.00106" lon="5.20628">
        <ele>840.81</ele>
        <time>2017-04-23T13:26:09Z</time>
      </trkpt>
      <trkpt lat="45.00107" lon="5.20632">
        <ele>839.37</ele>
        <time>2017-04-23T13:26:11Z</time>
      </trkpt>
      <trkpt lat="45.00108" lon="5.20636">
        <ele>838.41</ele>
        <time>2017-04-23T13:26:16Z</time>
      </trkpt>
      <trkpt lat="45.00109" lon="5.20641">
        <ele>836</ele>
        <time>2017-04-23T13:26:23Z</time>
      </trkpt>
      <trkpt lat="45.00109" lon="5.20643">
        <ele>834.56</ele>
        <time>2017-04-23T13:26:27Z</time>
      </trkpt>
      <trkpt lat="45.00109" lon="5.20645">
        <ele>834.08</ele>
        <time>2017-04-23T13:26:30Z</time>
      </trkpt>
      <trkpt lat="45.00111" lon="5.20646">
        <ele>833.12</ele>
        <time>2017-04-23T13:26:33Z</time>
      </trkpt>
      <trkpt lat="45.00112" lon="5.20651">
        <ele>830.24</ele>
        <time>2017-04-23T13:26:42Z</time>
      </trkpt>
      <trkpt lat="45.00113" lon="5.20658">
        <ele>827.35</ele>
        <time>2017-04-23T13:26:50Z</time>
      </trkpt>
      <trkpt lat="45.00118" lon="5.20667">
        <ele>824.47</ele>
        <time>2017-04-23T13:27:01Z</time>
      </trkpt>
      <trkpt lat="45.00119" lon="5.20672">
        <ele>823.51</ele>
        <time>2017-04-23T13:27:04Z</time>
      </trkpt>
      <trkpt lat="45.00122" lon="5.20679">
        <ele>821.58</ele>
        <time>2017-04-23T13:27:13Z</time>
      </trkpt>
      <trkpt lat="45.00123" lon="5.20685">
        <ele>818.7</ele>
        <time>2017-04-23T13:27:24Z</time>
      </trkpt>
      <trkpt lat="45.00124" lon="5.20694">
        <ele>815.34</ele>
        <time>2017-04-23T13:27:33Z</time>
      </trkpt>
      <trkpt lat="45.0013" lon="5.20707">
        <ele>812.45</ele>
        <time>2017-04-23T13:27:45Z</time>
      </trkpt>
      <trkpt lat="45.00131" lon="5.20709">
        <ele>811.97</ele>
        <time>2017-04-23T13:27:47Z</time>
      </trkpt>
      <trkpt lat="45.00133" lon="5.20721">
        <ele>809.57</ele>
        <time>2017-04-23T13:27:56Z</time>
      </trkpt>
      <trkpt lat="45.00138" lon="5.20732">
        <ele>807.64</ele>
        <time>2017-04-23T13:28:01Z</time>
      </trkpt>
      <trkpt lat="45.00138" lon="5.20738">
        <ele>807.16</ele>
        <time>2017-04-23T13:28:05Z</time>
      </trkpt>
      <trkpt lat="45.00141" lon="5.20745">
        <ele>805.72</ele>
        <time>2017-04-23T13:28:11Z</time>
      </trkpt>
      <trkpt lat="45.00142" lon="5.20747">
        <ele>804.76</ele>
        <time>2017-04-23T13:28:13Z</time>
      </trkpt>
      <trkpt lat="45.00145" lon="5.20756">
        <ele>803.32</ele>
        <time>2017-04-23T13:28:20Z</time>
      </trkpt>
      <trkpt lat="45.00146" lon="5.2076">
        <ele>803.8</ele>
        <time>2017-04-23T13:28:23Z</time>
      </trkpt>
      <trkpt lat="45.00147" lon="5.20767">
        <ele>801.4</ele>
        <time>2017-04-23T13:28:30Z</time>
      </trkpt>
      <trkpt lat="45.0015" lon="5.20771">
        <ele>800.44</ele>
        <time>2017-04-23T13:28:35Z</time>
      </trkpt>
      <trkpt lat="45.00151" lon="5.20777">
        <ele>799.47</ele>
        <time>2017-04-23T13:28:40Z</time>
      </trkpt>
      <trkpt lat="45.00147" lon="5.20779">
        <ele>797.55</ele>
        <time>2017-04-23T13:28:44Z</time>
      </trkpt>
      <trkpt lat="45.00152" lon="5.20792">
        <ele>795.63</ele>
        <time>2017-04-23T13:28:50Z</time>
      </trkpt>
      <trkpt lat="45.00154" lon="5.20797">
        <ele>793.22</ele>
        <time>2017-04-23T13:28:59Z</time>
      </trkpt>
      <trkpt lat="45.00154" lon="5.20792">
        <ele>792.74</ele>
        <time>2017-04-23T13:29:02Z</time>
      </trkpt>
      <trkpt lat="45.00155" lon="5.20783">
        <ele>790.34</ele>
        <time>2017-04-23T13:29:07Z</time>
      </trkpt>
      <trkpt lat="45.00156" lon="5.20775">
        <ele>789.38</ele>
        <time>2017-04-23T13:29:13Z</time>
      </trkpt>
      <trkpt lat="45.00156" lon="5.20775">
        <ele>788.9</ele>
        <time>2017-04-23T13:29:14Z</time>
      </trkpt>
      <trkpt lat="45.00154" lon="5.20772">
        <ele>788.42</ele>
        <time>2017-04-23T13:29:16Z</time>
      </trkpt>
      <trkpt lat="45.00155" lon="5.20766">
        <ele>786.98</ele>
        <time>2017-04-23T13:29:22Z</time>
      </trkpt>
      <trkpt lat="45.00157" lon="5.20755">
        <ele>784.57</ele>
        <time>2017-04-23T13:29:32Z</time>
      </trkpt>
      <trkpt lat="45.00157" lon="5.20746">
        <ele>783.13</ele>
        <time>2017-04-23T13:29:40Z</time>
      </trkpt>
      <trkpt lat="45.00158" lon="5.20746">
        <ele>782.65</ele>
        <time>2017-04-23T13:29:41Z</time>
      </trkpt>
      <trkpt lat="45.00158" lon="5.20745">
        <ele>782.17</ele>
        <time>2017-04-23T13:29:42Z</time>
      </trkpt>
      <trkpt lat="45.0016" lon="5.20737">
        <ele>781.21</ele>
        <time>2017-04-23T13:29:47Z</time>
      </trkpt>
      <trkpt lat="45.00166" lon="5.20733">
        <ele>780.73</ele>
        <time>2017-04-23T13:29:51Z</time>
      </trkpt>
      <trkpt lat="45.00173" lon="5.20725">
        <ele>779.29</ele>
        <time>2017-04-23T13:29:56Z</time>
      </trkpt>
      <trkpt lat="45.00175" lon="5.20723">
        <ele>779.77</ele>
        <time>2017-04-23T13:29:58Z</time>
      </trkpt>
      <trkpt lat="45.00176" lon="5.2072">
        <ele>778.81</ele>
        <time>2017-04-23T13:30:00Z</time>
      </trkpt>
      <trkpt lat="45.00184" lon="5.20712">
        <ele>776.4</ele>
        <time>2017-04-23T13:30:11Z</time>
      </trkpt>
      <trkpt lat="45.00188" lon="5.20713">
        <ele>774.48</ele>
        <time>2017-04-23T13:30:18Z</time>
      </trkpt>
      <trkpt lat="45.00193" lon="5.20714">
        <ele>771.11</ele>
        <time>2017-04-23T13:30:26Z</time>
      </trkpt>
      <trkpt lat="45.00194" lon="5.20715">
        <ele>768.71</ele>
        <time>2017-04-23T13:30:33Z</time>
      </trkpt>
      <trkpt lat="45.00195" lon="5.20719">
        <ele>767.27</ele>
        <time>2017-04-23T13:30:37Z</time>
      </trkpt>
      <trkpt lat="45.00195" lon="5.20723">
        <ele>766.31</ele>
        <time>2017-04-23T13:30:41Z</time>
      </trkpt>
      <trkpt lat="45.00197" lon="5.20732">
        <ele>764.39</ele>
        <time>2017-04-23T13:30:48Z</time>
      </trkpt>
      <trkpt lat="45.00198" lon="5.20735">
        <ele>763.42</ele>
        <time>2017-04-23T13:30:50Z</time>
      </trkpt>
      <trkpt lat="45.00199" lon="5.20737">
        <ele>762.94</ele>
        <time>2017-04-23T13:30:51Z</time>
      </trkpt>
      <trkpt lat="45.00201" lon="5.20742">
        <ele>761.02</ele>
        <time>2017-04-23T13:30:56Z</time>
      </trkpt>
      <trkpt lat="45.00202" lon="5.20743">
        <ele>760.06</ele>
        <time>2017-04-23T13:31:02Z</time>
      </trkpt>
      <trkpt lat="45.00204" lon="5.20751">
        <ele>756.69</ele>
        <time>2017-04-23T13:31:13Z</time>
      </trkpt>
      <trkpt lat="45.00204" lon="5.20753">
        <ele>753.81</ele>
        <time>2017-04-23T13:31:24Z</time>
      </trkpt>
      <trkpt lat="45.00204" lon="5.20754">
        <ele>753.81</ele>
        <time>2017-04-23T13:31:25Z</time>
      </trkpt>
      <trkpt lat="45.00203" lon="5.20756">
        <ele>750.93</ele>
        <time>2017-04-23T13:31:34Z</time>
      </trkpt>
      <trkpt lat="45.00203" lon="5.20756">
        <ele>750.93</ele>
        <time>2017-04-23T13:31:35Z</time>
      </trkpt>
      <trkpt lat="45.00202" lon="5.20759">
        <ele>748.52</ele>
        <time>2017-04-23T13:31:46Z</time>
      </trkpt>
      <trkpt lat="45.00203" lon="5.20769">
        <ele>745.16</ele>
        <time>2017-04-23T13:31:55Z</time>
      </trkpt>
      <trkpt lat="45.00204" lon="5.20785">
        <ele>742.28</ele>
        <time>2017-04-23T13:32:07Z</time>
      </trkpt>
      <trkpt lat="45.00206" lon="5.20802">
        <ele>739.39</ele>
        <time>2017-04-23T13:32:16Z</time>
      </trkpt>
      <trkpt lat="45.00207" lon="5.20823">
        <ele>736.03</ele>
        <time>2017-04-23T13:32:29Z</time>
      </trkpt>
      <trkpt lat="45.00207" lon="5.20827">
        <ele>734.58</ele>
        <time>2017-04-23T13:32:32Z</time>
      </trkpt>
      <trkpt lat="45.00206" lon="5.20828">
        <ele>733.62</ele>
        <time>2017-04-23T13:32:36Z</time>
      </trkpt>
      <trkpt lat="45.00205" lon="5.2084">
        <ele>732.18</ele>
        <time>2017-04-23T13:32:42Z</time>
      </trkpt>
      <trkpt lat="45.00223" lon="5.20855">
        <ele>731.7</ele>
        <time>2017-04-23T13:32:45Z</time>
      </trkpt>
      <trkpt lat="45.0023" lon="5.2086">
        <ele>730.74</ele>
        <time>2017-04-23T13:32:47Z</time>
      </trkpt>
      <trkpt lat="45.00238" lon="5.20864">
        <ele>730.26</ele>
        <time>2017-04-23T13:32:50Z</time>
      </trkpt>
      <trkpt lat="45.00244" lon="5.20857">
        <ele>728.34</ele>
        <time>2017-04-23T13:32:58Z</time>
      </trkpt>
      <trkpt lat="45.00248" lon="5.20853">
        <ele>725.93</ele>
        <time>2017-04-23T13:33:05Z</time>
      </trkpt>
      <trkpt lat="45.00248" lon="5.20853">
        <ele>725.45</ele>
        <time>2017-04-23T13:33:06Z</time>
      </trkpt>
      <trkpt lat="45.00248" lon="5.2085">
        <ele>725.45</ele>
        <time>2017-04-23T13:33:07Z</time>
      </trkpt>
      <trkpt lat="45.00256" lon="5.2084">
        <ele>723.53</ele>
        <time>2017-04-23T13:33:14Z</time>
      </trkpt>
      <trkpt lat="45.00259" lon="5.20836">
        <ele>723.05</ele>
        <time>2017-04-23T13:33:18Z</time>
      </trkpt>
      <trkpt lat="45.00259" lon="5.20836">
        <ele>722.09</ele>
        <time>2017-04-23T13:33:19Z</time>
      </trkpt>
      <trkpt lat="45.0026" lon="5.20832">
        <ele>722.57</ele>
        <time>2017-04-23T13:33:20Z</time>
      </trkpt>
      <trkpt lat="45.0026" lon="5.20826">
        <ele>721.61</ele>
        <time>2017-04-23T13:33:23Z</time>
      </trkpt>
      <trkpt lat="45.00264" lon="5.20806">
        <ele>719.2</ele>
        <time>2017-04-23T13:33:31Z</time>
      </trkpt>
      <trkpt lat="45.00266" lon="5.20806">
        <ele>718.24</ele>
        <time>2017-04-23T13:33:33Z</time>
      </trkpt>
      <trkpt lat="45.00268" lon="5.20808">
        <ele>717.76</ele>
        <time>2017-04-23T13:33:35Z</time>
      </trkpt>
      <trkpt lat="45.00273" lon="5.20806">
        <ele>715.84</ele>
        <time>2017-04-23T13:33:40Z</time>
      </trkpt>
      <trkpt lat="45.00275" lon="5.20797">
        <ele>712.47</ele>
        <time>2017-04-23T13:33:49Z</time>
      </trkpt>
      <trkpt lat="45.0028" lon="5.20797">
        <ele>709.59</ele>
        <time>2017-04-23T13:33:57Z</time>
      </trkpt>
      <trkpt lat="45.00282" lon="5.20796">
        <ele>708.63</ele>
        <time>2017-04-23T13:33:59Z</time>
      </trkpt>
      <trkpt lat="45.0029" lon="5.20792">
        <ele>706.71</ele>
        <time>2017-04-23T13:34:03Z</time>
      </trkpt>
      <trkpt lat="45.00294" lon="5.20791">
        <ele>705.75</ele>
        <time>2017-04-23T13:34:07Z</time>
      </trkpt>
      <trkpt lat="45.00302" lon="5.20791">
        <ele>705.26</ele>
        <time>2017-04-23T13:34:12Z</time>
      </trkpt>
      <trkpt lat="45.00307" lon="5.20789">
        <ele>704.78</ele>
        <time>2017-04-23T13:34:16Z</time>
      </trkpt>
      <trkpt lat="45.00307" lon="5.20781">
        <ele>703.82</ele>
        <time>2017-04-23T13:34:19Z</time>
      </trkpt>
      <trkpt lat="45.00314" lon="5.20762">
        <ele>701.42</ele>
        <time>2017-04-23T13:34:30Z</time>
      </trkpt>
      <trkpt lat="45.00319" lon="5.20757">
        <ele>700.46</ele>
        <time>2017-04-23T13:34:34Z</time>
      </trkpt>
      <trkpt lat="45.00323" lon="5.20755">
        <ele>699.98</ele>
        <time>2017-04-23T13:34:37Z</time>
      </trkpt>
      <trkpt lat="45.00325" lon="5.20744">
        <ele>697.57</ele>
        <time>2017-04-23T13:34:44Z</time>
      </trkpt>
      <trkpt lat="45.00329" lon="5.2074">
        <ele>697.09</ele>
        <time>2017-04-23T13:34:49Z</time>
      </trkpt>
      <trkpt lat="45.00336" lon="5.20727">
        <ele>694.69</ele>
        <time>2017-04-23T13:34:57Z</time>
      </trkpt>
      <trkpt lat="45.00336" lon="5.20723">
        <ele>694.21</ele>
        <time>2017-04-23T13:35:01Z</time>
      </trkpt>
      <trkpt lat="45.00335" lon="5.20716">
        <ele>693.73</ele>
        <time>2017-04-23T13:35:06Z</time>
      </trkpt>
      <trkpt lat="45.00333" lon="5.20711">
        <ele>693.25</ele>
        <time>2017-04-23T13:35:10Z</time>
      </trkpt>
      <trkpt lat="45.00331" lon="5.20711">
        <ele>692.29</ele>
        <time>2017-04-23T13:35:12Z</time>
      </trkpt>
      <trkpt lat="45.0033" lon="5.20707">
        <ele>691.81</ele>
        <time>2017-04-23T13:35:15Z</time>
      </trkpt>
      <trkpt lat="45.0033" lon="5.20698">
        <ele>691.33</ele>
        <time>2017-04-23T13:35:21Z</time>
      </trkpt>
      <trkpt lat="45.00329" lon="5.20692">
        <ele>690.84</ele>
        <time>2017-04-23T13:35:25Z</time>
      </trkpt>
      <trkpt lat="45.00326" lon="5.20686">
        <ele>689.88</ele>
        <time>2017-04-23T13:35:31Z</time>
      </trkpt>
      <trkpt lat="45.00324" lon="5.20676">
        <ele>688.92</ele>
        <time>2017-04-23T13:35:41Z</time>
      </trkpt>
      <trkpt lat="45.00322" lon="5.20651">
        <ele>687</ele>
        <time>2017-04-23T13:35:54Z</time>
      </trkpt>
      <trkpt lat="45.0032" lon="5.20634">
        <ele>685.56</ele>
        <time>2017-04-23T13:36:04Z</time>
      </trkpt>
      <trkpt lat="45.0032" lon="5.20633">
        <ele>685.56</ele>
        <time>2017-04-23T13:36:05Z</time>
      </trkpt>
      <trkpt lat="45.00313" lon="5.20622">
        <ele>684.6</ele>
        <time>2017-04-23T13:36:15Z</time>
      </trkpt>
      <trkpt lat="45.00313" lon="5.20616">
        <ele>684.12</ele>
        <time>2017-04-23T13:36:20Z</time>
      </trkpt>
      <trkpt lat="45.00311" lon="5.2061">
        <ele>683.15</ele>
        <time>2017-04-23T13:36:24Z</time>
      </trkpt>
      <trkpt lat="45.00308" lon="5.20602">
        <ele>682.67</ele>
        <time>2017-04-23T13:36:30Z</time>
      </trkpt>
      <trkpt lat="45.00306" lon="5.20596">
        <ele>681.71</ele>
        <time>2017-04-23T13:36:35Z</time>
      </trkpt>
      <trkpt lat="45.00304" lon="5.20591">
        <ele>680.75</ele>
        <time>2017-04-23T13:36:39Z</time>
      </trkpt>
      <trkpt lat="45.00303" lon="5.20586">
        <ele>680.27</ele>
        <time>2017-04-23T13:36:42Z</time>
      </trkpt>
      <trkpt lat="45.00304" lon="5.2058">
        <ele>680.27</ele>
        <time>2017-04-23T13:36:46Z</time>
      </trkpt>
      <trkpt lat="45.00302" lon="5.20574">
        <ele>679.79</ele>
        <time>2017-04-23T13:36:50Z</time>
      </trkpt>
      <trkpt lat="45.00301" lon="5.20561">
        <ele>678.35</ele>
        <time>2017-04-23T13:36:58Z</time>
      </trkpt>
      <trkpt lat="45.00302" lon="5.20544">
        <ele>676.91</ele>
        <time>2017-04-23T13:37:08Z</time>
      </trkpt>
      <trkpt lat="45.00301" lon="5.20541">
        <ele>675.94</ele>
        <time>2017-04-23T13:37:12Z</time>
      </trkpt>
      <trkpt lat="45.00303" lon="5.20535">
        <ele>674.5</ele>
        <time>2017-04-23T13:37:18Z</time>
      </trkpt>
      <trkpt lat="45.00302" lon="5.20533">
        <ele>674.02</ele>
        <time>2017-04-23T13:37:20Z</time>
      </trkpt>
      <trkpt lat="45.00299" lon="5.20522">
        <ele>673.54</ele>
        <time>2017-04-23T13:37:26Z</time>
      </trkpt>
      <trkpt lat="45.00296" lon="5.20513">
        <ele>672.1</ele>
        <time>2017-04-23T13:37:33Z</time>
      </trkpt>
      <trkpt lat="45.00295" lon="5.20503">
        <ele>670.66</ele>
        <time>2017-04-23T13:37:42Z</time>
      </trkpt>
      <trkpt lat="45.00295" lon="5.20501">
        <ele>670.18</ele>
        <time>2017-04-23T13:37:43Z</time>
      </trkpt>
      <trkpt lat="45.00293" lon="5.20492">
        <ele>669.22</ele>
        <time>2017-04-23T13:37:48Z</time>
      </trkpt>
      <trkpt lat="45.00292" lon="5.20488">
        <ele>668.73</ele>
        <time>2017-04-23T13:37:51Z</time>
      </trkpt>
      <trkpt lat="45.0029" lon="5.20479">
        <ele>668.25</ele>
        <time>2017-04-23T13:38:00Z</time>
      </trkpt>
      <trkpt lat="45.0029" lon="5.20475">
        <ele>667.77</ele>
        <time>2017-04-23T13:38:03Z</time>
      </trkpt>
      <trkpt lat="45.00292" lon="5.20467">
        <ele>667.29</ele>
        <time>2017-04-23T13:38:08Z</time>
      </trkpt>
      <trkpt lat="45.00293" lon="5.20463">
        <ele>667.29</ele>
        <time>2017-04-23T13:38:10Z</time>
      </trkpt>
      <trkpt lat="45.00295" lon="5.20457">
        <ele>667.29</ele>
        <time>2017-04-23T13:38:13Z</time>
      </trkpt>
      <trkpt lat="45.00294" lon="5.20448">
        <ele>665.85</ele>
        <time>2017-04-23T13:38:17Z</time>
      </trkpt>
      <trkpt lat="45.00296" lon="5.20439">
        <ele>665.37</ele>
        <time>2017-04-23T13:38:20Z</time>
      </trkpt>
      <trkpt lat="45.00292" lon="5.20434">
        <ele>664.89</ele>
        <time>2017-04-23T13:38:23Z</time>
      </trkpt>
      <trkpt lat="45.00294" lon="5.20437">
        <ele>664.41</ele>
        <time>2017-04-23T13:38:24Z</time>
      </trkpt>
      <trkpt lat="45.00304" lon="5.20413">
        <ele>662.97</ele>
        <time>2017-04-23T13:38:33Z</time>
      </trkpt>
      <trkpt lat="45.00302" lon="5.2041">
        <ele>662.97</ele>
        <time>2017-04-23T13:38:34Z</time>
      </trkpt>
      <trkpt lat="45.00303" lon="5.20396">
        <ele>662.01</ele>
        <time>2017-04-23T13:38:40Z</time>
      </trkpt>
      <trkpt lat="45.00303" lon="5.20388">
        <ele>660.56</ele>
        <time>2017-04-23T13:38:46Z</time>
      </trkpt>
      <trkpt lat="45.00302" lon="5.20381">
        <ele>660.08</ele>
        <time>2017-04-23T13:38:50Z</time>
      </trkpt>
      <trkpt lat="45.00303" lon="5.20374">
        <ele>659.6</ele>
        <time>2017-04-23T13:38:54Z</time>
      </trkpt>
      <trkpt lat="45.00302" lon="5.20371">
        <ele>659.12</ele>
        <time>2017-04-23T13:38:56Z</time>
      </trkpt>
      <trkpt lat="45.00302" lon="5.20362">
        <ele>658.64</ele>
        <time>2017-04-23T13:39:00Z</time>
      </trkpt>
      <trkpt lat="45.00302" lon="5.20354">
        <ele>657.68</ele>
        <time>2017-04-23T13:39:08Z</time>
      </trkpt>
      <trkpt lat="45.003" lon="5.20349">
        <ele>657.2</ele>
        <time>2017-04-23T13:39:11Z</time>
      </trkpt>
      <trkpt lat="45.00299" lon="5.2034">
        <ele>657.2</ele>
        <time>2017-04-23T13:39:18Z</time>
      </trkpt>
      <trkpt lat="45.00294" lon="5.20335">
        <ele>656.72</ele>
        <time>2017-04-23T13:39:22Z</time>
      </trkpt>
      <trkpt lat="45.00291" lon="5.20326">
        <ele>656.24</ele>
        <time>2017-04-23T13:39:26Z</time>
      </trkpt>
      <trkpt lat="45.00286" lon="5.20307">
        <ele>656.24</ele>
        <time>2017-04-23T13:39:34Z</time>
      </trkpt>
      <trkpt lat="45.00282" lon="5.20295">
        <ele>655.28</ele>
        <time>2017-04-23T13:39:42Z</time>
      </trkpt>
      <trkpt lat="45.0028" lon="5.20284">
        <ele>654.8</ele>
        <time>2017-04-23T13:39:48Z</time>
      </trkpt>
      <trkpt lat="45.00276" lon="5.20277">
        <ele>654.31</ele>
        <time>2017-04-23T13:39:53Z</time>
      </trkpt>
      <trkpt lat="45.00275" lon="5.20267">
        <ele>654.31</ele>
        <time>2017-04-23T13:39:58Z</time>
      </trkpt>
      <trkpt lat="45.00271" lon="5.20264">
        <ele>653.83</ele>
        <time>2017-04-23T13:40:01Z</time>
      </trkpt>
      <trkpt lat="45.00269" lon="5.2026">
        <ele>653.83</ele>
        <time>2017-04-23T13:40:03Z</time>
      </trkpt>
      <trkpt lat="45.00264" lon="5.20247">
        <ele>653.35</ele>
        <time>2017-04-23T13:40:11Z</time>
      </trkpt>
      <trkpt lat="45.0026" lon="5.20243">
        <ele>653.35</ele>
        <time>2017-04-23T13:40:15Z</time>
      </trkpt>
      <trkpt lat="45.0026" lon="5.20235">
        <ele>651.91</ele>
        <time>2017-04-23T13:40:19Z</time>
      </trkpt>
      <trkpt lat="45.00258" lon="5.20232">
        <ele>652.39</ele>
        <time>2017-04-23T13:40:22Z</time>
      </trkpt>
      <trkpt lat="45.00249" lon="5.20218">
        <ele>650.95</ele>
        <time>2017-04-23T13:40:31Z</time>
      </trkpt>
      <trkpt lat="45.00248" lon="5.20217">
        <ele>650.95</ele>
        <time>2017-04-23T13:40:32Z</time>
      </trkpt>
      <trkpt lat="45.00247" lon="5.20207">
        <ele>650.47</ele>
        <time>2017-04-23T13:40:38Z</time>
      </trkpt>
      <trkpt lat="45.00243" lon="5.20203">
        <ele>650.47</ele>
        <time>2017-04-23T13:40:42Z</time>
      </trkpt>
      <trkpt lat="45.0024" lon="5.20198">
        <ele>649.03</ele>
        <time>2017-04-23T13:40:46Z</time>
      </trkpt>
      <trkpt lat="45.00234" lon="5.20187">
        <ele>648.55</ele>
        <time>2017-04-23T13:40:55Z</time>
      </trkpt>
      <trkpt lat="45.00234" lon="5.20186">
        <ele>648.07</ele>
        <time>2017-04-23T13:40:56Z</time>
      </trkpt>
      <trkpt lat="45.00232" lon="5.20184">
        <ele>647.59</ele>
        <time>2017-04-23T13:40:58Z</time>
      </trkpt>
      <trkpt lat="45.00225" lon="5.20171">
        <ele>645.66</ele>
        <time>2017-04-23T13:41:07Z</time>
      </trkpt>
      <trkpt lat="45.00222" lon="5.20159">
        <ele>644.7</ele>
        <time>2017-04-23T13:41:16Z</time>
      </trkpt>
      <trkpt lat="45.00222" lon="5.20152">
        <ele>644.22</ele>
        <time>2017-04-23T13:41:21Z</time>
      </trkpt>
      <trkpt lat="45.00221" lon="5.20146">
        <ele>643.74</ele>
        <time>2017-04-23T13:41:24Z</time>
      </trkpt>
      <trkpt lat="45.0022" lon="5.20142">
        <ele>643.74</ele>
        <time>2017-04-23T13:41:29Z</time>
      </trkpt>
      <trkpt lat="45.00218" lon="5.20129">
        <ele>642.3</ele>
        <time>2017-04-23T13:41:36Z</time>
      </trkpt>
      <trkpt lat="45.00214" lon="5.2012">
        <ele>641.34</ele>
        <time>2017-04-23T13:41:46Z</time>
      </trkpt>
      <trkpt lat="45.00214" lon="5.2012">
        <ele>641.34</ele>
        <time>2017-04-23T13:41:47Z</time>
      </trkpt>
      <trkpt lat="45.00207" lon="5.20102">
        <ele>639.89</ele>
        <time>2017-04-23T13:41:56Z</time>
      </trkpt>
      <trkpt lat="45.002" lon="5.20092">
        <ele>639.41</ele>
        <time>2017-04-23T13:42:02Z</time>
      </trkpt>
      <trkpt lat="45.00197" lon="5.20089">
        <ele>638.93</ele>
        <time>2017-04-23T13:42:05Z</time>
      </trkpt>
      <trkpt lat="45.00195" lon="5.20082">
        <ele>638.45</ele>
        <time>2017-04-23T13:42:09Z</time>
      </trkpt>
      <trkpt lat="45.00191" lon="5.20077">
        <ele>637.49</ele>
        <time>2017-04-23T13:42:14Z</time>
      </trkpt>
      <trkpt lat="45.00191" lon="5.20074">
        <ele>637.01</ele>
        <time>2017-04-23T13:42:16Z</time>
      </trkpt>
      <trkpt lat="45.00186" lon="5.2006">
        <ele>636.05</ele>
        <time>2017-04-23T13:42:26Z</time>
      </trkpt>
      <trkpt lat="45.00185" lon="5.20059">
        <ele>636.05</ele>
        <time>2017-04-23T13:42:28Z</time>
      </trkpt>
      <trkpt lat="45.00182" lon="5.20056">
        <ele>635.09</ele>
        <time>2017-04-23T13:42:31Z</time>
      </trkpt>
      <trkpt lat="45.00177" lon="5.20041">
        <ele>634.61</ele>
        <time>2017-04-23T13:42:40Z</time>
      </trkpt>
      <trkpt lat="45.00175" lon="5.20036">
        <ele>634.13</ele>
        <time>2017-04-23T13:42:44Z</time>
      </trkpt>
      <trkpt lat="45.0017" lon="5.20028">
        <ele>633.17</ele>
        <time>2017-04-23T13:42:48Z</time>
      </trkpt>
      <trkpt lat="45.00161" lon="5.20014">
        <ele>632.2</ele>
        <time>2017-04-23T13:42:57Z</time>
      </trkpt>
      <trkpt lat="45.00159" lon="5.2001">
        <ele>631.72</ele>
        <time>2017-04-23T13:43:00Z</time>
      </trkpt>
      <trkpt lat="45.00146" lon="5.19998">
        <ele>630.76</ele>
        <time>2017-04-23T13:43:10Z</time>
      </trkpt>
      <trkpt lat="45.00143" lon="5.19994">
        <ele>630.28</ele>
        <time>2017-04-23T13:43:13Z</time>
      </trkpt>
      <trkpt lat="45.00135" lon="5.19994">
        <ele>630.28</ele>
        <time>2017-04-23T13:43:18Z</time>
      </trkpt>
      <trkpt lat="45.0013" lon="5.19989">
        <ele>629.32</ele>
        <time>2017-04-23T13:43:22Z</time>
      </trkpt>
      <trkpt lat="45.00128" lon="5.19987">
        <ele>629.32</ele>
        <time>2017-04-23T13:43:25Z</time>
      </trkpt>
      <trkpt lat="45.00126" lon="5.19985">
        <ele>628.84</ele>
        <time>2017-04-23T13:43:27Z</time>
      </trkpt>
      <trkpt lat="45.00124" lon="5.19981">
        <ele>628.36</ele>
        <time>2017-04-23T13:43:30Z</time>
      </trkpt>
      <trkpt lat="45.00118" lon="5.19981">
        <ele>627.4</ele>
        <time>2017-04-23T13:43:36Z</time>
      </trkpt>
      <trkpt lat="45.00113" lon="5.19976">
        <ele>626.92</ele>
        <time>2017-04-23T13:43:40Z</time>
      </trkpt>
      <trkpt lat="45.00109" lon="5.19975">
        <ele>626.92</ele>
        <time>2017-04-23T13:43:43Z</time>
      </trkpt>
      <trkpt lat="45.00106" lon="5.19971">
        <ele>626.44</ele>
        <time>2017-04-23T13:43:46Z</time>
      </trkpt>
      <trkpt lat="45.00103" lon="5.19969">
        <ele>625.96</ele>
        <time>2017-04-23T13:43:49Z</time>
      </trkpt>
      <trkpt lat="45.00093" lon="5.19965">
        <ele>624.99</ele>
        <time>2017-04-23T13:43:58Z</time>
      </trkpt>
      <trkpt lat="45.0009" lon="5.19965">
        <ele>624.99</ele>
        <time>2017-04-23T13:44:00Z</time>
      </trkpt>
      <trkpt lat="45.00088" lon="5.19965">
        <ele>624.51</ele>
        <time>2017-04-23T13:44:02Z</time>
      </trkpt>
      <trkpt lat="45.00079" lon="5.19956">
        <ele>623.55</ele>
        <time>2017-04-23T13:44:11Z</time>
      </trkpt>
      <trkpt lat="45.00072" lon="5.19953">
        <ele>622.59</ele>
        <time>2017-04-23T13:44:17Z</time>
      </trkpt>
      <trkpt lat="45.00069" lon="5.19953">
        <ele>622.11</ele>
        <time>2017-04-23T13:44:19Z</time>
      </trkpt>
      <trkpt lat="45.00062" lon="5.19946">
        <ele>621.63</ele>
        <time>2017-04-23T13:44:25Z</time>
      </trkpt>
      <trkpt lat="45.00055" lon="5.19947">
        <ele>621.15</ele>
        <time>2017-04-23T13:44:30Z</time>
      </trkpt>
      <trkpt lat="45.0005" lon="5.19942">
        <ele>621.15</ele>
        <time>2017-04-23T13:44:35Z</time>
      </trkpt>
      <trkpt lat="45.00042" lon="5.19939">
        <ele>620.67</ele>
        <time>2017-04-23T13:44:43Z</time>
      </trkpt>
      <trkpt lat="45.00038" lon="5.19937">
        <ele>620.67</ele>
        <time>2017-04-23T13:44:45Z</time>
      </trkpt>
      <trkpt lat="45.0003" lon="5.19932">
        <ele>619.23</ele>
        <time>2017-04-23T13:44:52Z</time>
      </trkpt>
      <trkpt lat="45.00025" lon="5.19933">
        <ele>618.26</ele>
        <time>2017-04-23T13:44:56Z</time>
      </trkpt>
      <trkpt lat="45.00019" lon="5.19931">
        <ele>617.78</ele>
        <time>2017-04-23T13:45:01Z</time>
      </trkpt>
      <trkpt lat="45.00017" lon="5.19932">
        <ele>616.82</ele>
        <time>2017-04-23T13:45:04Z</time>
      </trkpt>
      <trkpt lat="45.00011" lon="5.1993">
        <ele>615.86</ele>
        <time>2017-04-23T13:45:08Z</time>
      </trkpt>
      <trkpt lat="45.00008" lon="5.19932">
        <ele>614.9</ele>
        <time>2017-04-23T13:45:12Z</time>
      </trkpt>
      <trkpt lat="45.00001" lon="5.19932">
        <ele>614.42</ele>
        <time>2017-04-23T13:45:17Z</time>
      </trkpt>
      <trkpt lat="44.99996" lon="5.19934">
        <ele>612.98</ele>
        <time>2017-04-23T13:45:24Z</time>
      </trkpt>
      <trkpt lat="44.99986" lon="5.19935">
        <ele>612.02</ele>
        <time>2017-04-23T13:45:30Z</time>
      </trkpt>
      <trkpt lat="44.99983" lon="5.19934">
        <ele>612.02</ele>
        <time>2017-04-23T13:45:32Z</time>
      </trkpt>
      <trkpt lat="44.99977" lon="5.19934">
        <ele>611.06</ele>
        <time>2017-04-23T13:45:36Z</time>
      </trkpt>
      <trkpt lat="44.99973" lon="5.19936">
        <ele>611.06</ele>
        <time>2017-04-23T13:45:40Z</time>
      </trkpt>
      <trkpt lat="44.99968" lon="5.19934">
        <ele>610.09</ele>
        <time>2017-04-23T13:45:44Z</time>
      </trkpt>
      <trkpt lat="44.99963" lon="5.19935">
        <ele>609.13</ele>
        <time>2017-04-23T13:45:49Z</time>
      </trkpt>
      <trkpt lat="44.99959" lon="5.19933">
        <ele>608.65</ele>
        <time>2017-04-23T13:45:53Z</time>
      </trkpt>
      <trkpt lat="44.9995" lon="5.19929">
        <ele>607.69</ele>
        <time>2017-04-23T13:46:00Z</time>
      </trkpt>
      <trkpt lat="44.99947" lon="5.19928">
        <ele>607.21</ele>
        <time>2017-04-23T13:46:02Z</time>
      </trkpt>
      <trkpt lat="44.99935" lon="5.19923">
        <ele>605.29</ele>
        <time>2017-04-23T13:46:12Z</time>
      </trkpt>
      <trkpt lat="44.99933" lon="5.19922">
        <ele>604.81</ele>
        <time>2017-04-23T13:46:15Z</time>
      </trkpt>
      <trkpt lat="44.99924" lon="5.1992">
        <ele>603.85</ele>
        <time>2017-04-23T13:46:22Z</time>
      </trkpt>
      <trkpt lat="44.99922" lon="5.1992">
        <ele>603.85</ele>
        <time>2017-04-23T13:46:24Z</time>
      </trkpt>
      <trkpt lat="44.99917" lon="5.1992">
        <ele>602.88</ele>
        <time>2017-04-23T13:46:29Z</time>
      </trkpt>
      <trkpt lat="44.99915" lon="5.1992">
        <ele>602.4</ele>
        <time>2017-04-23T13:46:31Z</time>
      </trkpt>
      <trkpt lat="44.99914" lon="5.1992">
        <ele>602.4</ele>
        <time>2017-04-23T13:46:32Z</time>
      </trkpt>
      <trkpt lat="44.99911" lon="5.19921">
        <ele>601.92</ele>
        <time>2017-04-23T13:46:34Z</time>
      </trkpt>
      <trkpt lat="44.99906" lon="5.19922">
        <ele>600.96</ele>
        <time>2017-04-23T13:46:38Z</time>
      </trkpt>
      <trkpt lat="44.99903" lon="5.19923">
        <ele>600.96</ele>
        <time>2017-04-23T13:46:40Z</time>
      </trkpt>
      <trkpt lat="44.99901" lon="5.19925">
        <ele>600.48</ele>
        <time>2017-04-23T13:46:42Z</time>
      </trkpt>
      <trkpt lat="44.99897" lon="5.19925">
        <ele>599.52</ele>
        <time>2017-04-23T13:46:47Z</time>
      </trkpt>
      <trkpt lat="44.99885" lon="5.19929">
        <ele>598.08</ele>
        <time>2017-04-23T13:46:58Z</time>
      </trkpt>
      <trkpt lat="44.99883" lon="5.1993">
        <ele>598.56</ele>
        <time>2017-04-23T13:46:59Z</time>
      </trkpt>
      <trkpt lat="44.99881" lon="5.19932">
        <ele>598.08</ele>
        <time>2017-04-23T13:47:01Z</time>
      </trkpt>
      <trkpt lat="44.99878" lon="5.19931">
        <ele>597.6</ele>
        <time>2017-04-23T13:47:03Z</time>
      </trkpt>
      <trkpt lat="44.99874" lon="5.1993">
        <ele>597.12</ele>
        <time>2017-04-23T13:47:07Z</time>
      </trkpt>
      <trkpt lat="44.99868" lon="5.19933">
        <ele>596.15</ele>
        <time>2017-04-23T13:47:12Z</time>
      </trkpt>
      <trkpt lat="44.99859" lon="5.19934">
        <ele>595.67</ele>
        <time>2017-04-23T13:47:21Z</time>
      </trkpt>
      <trkpt lat="44.99848" lon="5.19931">
        <ele>594.23</ele>
        <time>2017-04-23T13:47:35Z</time>
      </trkpt>
      <trkpt lat="44.99847" lon="5.1993">
        <ele>594.71</ele>
        <time>2017-04-23T13:47:47Z</time>
      </trkpt>
      <trkpt lat="44.99849" lon="5.19928">
        <ele>594.71</ele>
        <time>2017-04-23T13:47:58Z</time>
      </trkpt>
      <trkpt lat="44.9985" lon="5.19928">
        <ele>593.75</ele>
        <time>2017-04-23T13:48:04Z</time>
      </trkpt>
      <trkpt lat="44.99849" lon="5.19928">
        <ele>593.27</ele>
        <time>2017-04-23T13:48:19Z</time>
      </trkpt>
      <trkpt lat="44.99849" lon="5.19928">
        <ele>593.27</ele>
        <time>2017-04-23T13:48:49Z</time>
      </trkpt>
      <trkpt lat="44.9985" lon="5.19929">
        <ele>594.23</ele>
        <time>2017-04-23T13:49:25Z</time>
      </trkpt>
      <trkpt lat="44.9985" lon="5.19931">
        <ele>594.23</ele>
        <time>2017-04-23T13:49:36Z</time>
      </trkpt>
      <trkpt lat="44.99849" lon="5.19933">
        <ele>594.71</ele>
        <time>2017-04-23T13:49:47Z</time>
      </trkpt>
      <trkpt lat="44.99848" lon="5.19932">
        <ele>594.23</ele>
        <time>2017-04-23T13:49:48Z</time>
      </trkpt>
      <trkpt lat="44.99844" lon="5.19929">
        <ele>593.75</ele>
        <time>2017-04-23T13:49:52Z</time>
      </trkpt>
      <trkpt lat="44.99841" lon="5.19928">
        <ele>593.27</ele>
        <time>2017-04-23T13:49:55Z</time>
      </trkpt>
      <trkpt lat="44.99835" lon="5.19927">
        <ele>592.31</ele>
        <time>2017-04-23T13:50:00Z</time>
      </trkpt>
      <trkpt lat="44.99828" lon="5.19921">
        <ele>590.87</ele>
        <time>2017-04-23T13:50:06Z</time>
      </trkpt>
      <trkpt lat="44.99822" lon="5.19919">
        <ele>590.39</ele>
        <time>2017-04-23T13:50:11Z</time>
      </trkpt>
      <trkpt lat="44.99816" lon="5.19913">
        <ele>589.43</ele>
        <time>2017-04-23T13:50:17Z</time>
      </trkpt>
      <trkpt lat="44.99804" lon="5.19908">
        <ele>588.46</ele>
        <time>2017-04-23T13:50:24Z</time>
      </trkpt>
      <trkpt lat="44.99801" lon="5.19902">
        <ele>587.02</ele>
        <time>2017-04-23T13:50:29Z</time>
      </trkpt>
      <trkpt lat="44.99795" lon="5.19899">
        <ele>586.54</ele>
        <time>2017-04-23T13:50:34Z</time>
      </trkpt>
      <trkpt lat="44.99791" lon="5.19897">
        <ele>586.06</ele>
        <time>2017-04-23T13:50:37Z</time>
      </trkpt>
      <trkpt lat="44.99789" lon="5.19895">
        <ele>585.58</ele>
        <time>2017-04-23T13:50:39Z</time>
      </trkpt>
      <trkpt lat="44.99776" lon="5.19885">
        <ele>584.14</ele>
        <time>2017-04-23T13:50:48Z</time>
      </trkpt>
      <trkpt lat="44.99773" lon="5.19877">
        <ele>583.66</ele>
        <time>2017-04-23T13:50:54Z</time>
      </trkpt>
      <trkpt lat="44.9977" lon="5.19873">
        <ele>583.18</ele>
        <time>2017-04-23T13:50:57Z</time>
      </trkpt>
      <trkpt lat="44.99764" lon="5.19871">
        <ele>581.73</ele>
        <time>2017-04-23T13:51:02Z</time>
      </trkpt>
      <trkpt lat="44.99755" lon="5.1986">
        <ele>580.77</ele>
        <time>2017-04-23T13:51:10Z</time>
      </trkpt>
      <trkpt lat="44.99742" lon="5.19855">
        <ele>578.85</ele>
        <time>2017-04-23T13:51:18Z</time>
      </trkpt>
      <trkpt lat="44.9974" lon="5.19851">
        <ele>578.85</ele>
        <time>2017-04-23T13:51:21Z</time>
      </trkpt>
      <trkpt lat="44.99734" lon="5.19848">
        <ele>577.89</ele>
        <time>2017-04-23T13:51:25Z</time>
      </trkpt>
      <trkpt lat="44.99727" lon="5.19848">
        <ele>576.93</ele>
        <time>2017-04-23T13:51:29Z</time>
      </trkpt>
      <trkpt lat="44.99723" lon="5.19845">
        <ele>576.93</ele>
        <time>2017-04-23T13:51:34Z</time>
      </trkpt>
      <trkpt lat="44.99721" lon="5.19843">
        <ele>576.45</ele>
        <time>2017-04-23T13:51:36Z</time>
      </trkpt>
      <trkpt lat="44.9972" lon="5.19842">
        <ele>575.97</ele>
        <time>2017-04-23T13:51:38Z</time>
      </trkpt>
      <trkpt lat="44.99709" lon="5.19836">
        <ele>574.53</ele>
        <time>2017-04-23T13:51:47Z</time>
      </trkpt>
      <trkpt lat="44.99707" lon="5.19835">
        <ele>574.04</ele>
        <time>2017-04-23T13:51:49Z</time>
      </trkpt>
      <trkpt lat="44.99695" lon="5.1983">
        <ele>572.6</ele>
        <time>2017-04-23T13:51:56Z</time>
      </trkpt>
      <trkpt lat="44.9969" lon="5.19821">
        <ele>571.16</ele>
        <time>2017-04-23T13:52:02Z</time>
      </trkpt>
      <trkpt lat="44.99686" lon="5.1982">
        <ele>571.16</ele>
        <time>2017-04-23T13:52:05Z</time>
      </trkpt>
      <trkpt lat="44.99678" lon="5.19821">
        <ele>570.68</ele>
        <time>2017-04-23T13:52:10Z</time>
      </trkpt>
      <trkpt lat="44.99671" lon="5.19808">
        <ele>568.76</ele>
        <time>2017-04-23T13:52:18Z</time>
      </trkpt>
      <trkpt lat="44.99667" lon="5.19806">
        <ele>567.8</ele>
        <time>2017-04-23T13:52:21Z</time>
      </trkpt>
      <trkpt lat="44.99666" lon="5.19807">
        <ele>568.28</ele>
        <time>2017-04-23T13:52:23Z</time>
      </trkpt>
      <trkpt lat="44.99662" lon="5.19807">
        <ele>567.8</ele>
        <time>2017-04-23T13:52:25Z</time>
      </trkpt>
      <trkpt lat="44.99656" lon="5.19801">
        <ele>568.76</ele>
        <time>2017-04-23T13:52:30Z</time>
      </trkpt>
      <trkpt lat="44.99656" lon="5.19799">
        <ele>568.28</ele>
        <time>2017-04-23T13:52:31Z</time>
      </trkpt>
      <trkpt lat="44.99652" lon="5.19793">
        <ele>566.35</ele>
        <time>2017-04-23T13:52:34Z</time>
      </trkpt>
      <trkpt lat="44.99645" lon="5.19788">
        <ele>565.39</ele>
        <time>2017-04-23T13:52:38Z</time>
      </trkpt>
      <trkpt lat="44.99645" lon="5.19787">
        <ele>564.91</ele>
        <time>2017-04-23T13:52:39Z</time>
      </trkpt>
      <trkpt lat="44.99641" lon="5.19787">
        <ele>564.91</ele>
        <time>2017-04-23T13:52:41Z</time>
      </trkpt>
      <trkpt lat="44.99639" lon="5.19781">
        <ele>563.47</ele>
        <time>2017-04-23T13:52:46Z</time>
      </trkpt>
      <trkpt lat="44.99639" lon="5.19781">
        <ele>563.47</ele>
        <time>2017-04-23T13:52:49Z</time>
      </trkpt>
      <trkpt lat="44.9963" lon="5.19776">
        <ele>562.03</ele>
        <time>2017-04-23T13:52:54Z</time>
      </trkpt>
      <trkpt lat="44.99629" lon="5.19776">
        <ele>561.07</ele>
        <time>2017-04-23T13:52:55Z</time>
      </trkpt>
      <trkpt lat="44.99623" lon="5.19776">
        <ele>560.11</ele>
        <time>2017-04-23T13:52:57Z</time>
      </trkpt>
      <trkpt lat="44.99617" lon="5.19764">
        <ele>560.11</ele>
        <time>2017-04-23T13:53:02Z</time>
      </trkpt>
      <trkpt lat="44.99617" lon="5.19759">
        <ele>560.59</ele>
        <time>2017-04-23T13:53:04Z</time>
      </trkpt>
      <trkpt lat="44.99616" lon="5.19755">
        <ele>560.59</ele>
        <time>2017-04-23T13:53:06Z</time>
      </trkpt>
      <trkpt lat="44.99613" lon="5.19751">
        <ele>560.59</ele>
        <time>2017-04-23T13:53:09Z</time>
      </trkpt>
      <trkpt lat="44.99608" lon="5.19749">
        <ele>559.62</ele>
        <time>2017-04-23T13:53:12Z</time>
      </trkpt>
      <trkpt lat="44.99606" lon="5.19748">
        <ele>559.62</ele>
        <time>2017-04-23T13:53:14Z</time>
      </trkpt>
      <trkpt lat="44.99604" lon="5.19747">
        <ele>559.62</ele>
        <time>2017-04-23T13:53:15Z</time>
      </trkpt>
      <trkpt lat="44.996" lon="5.19741">
        <ele>558.66</ele>
        <time>2017-04-23T13:53:19Z</time>
      </trkpt>
      <trkpt lat="44.99599" lon="5.19732">
        <ele>557.7</ele>
        <time>2017-04-23T13:53:23Z</time>
      </trkpt>
      <trkpt lat="44.99597" lon="5.19729">
        <ele>557.22</ele>
        <time>2017-04-23T13:53:25Z</time>
      </trkpt>
      <trkpt lat="44.99593" lon="5.19726">
        <ele>556.74</ele>
        <time>2017-04-23T13:53:27Z</time>
      </trkpt>
      <trkpt lat="44.99588" lon="5.19724">
        <ele>556.74</ele>
        <time>2017-04-23T13:53:31Z</time>
      </trkpt>
      <trkpt lat="44.99581" lon="5.19724">
        <ele>555.78</ele>
        <time>2017-04-23T13:53:35Z</time>
      </trkpt>
      <trkpt lat="44.99577" lon="5.19717">
        <ele>555.3</ele>
        <time>2017-04-23T13:53:38Z</time>
      </trkpt>
      <trkpt lat="44.99575" lon="5.19715">
        <ele>555.3</ele>
        <time>2017-04-23T13:53:40Z</time>
      </trkpt>
      <trkpt lat="44.99564" lon="5.19705">
        <ele>554.34</ele>
        <time>2017-04-23T13:53:49Z</time>
      </trkpt>
      <trkpt lat="44.9956" lon="5.197">
        <ele>554.34</ele>
        <time>2017-04-23T13:53:53Z</time>
      </trkpt>
      <trkpt lat="44.99553" lon="5.19691">
        <ele>551.45</ele>
        <time>2017-04-23T13:53:59Z</time>
      </trkpt>
      <trkpt lat="44.99548" lon="5.1969">
        <ele>551.45</ele>
        <time>2017-04-23T13:54:02Z</time>
      </trkpt>
      <trkpt lat="44.99545" lon="5.19678">
        <ele>550.97</ele>
        <time>2017-04-23T13:54:09Z</time>
      </trkpt>
      <trkpt lat="44.99539" lon="5.19677">
        <ele>550.01</ele>
        <time>2017-04-23T13:54:13Z</time>
      </trkpt>
      <trkpt lat="44.99534" lon="5.19665">
        <ele>549.53</ele>
        <time>2017-04-23T13:54:21Z</time>
      </trkpt>
      <trkpt lat="44.99529" lon="5.19661">
        <ele>549.53</ele>
        <time>2017-04-23T13:54:26Z</time>
      </trkpt>
      <trkpt lat="44.99527" lon="5.19657">
        <ele>549.53</ele>
        <time>2017-04-23T13:54:28Z</time>
      </trkpt>
      <trkpt lat="44.99517" lon="5.19652">
        <ele>548.09</ele>
        <time>2017-04-23T13:54:35Z</time>
      </trkpt>
      <trkpt lat="44.99512" lon="5.19643">
        <ele>547.61</ele>
        <time>2017-04-23T13:54:42Z</time>
      </trkpt>
      <trkpt lat="44.99508" lon="5.19643">
        <ele>546.17</ele>
        <time>2017-04-23T13:54:45Z</time>
      </trkpt>
      <trkpt lat="44.99504" lon="5.19638">
        <ele>545.69</ele>
        <time>2017-04-23T13:54:50Z</time>
      </trkpt>
      <trkpt lat="44.9949" lon="5.19631">
        <ele>545.2</ele>
        <time>2017-04-23T13:55:01Z</time>
      </trkpt>
      <trkpt lat="44.99483" lon="5.19634">
        <ele>543.76</ele>
        <time>2017-04-23T13:55:05Z</time>
      </trkpt>
      <trkpt lat="44.99478" lon="5.19629">
        <ele>543.76</ele>
        <time>2017-04-23T13:55:10Z</time>
      </trkpt>
      <trkpt lat="44.99476" lon="5.19629">
        <ele>544.24</ele>
        <time>2017-04-23T13:55:13Z</time>
      </trkpt>
      <trkpt lat="44.99469" lon="5.19632">
        <ele>541.84</ele>
        <time>2017-04-23T13:55:18Z</time>
      </trkpt>
      <trkpt lat="44.99461" lon="5.1963">
        <ele>539.92</ele>
        <time>2017-04-23T13:55:23Z</time>
      </trkpt>
      <trkpt lat="44.9946" lon="5.1963">
        <ele>540.4</ele>
        <time>2017-04-23T13:55:24Z</time>
      </trkpt>
      <trkpt lat="44.99452" lon="5.19643">
        <ele>539.44</ele>
        <time>2017-04-23T13:55:32Z</time>
      </trkpt>
      <trkpt lat="44.99448" lon="5.19661">
        <ele>537.99</ele>
        <time>2017-04-23T13:55:41Z</time>
      </trkpt>
      <trkpt lat="44.99444" lon="5.19668">
        <ele>537.03</ele>
        <time>2017-04-23T13:55:45Z</time>
      </trkpt>
      <trkpt lat="44.9944" lon="5.19672">
        <ele>537.03</ele>
        <time>2017-04-23T13:55:48Z</time>
      </trkpt>
      <trkpt lat="44.99439" lon="5.19679">
        <ele>536.07</ele>
        <time>2017-04-23T13:55:52Z</time>
      </trkpt>
      <trkpt lat="44.9943" lon="5.19686">
        <ele>534.63</ele>
        <time>2017-04-23T13:55:59Z</time>
      </trkpt>
      <trkpt lat="44.9942" lon="5.19692">
        <ele>534.15</ele>
        <time>2017-04-23T13:56:07Z</time>
      </trkpt>
      <trkpt lat="44.99416" lon="5.19696">
        <ele>533.67</ele>
        <time>2017-04-23T13:56:10Z</time>
      </trkpt>
      <trkpt lat="44.99411" lon="5.19701">
        <ele>533.67</ele>
        <time>2017-04-23T13:56:15Z</time>
      </trkpt>
      <trkpt lat="44.99406" lon="5.197">
        <ele>531.75</ele>
        <time>2017-04-23T13:56:21Z</time>
      </trkpt>
      <trkpt lat="44.99397" lon="5.1971">
        <ele>530.79</ele>
        <time>2017-04-23T13:56:27Z</time>
      </trkpt>
      <trkpt lat="44.99395" lon="5.19711">
        <ele>530.79</ele>
        <time>2017-04-23T13:56:29Z</time>
      </trkpt>
      <trkpt lat="44.99388" lon="5.19708">
        <ele>529.82</ele>
        <time>2017-04-23T13:56:35Z</time>
      </trkpt>
      <trkpt lat="44.99384" lon="5.19708">
        <ele>529.34</ele>
        <time>2017-04-23T13:56:39Z</time>
      </trkpt>
      <trkpt lat="44.99378" lon="5.19715">
        <ele>528.86</ele>
        <time>2017-04-23T13:56:42Z</time>
      </trkpt>
      <trkpt lat="44.99373" lon="5.19718">
        <ele>527.9</ele>
        <time>2017-04-23T13:56:45Z</time>
      </trkpt>
      <trkpt lat="44.99366" lon="5.19713">
        <ele>527.42</ele>
        <time>2017-04-23T13:56:51Z</time>
      </trkpt>
      <trkpt lat="44.99362" lon="5.19713">
        <ele>527.42</ele>
        <time>2017-04-23T13:56:53Z</time>
      </trkpt>
      <trkpt lat="44.99358" lon="5.19715">
        <ele>526.94</ele>
        <time>2017-04-23T13:56:55Z</time>
      </trkpt>
      <trkpt lat="44.99355" lon="5.19721">
        <ele>526.46</ele>
        <time>2017-04-23T13:56:58Z</time>
      </trkpt>
      <trkpt lat="44.99351" lon="5.19719">
        <ele>526.94</ele>
        <time>2017-04-23T13:57:01Z</time>
      </trkpt>
      <trkpt lat="44.99348" lon="5.19722">
        <ele>525.02</ele>
        <time>2017-04-23T13:57:05Z</time>
      </trkpt>
      <trkpt lat="44.99342" lon="5.19734">
        <ele>523.58</ele>
        <time>2017-04-23T13:57:12Z</time>
      </trkpt>
      <trkpt lat="44.99338" lon="5.19731">
        <ele>523.09</ele>
        <time>2017-04-23T13:57:14Z</time>
      </trkpt>
      <trkpt lat="44.99325" lon="5.19747">
        <ele>521.17</ele>
        <time>2017-04-23T13:57:23Z</time>
      </trkpt>
      <trkpt lat="44.9932" lon="5.19752">
        <ele>520.21</ele>
        <time>2017-04-23T13:57:27Z</time>
      </trkpt>
      <trkpt lat="44.99314" lon="5.19754">
        <ele>519.73</ele>
        <time>2017-04-23T13:57:32Z</time>
      </trkpt>
      <trkpt lat="44.99311" lon="5.19764">
        <ele>519.25</ele>
        <time>2017-04-23T13:57:37Z</time>
      </trkpt>
      <trkpt lat="44.99301" lon="5.1976">
        <ele>518.29</ele>
        <time>2017-04-23T13:57:44Z</time>
      </trkpt>
      <trkpt lat="44.9929" lon="5.19768">
        <ele>516.85</ele>
        <time>2017-04-23T13:57:50Z</time>
      </trkpt>
      <trkpt lat="44.99287" lon="5.19768">
        <ele>516.37</ele>
        <time>2017-04-23T13:57:54Z</time>
      </trkpt>
      <trkpt lat="44.99285" lon="5.19769">
        <ele>516.37</ele>
        <time>2017-04-23T13:57:57Z</time>
      </trkpt>
      <trkpt lat="44.99279" lon="5.19774">
        <ele>514.92</ele>
        <time>2017-04-23T13:58:02Z</time>
      </trkpt>
      <trkpt lat="44.99272" lon="5.19779">
        <ele>513.96</ele>
        <time>2017-04-23T13:58:07Z</time>
      </trkpt>
      <trkpt lat="44.99263" lon="5.19785">
        <ele>513.48</ele>
        <time>2017-04-23T13:58:15Z</time>
      </trkpt>
      <trkpt lat="44.99254" lon="5.19787">
        <ele>511.56</ele>
        <time>2017-04-23T13:58:25Z</time>
      </trkpt>
      <trkpt lat="44.99252" lon="5.19785">
        <ele>511.08</ele>
        <time>2017-04-23T13:58:33Z</time>
      </trkpt>
      <trkpt lat="44.99248" lon="5.19789">
        <ele>510.6</ele>
        <time>2017-04-23T13:58:37Z</time>
      </trkpt>
      <trkpt lat="44.99245" lon="5.19791">
        <ele>510.12</ele>
        <time>2017-04-23T13:58:40Z</time>
      </trkpt>
      <trkpt lat="44.99239" lon="5.19798">
        <ele>509.64</ele>
        <time>2017-04-23T13:58:47Z</time>
      </trkpt>
      <trkpt lat="44.99234" lon="5.19799">
        <ele>509.64</ele>
        <time>2017-04-23T13:58:50Z</time>
      </trkpt>
      <trkpt lat="44.99227" lon="5.19803">
        <ele>508.67</ele>
        <time>2017-04-23T13:58:59Z</time>
      </trkpt>
      <trkpt lat="44.9922" lon="5.19807">
        <ele>508.19</ele>
        <time>2017-04-23T13:59:04Z</time>
      </trkpt>
      <trkpt lat="44.99204" lon="5.19809">
        <ele>507.23</ele>
        <time>2017-04-23T13:59:17Z</time>
      </trkpt>
      <trkpt lat="44.99197" lon="5.19813">
        <ele>505.79</ele>
        <time>2017-04-23T13:59:27Z</time>
      </trkpt>
      <trkpt lat="44.99189" lon="5.19811">
        <ele>505.31</ele>
        <time>2017-04-23T13:59:31Z</time>
      </trkpt>
      <trkpt lat="44.99184" lon="5.19813">
        <ele>504.83</ele>
        <time>2017-04-23T13:59:34Z</time>
      </trkpt>
      <trkpt lat="44.99178" lon="5.19809">
        <ele>503.87</ele>
        <time>2017-04-23T13:59:38Z</time>
      </trkpt>
      <trkpt lat="44.99169" lon="5.19811">
        <ele>503.39</ele>
        <time>2017-04-23T13:59:44Z</time>
      </trkpt>
      <trkpt lat="44.99162" lon="5.19811">
        <ele>503.39</ele>
        <time>2017-04-23T13:59:48Z</time>
      </trkpt>
      <trkpt lat="44.99161" lon="5.19813">
        <ele>503.87</ele>
        <time>2017-04-23T13:59:51Z</time>
      </trkpt>
      <trkpt lat="44.99162" lon="5.19824">
        <ele>504.35</ele>
        <time>2017-04-23T13:59:55Z</time>
      </trkpt>
      <trkpt lat="44.99154" lon="5.19826">
        <ele>504.35</ele>
        <time>2017-04-23T14:00:00Z</time>
      </trkpt>
      <trkpt lat="44.99154" lon="5.19835">
        <ele>504.83</ele>
        <time>2017-04-23T14:00:05Z</time>
      </trkpt>
      <trkpt lat="44.99153" lon="5.19841">
        <ele>505.31</ele>
        <time>2017-04-23T14:00:08Z</time>
      </trkpt>
      <trkpt lat="44.99155" lon="5.19844">
        <ele>505.79</ele>
        <time>2017-04-23T14:00:11Z</time>
      </trkpt>
      <trkpt lat="44.99154" lon="5.19852">
        <ele>505.31</ele>
        <time>2017-04-23T14:00:14Z</time>
      </trkpt>
      <trkpt lat="44.99155" lon="5.19854">
        <ele>505.79</ele>
        <time>2017-04-23T14:00:16Z</time>
      </trkpt>
      <trkpt lat="44.99154" lon="5.19857">
        <ele>506.27</ele>
        <time>2017-04-23T14:00:18Z</time>
      </trkpt>
      <trkpt lat="44.99157" lon="5.19865">
        <ele>507.23</ele>
        <time>2017-04-23T14:00:28Z</time>
      </trkpt>
      <trkpt lat="44.99158" lon="5.19866">
        <ele>506.27</ele>
        <time>2017-04-23T14:00:38Z</time>
      </trkpt>
      <trkpt lat="44.99156" lon="5.19869">
        <ele>506.75</ele>
        <time>2017-04-23T14:00:50Z</time>
      </trkpt>
      <trkpt lat="44.99156" lon="5.1987">
        <ele>505.79</ele>
        <time>2017-04-23T14:01:04Z</time>
      </trkpt>
      <trkpt lat="44.99155" lon="5.19874">
        <ele>501.46</ele>
        <time>2017-04-23T14:01:20Z</time>
      </trkpt>
      <trkpt lat="44.99155" lon="5.19874">
        <ele>505.31</ele>
        <time>2017-04-23T14:01:21Z</time>
      </trkpt>
      <trkpt lat="44.99156" lon="5.1987">
        <ele>505.31</ele>
        <time>2017-04-23T14:01:40Z</time>
      </trkpt>
      <trkpt lat="44.99155" lon="5.19865">
        <ele>506.27</ele>
        <time>2017-04-23T14:01:54Z</time>
      </trkpt>
      <trkpt lat="44.99156" lon="5.19865">
        <ele>504.83</ele>
        <time>2017-04-23T14:02:16Z</time>
      </trkpt>
      <trkpt lat="44.99156" lon="5.19865">
        <ele>497.62</ele>
        <time>2017-04-23T14:02:33Z</time>
      </trkpt>
      <trkpt lat="44.99156" lon="5.19865">
        <ele>512.04</ele>
        <time>2017-04-23T14:02:34Z</time>
      </trkpt>
      <trkpt lat="44.99156" lon="5.19865">
        <ele>506.27</ele>
        <time>2017-04-23T14:02:35Z</time>
      </trkpt>
      <trkpt lat="44.99156" lon="5.19865">
        <ele>506.27</ele>
        <time>2017-04-23T14:02:36Z</time>
      </trkpt>
      <trkpt lat="44.99156" lon="5.19865">
        <ele>511.08</ele>
        <time>2017-04-23T14:02:38Z</time>
      </trkpt>
      <trkpt lat="44.99156" lon="5.19865">
        <ele>505.79</ele>
        <time>2017-04-23T14:02:39Z</time>
      </trkpt>
      <trkpt lat="44.99156" lon="5.19865">
        <ele>500.98</ele>
        <time>2017-04-23T14:02:40Z</time>
      </trkpt>
      <trkpt lat="44.99156" lon="5.19865">
        <ele>507.71</ele>
        <time>2017-04-23T14:02:41Z</time>
      </trkpt>
      <trkpt lat="44.99156" lon="5.19865">
        <ele>511.56</ele>
        <time>2017-04-23T14:02:47Z</time>
      </trkpt>
      <trkpt lat="44.99156" lon="5.19865">
        <ele>506.27</ele>
        <time>2017-04-23T14:02:48Z</time>
      </trkpt>
      <trkpt lat="44.99156" lon="5.19867">
        <ele>504.35</ele>
        <time>2017-04-23T14:03:13Z</time>
      </trkpt>
      <trkpt lat="44.99156" lon="5.19867">
        <ele>508.19</ele>
        <time>2017-04-23T14:03:14Z</time>
      </trkpt>
      <trkpt lat="44.99156" lon="5.19867">
        <ele>516.37</ele>
        <time>2017-04-23T14:03:17Z</time>
      </trkpt>
      <trkpt lat="44.99156" lon="5.19867">
        <ele>505.79</ele>
        <time>2017-04-23T14:03:18Z</time>
      </trkpt>
      <trkpt lat="44.99156" lon="5.19867">
        <ele>498.1</ele>
        <time>2017-04-23T14:03:30Z</time>
      </trkpt>
    </trkseg>
  </trk>
</gpx>